<?xml version='1.0' encoding='UTF-8'?><gpx version="1.1" creator="JPX - https://github.com/jenetics/jpx" xmlns="http://www.topografix.com/GPX/1/1"><trk><trkseg><trkpt lat="45.6151126" lon="9.4192027"><ele>202.0</ele><time>2026-03-31T15:16:58.654Z</time></trkpt><trkpt lat="45.6151365" lon="9.4192917"><ele>202.0</ele><time>2026-03-31T15:17:01.653Z</time></trkpt><trkpt lat="45.615159" lon="9.4193928"><ele>202.0</ele><time>2026-03-31T15:17:05.654Z</time></trkpt><trkpt lat="45.6152243" lon="9.4193873"><ele>202.0</ele><time>2026-03-31T15:17:11.653Z</time></trkpt><trkpt lat="45.6152787" lon="9.4194393"><ele>202.0</ele><time>2026-03-31T15:17:17.653Z</time></trkpt><trkpt lat="45.6152102" lon="9.4193986"><ele>202.0</ele><time>2026-03-31T15:17:31.654Z</time></trkpt><trkpt lat="45.6151983" lon="9.419496"><ele>202.0</ele><time>2026-03-31T15:18:12.653Z</time></trkpt><trkpt lat="45.6152684" lon="9.4194655"><ele>201.99999999999997</ele><time>2026-03-31T15:18:42.653Z</time></trkpt><trkpt lat="45.6153163" lon="9.4195304"><ele>202.0</ele><time>2026-03-31T15:18:47.662Z</time></trkpt><trkpt lat="45.6152749" lon="9.4194388"><ele>202.0</ele><time>2026-03-31T15:18:53.653Z</time></trkpt><trkpt lat="45.6153176" lon="9.4195483"><ele>202.0</ele><time>2026-03-31T15:19:14.653Z</time></trkpt><trkpt lat="45.6153247" lon="9.4196498"><ele>201.99999999999997</ele><time>2026-03-31T15:19:16.653Z</time></trkpt><trkpt lat="45.6153533" lon="9.4198117"><ele>202.0</ele><time>2026-03-31T15:19:18.653Z</time></trkpt><trkpt lat="45.6154159" lon="9.4198297"><ele>202.39999999999998</ele><time>2026-03-31T15:19:19.653Z</time></trkpt><trkpt lat="45.6155308" lon="9.4198235"><ele>202.79999999999998</ele><time>2026-03-31T15:19:21.653Z</time></trkpt><trkpt lat="45.6155946" lon="9.4198214"><ele>203.2</ele><time>2026-03-31T15:19:22.653Z</time></trkpt><trkpt lat="45.6157157" lon="9.419824"><ele>203.6</ele><time>2026-03-31T15:19:24.653Z</time></trkpt><trkpt lat="45.6158299" lon="9.4198257"><ele>204.0</ele><time>2026-03-31T15:19:26.653Z</time></trkpt><trkpt lat="45.6159406" lon="9.4198242"><ele>204.0</ele><time>2026-03-31T15:19:28.653Z</time></trkpt><trkpt lat="45.6160543" lon="9.4198246"><ele>204.0</ele><time>2026-03-31T15:19:30.653Z</time></trkpt><trkpt lat="45.6161688" lon="9.4198228"><ele>204.0</ele><time>2026-03-31T15:19:32.653Z</time></trkpt><trkpt lat="45.6162914" lon="9.4198172"><ele>204.0</ele><time>2026-03-31T15:19:34.653Z</time></trkpt><trkpt lat="45.6164119" lon="9.4198256"><ele>204.25</ele><time>2026-03-31T15:19:36.653Z</time></trkpt><trkpt lat="45.6165346" lon="9.4198291"><ele>204.5</ele><time>2026-03-31T15:19:38.653Z</time></trkpt><trkpt lat="45.6166551" lon="9.4198403"><ele>204.75</ele><time>2026-03-31T15:19:40.654Z</time></trkpt><trkpt lat="45.6167671" lon="9.4198426"><ele>205.0</ele><time>2026-03-31T15:19:42.653Z</time></trkpt><trkpt lat="45.6168544" lon="9.4198942"><ele>204.99999999999997</ele><time>2026-03-31T15:19:44.653Z</time></trkpt><trkpt lat="45.6168863" lon="9.4200698"><ele>205.0</ele><time>2026-03-31T15:19:46.653Z</time></trkpt><trkpt lat="45.616887" lon="9.4201785"><ele>205.0</ele><time>2026-03-31T15:19:47.654Z</time></trkpt><trkpt lat="45.6168931" lon="9.4202817"><ele>205.0</ele><time>2026-03-31T15:19:48.653Z</time></trkpt><trkpt lat="45.6168965" lon="9.4203913"><ele>204.99999999999997</ele><time>2026-03-31T15:19:49.653Z</time></trkpt><trkpt lat="45.6168969" lon="9.4204913"><ele>205.0</ele><time>2026-03-31T15:19:50.653Z</time></trkpt><trkpt lat="45.6169027" lon="9.4205964"><ele>204.99999999999997</ele><time>2026-03-31T15:19:51.653Z</time></trkpt><trkpt lat="45.616907" lon="9.4207085"><ele>205.0</ele><time>2026-03-31T15:19:52.654Z</time></trkpt><trkpt lat="45.6169108" lon="9.4208197"><ele>205.0</ele><time>2026-03-31T15:19:53.653Z</time></trkpt><trkpt lat="45.6169124" lon="9.4209353"><ele>205.0</ele><time>2026-03-31T15:19:54.653Z</time></trkpt><trkpt lat="45.6169183" lon="9.4210461"><ele>204.99999999999997</ele><time>2026-03-31T15:19:55.653Z</time></trkpt><trkpt lat="45.6169205" lon="9.4211597"><ele>205.0</ele><time>2026-03-31T15:19:56.654Z</time></trkpt><trkpt lat="45.6169239" lon="9.4212611"><ele>205.2</ele><time>2026-03-31T15:19:57.653Z</time></trkpt><trkpt lat="45.6169243" lon="9.4214277"><ele>205.4</ele><time>2026-03-31T15:19:59.653Z</time></trkpt><trkpt lat="45.616973" lon="9.4215252"><ele>205.60000000000002</ele><time>2026-03-31T15:20:01.654Z</time></trkpt><trkpt lat="45.6170702" lon="9.4215409"><ele>205.8</ele><time>2026-03-31T15:20:03.653Z</time></trkpt><trkpt lat="45.6171862" lon="9.421547"><ele>206.0</ele><time>2026-03-31T15:20:05.653Z</time></trkpt><trkpt lat="45.6172536" lon="9.4215474"><ele>206.57142857142856</ele><time>2026-03-31T15:20:06.654Z</time></trkpt><trkpt lat="45.6173263" lon="9.4215464"><ele>207.14285714285714</ele><time>2026-03-31T15:20:07.654Z</time></trkpt><trkpt lat="45.6174009" lon="9.4215446"><ele>207.71428571428572</ele><time>2026-03-31T15:20:08.653Z</time></trkpt><trkpt lat="45.6174721" lon="9.4215413"><ele>208.28571428571428</ele><time>2026-03-31T15:20:09.653Z</time></trkpt><trkpt lat="45.6175431" lon="9.4215409"><ele>208.85714285714286</ele><time>2026-03-31T15:20:10.653Z</time></trkpt><trkpt lat="45.6176192" lon="9.4215362"><ele>209.42857142857142</ele><time>2026-03-31T15:20:11.653Z</time></trkpt><trkpt lat="45.6176919" lon="9.4215284"><ele>210.0</ele><time>2026-03-31T15:20:12.653Z</time></trkpt><trkpt lat="45.6177657" lon="9.421519"><ele>209.66666666666666</ele><time>2026-03-31T15:20:13.653Z</time></trkpt><trkpt lat="45.6178401" lon="9.4215172"><ele>209.33333333333331</ele><time>2026-03-31T15:20:14.653Z</time></trkpt><trkpt lat="45.6179171" lon="9.4215171"><ele>209.0</ele><time>2026-03-31T15:20:15.654Z</time></trkpt><trkpt lat="45.6179884" lon="9.421516"><ele>208.66666666666666</ele><time>2026-03-31T15:20:16.653Z</time></trkpt><trkpt lat="45.6180616" lon="9.4215269"><ele>208.33333333333331</ele><time>2026-03-31T15:20:17.653Z</time></trkpt><trkpt lat="45.6181241" lon="9.4215433"><ele>208.0</ele><time>2026-03-31T15:20:18.654Z</time></trkpt><trkpt lat="45.6182291" lon="9.4215378"><ele>207.99999999999997</ele><time>2026-03-31T15:20:20.653Z</time></trkpt><trkpt lat="45.6182848" lon="9.4214179"><ele>208.0</ele><time>2026-03-31T15:20:22.653Z</time></trkpt><trkpt lat="45.618295" lon="9.4213205"><ele>208.0</ele><time>2026-03-31T15:20:23.653Z</time></trkpt><trkpt lat="45.6183008" lon="9.4212077"><ele>208.0</ele><time>2026-03-31T15:20:24.653Z</time></trkpt><trkpt lat="45.6183047" lon="9.4210812"><ele>207.99999999999997</ele><time>2026-03-31T15:20:25.653Z</time></trkpt><trkpt lat="45.6183122" lon="9.4209394"><ele>208.0</ele><time>2026-03-31T15:20:26.653Z</time></trkpt><trkpt lat="45.6183165" lon="9.42081"><ele>207.99999999999997</ele><time>2026-03-31T15:20:27.653Z</time></trkpt><trkpt lat="45.6183189" lon="9.4206867"><ele>208.0</ele><time>2026-03-31T15:20:28.654Z</time></trkpt><trkpt lat="45.6183237" lon="9.4205673"><ele>208.0</ele><time>2026-03-31T15:20:29.653Z</time></trkpt><trkpt lat="45.6183273" lon="9.4204532"><ele>208.0</ele><time>2026-03-31T15:20:30.654Z</time></trkpt><trkpt lat="45.6183308" lon="9.4203463"><ele>207.99999999999997</ele><time>2026-03-31T15:20:31.653Z</time></trkpt><trkpt lat="45.6183355" lon="9.4202405"><ele>208.0</ele><time>2026-03-31T15:20:32.654Z</time></trkpt><trkpt lat="45.6183406" lon="9.4201349"><ele>207.8</ele><time>2026-03-31T15:20:33.653Z</time></trkpt><trkpt lat="45.6183456" lon="9.4200333"><ele>207.60000000000002</ele><time>2026-03-31T15:20:34.653Z</time></trkpt><trkpt lat="45.6183456" lon="9.419891"><ele>207.39999999999998</ele><time>2026-03-31T15:20:36.653Z</time></trkpt><trkpt lat="45.6182985" lon="9.4197935"><ele>207.2</ele><time>2026-03-31T15:20:39.653Z</time></trkpt><trkpt lat="45.6181662" lon="9.4197868"><ele>207.0</ele><time>2026-03-31T15:20:41.653Z</time></trkpt><trkpt lat="45.6180815" lon="9.4197899"><ele>207.0</ele><time>2026-03-31T15:20:42.654Z</time></trkpt><trkpt lat="45.6179885" lon="9.4197863"><ele>207.0</ele><time>2026-03-31T15:20:43.653Z</time></trkpt><trkpt lat="45.6178911" lon="9.419792"><ele>207.0</ele><time>2026-03-31T15:20:44.654Z</time></trkpt><trkpt lat="45.6178033" lon="9.4197993"><ele>207.0</ele><time>2026-03-31T15:20:45.653Z</time></trkpt><trkpt lat="45.6177107" lon="9.4198028"><ele>207.0</ele><time>2026-03-31T15:20:46.653Z</time></trkpt><trkpt lat="45.6176264" lon="9.4198049"><ele>206.83333333333334</ele><time>2026-03-31T15:20:47.653Z</time></trkpt><trkpt lat="45.6175456" lon="9.4198079"><ele>206.66666666666669</ele><time>2026-03-31T15:20:48.653Z</time></trkpt><trkpt lat="45.6174715" lon="9.4198088"><ele>206.5</ele><time>2026-03-31T15:20:49.654Z</time></trkpt><trkpt lat="45.6173962" lon="9.4198095"><ele>206.33333333333334</ele><time>2026-03-31T15:20:50.653Z</time></trkpt><trkpt lat="45.6173205" lon="9.4198131"><ele>206.16666666666669</ele><time>2026-03-31T15:20:51.653Z</time></trkpt><trkpt lat="45.6172368" lon="9.4198199"><ele>206.0</ele><time>2026-03-31T15:20:52.654Z</time></trkpt><trkpt lat="45.6171682" lon="9.4198207"><ele>206.0</ele><time>2026-03-31T15:20:53.653Z</time></trkpt><trkpt lat="45.6170493" lon="9.419823"><ele>206.0</ele><time>2026-03-31T15:20:55.654Z</time></trkpt><trkpt lat="45.6169512" lon="9.4198123"><ele>206.0</ele><time>2026-03-31T15:20:57.654Z</time></trkpt><trkpt lat="45.6168683" lon="9.4197305"><ele>206.0</ele><time>2026-03-31T15:20:59.653Z</time></trkpt><trkpt lat="45.6168519" lon="9.4195548"><ele>206.0</ele><time>2026-03-31T15:21:01.654Z</time></trkpt><trkpt lat="45.6168551" lon="9.4194444"><ele>205.83333333333334</ele><time>2026-03-31T15:21:02.654Z</time></trkpt><trkpt lat="45.6168611" lon="9.4193261"><ele>205.66666666666669</ele><time>2026-03-31T15:21:03.654Z</time></trkpt><trkpt lat="45.616866" lon="9.4191984"><ele>205.5</ele><time>2026-03-31T15:21:04.653Z</time></trkpt><trkpt lat="45.6168668" lon="9.4190719"><ele>205.33333333333331</ele><time>2026-03-31T15:21:05.653Z</time></trkpt><trkpt lat="45.6168647" lon="9.4189604"><ele>205.16666666666666</ele><time>2026-03-31T15:21:06.653Z</time></trkpt><trkpt lat="45.61687" lon="9.4188603"><ele>205.0</ele><time>2026-03-31T15:21:07.653Z</time></trkpt><trkpt lat="45.6168748" lon="9.4187652"><ele>204.85714285714286</ele><time>2026-03-31T15:21:08.653Z</time></trkpt><trkpt lat="45.6168815" lon="9.418673"><ele>204.7142857142857</ele><time>2026-03-31T15:21:09.654Z</time></trkpt><trkpt lat="45.6168905" lon="9.4185754"><ele>204.57142857142856</ele><time>2026-03-31T15:21:10.653Z</time></trkpt><trkpt lat="45.6169001" lon="9.4184797"><ele>204.42857142857144</ele><time>2026-03-31T15:21:11.654Z</time></trkpt><trkpt lat="45.6169089" lon="9.4183858"><ele>204.28571428571428</ele><time>2026-03-31T15:21:12.653Z</time></trkpt><trkpt lat="45.6169161" lon="9.4182919"><ele>204.14285714285714</ele><time>2026-03-31T15:21:13.653Z</time></trkpt><trkpt lat="45.6169314" lon="9.4181302"><ele>204.0</ele><time>2026-03-31T15:21:15.653Z</time></trkpt><trkpt lat="45.6169454" lon="9.41804"><ele>204.0</ele><time>2026-03-31T15:21:16.654Z</time></trkpt><trkpt lat="45.6169619" lon="9.4179292"><ele>204.0</ele><time>2026-03-31T15:21:17.653Z</time></trkpt><trkpt lat="45.6169739" lon="9.4178045"><ele>204.0</ele><time>2026-03-31T15:21:18.654Z</time></trkpt><trkpt lat="45.6169822" lon="9.4176894"><ele>204.0</ele><time>2026-03-31T15:21:19.653Z</time></trkpt><trkpt lat="45.6169908" lon="9.4175741"><ele>204.0</ele><time>2026-03-31T15:21:20.653Z</time></trkpt><trkpt lat="45.6170013" lon="9.4174622"><ele>204.0</ele><time>2026-03-31T15:21:21.653Z</time></trkpt><trkpt lat="45.6170144" lon="9.4173445"><ele>204.33333333333334</ele><time>2026-03-31T15:21:22.653Z</time></trkpt><trkpt lat="45.6170272" lon="9.4172239"><ele>204.66666666666669</ele><time>2026-03-31T15:21:23.654Z</time></trkpt><trkpt lat="45.6170413" lon="9.417097"><ele>205.0</ele><time>2026-03-31T15:21:24.654Z</time></trkpt><trkpt lat="45.6170465" lon="9.4169655"><ele>205.33333333333334</ele><time>2026-03-31T15:21:25.653Z</time></trkpt><trkpt lat="45.6170601" lon="9.4168402"><ele>205.66666666666669</ele><time>2026-03-31T15:21:26.653Z</time></trkpt><trkpt lat="45.6170689" lon="9.4167208"><ele>206.0</ele><time>2026-03-31T15:21:27.653Z</time></trkpt><trkpt lat="45.6170837" lon="9.4166021"><ele>206.00000000000003</ele><time>2026-03-31T15:21:28.654Z</time></trkpt><trkpt lat="45.6170991" lon="9.4164825"><ele>206.0</ele><time>2026-03-31T15:21:29.653Z</time></trkpt><trkpt lat="45.6171116" lon="9.41637"><ele>206.0</ele><time>2026-03-31T15:21:30.653Z</time></trkpt><trkpt lat="45.6171231" lon="9.4162566"><ele>206.0</ele><time>2026-03-31T15:21:31.653Z</time></trkpt><trkpt lat="45.6171376" lon="9.4161429"><ele>206.00000000000003</ele><time>2026-03-31T15:21:32.653Z</time></trkpt><trkpt lat="45.6171507" lon="9.416027"><ele>206.0</ele><time>2026-03-31T15:21:33.654Z</time></trkpt><trkpt lat="45.6171612" lon="9.4159174"><ele>205.83333333333334</ele><time>2026-03-31T15:21:34.654Z</time></trkpt><trkpt lat="45.6171727" lon="9.4158183"><ele>205.66666666666669</ele><time>2026-03-31T15:21:35.653Z</time></trkpt><trkpt lat="45.6171857" lon="9.415727"><ele>205.5</ele><time>2026-03-31T15:21:36.653Z</time></trkpt><trkpt lat="45.6171968" lon="9.415636"><ele>205.33333333333331</ele><time>2026-03-31T15:21:37.653Z</time></trkpt><trkpt lat="45.6171879" lon="9.4154832"><ele>205.16666666666666</ele><time>2026-03-31T15:21:39.654Z</time></trkpt><trkpt lat="45.6171267" lon="9.4154214"><ele>205.0</ele><time>2026-03-31T15:21:41.653Z</time></trkpt><trkpt lat="45.617059" lon="9.4154074"><ele>205.0</ele><time>2026-03-31T15:21:42.653Z</time></trkpt><trkpt lat="45.6169754" lon="9.4153869"><ele>205.0</ele><time>2026-03-31T15:21:43.654Z</time></trkpt><trkpt lat="45.6168831" lon="9.4153688"><ele>205.0</ele><time>2026-03-31T15:21:44.654Z</time></trkpt><trkpt lat="45.6167912" lon="9.4153453"><ele>205.0</ele><time>2026-03-31T15:21:45.653Z</time></trkpt><trkpt lat="45.6166972" lon="9.4153262"><ele>205.0</ele><time>2026-03-31T15:21:46.653Z</time></trkpt><trkpt lat="45.6166066" lon="9.4153098"><ele>205.0</ele><time>2026-03-31T15:21:47.653Z</time></trkpt><trkpt lat="45.6165184" lon="9.415286"><ele>205.0</ele><time>2026-03-31T15:21:48.653Z</time></trkpt><trkpt lat="45.6164312" lon="9.4152648"><ele>205.0</ele><time>2026-03-31T15:21:49.653Z</time></trkpt><trkpt lat="45.616339" lon="9.4152508"><ele>205.0</ele><time>2026-03-31T15:21:50.654Z</time></trkpt><trkpt lat="45.6162484" lon="9.4152352"><ele>205.0</ele><time>2026-03-31T15:21:51.654Z</time></trkpt><trkpt lat="45.6161469" lon="9.4152159"><ele>204.66666666666666</ele><time>2026-03-31T15:21:52.654Z</time></trkpt><trkpt lat="45.6160534" lon="9.4151973"><ele>204.33333333333331</ele><time>2026-03-31T15:21:53.653Z</time></trkpt><trkpt lat="45.6159689" lon="9.4151747"><ele>204.0</ele><time>2026-03-31T15:21:54.654Z</time></trkpt><trkpt lat="45.6158759" lon="9.4151528"><ele>203.66666666666669</ele><time>2026-03-31T15:21:55.654Z</time></trkpt><trkpt lat="45.6158018" lon="9.4151399"><ele>203.33333333333334</ele><time>2026-03-31T15:21:56.654Z</time></trkpt><trkpt lat="45.6157305" lon="9.4151218"><ele>203.0</ele><time>2026-03-31T15:21:57.653Z</time></trkpt><trkpt lat="45.6156514" lon="9.4151006"><ele>203.00000000000003</ele><time>2026-03-31T15:21:59.653Z</time></trkpt><trkpt lat="45.6156222" lon="9.4150053"><ele>203.0</ele><time>2026-03-31T15:22:02.653Z</time></trkpt><trkpt lat="45.6156209" lon="9.4148384"><ele>203.0</ele><time>2026-03-31T15:22:04.653Z</time></trkpt><trkpt lat="45.6156267" lon="9.4147361"><ele>203.0</ele><time>2026-03-31T15:22:05.653Z</time></trkpt><trkpt lat="45.615633" lon="9.4146241"><ele>203.00000000000003</ele><time>2026-03-31T15:22:06.653Z</time></trkpt><trkpt lat="45.6156417" lon="9.4144998"><ele>203.0</ele><time>2026-03-31T15:22:07.653Z</time></trkpt><trkpt lat="45.6156445" lon="9.4143684"><ele>203.0</ele><time>2026-03-31T15:22:08.653Z</time></trkpt><trkpt lat="45.6156452" lon="9.4142336"><ele>203.0</ele><time>2026-03-31T15:22:09.653Z</time></trkpt><trkpt lat="45.6156439" lon="9.4140909"><ele>203.0</ele><time>2026-03-31T15:22:10.654Z</time></trkpt><trkpt lat="45.6156448" lon="9.4139398"><ele>203.0</ele><time>2026-03-31T15:22:11.653Z</time></trkpt><trkpt lat="45.6156489" lon="9.4137876"><ele>203.0</ele><time>2026-03-31T15:22:12.654Z</time></trkpt><trkpt lat="45.6156498" lon="9.4136355"><ele>203.0</ele><time>2026-03-31T15:22:13.653Z</time></trkpt><trkpt lat="45.615651" lon="9.4134853"><ele>203.0</ele><time>2026-03-31T15:22:14.653Z</time></trkpt><trkpt lat="45.6156521" lon="9.4133335"><ele>203.0</ele><time>2026-03-31T15:22:15.653Z</time></trkpt><trkpt lat="45.61566" lon="9.4131804"><ele>203.0</ele><time>2026-03-31T15:22:16.653Z</time></trkpt><trkpt lat="45.6156607" lon="9.4130331"><ele>203.0</ele><time>2026-03-31T15:22:17.654Z</time></trkpt><trkpt lat="45.6156652" lon="9.4128943"><ele>202.83333333333334</ele><time>2026-03-31T15:22:18.653Z</time></trkpt><trkpt lat="45.6156674" lon="9.4127702"><ele>202.66666666666669</ele><time>2026-03-31T15:22:19.653Z</time></trkpt><trkpt lat="45.6156695" lon="9.4126697"><ele>202.5</ele><time>2026-03-31T15:22:20.653Z</time></trkpt><trkpt lat="45.6156761" lon="9.4125214"><ele>202.33333333333331</ele><time>2026-03-31T15:22:22.653Z</time></trkpt><trkpt lat="45.6156746" lon="9.4124249"><ele>202.16666666666666</ele><time>2026-03-31T15:22:24.654Z</time></trkpt><trkpt lat="45.6155942" lon="9.4123554"><ele>202.0</ele><time>2026-03-31T15:22:26.654Z</time></trkpt><trkpt lat="45.6155269" lon="9.4123587"><ele>202.0</ele><time>2026-03-31T15:22:27.653Z</time></trkpt><trkpt lat="45.6154494" lon="9.4123596"><ele>202.0</ele><time>2026-03-31T15:22:28.654Z</time></trkpt><trkpt lat="45.6153673" lon="9.4123611"><ele>202.0</ele><time>2026-03-31T15:22:29.653Z</time></trkpt><trkpt lat="45.6152822" lon="9.4123584"><ele>202.0</ele><time>2026-03-31T15:22:30.654Z</time></trkpt><trkpt lat="45.6151676" lon="9.4123216"><ele>202.0</ele><time>2026-03-31T15:22:32.653Z</time></trkpt><trkpt lat="45.6150985" lon="9.4121738"><ele>201.83333333333331</ele><time>2026-03-31T15:22:34.653Z</time></trkpt><trkpt lat="45.615082" lon="9.4120704"><ele>201.66666666666666</ele><time>2026-03-31T15:22:35.653Z</time></trkpt><trkpt lat="45.6150735" lon="9.4119555"><ele>201.5</ele><time>2026-03-31T15:22:36.653Z</time></trkpt><trkpt lat="45.6150724" lon="9.4118385"><ele>201.33333333333331</ele><time>2026-03-31T15:22:37.654Z</time></trkpt><trkpt lat="45.6150711" lon="9.4117236"><ele>201.16666666666666</ele><time>2026-03-31T15:22:38.653Z</time></trkpt><trkpt lat="45.6150768" lon="9.4116146"><ele>201.0</ele><time>2026-03-31T15:22:39.653Z</time></trkpt><trkpt lat="45.6150722" lon="9.4115246"><ele>201.0</ele><time>2026-03-31T15:22:40.653Z</time></trkpt><trkpt lat="45.6149896" lon="9.4113927"><ele>201.0</ele><time>2026-03-31T15:22:42.654Z</time></trkpt><trkpt lat="45.6149054" lon="9.4113669"><ele>201.0</ele><time>2026-03-31T15:22:43.653Z</time></trkpt><trkpt lat="45.6148121" lon="9.4113567"><ele>201.0</ele><time>2026-03-31T15:22:44.653Z</time></trkpt><trkpt lat="45.6147109" lon="9.4113569"><ele>201.0</ele><time>2026-03-31T15:22:45.653Z</time></trkpt><trkpt lat="45.6146061" lon="9.4113538"><ele>201.0</ele><time>2026-03-31T15:22:46.654Z</time></trkpt><trkpt lat="45.6144931" lon="9.4113546"><ele>201.0</ele><time>2026-03-31T15:22:47.654Z</time></trkpt><trkpt lat="45.6143953" lon="9.4113508"><ele>201.0</ele><time>2026-03-31T15:22:48.654Z</time></trkpt><trkpt lat="45.6143029" lon="9.4113431"><ele>201.0</ele><time>2026-03-31T15:22:49.653Z</time></trkpt><trkpt lat="45.6142161" lon="9.411327"><ele>201.0</ele><time>2026-03-31T15:22:50.653Z</time></trkpt><trkpt lat="45.6141352" lon="9.4112924"><ele>200.83333333333334</ele><time>2026-03-31T15:22:51.653Z</time></trkpt><trkpt lat="45.6140689" lon="9.4112535"><ele>200.66666666666669</ele><time>2026-03-31T15:22:52.653Z</time></trkpt><trkpt lat="45.6139888" lon="9.4111956"><ele>200.5</ele><time>2026-03-31T15:22:54.654Z</time></trkpt><trkpt lat="45.6138949" lon="9.4111149"><ele>200.33333333333334</ele><time>2026-03-31T15:22:58.653Z</time></trkpt><trkpt lat="45.6138379" lon="9.4110711"><ele>200.16666666666669</ele><time>2026-03-31T15:22:59.654Z</time></trkpt><trkpt lat="45.613768" lon="9.4110367"><ele>200.0</ele><time>2026-03-31T15:23:00.653Z</time></trkpt><trkpt lat="45.6137022" lon="9.4110256"><ele>199.85714285714286</ele><time>2026-03-31T15:23:01.654Z</time></trkpt><trkpt lat="45.6136389" lon="9.4110462"><ele>199.71428571428572</ele><time>2026-03-31T15:23:02.653Z</time></trkpt><trkpt lat="45.6135803" lon="9.4110979"><ele>199.57142857142856</ele><time>2026-03-31T15:23:03.654Z</time></trkpt><trkpt lat="45.6135386" lon="9.4111822"><ele>199.42857142857144</ele><time>2026-03-31T15:23:04.654Z</time></trkpt><trkpt lat="45.6135198" lon="9.4112844"><ele>199.28571428571428</ele><time>2026-03-31T15:23:05.654Z</time></trkpt><trkpt lat="45.6135263" lon="9.411397"><ele>199.14285714285714</ele><time>2026-03-31T15:23:06.654Z</time></trkpt><trkpt lat="45.6135537" lon="9.4115169"><ele>199.0</ele><time>2026-03-31T15:23:07.654Z</time></trkpt><trkpt lat="45.6135851" lon="9.411643"><ele>199.0</ele><time>2026-03-31T15:23:08.654Z</time></trkpt><trkpt lat="45.6136088" lon="9.4117754"><ele>199.0</ele><time>2026-03-31T15:23:09.654Z</time></trkpt><trkpt lat="45.6136224" lon="9.4119175"><ele>199.0</ele><time>2026-03-31T15:23:10.654Z</time></trkpt><trkpt lat="45.6136186" lon="9.4120648"><ele>199.0</ele><time>2026-03-31T15:23:11.653Z</time></trkpt><trkpt lat="45.6136039" lon="9.412214"><ele>199.0</ele><time>2026-03-31T15:23:12.654Z</time></trkpt><trkpt lat="45.6135895" lon="9.4123725"><ele>199.25</ele><time>2026-03-31T15:23:13.653Z</time></trkpt><trkpt lat="45.6135707" lon="9.4125331"><ele>199.5</ele><time>2026-03-31T15:23:14.654Z</time></trkpt><trkpt lat="45.613555" lon="9.4126921"><ele>199.75</ele><time>2026-03-31T15:23:15.653Z</time></trkpt><trkpt lat="45.6135393" lon="9.4128531"><ele>200.0</ele><time>2026-03-31T15:23:16.653Z</time></trkpt><trkpt lat="45.6135241" lon="9.413019"><ele>200.0</ele><time>2026-03-31T15:23:17.653Z</time></trkpt><trkpt lat="45.6135048" lon="9.4131859"><ele>200.0</ele><time>2026-03-31T15:23:18.653Z</time></trkpt><trkpt lat="45.613485" lon="9.4133508"><ele>200.0</ele><time>2026-03-31T15:23:19.654Z</time></trkpt><trkpt lat="45.6134674" lon="9.4135204"><ele>200.0</ele><time>2026-03-31T15:23:20.653Z</time></trkpt><trkpt lat="45.6134506" lon="9.4136891"><ele>200.0</ele><time>2026-03-31T15:23:21.653Z</time></trkpt><trkpt lat="45.6134354" lon="9.4138567"><ele>200.0</ele><time>2026-03-31T15:23:22.653Z</time></trkpt><trkpt lat="45.6134156" lon="9.4140258"><ele>200.0</ele><time>2026-03-31T15:23:23.653Z</time></trkpt><trkpt lat="45.6133982" lon="9.414195"><ele>200.0</ele><time>2026-03-31T15:23:24.654Z</time></trkpt><trkpt lat="45.6133786" lon="9.4143627"><ele>200.0</ele><time>2026-03-31T15:23:25.653Z</time></trkpt><trkpt lat="45.6133626" lon="9.4145341"><ele>200.0</ele><time>2026-03-31T15:23:26.653Z</time></trkpt><trkpt lat="45.6133464" lon="9.4147014"><ele>200.0</ele><time>2026-03-31T15:23:27.653Z</time></trkpt><trkpt lat="45.6133324" lon="9.4148541"><ele>200.0</ele><time>2026-03-31T15:23:28.653Z</time></trkpt><trkpt lat="45.6133189" lon="9.4149977"><ele>200.0</ele><time>2026-03-31T15:23:29.653Z</time></trkpt><trkpt lat="45.613304" lon="9.4151298"><ele>200.00000000000003</ele><time>2026-03-31T15:23:30.654Z</time></trkpt><trkpt lat="45.6132898" lon="9.4152413"><ele>200.0</ele><time>2026-03-31T15:23:31.653Z</time></trkpt><trkpt lat="45.613273" lon="9.4153353"><ele>200.0</ele><time>2026-03-31T15:23:32.654Z</time></trkpt><trkpt lat="45.6132554" lon="9.4154815"><ele>200.0</ele><time>2026-03-31T15:23:34.653Z</time></trkpt><trkpt lat="45.6132413" lon="9.4155751"><ele>200.00000000000003</ele><time>2026-03-31T15:23:36.654Z</time></trkpt><trkpt lat="45.6132232" lon="9.4156934"><ele>200.0</ele><time>2026-03-31T15:23:40.654Z</time></trkpt><trkpt lat="45.6132086" lon="9.4157943"><ele>200.00000000000003</ele><time>2026-03-31T15:23:42.653Z</time></trkpt><trkpt lat="45.6131989" lon="9.4159151"><ele>200.0</ele><time>2026-03-31T15:23:44.653Z</time></trkpt><trkpt lat="45.6131851" lon="9.416038"><ele>200.0</ele><time>2026-03-31T15:23:46.653Z</time></trkpt><trkpt lat="45.6131699" lon="9.4161661"><ele>200.0</ele><time>2026-03-31T15:23:48.653Z</time></trkpt><trkpt lat="45.6131571" lon="9.4163127"><ele>200.00000000000003</ele><time>2026-03-31T15:23:50.653Z</time></trkpt><trkpt lat="45.6131473" lon="9.4164029"><ele>200.0</ele><time>2026-03-31T15:23:51.653Z</time></trkpt><trkpt lat="45.6131415" lon="9.4164956"><ele>200.00000000000003</ele><time>2026-03-31T15:23:52.654Z</time></trkpt><trkpt lat="45.6131285" lon="9.4166583"><ele>200.0</ele><time>2026-03-31T15:23:54.653Z</time></trkpt><trkpt lat="45.6130967" lon="9.4167567"><ele>200.0</ele><time>2026-03-31T15:23:56.654Z</time></trkpt><trkpt lat="45.6130151" lon="9.4167321"><ele>200.0</ele><time>2026-03-31T15:23:58.653Z</time></trkpt><trkpt lat="45.6129629" lon="9.41661"><ele>200.00000000000003</ele><time>2026-03-31T15:24:00.653Z</time></trkpt><trkpt lat="45.6129498" lon="9.4165201"><ele>200.0</ele><time>2026-03-31T15:24:01.653Z</time></trkpt><trkpt lat="45.6129423" lon="9.4164204"><ele>200.00000000000003</ele><time>2026-03-31T15:24:02.653Z</time></trkpt><trkpt lat="45.6129346" lon="9.4163057"><ele>200.0</ele><time>2026-03-31T15:24:03.654Z</time></trkpt><trkpt lat="45.6129311" lon="9.4161792"><ele>200.0</ele><time>2026-03-31T15:24:04.654Z</time></trkpt><trkpt lat="45.6129255" lon="9.4160463"><ele>200.0</ele><time>2026-03-31T15:24:05.653Z</time></trkpt><trkpt lat="45.612924" lon="9.4159118"><ele>200.00000000000003</ele><time>2026-03-31T15:24:06.653Z</time></trkpt><trkpt lat="45.6129216" lon="9.4157789"><ele>200.0</ele><time>2026-03-31T15:24:07.653Z</time></trkpt><trkpt lat="45.6129192" lon="9.4156432"><ele>200.0</ele><time>2026-03-31T15:24:08.654Z</time></trkpt><trkpt lat="45.6129185" lon="9.4155053"><ele>200.0</ele><time>2026-03-31T15:24:09.654Z</time></trkpt><trkpt lat="45.6129167" lon="9.4153646"><ele>200.0</ele><time>2026-03-31T15:24:10.654Z</time></trkpt><trkpt lat="45.6129188" lon="9.4152253"><ele>200.0</ele><time>2026-03-31T15:24:11.654Z</time></trkpt><trkpt lat="45.6129159" lon="9.4150865"><ele>200.0</ele><time>2026-03-31T15:24:12.654Z</time></trkpt><trkpt lat="45.6129156" lon="9.4149575"><ele>200.0</ele><time>2026-03-31T15:24:13.654Z</time></trkpt><trkpt lat="45.6129174" lon="9.4148261"><ele>200.0</ele><time>2026-03-31T15:24:14.653Z</time></trkpt><trkpt lat="45.6129203" lon="9.4146973"><ele>200.0</ele><time>2026-03-31T15:24:15.653Z</time></trkpt><trkpt lat="45.6129202" lon="9.4145751"><ele>200.0</ele><time>2026-03-31T15:24:16.654Z</time></trkpt><trkpt lat="45.6129262" lon="9.4144462"><ele>200.0</ele><time>2026-03-31T15:24:17.654Z</time></trkpt><trkpt lat="45.61293" lon="9.4143104"><ele>200.0</ele><time>2026-03-31T15:24:18.654Z</time></trkpt><trkpt lat="45.6129347" lon="9.4141715"><ele>200.0</ele><time>2026-03-31T15:24:19.653Z</time></trkpt><trkpt lat="45.6129437" lon="9.4140329"><ele>200.0</ele><time>2026-03-31T15:24:20.653Z</time></trkpt><trkpt lat="45.6129497" lon="9.4138945"><ele>200.0</ele><time>2026-03-31T15:24:21.653Z</time></trkpt><trkpt lat="45.6129508" lon="9.4137614"><ele>200.0</ele><time>2026-03-31T15:24:22.653Z</time></trkpt><trkpt lat="45.6129578" lon="9.4136277"><ele>200.0</ele><time>2026-03-31T15:24:23.654Z</time></trkpt><trkpt lat="45.612965" lon="9.4134918"><ele>200.0</ele><time>2026-03-31T15:24:24.653Z</time></trkpt><trkpt lat="45.6129682" lon="9.4133524"><ele>200.0</ele><time>2026-03-31T15:24:25.653Z</time></trkpt><trkpt lat="45.6129778" lon="9.413225"><ele>200.0</ele><time>2026-03-31T15:24:26.654Z</time></trkpt><trkpt lat="45.6129785" lon="9.4130894"><ele>200.0</ele><time>2026-03-31T15:24:27.653Z</time></trkpt><trkpt lat="45.61298" lon="9.4129499"><ele>200.2</ele><time>2026-03-31T15:24:28.653Z</time></trkpt><trkpt lat="45.6129824" lon="9.4128142"><ele>200.4</ele><time>2026-03-31T15:24:29.653Z</time></trkpt><trkpt lat="45.6129875" lon="9.4126784"><ele>200.60000000000002</ele><time>2026-03-31T15:24:30.653Z</time></trkpt><trkpt lat="45.6129857" lon="9.4125437"><ele>200.8</ele><time>2026-03-31T15:24:31.653Z</time></trkpt><trkpt lat="45.6129822" lon="9.4124198"><ele>201.0</ele><time>2026-03-31T15:24:32.654Z</time></trkpt><trkpt lat="45.6129866" lon="9.4122974"><ele>201.0</ele><time>2026-03-31T15:24:33.653Z</time></trkpt><trkpt lat="45.6129908" lon="9.4121719"><ele>201.0</ele><time>2026-03-31T15:24:34.653Z</time></trkpt><trkpt lat="45.6129854" lon="9.4120519"><ele>201.0</ele><time>2026-03-31T15:24:35.654Z</time></trkpt><trkpt lat="45.6129773" lon="9.4119348"><ele>201.0</ele><time>2026-03-31T15:24:36.653Z</time></trkpt><trkpt lat="45.6129658" lon="9.4118121"><ele>201.0</ele><time>2026-03-31T15:24:37.653Z</time></trkpt><trkpt lat="45.6129454" lon="9.4116877"><ele>201.0</ele><time>2026-03-31T15:24:38.653Z</time></trkpt><trkpt lat="45.6129146" lon="9.4115701"><ele>200.66666666666666</ele><time>2026-03-31T15:24:39.653Z</time></trkpt><trkpt lat="45.6128726" lon="9.4114592"><ele>200.33333333333331</ele><time>2026-03-31T15:24:40.654Z</time></trkpt><trkpt lat="45.61282" lon="9.4113524"><ele>200.0</ele><time>2026-03-31T15:24:41.653Z</time></trkpt><trkpt lat="45.6127677" lon="9.4112579"><ele>199.66666666666666</ele><time>2026-03-31T15:24:42.654Z</time></trkpt><trkpt lat="45.6127144" lon="9.4111631"><ele>199.33333333333331</ele><time>2026-03-31T15:24:43.653Z</time></trkpt><trkpt lat="45.6126641" lon="9.411063"><ele>199.0</ele><time>2026-03-31T15:24:44.653Z</time></trkpt><trkpt lat="45.6126315" lon="9.410953"><ele>198.79999999999998</ele><time>2026-03-31T15:24:45.653Z</time></trkpt><trkpt lat="45.6126032" lon="9.4108395"><ele>198.6</ele><time>2026-03-31T15:24:46.654Z</time></trkpt><trkpt lat="45.612585" lon="9.4107178"><ele>198.4</ele><time>2026-03-31T15:24:47.654Z</time></trkpt><trkpt lat="45.6125737" lon="9.4105879"><ele>198.2</ele><time>2026-03-31T15:24:48.653Z</time></trkpt><trkpt lat="45.6125624" lon="9.4104523"><ele>198.0</ele><time>2026-03-31T15:24:49.653Z</time></trkpt><trkpt lat="45.6125523" lon="9.4103189"><ele>198.0</ele><time>2026-03-31T15:24:50.653Z</time></trkpt><trkpt lat="45.6125474" lon="9.4101858"><ele>198.0</ele><time>2026-03-31T15:24:51.653Z</time></trkpt><trkpt lat="45.6125397" lon="9.4100516"><ele>198.0</ele><time>2026-03-31T15:24:52.653Z</time></trkpt><trkpt lat="45.6125309" lon="9.409921"><ele>198.0</ele><time>2026-03-31T15:24:53.654Z</time></trkpt><trkpt lat="45.6125228" lon="9.4097937"><ele>198.0</ele><time>2026-03-31T15:24:54.654Z</time></trkpt><trkpt lat="45.6125092" lon="9.4096673"><ele>197.66666666666666</ele><time>2026-03-31T15:24:55.654Z</time></trkpt><trkpt lat="45.6124997" lon="9.4095363"><ele>197.33333333333331</ele><time>2026-03-31T15:24:56.653Z</time></trkpt><trkpt lat="45.6124885" lon="9.4094113"><ele>197.0</ele><time>2026-03-31T15:24:57.653Z</time></trkpt><trkpt lat="45.6124759" lon="9.4092966"><ele>196.66666666666666</ele><time>2026-03-31T15:24:58.653Z</time></trkpt><trkpt lat="45.6124664" lon="9.409185"><ele>196.33333333333331</ele><time>2026-03-31T15:24:59.653Z</time></trkpt><trkpt lat="45.6124568" lon="9.4090744"><ele>196.0</ele><time>2026-03-31T15:25:00.654Z</time></trkpt><trkpt lat="45.6124483" lon="9.4089706"><ele>195.99999999999997</ele><time>2026-03-31T15:25:01.654Z</time></trkpt><trkpt lat="45.6124415" lon="9.4088648"><ele>196.0</ele><time>2026-03-31T15:25:02.653Z</time></trkpt><trkpt lat="45.6124314" lon="9.408756"><ele>196.0</ele><time>2026-03-31T15:25:03.654Z</time></trkpt><trkpt lat="45.612421" lon="9.4086448"><ele>196.0</ele><time>2026-03-31T15:25:04.653Z</time></trkpt><trkpt lat="45.6124132" lon="9.408538"><ele>195.99999999999997</ele><time>2026-03-31T15:25:05.654Z</time></trkpt><trkpt lat="45.6124002" lon="9.4084257"><ele>196.0</ele><time>2026-03-31T15:25:06.653Z</time></trkpt><trkpt lat="45.6123868" lon="9.4083146"><ele>195.99999999999997</ele><time>2026-03-31T15:25:07.654Z</time></trkpt><trkpt lat="45.6123738" lon="9.4082096"><ele>196.0</ele><time>2026-03-31T15:25:08.653Z</time></trkpt><trkpt lat="45.6123623" lon="9.4081007"><ele>196.0</ele><time>2026-03-31T15:25:09.653Z</time></trkpt><trkpt lat="45.6123505" lon="9.407985"><ele>196.0</ele><time>2026-03-31T15:25:10.653Z</time></trkpt><trkpt lat="45.6123416" lon="9.4078713"><ele>195.99999999999997</ele><time>2026-03-31T15:25:11.653Z</time></trkpt><trkpt lat="45.6123346" lon="9.4077582"><ele>196.0</ele><time>2026-03-31T15:25:12.653Z</time></trkpt><trkpt lat="45.6123298" lon="9.4076472"><ele>196.16666666666666</ele><time>2026-03-31T15:25:13.653Z</time></trkpt><trkpt lat="45.6123288" lon="9.407531"><ele>196.33333333333331</ele><time>2026-03-31T15:25:14.653Z</time></trkpt><trkpt lat="45.612334" lon="9.4074156"><ele>196.5</ele><time>2026-03-31T15:25:15.653Z</time></trkpt><trkpt lat="45.6123411" lon="9.4073013"><ele>196.66666666666669</ele><time>2026-03-31T15:25:16.654Z</time></trkpt><trkpt lat="45.6123531" lon="9.4071811"><ele>196.83333333333334</ele><time>2026-03-31T15:25:17.653Z</time></trkpt><trkpt lat="45.6123581" lon="9.4070652"><ele>197.0</ele><time>2026-03-31T15:25:18.653Z</time></trkpt><trkpt lat="45.6123659" lon="9.4069543"><ele>197.00000000000003</ele><time>2026-03-31T15:25:19.654Z</time></trkpt><trkpt lat="45.6123701" lon="9.4068573"><ele>197.0</ele><time>2026-03-31T15:25:20.654Z</time></trkpt><trkpt lat="45.6123728" lon="9.4067663"><ele>197.0</ele><time>2026-03-31T15:25:21.653Z</time></trkpt><trkpt lat="45.6123768" lon="9.4066127"><ele>197.0</ele><time>2026-03-31T15:25:23.653Z</time></trkpt><trkpt lat="45.6123843" lon="9.4064606"><ele>197.00000000000003</ele><time>2026-03-31T15:25:25.654Z</time></trkpt><trkpt lat="45.6123784" lon="9.4063275"><ele>197.0</ele><time>2026-03-31T15:25:27.653Z</time></trkpt><trkpt lat="45.6123977" lon="9.4061875"><ele>197.0</ele><time>2026-03-31T15:25:30.653Z</time></trkpt><trkpt lat="45.6124183" lon="9.4060864"><ele>197.0</ele><time>2026-03-31T15:25:33.654Z</time></trkpt><trkpt lat="45.6123724" lon="9.4060102"><ele>197.0</ele><time>2026-03-31T15:25:35.653Z</time></trkpt><trkpt lat="45.6123235" lon="9.4058825"><ele>197.0</ele><time>2026-03-31T15:25:37.653Z</time></trkpt><trkpt lat="45.6123071" lon="9.4057404"><ele>197.0</ele><time>2026-03-31T15:25:39.653Z</time></trkpt><trkpt lat="45.6123163" lon="9.405592"><ele>196.6</ele><time>2026-03-31T15:25:41.654Z</time></trkpt><trkpt lat="45.612356" lon="9.4054508"><ele>196.2</ele><time>2026-03-31T15:25:43.653Z</time></trkpt><trkpt lat="45.6124106" lon="9.4053325"><ele>195.8</ele><time>2026-03-31T15:25:45.653Z</time></trkpt><trkpt lat="45.6124592" lon="9.405198"><ele>195.4</ele><time>2026-03-31T15:25:47.654Z</time></trkpt><trkpt lat="45.612508" lon="9.4051273"><ele>195.0</ele><time>2026-03-31T15:25:49.653Z</time></trkpt><trkpt lat="45.6125944" lon="9.4051153"><ele>195.0</ele><time>2026-03-31T15:25:51.653Z</time></trkpt><trkpt lat="45.6127206" lon="9.4051696"><ele>195.0</ele><time>2026-03-31T15:25:53.653Z</time></trkpt><trkpt lat="45.6127867" lon="9.4052019"><ele>195.0</ele><time>2026-03-31T15:25:54.653Z</time></trkpt><trkpt lat="45.6128496" lon="9.4052214"><ele>195.0</ele><time>2026-03-31T15:25:55.653Z</time></trkpt><trkpt lat="45.6129593" lon="9.4052325"><ele>195.0</ele><time>2026-03-31T15:25:57.653Z</time></trkpt><trkpt lat="45.6130666" lon="9.4051898"><ele>195.0</ele><time>2026-03-31T15:25:59.654Z</time></trkpt><trkpt lat="45.6131292" lon="9.4051664"><ele>195.0</ele><time>2026-03-31T15:26:00.654Z</time></trkpt><trkpt lat="45.6132396" lon="9.405157"><ele>195.0</ele><time>2026-03-31T15:26:02.653Z</time></trkpt><trkpt lat="45.6133409" lon="9.4051626"><ele>195.0</ele><time>2026-03-31T15:26:04.653Z</time></trkpt><trkpt lat="45.613452" lon="9.4051615"><ele>195.0</ele><time>2026-03-31T15:26:06.653Z</time></trkpt><trkpt lat="45.6135654" lon="9.4051366"><ele>195.2</ele><time>2026-03-31T15:26:08.653Z</time></trkpt><trkpt lat="45.6136775" lon="9.4051203"><ele>195.4</ele><time>2026-03-31T15:26:10.654Z</time></trkpt><trkpt lat="45.6137866" lon="9.4051022"><ele>195.60000000000002</ele><time>2026-03-31T15:26:12.653Z</time></trkpt><trkpt lat="45.6138913" lon="9.4050933"><ele>195.8</ele><time>2026-03-31T15:26:14.653Z</time></trkpt><trkpt lat="45.6139661" lon="9.4051153"><ele>196.0</ele><time>2026-03-31T15:26:16.654Z</time></trkpt><trkpt lat="45.6140243" lon="9.4051606"><ele>195.99999999999997</ele><time>2026-03-31T15:26:18.654Z</time></trkpt><trkpt lat="45.6140481" lon="9.4052667"><ele>196.0</ele><time>2026-03-31T15:26:20.653Z</time></trkpt><trkpt lat="45.6140481" lon="9.405391"><ele>196.0</ele><time>2026-03-31T15:26:22.653Z</time></trkpt><trkpt lat="45.6140331" lon="9.4055347"><ele>196.0</ele><time>2026-03-31T15:26:24.653Z</time></trkpt><trkpt lat="45.6140181" lon="9.4056265"><ele>195.99999999999997</ele><time>2026-03-31T15:26:27.654Z</time></trkpt><trkpt lat="45.6140041" lon="9.4057242"><ele>196.0</ele><time>2026-03-31T15:26:29.653Z</time></trkpt><trkpt lat="45.6139886" lon="9.4058349"><ele>195.99999999999997</ele><time>2026-03-31T15:26:31.653Z</time></trkpt><trkpt lat="45.6139731" lon="9.4059351"><ele>196.0</ele><time>2026-03-31T15:26:33.653Z</time></trkpt><trkpt lat="45.6139836" lon="9.4060653"><ele>196.0</ele><time>2026-03-31T15:26:35.653Z</time></trkpt><trkpt lat="45.6139734" lon="9.4061911"><ele>196.0</ele><time>2026-03-31T15:26:37.654Z</time></trkpt><trkpt lat="45.6139264" lon="9.4063069"><ele>195.99999999999997</ele><time>2026-03-31T15:26:39.653Z</time></trkpt><trkpt lat="45.6138502" lon="9.4063817"><ele>196.0</ele><time>2026-03-31T15:26:41.654Z</time></trkpt><trkpt lat="45.6137652" lon="9.4064092"><ele>195.99999999999997</ele><time>2026-03-31T15:26:43.653Z</time></trkpt><trkpt lat="45.6136849" lon="9.4064307"><ele>196.0</ele><time>2026-03-31T15:26:45.653Z</time></trkpt><trkpt lat="45.6136174" lon="9.4065106"><ele>196.0</ele><time>2026-03-31T15:26:47.654Z</time></trkpt><trkpt lat="45.6135971" lon="9.4066018"><ele>196.0</ele><time>2026-03-31T15:26:49.653Z</time></trkpt><trkpt lat="45.6135813" lon="9.4067289"><ele>195.99999999999997</ele><time>2026-03-31T15:26:57.653Z</time></trkpt><trkpt lat="45.6135681" lon="9.4068273"><ele>196.0</ele><time>2026-03-31T15:27:00.653Z</time></trkpt><trkpt lat="45.6135446" lon="9.4069332"><ele>195.99999999999997</ele><time>2026-03-31T15:27:03.654Z</time></trkpt><trkpt lat="45.613482" lon="9.4069636"><ele>196.0</ele><time>2026-03-31T15:27:05.654Z</time></trkpt><trkpt lat="45.613406" lon="9.4069348"><ele>196.0</ele><time>2026-03-31T15:27:07.653Z</time></trkpt><trkpt lat="45.6133203" lon="9.4068945"><ele>196.0</ele><time>2026-03-31T15:27:09.653Z</time></trkpt><trkpt lat="45.6132478" lon="9.4068707"><ele>195.99999999999997</ele><time>2026-03-31T15:27:11.653Z</time></trkpt><trkpt lat="45.6131805" lon="9.4068445"><ele>196.0</ele><time>2026-03-31T15:27:13.654Z</time></trkpt><trkpt lat="45.6131458" lon="9.4067533"><ele>195.99999999999997</ele><time>2026-03-31T15:27:15.653Z</time></trkpt><trkpt lat="45.613143" lon="9.4066237"><ele>196.0</ele><time>2026-03-31T15:27:18.653Z</time></trkpt><trkpt lat="45.6131353" lon="9.4065199"><ele>196.0</ele><time>2026-03-31T15:27:20.653Z</time></trkpt><trkpt lat="45.6130725" lon="9.4064244"><ele>196.0</ele><time>2026-03-31T15:27:23.654Z</time></trkpt><trkpt lat="45.6129998" lon="9.4064164"><ele>195.99999999999997</ele><time>2026-03-31T15:27:25.653Z</time></trkpt><trkpt lat="45.6129153" lon="9.4063793"><ele>196.0</ele><time>2026-03-31T15:27:27.653Z</time></trkpt><trkpt lat="45.6128265" lon="9.4063427"><ele>196.20000000000002</ele><time>2026-03-31T15:27:29.654Z</time></trkpt><trkpt lat="45.6127036" lon="9.4063001"><ele>196.4</ele><time>2026-03-31T15:27:31.653Z</time></trkpt><trkpt lat="45.6126117" lon="9.4062235"><ele>196.6</ele><time>2026-03-31T15:27:33.653Z</time></trkpt><trkpt lat="45.6125242" lon="9.4061193"><ele>196.8</ele><time>2026-03-31T15:27:35.654Z</time></trkpt><trkpt lat="45.6124376" lon="9.4060594"><ele>197.0</ele><time>2026-03-31T15:27:37.653Z</time></trkpt><trkpt lat="45.6123653" lon="9.4059809"><ele>197.00000000000003</ele><time>2026-03-31T15:27:39.653Z</time></trkpt><trkpt lat="45.6123218" lon="9.4058797"><ele>197.0</ele><time>2026-03-31T15:27:41.653Z</time></trkpt><trkpt lat="45.612259" lon="9.4058283"><ele>197.0</ele><time>2026-03-31T15:27:45.653Z</time></trkpt><trkpt lat="45.6121903" lon="9.4058517"><ele>197.0</ele><time>2026-03-31T15:27:50.653Z</time></trkpt><trkpt lat="45.6121263" lon="9.4058077"><ele>197.00000000000003</ele><time>2026-03-31T15:27:53.653Z</time></trkpt><trkpt lat="45.612138" lon="9.405711"><ele>197.0</ele><time>2026-03-31T15:27:56.654Z</time></trkpt><trkpt lat="45.612182" lon="9.4055993"><ele>196.6</ele><time>2026-03-31T15:27:58.654Z</time></trkpt><trkpt lat="45.6121903" lon="9.4054534"><ele>196.2</ele><time>2026-03-31T15:28:00.653Z</time></trkpt><trkpt lat="45.6122031" lon="9.4053113"><ele>195.8</ele><time>2026-03-31T15:28:02.653Z</time></trkpt><trkpt lat="45.6122349" lon="9.4051462"><ele>195.4</ele><time>2026-03-31T15:28:04.653Z</time></trkpt><trkpt lat="45.6122874" lon="9.4050022"><ele>195.0</ele><time>2026-03-31T15:28:06.653Z</time></trkpt><trkpt lat="45.6123172" lon="9.404915"><ele>195.0</ele><time>2026-03-31T15:28:07.653Z</time></trkpt><trkpt lat="45.6123427" lon="9.4047796"><ele>195.0</ele><time>2026-03-31T15:28:09.653Z</time></trkpt><trkpt lat="45.6123861" lon="9.4047046"><ele>195.0</ele><time>2026-03-31T15:28:11.653Z</time></trkpt><trkpt lat="45.6124577" lon="9.4046135"><ele>195.0</ele><time>2026-03-31T15:28:13.653Z</time></trkpt><trkpt lat="45.6125129" lon="9.4044821"><ele>195.0</ele><time>2026-03-31T15:28:15.654Z</time></trkpt><trkpt lat="45.61252" lon="9.4043727"><ele>195.0</ele><time>2026-03-31T15:28:16.653Z</time></trkpt><trkpt lat="45.6125226" lon="9.4042601"><ele>195.0</ele><time>2026-03-31T15:28:17.654Z</time></trkpt><trkpt lat="45.612529" lon="9.4041594"><ele>195.0</ele><time>2026-03-31T15:28:18.654Z</time></trkpt><trkpt lat="45.6125375" lon="9.4040562"><ele>195.0</ele><time>2026-03-31T15:28:19.653Z</time></trkpt><trkpt lat="45.6125444" lon="9.4039485"><ele>195.0</ele><time>2026-03-31T15:28:20.653Z</time></trkpt><trkpt lat="45.6125506" lon="9.40384"><ele>195.0</ele><time>2026-03-31T15:28:21.654Z</time></trkpt><trkpt lat="45.6125545" lon="9.4037343"><ele>195.0</ele><time>2026-03-31T15:28:22.654Z</time></trkpt><trkpt lat="45.6125612" lon="9.4036219"><ele>195.0</ele><time>2026-03-31T15:28:23.654Z</time></trkpt><trkpt lat="45.6125687" lon="9.4035104"><ele>194.71428571428572</ele><time>2026-03-31T15:28:24.654Z</time></trkpt><trkpt lat="45.6125757" lon="9.4033981"><ele>194.42857142857142</ele><time>2026-03-31T15:28:25.653Z</time></trkpt><trkpt lat="45.6125836" lon="9.4032911"><ele>194.14285714285717</ele><time>2026-03-31T15:28:26.654Z</time></trkpt><trkpt lat="45.612595" lon="9.4031861"><ele>193.85714285714286</ele><time>2026-03-31T15:28:27.654Z</time></trkpt><trkpt lat="45.6126054" lon="9.4030798"><ele>193.57142857142858</ele><time>2026-03-31T15:28:28.654Z</time></trkpt><trkpt lat="45.6126148" lon="9.4029739"><ele>193.2857142857143</ele><time>2026-03-31T15:28:29.653Z</time></trkpt><trkpt lat="45.6126202" lon="9.4028767"><ele>193.0</ele><time>2026-03-31T15:28:30.653Z</time></trkpt><trkpt lat="45.6126374" lon="9.4027807"><ele>192.83333333333331</ele><time>2026-03-31T15:28:31.653Z</time></trkpt><trkpt lat="45.6126552" lon="9.4026885"><ele>192.66666666666666</ele><time>2026-03-31T15:28:32.654Z</time></trkpt><trkpt lat="45.6126755" lon="9.4025931"><ele>192.5</ele><time>2026-03-31T15:28:33.653Z</time></trkpt><trkpt lat="45.6127079" lon="9.4024491"><ele>192.33333333333331</ele><time>2026-03-31T15:28:35.653Z</time></trkpt><trkpt lat="45.6126927" lon="9.4023531"><ele>192.16666666666666</ele><time>2026-03-31T15:28:37.653Z</time></trkpt><trkpt lat="45.6126165" lon="9.4022398"><ele>192.0</ele><time>2026-03-31T15:28:39.653Z</time></trkpt><trkpt lat="45.612572" lon="9.4021658"><ele>191.6</ele><time>2026-03-31T15:28:40.654Z</time></trkpt><trkpt lat="45.6125251" lon="9.4020897"><ele>191.2</ele><time>2026-03-31T15:28:41.653Z</time></trkpt><trkpt lat="45.6124821" lon="9.4020174"><ele>190.8</ele><time>2026-03-31T15:28:42.653Z</time></trkpt><trkpt lat="45.612407" lon="9.4019086"><ele>190.4</ele><time>2026-03-31T15:28:44.653Z</time></trkpt><trkpt lat="45.6123386" lon="9.4018119"><ele>190.0</ele><time>2026-03-31T15:28:46.653Z</time></trkpt><trkpt lat="45.6122463" lon="9.4017062"><ele>190.0</ele><time>2026-03-31T15:28:48.654Z</time></trkpt><trkpt lat="45.6121408" lon="9.4015959"><ele>190.0</ele><time>2026-03-31T15:28:50.654Z</time></trkpt><trkpt lat="45.612078" lon="9.401551"><ele>190.0</ele><time>2026-03-31T15:28:51.653Z</time></trkpt><trkpt lat="45.6120016" lon="9.4015054"><ele>190.0</ele><time>2026-03-31T15:28:52.653Z</time></trkpt><trkpt lat="45.6118849" lon="9.4014284"><ele>190.0</ele><time>2026-03-31T15:28:54.653Z</time></trkpt><trkpt lat="45.6118067" lon="9.4013845"><ele>189.83333333333334</ele><time>2026-03-31T15:28:55.653Z</time></trkpt><trkpt lat="45.611723" lon="9.4013386"><ele>189.66666666666669</ele><time>2026-03-31T15:28:56.654Z</time></trkpt><trkpt lat="45.6116461" lon="9.4012965"><ele>189.5</ele><time>2026-03-31T15:28:57.653Z</time></trkpt><trkpt lat="45.6115753" lon="9.4012637"><ele>189.33333333333334</ele><time>2026-03-31T15:28:58.654Z</time></trkpt><trkpt lat="45.6114997" lon="9.4012221"><ele>189.16666666666666</ele><time>2026-03-31T15:28:59.653Z</time></trkpt><trkpt lat="45.6114179" lon="9.4011789"><ele>189.0</ele><time>2026-03-31T15:29:00.653Z</time></trkpt><trkpt lat="45.6113318" lon="9.4011353"><ele>189.0</ele><time>2026-03-31T15:29:01.653Z</time></trkpt><trkpt lat="45.611251" lon="9.4010921"><ele>189.0</ele><time>2026-03-31T15:29:02.653Z</time></trkpt><trkpt lat="45.6111735" lon="9.4010692"><ele>189.0</ele><time>2026-03-31T15:29:03.653Z</time></trkpt><trkpt lat="45.6111021" lon="9.4010381"><ele>189.0</ele><time>2026-03-31T15:29:04.654Z</time></trkpt><trkpt lat="45.6110334" lon="9.4010133"><ele>189.0</ele><time>2026-03-31T15:29:05.653Z</time></trkpt><trkpt lat="45.6109611" lon="9.4009853"><ele>189.0</ele><time>2026-03-31T15:29:06.653Z</time></trkpt><trkpt lat="45.6108842" lon="9.4009592"><ele>189.0</ele><time>2026-03-31T15:29:07.654Z</time></trkpt><trkpt lat="45.6108175" lon="9.4009244"><ele>189.0</ele><time>2026-03-31T15:29:08.654Z</time></trkpt><trkpt lat="45.6107588" lon="9.4008767"><ele>189.0</ele><time>2026-03-31T15:29:09.653Z</time></trkpt><trkpt lat="45.6106884" lon="9.4008371"><ele>189.0</ele><time>2026-03-31T15:29:10.653Z</time></trkpt><trkpt lat="45.610619" lon="9.4008032"><ele>189.0</ele><time>2026-03-31T15:29:11.653Z</time></trkpt><trkpt lat="45.6105525" lon="9.4007649"><ele>189.0</ele><time>2026-03-31T15:29:12.653Z</time></trkpt><trkpt lat="45.6104863" lon="9.4007246"><ele>189.0</ele><time>2026-03-31T15:29:13.653Z</time></trkpt><trkpt lat="45.6104293" lon="9.4006777"><ele>189.0</ele><time>2026-03-31T15:29:14.653Z</time></trkpt><trkpt lat="45.6103644" lon="9.4006239"><ele>189.0</ele><time>2026-03-31T15:29:15.654Z</time></trkpt><trkpt lat="45.6103008" lon="9.4005679"><ele>189.0</ele><time>2026-03-31T15:29:16.653Z</time></trkpt><trkpt lat="45.6102374" lon="9.4005173"><ele>189.0</ele><time>2026-03-31T15:29:17.653Z</time></trkpt><trkpt lat="45.6101761" lon="9.4004777"><ele>189.0</ele><time>2026-03-31T15:29:18.653Z</time></trkpt><trkpt lat="45.6100683" lon="9.4004365"><ele>189.0</ele><time>2026-03-31T15:29:20.653Z</time></trkpt><trkpt lat="45.6099533" lon="9.4004591"><ele>189.0</ele><time>2026-03-31T15:29:22.654Z</time></trkpt><trkpt lat="45.60989" lon="9.4004756"><ele>189.0</ele><time>2026-03-31T15:29:23.653Z</time></trkpt><trkpt lat="45.609817" lon="9.400487"><ele>189.0</ele><time>2026-03-31T15:29:24.653Z</time></trkpt><trkpt lat="45.6097516" lon="9.4004918"><ele>189.0</ele><time>2026-03-31T15:29:25.653Z</time></trkpt><trkpt lat="45.6096522" lon="9.400479"><ele>189.0</ele><time>2026-03-31T15:29:27.653Z</time></trkpt><trkpt lat="45.6095847" lon="9.4004302"><ele>189.0</ele><time>2026-03-31T15:29:29.653Z</time></trkpt><trkpt lat="45.6095743" lon="9.4003064"><ele>189.0</ele><time>2026-03-31T15:29:31.653Z</time></trkpt><trkpt lat="45.6096" lon="9.4001428"><ele>189.0</ele><time>2026-03-31T15:29:33.654Z</time></trkpt><trkpt lat="45.609596" lon="9.3999859"><ele>189.0</ele><time>2026-03-31T15:29:35.653Z</time></trkpt><trkpt lat="45.6095352" lon="9.3998745"><ele>189.0</ele><time>2026-03-31T15:29:37.653Z</time></trkpt><trkpt lat="45.6094163" lon="9.3998264"><ele>188.83333333333334</ele><time>2026-03-31T15:29:39.653Z</time></trkpt><trkpt lat="45.6093416" lon="9.3998003"><ele>188.66666666666666</ele><time>2026-03-31T15:29:40.653Z</time></trkpt><trkpt lat="45.6092565" lon="9.3997662"><ele>188.5</ele><time>2026-03-31T15:29:41.653Z</time></trkpt><trkpt lat="45.6091642" lon="9.3997312"><ele>188.33333333333331</ele><time>2026-03-31T15:29:42.653Z</time></trkpt><trkpt lat="45.6090702" lon="9.399696"><ele>188.16666666666666</ele><time>2026-03-31T15:29:43.653Z</time></trkpt><trkpt lat="45.608983" lon="9.3996631"><ele>188.0</ele><time>2026-03-31T15:29:44.653Z</time></trkpt><trkpt lat="45.6089002" lon="9.3996321"><ele>188.0</ele><time>2026-03-31T15:29:45.654Z</time></trkpt><trkpt lat="45.6088158" lon="9.3996031"><ele>188.0</ele><time>2026-03-31T15:29:46.654Z</time></trkpt><trkpt lat="45.6087299" lon="9.3995723"><ele>188.0</ele><time>2026-03-31T15:29:47.653Z</time></trkpt><trkpt lat="45.6086429" lon="9.3995445"><ele>188.0</ele><time>2026-03-31T15:29:48.653Z</time></trkpt><trkpt lat="45.6085541" lon="9.3995232"><ele>188.0</ele><time>2026-03-31T15:29:49.653Z</time></trkpt><trkpt lat="45.6084635" lon="9.399504"><ele>188.0</ele><time>2026-03-31T15:29:50.653Z</time></trkpt><trkpt lat="45.608365" lon="9.3994846"><ele>188.4</ele><time>2026-03-31T15:29:51.653Z</time></trkpt><trkpt lat="45.6082676" lon="9.3994638"><ele>188.8</ele><time>2026-03-31T15:29:52.654Z</time></trkpt><trkpt lat="45.6081767" lon="9.3994456"><ele>189.2</ele><time>2026-03-31T15:29:53.653Z</time></trkpt><trkpt lat="45.608091" lon="9.3994281"><ele>189.6</ele><time>2026-03-31T15:29:54.653Z</time></trkpt><trkpt lat="45.6080147" lon="9.3994139"><ele>190.0</ele><time>2026-03-31T15:29:55.653Z</time></trkpt><trkpt lat="45.607908" lon="9.3994332"><ele>190.0</ele><time>2026-03-31T15:29:57.654Z</time></trkpt><trkpt lat="45.6078538" lon="9.3995736"><ele>190.0</ele><time>2026-03-31T15:29:59.653Z</time></trkpt><trkpt lat="45.6078449" lon="9.399683"><ele>190.0</ele><time>2026-03-31T15:30:00.654Z</time></trkpt><trkpt lat="45.6078355" lon="9.3997818"><ele>190.0</ele><time>2026-03-31T15:30:01.653Z</time></trkpt><trkpt lat="45.6077908" lon="9.3999036"><ele>190.0</ele><time>2026-03-31T15:30:03.654Z</time></trkpt><trkpt lat="45.6076758" lon="9.3999284"><ele>189.66666666666669</ele><time>2026-03-31T15:30:05.653Z</time></trkpt><trkpt lat="45.6076044" lon="9.3999329"><ele>189.33333333333334</ele><time>2026-03-31T15:30:06.654Z</time></trkpt><trkpt lat="45.6075415" lon="9.3999404"><ele>189.0</ele><time>2026-03-31T15:30:07.653Z</time></trkpt><trkpt lat="45.6074317" lon="9.3999483"><ele>188.66666666666666</ele><time>2026-03-31T15:30:09.654Z</time></trkpt><trkpt lat="45.6073591" lon="9.3999794"><ele>188.33333333333331</ele><time>2026-03-31T15:30:15.653Z</time></trkpt><trkpt lat="45.6072987" lon="9.4000073"><ele>188.0</ele><time>2026-03-31T15:30:16.654Z</time></trkpt><trkpt lat="45.6072263" lon="9.4000577"><ele>188.0</ele><time>2026-03-31T15:30:17.653Z</time></trkpt><trkpt lat="45.6071434" lon="9.4001078"><ele>188.0</ele><time>2026-03-31T15:30:18.654Z</time></trkpt><trkpt lat="45.6070655" lon="9.4001533"><ele>188.0</ele><time>2026-03-31T15:30:19.654Z</time></trkpt><trkpt lat="45.606981" lon="9.4001822"><ele>188.0</ele><time>2026-03-31T15:30:20.654Z</time></trkpt><trkpt lat="45.6069031" lon="9.4002105"><ele>188.0</ele><time>2026-03-31T15:30:21.653Z</time></trkpt><trkpt lat="45.6068238" lon="9.4002324"><ele>188.0</ele><time>2026-03-31T15:30:22.654Z</time></trkpt><trkpt lat="45.6067402" lon="9.4002607"><ele>187.5</ele><time>2026-03-31T15:30:23.654Z</time></trkpt><trkpt lat="45.6066615" lon="9.4002931"><ele>187.0</ele><time>2026-03-31T15:30:24.654Z</time></trkpt><trkpt lat="45.6065818" lon="9.4003244"><ele>186.5</ele><time>2026-03-31T15:30:25.653Z</time></trkpt><trkpt lat="45.6065041" lon="9.4003563"><ele>186.0</ele><time>2026-03-31T15:30:26.653Z</time></trkpt><trkpt lat="45.6064304" lon="9.4003828"><ele>185.5</ele><time>2026-03-31T15:30:27.653Z</time></trkpt><trkpt lat="45.606351" lon="9.4004048"><ele>185.0</ele><time>2026-03-31T15:30:28.654Z</time></trkpt><trkpt lat="45.6062722" lon="9.4004181"><ele>185.0</ele><time>2026-03-31T15:30:29.653Z</time></trkpt><trkpt lat="45.6061908" lon="9.4004325"><ele>185.0</ele><time>2026-03-31T15:30:30.653Z</time></trkpt><trkpt lat="45.606111" lon="9.400438"><ele>185.0</ele><time>2026-03-31T15:30:31.653Z</time></trkpt><trkpt lat="45.6060292" lon="9.400444"><ele>185.0</ele><time>2026-03-31T15:30:32.654Z</time></trkpt><trkpt lat="45.6059552" lon="9.400443"><ele>185.0</ele><time>2026-03-31T15:30:33.653Z</time></trkpt><trkpt lat="45.6058863" lon="9.4004483"><ele>185.0</ele><time>2026-03-31T15:30:34.653Z</time></trkpt><trkpt lat="45.6057708" lon="9.4004602"><ele>185.16666666666666</ele><time>2026-03-31T15:30:36.653Z</time></trkpt><trkpt lat="45.6057172" lon="9.4005507"><ele>185.33333333333331</ele><time>2026-03-31T15:30:38.653Z</time></trkpt><trkpt lat="45.6056998" lon="9.4006981"><ele>185.5</ele><time>2026-03-31T15:30:40.653Z</time></trkpt><trkpt lat="45.6056134" lon="9.400749"><ele>185.66666666666666</ele><time>2026-03-31T15:30:42.653Z</time></trkpt><trkpt lat="45.6055425" lon="9.4007355"><ele>185.83333333333334</ele><time>2026-03-31T15:30:43.653Z</time></trkpt><trkpt lat="45.6054609" lon="9.4007267"><ele>186.0</ele><time>2026-03-31T15:30:44.653Z</time></trkpt><trkpt lat="45.6053738" lon="9.4007243"><ele>185.8</ele><time>2026-03-31T15:30:45.653Z</time></trkpt><trkpt lat="45.6052916" lon="9.4007221"><ele>185.60000000000002</ele><time>2026-03-31T15:30:46.654Z</time></trkpt><trkpt lat="45.6052083" lon="9.4007243"><ele>185.4</ele><time>2026-03-31T15:30:47.653Z</time></trkpt><trkpt lat="45.6051184" lon="9.4007261"><ele>185.2</ele><time>2026-03-31T15:30:48.653Z</time></trkpt><trkpt lat="45.6050122" lon="9.4007347"><ele>185.0</ele><time>2026-03-31T15:30:49.653Z</time></trkpt><trkpt lat="45.6049094" lon="9.4007384"><ele>185.0</ele><time>2026-03-31T15:30:50.653Z</time></trkpt><trkpt lat="45.6048175" lon="9.4007401"><ele>185.0</ele><time>2026-03-31T15:30:51.654Z</time></trkpt><trkpt lat="45.6047338" lon="9.4007434"><ele>185.0</ele><time>2026-03-31T15:30:52.653Z</time></trkpt><trkpt lat="45.604659" lon="9.4007433"><ele>185.0</ele><time>2026-03-31T15:30:53.653Z</time></trkpt><trkpt lat="45.6045434" lon="9.4007562"><ele>185.0</ele><time>2026-03-31T15:30:55.653Z</time></trkpt><trkpt lat="45.6044394" lon="9.4007816"><ele>185.0</ele><time>2026-03-31T15:30:57.653Z</time></trkpt><trkpt lat="45.604335" lon="9.4007882"><ele>185.0</ele><time>2026-03-31T15:30:59.654Z</time></trkpt><trkpt lat="45.6042426" lon="9.4007935"><ele>185.0</ele><time>2026-03-31T15:31:01.654Z</time></trkpt><trkpt lat="45.604177" lon="9.4007989"><ele>185.0</ele><time>2026-03-31T15:31:23.653Z</time></trkpt><trkpt lat="45.6040869" lon="9.4008369"><ele>185.0</ele><time>2026-03-31T15:31:25.654Z</time></trkpt><trkpt lat="45.6039535" lon="9.4008553"><ele>185.0</ele><time>2026-03-31T15:31:27.654Z</time></trkpt><trkpt lat="45.6038754" lon="9.4008639"><ele>185.0</ele><time>2026-03-31T15:31:28.653Z</time></trkpt><trkpt lat="45.6037954" lon="9.4008708"><ele>185.0</ele><time>2026-03-31T15:31:29.654Z</time></trkpt><trkpt lat="45.6037132" lon="9.4008822"><ele>185.0</ele><time>2026-03-31T15:31:30.653Z</time></trkpt><trkpt lat="45.6036284" lon="9.4008928"><ele>185.0</ele><time>2026-03-31T15:31:31.653Z</time></trkpt><trkpt lat="45.6035621" lon="9.4009067"><ele>185.0</ele><time>2026-03-31T15:31:32.653Z</time></trkpt><trkpt lat="45.6034433" lon="9.4008862"><ele>184.99999999999997</ele><time>2026-03-31T15:31:34.654Z</time></trkpt><trkpt lat="45.6033732" lon="9.4008668"><ele>185.0</ele><time>2026-03-31T15:31:35.653Z</time></trkpt><trkpt lat="45.6032967" lon="9.4008618"><ele>185.0</ele><time>2026-03-31T15:31:36.653Z</time></trkpt><trkpt lat="45.6032197" lon="9.4008592"><ele>185.0</ele><time>2026-03-31T15:31:37.653Z</time></trkpt><trkpt lat="45.6031493" lon="9.4008592"><ele>185.0</ele><time>2026-03-31T15:31:38.653Z</time></trkpt><trkpt lat="45.603079" lon="9.4008571"><ele>184.99999999999997</ele><time>2026-03-31T15:31:39.654Z</time></trkpt><trkpt lat="45.6030077" lon="9.4008664"><ele>185.0</ele><time>2026-03-31T15:31:40.654Z</time></trkpt><trkpt lat="45.6029426" lon="9.4008674"><ele>184.99999999999997</ele><time>2026-03-31T15:31:41.653Z</time></trkpt><trkpt lat="45.6028599" lon="9.4008814"><ele>185.0</ele><time>2026-03-31T15:31:43.653Z</time></trkpt><trkpt lat="45.6027826" lon="9.4009146"><ele>185.0</ele><time>2026-03-31T15:31:46.654Z</time></trkpt><trkpt lat="45.6027205" lon="9.4008978"><ele>185.0</ele><time>2026-03-31T15:31:48.654Z</time></trkpt><trkpt lat="45.6026538" lon="9.4009"><ele>185.0</ele><time>2026-03-31T15:31:49.654Z</time></trkpt><trkpt lat="45.6025726" lon="9.4008976"><ele>184.99999999999997</ele><time>2026-03-31T15:31:50.654Z</time></trkpt><trkpt lat="45.602499" lon="9.4008988"><ele>185.0</ele><time>2026-03-31T15:31:51.654Z</time></trkpt><trkpt lat="45.6024269" lon="9.4009106"><ele>185.0</ele><time>2026-03-31T15:31:52.653Z</time></trkpt><trkpt lat="45.602345" lon="9.4009303"><ele>185.0</ele><time>2026-03-31T15:31:53.653Z</time></trkpt><trkpt lat="45.6022704" lon="9.4009149"><ele>185.0</ele><time>2026-03-31T15:31:54.653Z</time></trkpt><trkpt lat="45.6021921" lon="9.4009224"><ele>185.0</ele><time>2026-03-31T15:31:55.654Z</time></trkpt><trkpt lat="45.6021161" lon="9.4009297"><ele>185.0</ele><time>2026-03-31T15:31:56.653Z</time></trkpt><trkpt lat="45.6020271" lon="9.4009272"><ele>185.0</ele><time>2026-03-31T15:31:57.653Z</time></trkpt><trkpt lat="45.6019532" lon="9.4009307"><ele>184.83333333333331</ele><time>2026-03-31T15:31:58.653Z</time></trkpt><trkpt lat="45.601883" lon="9.4009239"><ele>184.66666666666666</ele><time>2026-03-31T15:31:59.653Z</time></trkpt><trkpt lat="45.6018171" lon="9.4009158"><ele>184.5</ele><time>2026-03-31T15:32:00.653Z</time></trkpt><trkpt lat="45.6017405" lon="9.4009153"><ele>184.33333333333334</ele><time>2026-03-31T15:32:01.654Z</time></trkpt><trkpt lat="45.6016678" lon="9.4009216"><ele>184.16666666666669</ele><time>2026-03-31T15:32:02.653Z</time></trkpt><trkpt lat="45.6015823" lon="9.400919"><ele>184.0</ele><time>2026-03-31T15:32:03.653Z</time></trkpt><trkpt lat="45.601503" lon="9.4009136"><ele>184.0</ele><time>2026-03-31T15:32:04.654Z</time></trkpt><trkpt lat="45.601431" lon="9.4008958"><ele>184.0</ele><time>2026-03-31T15:32:05.653Z</time></trkpt><trkpt lat="45.6013642" lon="9.400858"><ele>184.0</ele><time>2026-03-31T15:32:06.654Z</time></trkpt><trkpt lat="45.6013123" lon="9.4007953"><ele>184.0</ele><time>2026-03-31T15:32:07.653Z</time></trkpt><trkpt lat="45.601214" lon="9.4007173"><ele>184.0</ele><time>2026-03-31T15:32:09.654Z</time></trkpt><trkpt lat="45.6011524" lon="9.4006938"><ele>184.0</ele><time>2026-03-31T15:32:10.653Z</time></trkpt><trkpt lat="45.6010324" lon="9.4006839"><ele>183.66666666666669</ele><time>2026-03-31T15:32:12.653Z</time></trkpt><trkpt lat="45.600963" lon="9.4006936"><ele>183.33333333333334</ele><time>2026-03-31T15:32:13.653Z</time></trkpt><trkpt lat="45.6008901" lon="9.4007124"><ele>183.0</ele><time>2026-03-31T15:32:14.654Z</time></trkpt><trkpt lat="45.6008065" lon="9.4007193"><ele>182.66666666666666</ele><time>2026-03-31T15:32:15.653Z</time></trkpt><trkpt lat="45.6007233" lon="9.4007246"><ele>182.33333333333331</ele><time>2026-03-31T15:32:16.654Z</time></trkpt><trkpt lat="45.6006412" lon="9.4007248"><ele>182.0</ele><time>2026-03-31T15:32:17.654Z</time></trkpt><trkpt lat="45.6005448" lon="9.4007325"><ele>182.0</ele><time>2026-03-31T15:32:18.654Z</time></trkpt><trkpt lat="45.6004454" lon="9.4007441"><ele>182.0</ele><time>2026-03-31T15:32:19.654Z</time></trkpt><trkpt lat="45.6003438" lon="9.4007617"><ele>182.0</ele><time>2026-03-31T15:32:20.654Z</time></trkpt><trkpt lat="45.6002444" lon="9.4007784"><ele>182.0</ele><time>2026-03-31T15:32:21.654Z</time></trkpt><trkpt lat="45.6001534" lon="9.4007864"><ele>182.0</ele><time>2026-03-31T15:32:22.653Z</time></trkpt><trkpt lat="45.6000658" lon="9.400791"><ele>182.2</ele><time>2026-03-31T15:32:23.653Z</time></trkpt><trkpt lat="45.5999799" lon="9.4007927"><ele>182.39999999999998</ele><time>2026-03-31T15:32:24.653Z</time></trkpt><trkpt lat="45.5998909" lon="9.4007997"><ele>182.60000000000002</ele><time>2026-03-31T15:32:25.653Z</time></trkpt><trkpt lat="45.5997975" lon="9.4008042"><ele>182.8</ele><time>2026-03-31T15:32:26.653Z</time></trkpt><trkpt lat="45.5997021" lon="9.4008067"><ele>183.0</ele><time>2026-03-31T15:32:27.654Z</time></trkpt><trkpt lat="45.5996034" lon="9.400809"><ele>183.0</ele><time>2026-03-31T15:32:28.653Z</time></trkpt><trkpt lat="45.5995011" lon="9.4008185"><ele>183.0</ele><time>2026-03-31T15:32:29.654Z</time></trkpt><trkpt lat="45.5993998" lon="9.4008202"><ele>183.0</ele><time>2026-03-31T15:32:30.654Z</time></trkpt><trkpt lat="45.5992983" lon="9.400826"><ele>183.0</ele><time>2026-03-31T15:32:31.653Z</time></trkpt><trkpt lat="45.5991976" lon="9.400829"><ele>183.0</ele><time>2026-03-31T15:32:32.653Z</time></trkpt><trkpt lat="45.5991017" lon="9.4008274"><ele>183.0</ele><time>2026-03-31T15:32:33.654Z</time></trkpt><trkpt lat="45.5990088" lon="9.4008297"><ele>183.0</ele><time>2026-03-31T15:32:34.654Z</time></trkpt><trkpt lat="45.5989231" lon="9.4008318"><ele>183.0</ele><time>2026-03-31T15:32:35.654Z</time></trkpt><trkpt lat="45.5988408" lon="9.4008331"><ele>183.0</ele><time>2026-03-31T15:32:36.653Z</time></trkpt><trkpt lat="45.5987673" lon="9.4008363"><ele>183.0</ele><time>2026-03-31T15:32:37.654Z</time></trkpt><trkpt lat="45.5986996" lon="9.400839"><ele>183.0</ele><time>2026-03-31T15:32:38.653Z</time></trkpt><trkpt lat="45.5986359" lon="9.4008485"><ele>182.83333333333334</ele><time>2026-03-31T15:32:39.653Z</time></trkpt><trkpt lat="45.5985745" lon="9.4008713"><ele>182.66666666666666</ele><time>2026-03-31T15:32:40.654Z</time></trkpt><trkpt lat="45.5985176" lon="9.4009106"><ele>182.5</ele><time>2026-03-31T15:32:41.653Z</time></trkpt><trkpt lat="45.5983987" lon="9.4009622"><ele>182.33333333333331</ele><time>2026-03-31T15:32:43.653Z</time></trkpt><trkpt lat="45.5983301" lon="9.4009698"><ele>182.16666666666666</ele><time>2026-03-31T15:32:44.653Z</time></trkpt><trkpt lat="45.5982603" lon="9.4009684"><ele>182.0</ele><time>2026-03-31T15:32:45.653Z</time></trkpt><trkpt lat="45.5981731" lon="9.400966"><ele>182.0</ele><time>2026-03-31T15:32:46.653Z</time></trkpt><trkpt lat="45.5980882" lon="9.4009624"><ele>182.0</ele><time>2026-03-31T15:32:47.654Z</time></trkpt><trkpt lat="45.5979891" lon="9.4009565"><ele>182.0</ele><time>2026-03-31T15:32:48.654Z</time></trkpt><trkpt lat="45.5978973" lon="9.4009474"><ele>182.0</ele><time>2026-03-31T15:32:49.654Z</time></trkpt><trkpt lat="45.5978036" lon="9.400944"><ele>182.0</ele><time>2026-03-31T15:32:50.653Z</time></trkpt><trkpt lat="45.5977102" lon="9.4009366"><ele>182.0</ele><time>2026-03-31T15:32:51.653Z</time></trkpt><trkpt lat="45.5976143" lon="9.4009267"><ele>182.0</ele><time>2026-03-31T15:32:52.653Z</time></trkpt><trkpt lat="45.5975278" lon="9.4009174"><ele>182.0</ele><time>2026-03-31T15:32:53.653Z</time></trkpt><trkpt lat="45.5974503" lon="9.4009137"><ele>182.0</ele><time>2026-03-31T15:32:54.653Z</time></trkpt><trkpt lat="45.5973726" lon="9.4009078"><ele>182.0</ele><time>2026-03-31T15:32:55.653Z</time></trkpt><trkpt lat="45.5972965" lon="9.4009022"><ele>182.0</ele><time>2026-03-31T15:32:56.653Z</time></trkpt><trkpt lat="45.5972237" lon="9.4008969"><ele>182.0</ele><time>2026-03-31T15:32:57.654Z</time></trkpt><trkpt lat="45.5971583" lon="9.400886"><ele>182.0</ele><time>2026-03-31T15:32:58.654Z</time></trkpt><trkpt lat="45.5970932" lon="9.4008742"><ele>182.0</ele><time>2026-03-31T15:32:59.653Z</time></trkpt><trkpt lat="45.5970213" lon="9.4008522"><ele>182.0</ele><time>2026-03-31T15:33:00.653Z</time></trkpt><trkpt lat="45.5969592" lon="9.4008314"><ele>182.0</ele><time>2026-03-31T15:33:01.653Z</time></trkpt><trkpt lat="45.5969015" lon="9.40079"><ele>182.0</ele><time>2026-03-31T15:33:02.653Z</time></trkpt><trkpt lat="45.5968444" lon="9.4007422"><ele>182.0</ele><time>2026-03-31T15:33:03.654Z</time></trkpt><trkpt lat="45.5967843" lon="9.4006824"><ele>181.33333333333331</ele><time>2026-03-31T15:33:04.653Z</time></trkpt><trkpt lat="45.5967275" lon="9.4006284"><ele>180.66666666666666</ele><time>2026-03-31T15:33:05.654Z</time></trkpt><trkpt lat="45.5966704" lon="9.4005852"><ele>180.0</ele><time>2026-03-31T15:33:06.653Z</time></trkpt><trkpt lat="45.5965715" lon="9.4005279"><ele>179.33333333333334</ele><time>2026-03-31T15:33:08.653Z</time></trkpt><trkpt lat="45.5964554" lon="9.4004738"><ele>178.66666666666669</ele><time>2026-03-31T15:33:10.654Z</time></trkpt><trkpt lat="45.5963893" lon="9.4004437"><ele>178.0</ele><time>2026-03-31T15:33:11.653Z</time></trkpt><trkpt lat="45.596312" lon="9.4004144"><ele>177.99999999999997</ele><time>2026-03-31T15:33:12.654Z</time></trkpt><trkpt lat="45.5962428" lon="9.4003926"><ele>178.0</ele><time>2026-03-31T15:33:13.654Z</time></trkpt><trkpt lat="45.5961798" lon="9.4003625"><ele>178.0</ele><time>2026-03-31T15:33:14.653Z</time></trkpt><trkpt lat="45.5961186" lon="9.4003308"><ele>178.0</ele><time>2026-03-31T15:33:15.653Z</time></trkpt><trkpt lat="45.596047" lon="9.40032"><ele>178.0</ele><time>2026-03-31T15:33:16.653Z</time></trkpt><trkpt lat="45.5959684" lon="9.4003105"><ele>177.99999999999997</ele><time>2026-03-31T15:33:17.654Z</time></trkpt><trkpt lat="45.5958906" lon="9.4003082"><ele>178.0</ele><time>2026-03-31T15:33:18.654Z</time></trkpt><trkpt lat="45.5958204" lon="9.4003017"><ele>177.66666666666669</ele><time>2026-03-31T15:33:19.654Z</time></trkpt><trkpt lat="45.5957476" lon="9.4002938"><ele>177.33333333333334</ele><time>2026-03-31T15:33:20.653Z</time></trkpt><trkpt lat="45.5956766" lon="9.4002852"><ele>177.0</ele><time>2026-03-31T15:33:21.654Z</time></trkpt><trkpt lat="45.5956012" lon="9.4002778"><ele>176.66666666666666</ele><time>2026-03-31T15:33:22.653Z</time></trkpt><trkpt lat="45.5955253" lon="9.4002745"><ele>176.33333333333331</ele><time>2026-03-31T15:33:23.653Z</time></trkpt><trkpt lat="45.5954462" lon="9.4002686"><ele>176.0</ele><time>2026-03-31T15:33:24.653Z</time></trkpt><trkpt lat="45.5953676" lon="9.4002659"><ele>176.14285714285714</ele><time>2026-03-31T15:33:25.654Z</time></trkpt><trkpt lat="45.5952884" lon="9.4002639"><ele>176.28571428571428</ele><time>2026-03-31T15:33:26.653Z</time></trkpt><trkpt lat="45.5952167" lon="9.4002603"><ele>176.42857142857144</ele><time>2026-03-31T15:33:27.653Z</time></trkpt><trkpt lat="45.5951462" lon="9.4002536"><ele>176.57142857142856</ele><time>2026-03-31T15:33:28.654Z</time></trkpt><trkpt lat="45.5950779" lon="9.400248"><ele>176.7142857142857</ele><time>2026-03-31T15:33:29.653Z</time></trkpt><trkpt lat="45.5950137" lon="9.4002423"><ele>176.85714285714286</ele><time>2026-03-31T15:33:30.653Z</time></trkpt><trkpt lat="45.5949235" lon="9.4002353"><ele>177.0</ele><time>2026-03-31T15:33:32.653Z</time></trkpt><trkpt lat="45.5948568" lon="9.4002547"><ele>177.0</ele><time>2026-03-31T15:33:35.653Z</time></trkpt><trkpt lat="45.5949265" lon="9.4002776"><ele>177.0</ele><time>2026-03-31T15:33:38.653Z</time></trkpt><trkpt lat="45.5949924" lon="9.4002957"><ele>177.0</ele><time>2026-03-31T15:33:40.653Z</time></trkpt><trkpt lat="45.5950663" lon="9.4002797"><ele>177.0</ele><time>2026-03-31T15:33:41.654Z</time></trkpt><trkpt lat="45.5951344" lon="9.4002797"><ele>177.0</ele><time>2026-03-31T15:33:42.654Z</time></trkpt><trkpt lat="45.5952034" lon="9.4002856"><ele>177.0</ele><time>2026-03-31T15:33:43.653Z</time></trkpt><trkpt lat="45.5952782" lon="9.4002912"><ele>177.0</ele><time>2026-03-31T15:33:44.653Z</time></trkpt><trkpt lat="45.5953549" lon="9.4002902"><ele>176.83333333333334</ele><time>2026-03-31T15:33:45.654Z</time></trkpt><trkpt lat="45.5954305" lon="9.4002943"><ele>176.66666666666666</ele><time>2026-03-31T15:33:46.653Z</time></trkpt><trkpt lat="45.5955083" lon="9.4002976"><ele>176.5</ele><time>2026-03-31T15:33:47.653Z</time></trkpt><trkpt lat="45.5955874" lon="9.4003051"><ele>176.33333333333331</ele><time>2026-03-31T15:33:48.653Z</time></trkpt><trkpt lat="45.595666" lon="9.4003154"><ele>176.16666666666666</ele><time>2026-03-31T15:33:49.653Z</time></trkpt><trkpt lat="45.595746" lon="9.4003293"><ele>176.0</ele><time>2026-03-31T15:33:50.653Z</time></trkpt><trkpt lat="45.5958293" lon="9.4003371"><ele>176.0</ele><time>2026-03-31T15:33:51.653Z</time></trkpt><trkpt lat="45.5959126" lon="9.4003461"><ele>176.0</ele><time>2026-03-31T15:33:52.654Z</time></trkpt><trkpt lat="45.5959938" lon="9.4003574"><ele>176.0</ele><time>2026-03-31T15:33:53.653Z</time></trkpt><trkpt lat="45.5960652" lon="9.4003717"><ele>176.0</ele><time>2026-03-31T15:33:54.653Z</time></trkpt><trkpt lat="45.5961348" lon="9.400385"><ele>176.0</ele><time>2026-03-31T15:33:55.653Z</time></trkpt><trkpt lat="45.596209" lon="9.4004211"><ele>176.0</ele><time>2026-03-31T15:33:56.653Z</time></trkpt><trkpt lat="45.5962842" lon="9.4004504"><ele>176.16666666666666</ele><time>2026-03-31T15:33:57.653Z</time></trkpt><trkpt lat="45.5963587" lon="9.4004773"><ele>176.33333333333331</ele><time>2026-03-31T15:33:58.654Z</time></trkpt><trkpt lat="45.5964378" lon="9.4004965"><ele>176.5</ele><time>2026-03-31T15:33:59.653Z</time></trkpt><trkpt lat="45.5965167" lon="9.4005222"><ele>176.66666666666666</ele><time>2026-03-31T15:34:00.653Z</time></trkpt><trkpt lat="45.5965876" lon="9.4005531"><ele>176.83333333333334</ele><time>2026-03-31T15:34:01.653Z</time></trkpt><trkpt lat="45.5966578" lon="9.4005876"><ele>177.0</ele><time>2026-03-31T15:34:02.654Z</time></trkpt><trkpt lat="45.5967212" lon="9.4006317"><ele>177.0</ele><time>2026-03-31T15:34:03.653Z</time></trkpt><trkpt lat="45.5967742" lon="9.4006835"><ele>177.0</ele><time>2026-03-31T15:34:04.653Z</time></trkpt><trkpt lat="45.5968229" lon="9.4007407"><ele>177.0</ele><time>2026-03-31T15:34:05.653Z</time></trkpt><trkpt lat="45.5969247" lon="9.4008382"><ele>177.0</ele><time>2026-03-31T15:34:07.653Z</time></trkpt><trkpt lat="45.5969878" lon="9.4008723"><ele>177.0</ele><time>2026-03-31T15:34:08.653Z</time></trkpt><trkpt lat="45.597049" lon="9.4008938"><ele>177.0</ele><time>2026-03-31T15:34:09.653Z</time></trkpt><trkpt lat="45.5971808" lon="9.4009123"><ele>177.83333333333334</ele><time>2026-03-31T15:34:11.653Z</time></trkpt><trkpt lat="45.597252" lon="9.4009121"><ele>178.66666666666666</ele><time>2026-03-31T15:34:12.653Z</time></trkpt><trkpt lat="45.5973219" lon="9.4009214"><ele>179.5</ele><time>2026-03-31T15:34:13.653Z</time></trkpt><trkpt lat="45.5973975" lon="9.4009287"><ele>180.33333333333331</ele><time>2026-03-31T15:34:14.653Z</time></trkpt><trkpt lat="45.5974737" lon="9.4009366"><ele>181.16666666666666</ele><time>2026-03-31T15:34:15.654Z</time></trkpt><trkpt lat="45.5975539" lon="9.4009444"><ele>182.0</ele><time>2026-03-31T15:34:16.653Z</time></trkpt><trkpt lat="45.5976347" lon="9.4009517"><ele>182.0</ele><time>2026-03-31T15:34:17.654Z</time></trkpt><trkpt lat="45.5977168" lon="9.4009622"><ele>182.0</ele><time>2026-03-31T15:34:18.653Z</time></trkpt><trkpt lat="45.5978005" lon="9.4009728"><ele>182.0</ele><time>2026-03-31T15:34:19.654Z</time></trkpt><trkpt lat="45.5978866" lon="9.4009784"><ele>182.0</ele><time>2026-03-31T15:34:20.653Z</time></trkpt><trkpt lat="45.5979744" lon="9.4009852"><ele>182.0</ele><time>2026-03-31T15:34:21.653Z</time></trkpt><trkpt lat="45.5980625" lon="9.4009933"><ele>182.0</ele><time>2026-03-31T15:34:22.653Z</time></trkpt><trkpt lat="45.5981422" lon="9.4009953"><ele>182.0</ele><time>2026-03-31T15:34:23.654Z</time></trkpt><trkpt lat="45.598215" lon="9.4009994"><ele>182.0</ele><time>2026-03-31T15:34:24.653Z</time></trkpt><trkpt lat="45.5982832" lon="9.4010036"><ele>182.0</ele><time>2026-03-31T15:34:25.653Z</time></trkpt><trkpt lat="45.5983902" lon="9.4010083"><ele>182.0</ele><time>2026-03-31T15:34:27.653Z</time></trkpt><trkpt lat="45.5984573" lon="9.4010445"><ele>182.0</ele><time>2026-03-31T15:34:29.653Z</time></trkpt><trkpt lat="45.5984804" lon="9.4011445"><ele>182.0</ele><time>2026-03-31T15:34:31.653Z</time></trkpt><trkpt lat="45.5984845" lon="9.4012379"><ele>181.83333333333331</ele><time>2026-03-31T15:34:32.653Z</time></trkpt><trkpt lat="45.5984895" lon="9.401345"><ele>181.66666666666666</ele><time>2026-03-31T15:34:33.653Z</time></trkpt><trkpt lat="45.5984968" lon="9.4014603"><ele>181.5</ele><time>2026-03-31T15:34:34.654Z</time></trkpt><trkpt lat="45.5985056" lon="9.4015828"><ele>181.33333333333334</ele><time>2026-03-31T15:34:35.654Z</time></trkpt><trkpt lat="45.5985166" lon="9.4017102"><ele>181.16666666666669</ele><time>2026-03-31T15:34:36.654Z</time></trkpt><trkpt lat="45.5985258" lon="9.4018392"><ele>181.0</ele><time>2026-03-31T15:34:37.654Z</time></trkpt><trkpt lat="45.5985337" lon="9.4019586"><ele>181.0</ele><time>2026-03-31T15:34:38.654Z</time></trkpt><trkpt lat="45.5985366" lon="9.4020751"><ele>181.0</ele><time>2026-03-31T15:34:39.654Z</time></trkpt><trkpt lat="45.598533" lon="9.402195"><ele>181.0</ele><time>2026-03-31T15:34:40.654Z</time></trkpt><trkpt lat="45.5985236" lon="9.4023188"><ele>181.0</ele><time>2026-03-31T15:34:41.654Z</time></trkpt><trkpt lat="45.5985136" lon="9.4024346"><ele>181.0</ele><time>2026-03-31T15:34:42.654Z</time></trkpt><trkpt lat="45.5984981" lon="9.4025402"><ele>181.0</ele><time>2026-03-31T15:34:43.653Z</time></trkpt><trkpt lat="45.598482" lon="9.4026325"><ele>180.83333333333334</ele><time>2026-03-31T15:34:44.654Z</time></trkpt><trkpt lat="45.5984714" lon="9.4027287"><ele>180.66666666666669</ele><time>2026-03-31T15:34:45.654Z</time></trkpt><trkpt lat="45.5984661" lon="9.4028313"><ele>180.5</ele><time>2026-03-31T15:34:46.654Z</time></trkpt><trkpt lat="45.5984679" lon="9.4029462"><ele>180.33333333333334</ele><time>2026-03-31T15:34:47.653Z</time></trkpt><trkpt lat="45.5984752" lon="9.4030689"><ele>180.16666666666666</ele><time>2026-03-31T15:34:48.653Z</time></trkpt><trkpt lat="45.5984829" lon="9.4031959"><ele>180.0</ele><time>2026-03-31T15:34:49.654Z</time></trkpt><trkpt lat="45.5984931" lon="9.4033265"><ele>180.33333333333334</ele><time>2026-03-31T15:34:50.653Z</time></trkpt><trkpt lat="45.5985077" lon="9.4034541"><ele>180.66666666666666</ele><time>2026-03-31T15:34:51.653Z</time></trkpt><trkpt lat="45.5985242" lon="9.4035733"><ele>181.0</ele><time>2026-03-31T15:34:52.653Z</time></trkpt><trkpt lat="45.5985392" lon="9.4036652"><ele>181.33333333333331</ele><time>2026-03-31T15:34:53.653Z</time></trkpt><trkpt lat="45.5985889" lon="9.403762"><ele>181.66666666666666</ele><time>2026-03-31T15:34:56.653Z</time></trkpt><trkpt lat="45.5986894" lon="9.4037578"><ele>182.0</ele><time>2026-03-31T15:34:58.653Z</time></trkpt><trkpt lat="45.5987916" lon="9.4037679"><ele>182.2</ele><time>2026-03-31T15:35:00.653Z</time></trkpt><trkpt lat="45.5989145" lon="9.4038687"><ele>182.39999999999998</ele><time>2026-03-31T15:35:02.654Z</time></trkpt><trkpt lat="45.5989888" lon="9.4039343"><ele>182.60000000000002</ele><time>2026-03-31T15:35:03.653Z</time></trkpt><trkpt lat="45.599065" lon="9.4039789"><ele>182.8</ele><time>2026-03-31T15:35:04.653Z</time></trkpt><trkpt lat="45.5991564" lon="9.4040034"><ele>183.0</ele><time>2026-03-31T15:35:05.653Z</time></trkpt><trkpt lat="45.5992487" lon="9.4040082"><ele>183.0</ele><time>2026-03-31T15:35:06.654Z</time></trkpt><trkpt lat="45.5993509" lon="9.4039977"><ele>183.0</ele><time>2026-03-31T15:35:07.654Z</time></trkpt><trkpt lat="45.5994669" lon="9.4039799"><ele>183.0</ele><time>2026-03-31T15:35:08.653Z</time></trkpt><trkpt lat="45.5995965" lon="9.4039642"><ele>183.0</ele><time>2026-03-31T15:35:09.653Z</time></trkpt><trkpt lat="45.5997345" lon="9.4039456"><ele>183.5</ele><time>2026-03-31T15:35:10.653Z</time></trkpt><trkpt lat="45.5998563" lon="9.4039311"><ele>184.0</ele><time>2026-03-31T15:35:11.653Z</time></trkpt><trkpt lat="45.5999676" lon="9.4039212"><ele>184.5</ele><time>2026-03-31T15:35:12.653Z</time></trkpt><trkpt lat="45.6000825" lon="9.4039032"><ele>185.0</ele><time>2026-03-31T15:35:13.653Z</time></trkpt><trkpt lat="45.6001957" lon="9.4038902"><ele>185.0</ele><time>2026-03-31T15:35:14.654Z</time></trkpt><trkpt lat="45.600306" lon="9.4038801"><ele>185.0</ele><time>2026-03-31T15:35:15.653Z</time></trkpt><trkpt lat="45.600425" lon="9.4038657"><ele>185.0</ele><time>2026-03-31T15:35:16.653Z</time></trkpt><trkpt lat="45.6005319" lon="9.4038525"><ele>185.0</ele><time>2026-03-31T15:35:17.654Z</time></trkpt><trkpt lat="45.60063" lon="9.4038422"><ele>185.0</ele><time>2026-03-31T15:35:18.653Z</time></trkpt><trkpt lat="45.600726" lon="9.4038336"><ele>185.0</ele><time>2026-03-31T15:35:19.654Z</time></trkpt><trkpt lat="45.6008027" lon="9.4038229"><ele>185.0</ele><time>2026-03-31T15:35:20.653Z</time></trkpt><trkpt lat="45.6008937" lon="9.4038088"><ele>185.0</ele><time>2026-03-31T15:35:22.653Z</time></trkpt><trkpt lat="45.6009465" lon="9.4037392"><ele>185.0</ele><time>2026-03-31T15:35:24.654Z</time></trkpt><trkpt lat="45.6009882" lon="9.4035982"><ele>185.0</ele><time>2026-03-31T15:35:26.653Z</time></trkpt><trkpt lat="45.6010448" lon="9.4034315"><ele>185.0</ele><time>2026-03-31T15:35:28.654Z</time></trkpt><trkpt lat="45.6010561" lon="9.4033366"><ele>185.0</ele><time>2026-03-31T15:35:29.654Z</time></trkpt><trkpt lat="45.6010497" lon="9.4032289"><ele>185.0</ele><time>2026-03-31T15:35:30.653Z</time></trkpt><trkpt lat="45.601025" lon="9.403121"><ele>185.0</ele><time>2026-03-31T15:35:31.654Z</time></trkpt><trkpt lat="45.6009928" lon="9.4030337"><ele>185.0</ele><time>2026-03-31T15:35:32.653Z</time></trkpt><trkpt lat="45.6009074" lon="9.4029226"><ele>185.0</ele><time>2026-03-31T15:35:34.653Z</time></trkpt><trkpt lat="45.6008481" lon="9.4028911"><ele>185.0</ele><time>2026-03-31T15:35:35.654Z</time></trkpt><trkpt lat="45.6007808" lon="9.4028809"><ele>185.0</ele><time>2026-03-31T15:35:36.654Z</time></trkpt><trkpt lat="45.6007005" lon="9.4028802"><ele>185.0</ele><time>2026-03-31T15:35:37.654Z</time></trkpt><trkpt lat="45.6006085" lon="9.4028832"><ele>185.0</ele><time>2026-03-31T15:35:38.654Z</time></trkpt><trkpt lat="45.6005233" lon="9.4028867"><ele>185.0</ele><time>2026-03-31T15:35:39.653Z</time></trkpt><trkpt lat="45.6004314" lon="9.4028927"><ele>185.0</ele><time>2026-03-31T15:35:40.654Z</time></trkpt><trkpt lat="45.6003425" lon="9.4028979"><ele>184.83333333333331</ele><time>2026-03-31T15:35:41.654Z</time></trkpt><trkpt lat="45.6002524" lon="9.4028991"><ele>184.66666666666666</ele><time>2026-03-31T15:35:42.653Z</time></trkpt><trkpt lat="45.6001621" lon="9.4029055"><ele>184.5</ele><time>2026-03-31T15:35:43.653Z</time></trkpt><trkpt lat="45.6000726" lon="9.4029056"><ele>184.33333333333334</ele><time>2026-03-31T15:35:44.653Z</time></trkpt><trkpt lat="45.5999842" lon="9.4029088"><ele>184.16666666666669</ele><time>2026-03-31T15:35:45.653Z</time></trkpt><trkpt lat="45.5998968" lon="9.4029094"><ele>184.0</ele><time>2026-03-31T15:35:46.654Z</time></trkpt><trkpt lat="45.5998072" lon="9.402913"><ele>184.0</ele><time>2026-03-31T15:35:47.654Z</time></trkpt><trkpt lat="45.5997218" lon="9.4029167"><ele>184.0</ele><time>2026-03-31T15:35:48.653Z</time></trkpt><trkpt lat="45.5996366" lon="9.4029195"><ele>184.0</ele><time>2026-03-31T15:35:49.653Z</time></trkpt><trkpt lat="45.5995537" lon="9.4029254"><ele>184.0</ele><time>2026-03-31T15:35:50.653Z</time></trkpt><trkpt lat="45.5994697" lon="9.402932"><ele>184.0</ele><time>2026-03-31T15:35:51.653Z</time></trkpt><trkpt lat="45.5993873" lon="9.4029345"><ele>184.0</ele><time>2026-03-31T15:35:52.653Z</time></trkpt><trkpt lat="45.5993033" lon="9.4029389"><ele>184.16666666666669</ele><time>2026-03-31T15:35:53.654Z</time></trkpt><trkpt lat="45.5992203" lon="9.4029414"><ele>184.33333333333334</ele><time>2026-03-31T15:35:54.653Z</time></trkpt><trkpt lat="45.5991372" lon="9.402947"><ele>184.5</ele><time>2026-03-31T15:35:55.653Z</time></trkpt><trkpt lat="45.5990554" lon="9.4029537"><ele>184.66666666666666</ele><time>2026-03-31T15:35:56.654Z</time></trkpt><trkpt lat="45.5989859" lon="9.4029718"><ele>184.83333333333331</ele><time>2026-03-31T15:35:57.653Z</time></trkpt><trkpt lat="45.5989284" lon="9.4030128"><ele>185.0</ele><time>2026-03-31T15:35:58.654Z</time></trkpt><trkpt lat="45.598874" lon="9.4030775"><ele>184.57142857142856</ele><time>2026-03-31T15:35:59.653Z</time></trkpt><trkpt lat="45.5988305" lon="9.4031547"><ele>184.14285714285714</ele><time>2026-03-31T15:36:00.653Z</time></trkpt><trkpt lat="45.5988051" lon="9.4032451"><ele>183.71428571428572</ele><time>2026-03-31T15:36:01.654Z</time></trkpt><trkpt lat="45.5987944" lon="9.4033493"><ele>183.28571428571428</ele><time>2026-03-31T15:36:02.653Z</time></trkpt><trkpt lat="45.5987991" lon="9.4034603"><ele>182.85714285714286</ele><time>2026-03-31T15:36:03.653Z</time></trkpt><trkpt lat="45.5988134" lon="9.4035709"><ele>182.42857142857142</ele><time>2026-03-31T15:36:04.653Z</time></trkpt><trkpt lat="45.5988297" lon="9.4036672"><ele>182.0</ele><time>2026-03-31T15:36:05.653Z</time></trkpt><trkpt lat="45.598855" lon="9.4037541"><ele>182.14285714285714</ele><time>2026-03-31T15:36:06.653Z</time></trkpt><trkpt lat="45.5988897" lon="9.4038318"><ele>182.28571428571428</ele><time>2026-03-31T15:36:07.653Z</time></trkpt><trkpt lat="45.5989394" lon="9.403896"><ele>182.42857142857144</ele><time>2026-03-31T15:36:08.654Z</time></trkpt><trkpt lat="45.5990018" lon="9.4039447"><ele>182.57142857142856</ele><time>2026-03-31T15:36:09.654Z</time></trkpt><trkpt lat="45.5990772" lon="9.4039786"><ele>182.71428571428572</ele><time>2026-03-31T15:36:10.653Z</time></trkpt><trkpt lat="45.599152" lon="9.4040005"><ele>182.85714285714286</ele><time>2026-03-31T15:36:11.654Z</time></trkpt><trkpt lat="45.5992314" lon="9.404005"><ele>183.0</ele><time>2026-03-31T15:36:12.653Z</time></trkpt><trkpt lat="45.5993089" lon="9.4040006"><ele>183.0</ele><time>2026-03-31T15:36:13.654Z</time></trkpt><trkpt lat="45.5993964" lon="9.4039847"><ele>183.0</ele><time>2026-03-31T15:36:14.654Z</time></trkpt><trkpt lat="45.5994776" lon="9.4039775"><ele>183.0</ele><time>2026-03-31T15:36:15.654Z</time></trkpt><trkpt lat="45.5995607" lon="9.4039653"><ele>183.0</ele><time>2026-03-31T15:36:16.653Z</time></trkpt><trkpt lat="45.5996483" lon="9.4039519"><ele>183.0</ele><time>2026-03-31T15:36:17.653Z</time></trkpt><trkpt lat="45.5997385" lon="9.403946"><ele>183.0</ele><time>2026-03-31T15:36:18.653Z</time></trkpt><trkpt lat="45.5998296" lon="9.4039414"><ele>183.4</ele><time>2026-03-31T15:36:19.653Z</time></trkpt><trkpt lat="45.5999232" lon="9.403933"><ele>183.8</ele><time>2026-03-31T15:36:20.653Z</time></trkpt><trkpt lat="45.6000209" lon="9.4039212"><ele>184.2</ele><time>2026-03-31T15:36:21.653Z</time></trkpt><trkpt lat="45.6001225" lon="9.4039104"><ele>184.6</ele><time>2026-03-31T15:36:22.654Z</time></trkpt><trkpt lat="45.6002276" lon="9.4038966"><ele>185.0</ele><time>2026-03-31T15:36:23.653Z</time></trkpt><trkpt lat="45.6003343" lon="9.4038828"><ele>185.0</ele><time>2026-03-31T15:36:24.653Z</time></trkpt><trkpt lat="45.6004448" lon="9.4038661"><ele>185.0</ele><time>2026-03-31T15:36:25.654Z</time></trkpt><trkpt lat="45.6005594" lon="9.4038563"><ele>185.0</ele><time>2026-03-31T15:36:26.653Z</time></trkpt><trkpt lat="45.600664" lon="9.4038355"><ele>185.0</ele><time>2026-03-31T15:36:27.653Z</time></trkpt><trkpt lat="45.6007595" lon="9.4038304"><ele>185.0</ele><time>2026-03-31T15:36:28.654Z</time></trkpt><trkpt lat="45.6008528" lon="9.4038238"><ele>185.0</ele><time>2026-03-31T15:36:29.654Z</time></trkpt><trkpt lat="45.6009353" lon="9.4038234"><ele>185.0</ele><time>2026-03-31T15:36:30.654Z</time></trkpt><trkpt lat="45.6010138" lon="9.4038279"><ele>185.0</ele><time>2026-03-31T15:36:31.653Z</time></trkpt><trkpt lat="45.6011003" lon="9.4038313"><ele>185.0</ele><time>2026-03-31T15:36:32.654Z</time></trkpt><trkpt lat="45.6012048" lon="9.4037973"><ele>185.0</ele><time>2026-03-31T15:36:34.654Z</time></trkpt><trkpt lat="45.601234" lon="9.403664"><ele>185.14285714285714</ele><time>2026-03-31T15:36:36.654Z</time></trkpt><trkpt lat="45.6012381" lon="9.4035668"><ele>185.28571428571428</ele><time>2026-03-31T15:36:37.653Z</time></trkpt><trkpt lat="45.6012404" lon="9.4034671"><ele>185.42857142857144</ele><time>2026-03-31T15:36:38.653Z</time></trkpt><trkpt lat="45.6012505" lon="9.4033452"><ele>185.57142857142856</ele><time>2026-03-31T15:36:39.653Z</time></trkpt><trkpt lat="45.6012616" lon="9.4032386"><ele>185.71428571428572</ele><time>2026-03-31T15:36:40.653Z</time></trkpt><trkpt lat="45.6012731" lon="9.4031391"><ele>185.85714285714286</ele><time>2026-03-31T15:36:41.654Z</time></trkpt><trkpt lat="45.6012838" lon="9.4030317"><ele>186.0</ele><time>2026-03-31T15:36:42.654Z</time></trkpt><trkpt lat="45.601299" lon="9.4028566"><ele>186.0</ele><time>2026-03-31T15:36:44.653Z</time></trkpt><trkpt lat="45.6012957" lon="9.4027635"><ele>186.0</ele><time>2026-03-31T15:36:45.653Z</time></trkpt><trkpt lat="45.6012891" lon="9.4026495"><ele>186.0</ele><time>2026-03-31T15:36:46.653Z</time></trkpt><trkpt lat="45.60128" lon="9.4025319"><ele>186.0</ele><time>2026-03-31T15:36:47.653Z</time></trkpt><trkpt lat="45.6012695" lon="9.4024125"><ele>186.0</ele><time>2026-03-31T15:36:48.654Z</time></trkpt><trkpt lat="45.6012527" lon="9.4022925"><ele>186.0</ele><time>2026-03-31T15:36:49.653Z</time></trkpt><trkpt lat="45.6012345" lon="9.4021704"><ele>185.66666666666666</ele><time>2026-03-31T15:36:50.653Z</time></trkpt><trkpt lat="45.601218" lon="9.4020531"><ele>185.33333333333334</ele><time>2026-03-31T15:36:51.653Z</time></trkpt><trkpt lat="45.6012001" lon="9.4019293"><ele>185.0</ele><time>2026-03-31T15:36:52.654Z</time></trkpt><trkpt lat="45.6011828" lon="9.401812"><ele>184.66666666666669</ele><time>2026-03-31T15:36:53.653Z</time></trkpt><trkpt lat="45.6011684" lon="9.4017009"><ele>184.33333333333334</ele><time>2026-03-31T15:36:54.653Z</time></trkpt><trkpt lat="45.6011577" lon="9.4015954"><ele>184.0</ele><time>2026-03-31T15:36:55.653Z</time></trkpt><trkpt lat="45.6011476" lon="9.4014861"><ele>184.0</ele><time>2026-03-31T15:36:56.653Z</time></trkpt><trkpt lat="45.6011343" lon="9.4013759"><ele>184.0</ele><time>2026-03-31T15:36:57.653Z</time></trkpt><trkpt lat="45.601118" lon="9.4012555"><ele>184.0</ele><time>2026-03-31T15:36:58.653Z</time></trkpt><trkpt lat="45.6011007" lon="9.4011414"><ele>184.0</ele><time>2026-03-31T15:36:59.653Z</time></trkpt><trkpt lat="45.6010873" lon="9.4010338"><ele>184.0</ele><time>2026-03-31T15:37:00.653Z</time></trkpt><trkpt lat="45.6010756" lon="9.4009401"><ele>184.0</ele><time>2026-03-31T15:37:01.653Z</time></trkpt><trkpt lat="45.6010819" lon="9.4007946"><ele>184.0</ele><time>2026-03-31T15:37:03.653Z</time></trkpt><trkpt lat="45.6011574" lon="9.400752"><ele>184.0</ele><time>2026-03-31T15:37:06.653Z</time></trkpt><trkpt lat="45.601256" lon="9.4008205"><ele>184.0</ele><time>2026-03-31T15:37:08.653Z</time></trkpt><trkpt lat="45.6013659" lon="9.4009242"><ele>184.0</ele><time>2026-03-31T15:37:10.654Z</time></trkpt><trkpt lat="45.6014304" lon="9.4009659"><ele>184.0</ele><time>2026-03-31T15:37:11.653Z</time></trkpt><trkpt lat="45.6015041" lon="9.4009776"><ele>184.0</ele><time>2026-03-31T15:37:12.654Z</time></trkpt><trkpt lat="45.6015774" lon="9.4009797"><ele>184.0</ele><time>2026-03-31T15:37:13.653Z</time></trkpt><trkpt lat="45.6016529" lon="9.400981"><ele>184.0</ele><time>2026-03-31T15:37:14.654Z</time></trkpt><trkpt lat="45.6017292" lon="9.4009839"><ele>184.0</ele><time>2026-03-31T15:37:15.653Z</time></trkpt><trkpt lat="45.601806" lon="9.4009832"><ele>184.0</ele><time>2026-03-31T15:37:16.653Z</time></trkpt><trkpt lat="45.6018848" lon="9.4009881"><ele>184.0</ele><time>2026-03-31T15:37:17.653Z</time></trkpt><trkpt lat="45.6019543" lon="9.400998"><ele>184.16666666666669</ele><time>2026-03-31T15:37:18.653Z</time></trkpt><trkpt lat="45.6020224" lon="9.4010015"><ele>184.33333333333334</ele><time>2026-03-31T15:37:19.653Z</time></trkpt><trkpt lat="45.602091" lon="9.4009937"><ele>184.5</ele><time>2026-03-31T15:37:20.653Z</time></trkpt><trkpt lat="45.6021606" lon="9.4009869"><ele>184.66666666666666</ele><time>2026-03-31T15:37:21.653Z</time></trkpt><trkpt lat="45.6022255" lon="9.4009959"><ele>184.83333333333331</ele><time>2026-03-31T15:37:22.653Z</time></trkpt><trkpt lat="45.6022948" lon="9.4010057"><ele>185.0</ele><time>2026-03-31T15:37:23.653Z</time></trkpt><trkpt lat="45.6024289" lon="9.4009885"><ele>185.0</ele><time>2026-03-31T15:37:25.653Z</time></trkpt><trkpt lat="45.6024975" lon="9.4009797"><ele>185.0</ele><time>2026-03-31T15:37:26.654Z</time></trkpt><trkpt lat="45.6025641" lon="9.4009816"><ele>185.0</ele><time>2026-03-31T15:37:27.653Z</time></trkpt><trkpt lat="45.6026389" lon="9.4009757"><ele>185.0</ele><time>2026-03-31T15:37:28.653Z</time></trkpt><trkpt lat="45.6027436" lon="9.4009741"><ele>185.0</ele><time>2026-03-31T15:37:30.653Z</time></trkpt><trkpt lat="45.6028138" lon="9.4009981"><ele>185.0</ele><time>2026-03-31T15:37:32.653Z</time></trkpt><trkpt lat="45.6028859" lon="9.40095"><ele>185.0</ele><time>2026-03-31T15:37:35.654Z</time></trkpt><trkpt lat="45.6030028" lon="9.4009389"><ele>185.0</ele><time>2026-03-31T15:37:37.653Z</time></trkpt><trkpt lat="45.6030809" lon="9.4009289"><ele>185.0</ele><time>2026-03-31T15:37:38.654Z</time></trkpt><trkpt lat="45.603201" lon="9.4009308"><ele>185.0</ele><time>2026-03-31T15:37:40.654Z</time></trkpt><trkpt lat="45.6032686" lon="9.4009272"><ele>185.0</ele><time>2026-03-31T15:37:41.653Z</time></trkpt><trkpt lat="45.6033403" lon="9.4009282"><ele>185.0</ele><time>2026-03-31T15:37:42.654Z</time></trkpt><trkpt lat="45.6034493" lon="9.4009581"><ele>185.0</ele><time>2026-03-31T15:37:44.653Z</time></trkpt><trkpt lat="45.6035745" lon="9.4009701"><ele>185.0</ele><time>2026-03-31T15:37:46.653Z</time></trkpt><trkpt lat="45.6036442" lon="9.4009601"><ele>185.0</ele><time>2026-03-31T15:37:47.653Z</time></trkpt><trkpt lat="45.6037173" lon="9.400945"><ele>185.0</ele><time>2026-03-31T15:37:48.653Z</time></trkpt><trkpt lat="45.6037894" lon="9.4009406"><ele>185.0</ele><time>2026-03-31T15:37:49.653Z</time></trkpt><trkpt lat="45.6038668" lon="9.4009359"><ele>185.0</ele><time>2026-03-31T15:37:50.654Z</time></trkpt><trkpt lat="45.6039361" lon="9.4009298"><ele>185.0</ele><time>2026-03-31T15:37:51.653Z</time></trkpt><trkpt lat="45.6040484" lon="9.4009071"><ele>185.0</ele><time>2026-03-31T15:37:53.653Z</time></trkpt><trkpt lat="45.6041121" lon="9.4008898"><ele>185.0</ele><time>2026-03-31T15:37:55.653Z</time></trkpt><trkpt lat="45.6042086" lon="9.4008591"><ele>185.0</ele><time>2026-03-31T15:38:00.654Z</time></trkpt><trkpt lat="45.6043084" lon="9.4008525"><ele>185.0</ele><time>2026-03-31T15:38:02.654Z</time></trkpt><trkpt lat="45.6044087" lon="9.4008552"><ele>185.0</ele><time>2026-03-31T15:38:04.653Z</time></trkpt><trkpt lat="45.6045027" lon="9.4008181"><ele>185.0</ele><time>2026-03-31T15:38:06.654Z</time></trkpt><trkpt lat="45.604601" lon="9.4008019"><ele>185.0</ele><time>2026-03-31T15:38:08.653Z</time></trkpt><trkpt lat="45.6047278" lon="9.4007899"><ele>185.0</ele><time>2026-03-31T15:38:10.653Z</time></trkpt><trkpt lat="45.6047999" lon="9.4007918"><ele>185.0</ele><time>2026-03-31T15:38:11.654Z</time></trkpt><trkpt lat="45.6048799" lon="9.4007818"><ele>185.0</ele><time>2026-03-31T15:38:12.654Z</time></trkpt><trkpt lat="45.604968" lon="9.4007808"><ele>185.0</ele><time>2026-03-31T15:38:13.654Z</time></trkpt><trkpt lat="45.6050497" lon="9.4007753"><ele>185.0</ele><time>2026-03-31T15:38:14.653Z</time></trkpt><trkpt lat="45.6051305" lon="9.4007709"><ele>185.0</ele><time>2026-03-31T15:38:15.654Z</time></trkpt><trkpt lat="45.6052069" lon="9.4007738"><ele>185.0</ele><time>2026-03-31T15:38:16.654Z</time></trkpt><trkpt lat="45.6052854" lon="9.4007704"><ele>185.16666666666666</ele><time>2026-03-31T15:38:17.653Z</time></trkpt><trkpt lat="45.6053636" lon="9.4007748"><ele>185.33333333333331</ele><time>2026-03-31T15:38:18.653Z</time></trkpt><trkpt lat="45.6054402" lon="9.4007799"><ele>185.5</ele><time>2026-03-31T15:38:19.653Z</time></trkpt><trkpt lat="45.6055288" lon="9.4007708"><ele>185.66666666666666</ele><time>2026-03-31T15:38:20.654Z</time></trkpt><trkpt lat="45.6055974" lon="9.4007812"><ele>185.83333333333334</ele><time>2026-03-31T15:38:21.653Z</time></trkpt><trkpt lat="45.6056908" lon="9.4007577"><ele>186.0</ele><time>2026-03-31T15:38:23.654Z</time></trkpt><trkpt lat="45.6057173" lon="9.4006305"><ele>186.0</ele><time>2026-03-31T15:38:25.653Z</time></trkpt><trkpt lat="45.6057484" lon="9.4005122"><ele>186.0</ele><time>2026-03-31T15:38:27.654Z</time></trkpt><trkpt lat="45.605861" lon="9.4004882"><ele>186.0</ele><time>2026-03-31T15:38:29.653Z</time></trkpt><trkpt lat="45.6059402" lon="9.4004925"><ele>186.0</ele><time>2026-03-31T15:38:30.654Z</time></trkpt><trkpt lat="45.6060222" lon="9.4004889"><ele>186.0</ele><time>2026-03-31T15:38:31.653Z</time></trkpt><trkpt lat="45.6061022" lon="9.4004896"><ele>186.0</ele><time>2026-03-31T15:38:32.653Z</time></trkpt><trkpt lat="45.6061818" lon="9.4004799"><ele>185.83333333333334</ele><time>2026-03-31T15:38:33.654Z</time></trkpt><trkpt lat="45.6062609" lon="9.4004693"><ele>185.66666666666666</ele><time>2026-03-31T15:38:34.654Z</time></trkpt><trkpt lat="45.6063445" lon="9.400459"><ele>185.5</ele><time>2026-03-31T15:38:35.653Z</time></trkpt><trkpt lat="45.6064256" lon="9.400429"><ele>185.33333333333331</ele><time>2026-03-31T15:38:36.653Z</time></trkpt><trkpt lat="45.6065014" lon="9.400399"><ele>185.16666666666666</ele><time>2026-03-31T15:38:37.653Z</time></trkpt><trkpt lat="45.6065725" lon="9.4003598"><ele>185.0</ele><time>2026-03-31T15:38:38.654Z</time></trkpt><trkpt lat="45.6066464" lon="9.4003299"><ele>185.0</ele><time>2026-03-31T15:38:39.653Z</time></trkpt><trkpt lat="45.6067176" lon="9.4003031"><ele>185.0</ele><time>2026-03-31T15:38:40.653Z</time></trkpt><trkpt lat="45.6067931" lon="9.4002814"><ele>185.0</ele><time>2026-03-31T15:38:41.654Z</time></trkpt><trkpt lat="45.606869" lon="9.4002581"><ele>185.0</ele><time>2026-03-31T15:38:42.653Z</time></trkpt><trkpt lat="45.6069469" lon="9.4002271"><ele>185.0</ele><time>2026-03-31T15:38:43.654Z</time></trkpt><trkpt lat="45.60703" lon="9.4001868"><ele>185.0</ele><time>2026-03-31T15:38:44.653Z</time></trkpt><trkpt lat="45.6071089" lon="9.4001479"><ele>185.5</ele><time>2026-03-31T15:38:45.653Z</time></trkpt><trkpt lat="45.6071804" lon="9.400112"><ele>186.0</ele><time>2026-03-31T15:38:46.653Z</time></trkpt><trkpt lat="45.6072534" lon="9.4000682"><ele>186.5</ele><time>2026-03-31T15:38:47.654Z</time></trkpt><trkpt lat="45.6073163" lon="9.400032"><ele>187.0</ele><time>2026-03-31T15:38:48.653Z</time></trkpt><trkpt lat="45.6074355" lon="9.3999836"><ele>187.5</ele><time>2026-03-31T15:38:50.654Z</time></trkpt><trkpt lat="45.6075029" lon="9.3999708"><ele>188.0</ele><time>2026-03-31T15:38:51.653Z</time></trkpt><trkpt lat="45.6075748" lon="9.3999647"><ele>188.0</ele><time>2026-03-31T15:38:52.654Z</time></trkpt><trkpt lat="45.6076448" lon="9.3999583"><ele>188.0</ele><time>2026-03-31T15:38:53.653Z</time></trkpt><trkpt lat="45.6077466" lon="9.3999555"><ele>188.0</ele><time>2026-03-31T15:38:55.653Z</time></trkpt><trkpt lat="45.6078205" lon="9.399923"><ele>188.0</ele><time>2026-03-31T15:38:57.653Z</time></trkpt><trkpt lat="45.6078424" lon="9.3997742"><ele>188.0</ele><time>2026-03-31T15:38:59.653Z</time></trkpt><trkpt lat="45.6078507" lon="9.3996818"><ele>188.0</ele><time>2026-03-31T15:39:00.653Z</time></trkpt><trkpt lat="45.6078809" lon="9.3995349"><ele>188.33333333333331</ele><time>2026-03-31T15:39:02.653Z</time></trkpt><trkpt lat="45.6079509" lon="9.3994677"><ele>188.66666666666666</ele><time>2026-03-31T15:39:04.653Z</time></trkpt><trkpt lat="45.6080669" lon="9.3994848"><ele>189.0</ele><time>2026-03-31T15:39:06.653Z</time></trkpt><trkpt lat="45.608135" lon="9.399491"><ele>189.33333333333334</ele><time>2026-03-31T15:39:07.653Z</time></trkpt><trkpt lat="45.6082156" lon="9.3995023"><ele>189.66666666666669</ele><time>2026-03-31T15:39:08.653Z</time></trkpt><trkpt lat="45.6082971" lon="9.3995355"><ele>190.0</ele><time>2026-03-31T15:39:09.653Z</time></trkpt><trkpt lat="45.6083696" lon="9.3995542"><ele>190.0</ele><time>2026-03-31T15:39:10.654Z</time></trkpt><trkpt lat="45.6084476" lon="9.3995766"><ele>190.0</ele><time>2026-03-31T15:39:11.653Z</time></trkpt><trkpt lat="45.608539" lon="9.3996013"><ele>190.0</ele><time>2026-03-31T15:39:12.653Z</time></trkpt><trkpt lat="45.6086203" lon="9.3996283"><ele>190.0</ele><time>2026-03-31T15:39:13.653Z</time></trkpt><trkpt lat="45.6087037" lon="9.3996598"><ele>190.0</ele><time>2026-03-31T15:39:14.653Z</time></trkpt><trkpt lat="45.608792" lon="9.3996863"><ele>190.0</ele><time>2026-03-31T15:39:15.654Z</time></trkpt><trkpt lat="45.608885" lon="9.3997153"><ele>190.16666666666669</ele><time>2026-03-31T15:39:16.653Z</time></trkpt><trkpt lat="45.6089671" lon="9.3997439"><ele>190.33333333333334</ele><time>2026-03-31T15:39:17.653Z</time></trkpt><trkpt lat="45.6090544" lon="9.3997736"><ele>190.5</ele><time>2026-03-31T15:39:18.653Z</time></trkpt><trkpt lat="45.609136" lon="9.3998065"><ele>190.66666666666666</ele><time>2026-03-31T15:39:19.653Z</time></trkpt><trkpt lat="45.6092262" lon="9.3998336"><ele>190.83333333333331</ele><time>2026-03-31T15:39:20.653Z</time></trkpt><trkpt lat="45.609311" lon="9.399855"><ele>191.0</ele><time>2026-03-31T15:39:21.653Z</time></trkpt><trkpt lat="45.6093875" lon="9.3998758"><ele>191.0</ele><time>2026-03-31T15:39:22.654Z</time></trkpt><trkpt lat="45.6094538" lon="9.3999005"><ele>191.0</ele><time>2026-03-31T15:39:23.653Z</time></trkpt><trkpt lat="45.6095565" lon="9.3999498"><ele>191.0</ele><time>2026-03-31T15:39:25.653Z</time></trkpt><trkpt lat="45.6095867" lon="9.4000665"><ele>191.0</ele><time>2026-03-31T15:39:27.653Z</time></trkpt><trkpt lat="45.6095667" lon="9.4002358"><ele>191.0</ele><time>2026-03-31T15:39:29.653Z</time></trkpt><trkpt lat="45.609556" lon="9.4003638"><ele>191.0</ele><time>2026-03-31T15:39:31.653Z</time></trkpt><trkpt lat="45.6095915" lon="9.400449"><ele>191.0</ele><time>2026-03-31T15:39:33.653Z</time></trkpt><trkpt lat="45.6096942" lon="9.4004927"><ele>191.0</ele><time>2026-03-31T15:39:35.653Z</time></trkpt><trkpt lat="45.6098196" lon="9.4005061"><ele>191.0</ele><time>2026-03-31T15:39:37.653Z</time></trkpt><trkpt lat="45.6098866" lon="9.4004996"><ele>191.0</ele><time>2026-03-31T15:39:38.653Z</time></trkpt><trkpt lat="45.6099538" lon="9.4004814"><ele>191.0</ele><time>2026-03-31T15:39:39.654Z</time></trkpt><trkpt lat="45.6100195" lon="9.4004691"><ele>191.0</ele><time>2026-03-31T15:39:40.654Z</time></trkpt><trkpt lat="45.6100836" lon="9.4004702"><ele>191.0</ele><time>2026-03-31T15:39:41.653Z</time></trkpt><trkpt lat="45.6101462" lon="9.400494"><ele>191.0</ele><time>2026-03-31T15:39:42.654Z</time></trkpt><trkpt lat="45.6102139" lon="9.4005369"><ele>191.0</ele><time>2026-03-31T15:39:43.653Z</time></trkpt><trkpt lat="45.6102816" lon="9.4005896"><ele>191.0</ele><time>2026-03-31T15:39:44.654Z</time></trkpt><trkpt lat="45.610347" lon="9.400648"><ele>191.0</ele><time>2026-03-31T15:39:45.653Z</time></trkpt><trkpt lat="45.6104139" lon="9.4007082"><ele>191.0</ele><time>2026-03-31T15:39:46.653Z</time></trkpt><trkpt lat="45.6104839" lon="9.4007599"><ele>190.66666666666666</ele><time>2026-03-31T15:39:47.653Z</time></trkpt><trkpt lat="45.6105571" lon="9.4008027"><ele>190.33333333333331</ele><time>2026-03-31T15:39:48.654Z</time></trkpt><trkpt lat="45.610633" lon="9.4008428"><ele>190.0</ele><time>2026-03-31T15:39:49.653Z</time></trkpt><trkpt lat="45.6107017" lon="9.400883"><ele>189.66666666666666</ele><time>2026-03-31T15:39:50.653Z</time></trkpt><trkpt lat="45.6107718" lon="9.4009214"><ele>189.33333333333334</ele><time>2026-03-31T15:39:51.654Z</time></trkpt><trkpt lat="45.6108377" lon="9.4009602"><ele>189.0</ele><time>2026-03-31T15:39:52.654Z</time></trkpt><trkpt lat="45.6109073" lon="9.4009939"><ele>189.0</ele><time>2026-03-31T15:39:53.653Z</time></trkpt><trkpt lat="45.6109818" lon="9.4010209"><ele>189.0</ele><time>2026-03-31T15:39:54.653Z</time></trkpt><trkpt lat="45.6110616" lon="9.4010497"><ele>189.0</ele><time>2026-03-31T15:39:55.653Z</time></trkpt><trkpt lat="45.6111441" lon="9.4010781"><ele>189.0</ele><time>2026-03-31T15:39:56.653Z</time></trkpt><trkpt lat="45.611225" lon="9.4011101"><ele>189.0</ele><time>2026-03-31T15:39:57.653Z</time></trkpt><trkpt lat="45.6113064" lon="9.40114"><ele>189.0</ele><time>2026-03-31T15:39:58.654Z</time></trkpt><trkpt lat="45.6113859" lon="9.4011863"><ele>189.0</ele><time>2026-03-31T15:39:59.653Z</time></trkpt><trkpt lat="45.6114663" lon="9.401228"><ele>189.0</ele><time>2026-03-31T15:40:00.653Z</time></trkpt><trkpt lat="45.6115402" lon="9.4012709"><ele>189.0</ele><time>2026-03-31T15:40:01.653Z</time></trkpt><trkpt lat="45.6116151" lon="9.4013094"><ele>189.0</ele><time>2026-03-31T15:40:02.653Z</time></trkpt><trkpt lat="45.6116854" lon="9.4013446"><ele>189.0</ele><time>2026-03-31T15:40:03.653Z</time></trkpt><trkpt lat="45.6117566" lon="9.4013881"><ele>189.0</ele><time>2026-03-31T15:40:04.653Z</time></trkpt><trkpt lat="45.6118276" lon="9.4014324"><ele>189.16666666666666</ele><time>2026-03-31T15:40:05.654Z</time></trkpt><trkpt lat="45.6118937" lon="9.4014724"><ele>189.33333333333334</ele><time>2026-03-31T15:40:06.653Z</time></trkpt><trkpt lat="45.6120095" lon="9.4015414"><ele>189.5</ele><time>2026-03-31T15:40:08.653Z</time></trkpt><trkpt lat="45.6120658" lon="9.40159"><ele>189.66666666666669</ele><time>2026-03-31T15:40:09.653Z</time></trkpt><trkpt lat="45.6121261" lon="9.4016447"><ele>189.83333333333334</ele><time>2026-03-31T15:40:10.654Z</time></trkpt><trkpt lat="45.6121925" lon="9.4017001"><ele>190.0</ele><time>2026-03-31T15:40:11.653Z</time></trkpt><trkpt lat="45.6122686" lon="9.4018"><ele>190.0</ele><time>2026-03-31T15:40:13.653Z</time></trkpt><trkpt lat="45.6123387" lon="9.4018767"><ele>190.0</ele><time>2026-03-31T15:40:15.653Z</time></trkpt><trkpt lat="45.6123938" lon="9.401959"><ele>190.0</ele><time>2026-03-31T15:40:17.653Z</time></trkpt><trkpt lat="45.6124749" lon="9.4021002"><ele>190.0</ele><time>2026-03-31T15:40:19.653Z</time></trkpt><trkpt lat="45.6125247" lon="9.4021747"><ele>190.0</ele><time>2026-03-31T15:40:20.654Z</time></trkpt><trkpt lat="45.6125752" lon="9.4022462"><ele>190.0</ele><time>2026-03-31T15:40:21.653Z</time></trkpt><trkpt lat="45.6126491" lon="9.4023474"><ele>190.33333333333334</ele><time>2026-03-31T15:40:23.653Z</time></trkpt><trkpt lat="45.6126463" lon="9.4024944"><ele>190.66666666666669</ele><time>2026-03-31T15:40:26.653Z</time></trkpt><trkpt lat="45.6126229" lon="9.4025896"><ele>191.0</ele><time>2026-03-31T15:40:27.653Z</time></trkpt><trkpt lat="45.6125971" lon="9.4026992"><ele>191.33333333333334</ele><time>2026-03-31T15:40:28.653Z</time></trkpt><trkpt lat="45.6125794" lon="9.4028051"><ele>191.66666666666666</ele><time>2026-03-31T15:40:29.654Z</time></trkpt><trkpt lat="45.612569" lon="9.4029077"><ele>192.0</ele><time>2026-03-31T15:40:30.653Z</time></trkpt><trkpt lat="45.6125635" lon="9.4030169"><ele>192.16666666666666</ele><time>2026-03-31T15:40:31.653Z</time></trkpt><trkpt lat="45.6125553" lon="9.4031259"><ele>192.33333333333331</ele><time>2026-03-31T15:40:32.653Z</time></trkpt><trkpt lat="45.6125483" lon="9.4032435"><ele>192.5</ele><time>2026-03-31T15:40:33.653Z</time></trkpt><trkpt lat="45.612544" lon="9.403363"><ele>192.66666666666666</ele><time>2026-03-31T15:40:34.653Z</time></trkpt><trkpt lat="45.6125405" lon="9.4034917"><ele>192.83333333333331</ele><time>2026-03-31T15:40:35.654Z</time></trkpt><trkpt lat="45.6125366" lon="9.4036204"><ele>193.0</ele><time>2026-03-31T15:40:36.654Z</time></trkpt><trkpt lat="45.6125317" lon="9.40374"><ele>193.2857142857143</ele><time>2026-03-31T15:40:37.653Z</time></trkpt><trkpt lat="45.6125278" lon="9.403857"><ele>193.57142857142858</ele><time>2026-03-31T15:40:38.654Z</time></trkpt><trkpt lat="45.6125237" lon="9.403969"><ele>193.85714285714286</ele><time>2026-03-31T15:40:39.653Z</time></trkpt><trkpt lat="45.6125102" lon="9.4040695"><ele>194.14285714285717</ele><time>2026-03-31T15:40:40.653Z</time></trkpt><trkpt lat="45.6124976" lon="9.404166"><ele>194.42857142857142</ele><time>2026-03-31T15:40:41.653Z</time></trkpt><trkpt lat="45.6124929" lon="9.4042595"><ele>194.71428571428572</ele><time>2026-03-31T15:40:42.653Z</time></trkpt><trkpt lat="45.6124923" lon="9.4043525"><ele>195.0</ele><time>2026-03-31T15:40:43.653Z</time></trkpt><trkpt lat="45.6124513" lon="9.4044509"><ele>195.0</ele><time>2026-03-31T15:40:45.653Z</time></trkpt><trkpt lat="45.6123737" lon="9.4045383"><ele>195.0</ele><time>2026-03-31T15:40:47.653Z</time></trkpt><trkpt lat="45.6123177" lon="9.4046281"><ele>195.0</ele><time>2026-03-31T15:40:49.654Z</time></trkpt><trkpt lat="45.6122842" lon="9.4047462"><ele>195.0</ele><time>2026-03-31T15:40:51.653Z</time></trkpt><trkpt lat="45.6122348" lon="9.4048976"><ele>195.0</ele><time>2026-03-31T15:40:53.653Z</time></trkpt><trkpt lat="45.612188" lon="9.4050557"><ele>195.0</ele><time>2026-03-31T15:40:55.653Z</time></trkpt><trkpt lat="45.6121658" lon="9.4051583"><ele>195.0</ele><time>2026-03-31T15:40:56.653Z</time></trkpt><trkpt lat="45.6121415" lon="9.405339"><ele>195.0</ele><time>2026-03-31T15:40:58.653Z</time></trkpt><trkpt lat="45.6121361" lon="9.4054404"><ele>195.0</ele><time>2026-03-31T15:40:59.653Z</time></trkpt><trkpt lat="45.6120956" lon="9.4055444"><ele>195.0</ele><time>2026-03-31T15:41:01.654Z</time></trkpt><trkpt lat="45.6120547" lon="9.4056712"><ele>195.4</ele><time>2026-03-31T15:41:03.653Z</time></trkpt><trkpt lat="45.6120874" lon="9.4057843"><ele>195.8</ele><time>2026-03-31T15:41:05.653Z</time></trkpt><trkpt lat="45.612154" lon="9.4059401"><ele>196.2</ele><time>2026-03-31T15:41:07.653Z</time></trkpt><trkpt lat="45.6121969" lon="9.4060138"><ele>196.6</ele><time>2026-03-31T15:41:08.653Z</time></trkpt><trkpt lat="45.612237" lon="9.4060859"><ele>197.0</ele><time>2026-03-31T15:41:09.654Z</time></trkpt><trkpt lat="45.6123067" lon="9.4062101"><ele>197.00000000000003</ele><time>2026-03-31T15:41:11.653Z</time></trkpt><trkpt lat="45.6123524" lon="9.4063215"><ele>197.0</ele><time>2026-03-31T15:41:13.653Z</time></trkpt><trkpt lat="45.6123472" lon="9.4064711"><ele>197.0</ele><time>2026-03-31T15:41:15.653Z</time></trkpt><trkpt lat="45.6123434" lon="9.4065687"><ele>197.0</ele><time>2026-03-31T15:41:16.654Z</time></trkpt><trkpt lat="45.6123438" lon="9.4066685"><ele>197.00000000000003</ele><time>2026-03-31T15:41:17.654Z</time></trkpt><trkpt lat="45.6123448" lon="9.406768"><ele>197.0</ele><time>2026-03-31T15:41:18.654Z</time></trkpt><trkpt lat="45.6123362" lon="9.4068665"><ele>197.00000000000003</ele><time>2026-03-31T15:41:19.653Z</time></trkpt><trkpt lat="45.6123328" lon="9.4069726"><ele>197.0</ele><time>2026-03-31T15:41:20.654Z</time></trkpt><trkpt lat="45.6123262" lon="9.4070846"><ele>197.0</ele><time>2026-03-31T15:41:21.653Z</time></trkpt><trkpt lat="45.6123217" lon="9.4071955"><ele>197.0</ele><time>2026-03-31T15:41:22.654Z</time></trkpt><trkpt lat="45.6123162" lon="9.407303"><ele>197.00000000000003</ele><time>2026-03-31T15:41:23.653Z</time></trkpt><trkpt lat="45.6123093" lon="9.4074082"><ele>197.0</ele><time>2026-03-31T15:41:24.653Z</time></trkpt><trkpt lat="45.6123086" lon="9.4075124"><ele>197.00000000000003</ele><time>2026-03-31T15:41:25.653Z</time></trkpt><trkpt lat="45.6123103" lon="9.4076196"><ele>197.0</ele><time>2026-03-31T15:41:26.654Z</time></trkpt><trkpt lat="45.6123143" lon="9.4077229"><ele>197.0</ele><time>2026-03-31T15:41:27.653Z</time></trkpt><trkpt lat="45.6123203" lon="9.4078292"><ele>197.0</ele><time>2026-03-31T15:41:28.653Z</time></trkpt><trkpt lat="45.6123308" lon="9.4079411"><ele>197.00000000000003</ele><time>2026-03-31T15:41:29.653Z</time></trkpt><trkpt lat="45.6123421" lon="9.4080513"><ele>197.0</ele><time>2026-03-31T15:41:30.653Z</time></trkpt><trkpt lat="45.6123532" lon="9.4081606"><ele>196.83333333333334</ele><time>2026-03-31T15:41:31.653Z</time></trkpt><trkpt lat="45.6123668" lon="9.4082716"><ele>196.66666666666669</ele><time>2026-03-31T15:41:32.653Z</time></trkpt><trkpt lat="45.6123853" lon="9.4083881"><ele>196.5</ele><time>2026-03-31T15:41:33.653Z</time></trkpt><trkpt lat="45.6124015" lon="9.4085015"><ele>196.33333333333331</ele><time>2026-03-31T15:41:34.654Z</time></trkpt><trkpt lat="45.6124114" lon="9.4086164"><ele>196.16666666666666</ele><time>2026-03-31T15:41:35.653Z</time></trkpt><trkpt lat="45.6124226" lon="9.4087317"><ele>196.0</ele><time>2026-03-31T15:41:36.654Z</time></trkpt><trkpt lat="45.612432" lon="9.4088458"><ele>195.99999999999997</ele><time>2026-03-31T15:41:37.653Z</time></trkpt><trkpt lat="45.6124405" lon="9.4089592"><ele>196.0</ele><time>2026-03-31T15:41:38.653Z</time></trkpt><trkpt lat="45.6124491" lon="9.4090747"><ele>196.0</ele><time>2026-03-31T15:41:39.653Z</time></trkpt><trkpt lat="45.6124582" lon="9.4091882"><ele>196.0</ele><time>2026-03-31T15:41:40.653Z</time></trkpt><trkpt lat="45.6124651" lon="9.4093039"><ele>195.99999999999997</ele><time>2026-03-31T15:41:41.653Z</time></trkpt><trkpt lat="45.6124715" lon="9.4094233"><ele>196.0</ele><time>2026-03-31T15:41:42.653Z</time></trkpt><trkpt lat="45.6124812" lon="9.4095482"><ele>196.4</ele><time>2026-03-31T15:41:43.654Z</time></trkpt><trkpt lat="45.6124896" lon="9.4096731"><ele>196.8</ele><time>2026-03-31T15:41:44.654Z</time></trkpt><trkpt lat="45.6125019" lon="9.4097998"><ele>197.20000000000002</ele><time>2026-03-31T15:41:45.654Z</time></trkpt><trkpt lat="45.61251" lon="9.4099305"><ele>197.60000000000002</ele><time>2026-03-31T15:41:46.653Z</time></trkpt><trkpt lat="45.6125202" lon="9.410063"><ele>198.0</ele><time>2026-03-31T15:41:47.654Z</time></trkpt><trkpt lat="45.6125314" lon="9.4101989"><ele>198.0</ele><time>2026-03-31T15:41:48.653Z</time></trkpt><trkpt lat="45.6125407" lon="9.4103354"><ele>198.0</ele><time>2026-03-31T15:41:49.653Z</time></trkpt><trkpt lat="45.6125495" lon="9.4104655"><ele>198.0</ele><time>2026-03-31T15:41:50.653Z</time></trkpt><trkpt lat="45.612559" lon="9.4105868"><ele>198.0</ele><time>2026-03-31T15:41:51.653Z</time></trkpt><trkpt lat="45.6125712" lon="9.4107026"><ele>198.0</ele><time>2026-03-31T15:41:52.654Z</time></trkpt><trkpt lat="45.6125865" lon="9.4108201"><ele>198.0</ele><time>2026-03-31T15:41:53.653Z</time></trkpt><trkpt lat="45.6126065" lon="9.4109345"><ele>197.83333333333334</ele><time>2026-03-31T15:41:54.653Z</time></trkpt><trkpt lat="45.612638" lon="9.4110417"><ele>197.66666666666669</ele><time>2026-03-31T15:41:55.653Z</time></trkpt><trkpt lat="45.612683" lon="9.4111471"><ele>197.5</ele><time>2026-03-31T15:41:56.653Z</time></trkpt><trkpt lat="45.6127309" lon="9.4112454"><ele>197.33333333333334</ele><time>2026-03-31T15:41:57.653Z</time></trkpt><trkpt lat="45.6127858" lon="9.4113487"><ele>197.16666666666669</ele><time>2026-03-31T15:41:58.654Z</time></trkpt><trkpt lat="45.612834" lon="9.4114471"><ele>197.0</ele><time>2026-03-31T15:41:59.653Z</time></trkpt><trkpt lat="45.6128736" lon="9.4115469"><ele>197.33333333333334</ele><time>2026-03-31T15:42:00.653Z</time></trkpt><trkpt lat="45.6129031" lon="9.4116384"><ele>197.66666666666669</ele><time>2026-03-31T15:42:01.653Z</time></trkpt><trkpt lat="45.6129246" lon="9.4117245"><ele>198.0</ele><time>2026-03-31T15:42:02.654Z</time></trkpt><trkpt lat="45.6129395" lon="9.4118131"><ele>198.33333333333331</ele><time>2026-03-31T15:42:03.654Z</time></trkpt><trkpt lat="45.6129503" lon="9.4119747"><ele>198.66666666666666</ele><time>2026-03-31T15:42:05.653Z</time></trkpt><trkpt lat="45.6129527" lon="9.4121073"><ele>199.0</ele><time>2026-03-31T15:42:08.653Z</time></trkpt><trkpt lat="45.6129464" lon="9.4122741"><ele>199.33333333333331</ele><time>2026-03-31T15:42:10.653Z</time></trkpt><trkpt lat="45.6129443" lon="9.4123726"><ele>199.66666666666666</ele><time>2026-03-31T15:42:11.653Z</time></trkpt><trkpt lat="45.612944" lon="9.4124824"><ele>200.0</ele><time>2026-03-31T15:42:12.653Z</time></trkpt><trkpt lat="45.6129457" lon="9.412598"><ele>200.33333333333331</ele><time>2026-03-31T15:42:13.654Z</time></trkpt><trkpt lat="45.6129449" lon="9.4127214"><ele>200.66666666666666</ele><time>2026-03-31T15:42:14.654Z</time></trkpt><trkpt lat="45.6129443" lon="9.4128502"><ele>201.0</ele><time>2026-03-31T15:42:15.654Z</time></trkpt><trkpt lat="45.6129433" lon="9.4129822"><ele>200.8</ele><time>2026-03-31T15:42:16.653Z</time></trkpt><trkpt lat="45.6129425" lon="9.4131186"><ele>200.60000000000002</ele><time>2026-03-31T15:42:17.653Z</time></trkpt><trkpt lat="45.6129378" lon="9.4132557"><ele>200.4</ele><time>2026-03-31T15:42:18.653Z</time></trkpt><trkpt lat="45.6129326" lon="9.4133931"><ele>200.2</ele><time>2026-03-31T15:42:19.653Z</time></trkpt><trkpt lat="45.6129291" lon="9.4135316"><ele>200.0</ele><time>2026-03-31T15:42:20.653Z</time></trkpt><trkpt lat="45.6129261" lon="9.4136736"><ele>200.0</ele><time>2026-03-31T15:42:21.653Z</time></trkpt><trkpt lat="45.6129231" lon="9.4138145"><ele>200.0</ele><time>2026-03-31T15:42:22.653Z</time></trkpt><trkpt lat="45.6129194" lon="9.4139549"><ele>200.0</ele><time>2026-03-31T15:42:23.653Z</time></trkpt><trkpt lat="45.6129136" lon="9.414098"><ele>200.0</ele><time>2026-03-31T15:42:24.653Z</time></trkpt><trkpt lat="45.6129067" lon="9.4142437"><ele>200.0</ele><time>2026-03-31T15:42:25.653Z</time></trkpt><trkpt lat="45.6129016" lon="9.4143868"><ele>200.0</ele><time>2026-03-31T15:42:26.654Z</time></trkpt><trkpt lat="45.6128975" lon="9.4145314"><ele>200.0</ele><time>2026-03-31T15:42:27.653Z</time></trkpt><trkpt lat="45.6128919" lon="9.4146755"><ele>200.0</ele><time>2026-03-31T15:42:28.654Z</time></trkpt><trkpt lat="45.6128894" lon="9.41482"><ele>200.0</ele><time>2026-03-31T15:42:29.654Z</time></trkpt><trkpt lat="45.6128898" lon="9.4149625"><ele>200.0</ele><time>2026-03-31T15:42:30.654Z</time></trkpt><trkpt lat="45.6128904" lon="9.4151095"><ele>200.0</ele><time>2026-03-31T15:42:31.653Z</time></trkpt><trkpt lat="45.6128921" lon="9.4152616"><ele>200.0</ele><time>2026-03-31T15:42:32.653Z</time></trkpt><trkpt lat="45.6128943" lon="9.4154083"><ele>200.0</ele><time>2026-03-31T15:42:33.653Z</time></trkpt><trkpt lat="45.6128978" lon="9.4155591"><ele>200.0</ele><time>2026-03-31T15:42:34.654Z</time></trkpt><trkpt lat="45.6128946" lon="9.4156907"><ele>200.0</ele><time>2026-03-31T15:42:35.653Z</time></trkpt><trkpt lat="45.6129032" lon="9.4158514"><ele>200.0</ele><time>2026-03-31T15:42:36.653Z</time></trkpt><trkpt lat="45.612904" lon="9.4159998"><ele>200.0</ele><time>2026-03-31T15:42:37.653Z</time></trkpt><trkpt lat="45.6129076" lon="9.4161403"><ele>200.0</ele><time>2026-03-31T15:42:38.653Z</time></trkpt><trkpt lat="45.6129139" lon="9.4162695"><ele>200.0</ele><time>2026-03-31T15:42:39.653Z</time></trkpt><trkpt lat="45.6129201" lon="9.4163909"><ele>200.0</ele><time>2026-03-31T15:42:40.653Z</time></trkpt><trkpt lat="45.6129278" lon="9.4165015"><ele>200.00000000000003</ele><time>2026-03-31T15:42:41.653Z</time></trkpt><trkpt lat="45.6129382" lon="9.4165938"><ele>200.0</ele><time>2026-03-31T15:42:42.653Z</time></trkpt><trkpt lat="45.6129822" lon="9.4167375"><ele>200.0</ele><time>2026-03-31T15:42:44.653Z</time></trkpt><trkpt lat="45.6130498" lon="9.4168239"><ele>200.0</ele><time>2026-03-31T15:42:46.654Z</time></trkpt><trkpt lat="45.6130876" lon="9.4169085"><ele>200.00000000000003</ele><time>2026-03-31T15:42:59.653Z</time></trkpt><trkpt lat="45.6130819" lon="9.4170473"><ele>200.0</ele><time>2026-03-31T15:43:01.653Z</time></trkpt><trkpt lat="45.6130798" lon="9.4171429"><ele>200.00000000000003</ele><time>2026-03-31T15:43:02.653Z</time></trkpt><trkpt lat="45.6130733" lon="9.4172563"><ele>200.0</ele><time>2026-03-31T15:43:03.653Z</time></trkpt><trkpt lat="45.6130658" lon="9.4173826"><ele>200.0</ele><time>2026-03-31T15:43:04.653Z</time></trkpt><trkpt lat="45.6130564" lon="9.4175054"><ele>200.0</ele><time>2026-03-31T15:43:05.654Z</time></trkpt><trkpt lat="45.6130467" lon="9.4176322"><ele>200.00000000000003</ele><time>2026-03-31T15:43:06.653Z</time></trkpt><trkpt lat="45.6130346" lon="9.4177558"><ele>200.0</ele><time>2026-03-31T15:43:07.653Z</time></trkpt><trkpt lat="45.6130228" lon="9.4178803"><ele>199.83333333333334</ele><time>2026-03-31T15:43:08.653Z</time></trkpt><trkpt lat="45.6130152" lon="9.4180086"><ele>199.66666666666669</ele><time>2026-03-31T15:43:09.653Z</time></trkpt><trkpt lat="45.6130098" lon="9.4181256"><ele>199.5</ele><time>2026-03-31T15:43:10.653Z</time></trkpt><trkpt lat="45.6130032" lon="9.4182355"><ele>199.33333333333331</ele><time>2026-03-31T15:43:11.653Z</time></trkpt><trkpt lat="45.6129907" lon="9.4183351"><ele>199.16666666666666</ele><time>2026-03-31T15:43:12.653Z</time></trkpt><trkpt lat="45.6129737" lon="9.4184235"><ele>199.0</ele><time>2026-03-31T15:43:13.653Z</time></trkpt><trkpt lat="45.612934" lon="9.4185097"><ele>198.99999999999997</ele><time>2026-03-31T15:43:15.653Z</time></trkpt><trkpt lat="45.6128635" lon="9.4185957"><ele>199.0</ele><time>2026-03-31T15:43:17.653Z</time></trkpt><trkpt lat="45.612789" lon="9.4186933"><ele>199.0</ele><time>2026-03-31T15:43:19.653Z</time></trkpt><trkpt lat="45.6127523" lon="9.4188136"><ele>199.0</ele><time>2026-03-31T15:43:21.653Z</time></trkpt><trkpt lat="45.6127708" lon="9.4189095"><ele>198.99999999999997</ele><time>2026-03-31T15:43:23.654Z</time></trkpt><trkpt lat="45.6128211" lon="9.4190158"><ele>199.0</ele><time>2026-03-31T15:43:25.654Z</time></trkpt><trkpt lat="45.6128695" lon="9.4190943"><ele>198.99999999999997</ele><time>2026-03-31T15:43:27.654Z</time></trkpt><trkpt lat="45.6129458" lon="9.4192163"><ele>199.0</ele><time>2026-03-31T15:43:29.653Z</time></trkpt><trkpt lat="45.6129869" lon="9.4192965"><ele>199.0</ele><time>2026-03-31T15:43:30.653Z</time></trkpt><trkpt lat="45.6130209" lon="9.4193822"><ele>199.0</ele><time>2026-03-31T15:43:31.654Z</time></trkpt><trkpt lat="45.6130489" lon="9.4194678"><ele>198.99999999999997</ele><time>2026-03-31T15:43:32.653Z</time></trkpt><trkpt lat="45.6130622" lon="9.4195679"><ele>199.0</ele><time>2026-03-31T15:43:33.654Z</time></trkpt><trkpt lat="45.6130797" lon="9.419735"><ele>199.0</ele><time>2026-03-31T15:43:35.653Z</time></trkpt><trkpt lat="45.6131064" lon="9.4199033"><ele>199.0</ele><time>2026-03-31T15:43:37.653Z</time></trkpt><trkpt lat="45.6131311" lon="9.4200846"><ele>199.0</ele><time>2026-03-31T15:43:39.653Z</time></trkpt><trkpt lat="45.6131523" lon="9.4202475"><ele>199.0</ele><time>2026-03-31T15:43:41.654Z</time></trkpt><trkpt lat="45.61317" lon="9.4203841"><ele>198.99999999999997</ele><time>2026-03-31T15:43:43.653Z</time></trkpt><trkpt lat="45.613197" lon="9.4205466"><ele>199.0</ele><time>2026-03-31T15:43:45.653Z</time></trkpt><trkpt lat="45.6132141" lon="9.4206434"><ele>199.0</ele><time>2026-03-31T15:43:46.654Z</time></trkpt><trkpt lat="45.6132329" lon="9.4207508"><ele>199.0</ele><time>2026-03-31T15:43:47.653Z</time></trkpt><trkpt lat="45.6132587" lon="9.420864"><ele>198.99999999999997</ele><time>2026-03-31T15:43:48.653Z</time></trkpt><trkpt lat="45.6132853" lon="9.4209803"><ele>199.0</ele><time>2026-03-31T15:43:49.654Z</time></trkpt><trkpt lat="45.613316" lon="9.4210914"><ele>198.99999999999997</ele><time>2026-03-31T15:43:50.653Z</time></trkpt><trkpt lat="45.6133462" lon="9.4212038"><ele>199.0</ele><time>2026-03-31T15:43:51.653Z</time></trkpt><trkpt lat="45.6133736" lon="9.421303"><ele>199.0</ele><time>2026-03-31T15:43:52.653Z</time></trkpt><trkpt lat="45.6134003" lon="9.4213975"><ele>199.0</ele><time>2026-03-31T15:43:53.654Z</time></trkpt><trkpt lat="45.613428" lon="9.4214962"><ele>198.99999999999997</ele><time>2026-03-31T15:43:54.653Z</time></trkpt><trkpt lat="45.6134567" lon="9.421596"><ele>199.0</ele><time>2026-03-31T15:43:55.653Z</time></trkpt><trkpt lat="45.6134888" lon="9.4217033"><ele>199.33333333333331</ele><time>2026-03-31T15:43:56.653Z</time></trkpt><trkpt lat="45.6135184" lon="9.4218015"><ele>199.66666666666666</ele><time>2026-03-31T15:43:57.653Z</time></trkpt><trkpt lat="45.6135447" lon="9.4218962"><ele>200.0</ele><time>2026-03-31T15:43:58.653Z</time></trkpt><trkpt lat="45.6135726" lon="9.42199"><ele>200.33333333333331</ele><time>2026-03-31T15:43:59.654Z</time></trkpt><trkpt lat="45.6135992" lon="9.4220873"><ele>200.66666666666666</ele><time>2026-03-31T15:44:00.653Z</time></trkpt><trkpt lat="45.6136313" lon="9.4221976"><ele>201.0</ele><time>2026-03-31T15:44:01.653Z</time></trkpt><trkpt lat="45.6136652" lon="9.4223012"><ele>201.33333333333334</ele><time>2026-03-31T15:44:02.653Z</time></trkpt><trkpt lat="45.6136947" lon="9.4224091"><ele>201.66666666666669</ele><time>2026-03-31T15:44:03.653Z</time></trkpt><trkpt lat="45.6137274" lon="9.4225213"><ele>202.0</ele><time>2026-03-31T15:44:04.653Z</time></trkpt><trkpt lat="45.6137584" lon="9.4226313"><ele>202.33333333333334</ele><time>2026-03-31T15:44:05.654Z</time></trkpt><trkpt lat="45.6137895" lon="9.422733"><ele>202.66666666666669</ele><time>2026-03-31T15:44:06.653Z</time></trkpt><trkpt lat="45.6138162" lon="9.42283"><ele>203.0</ele><time>2026-03-31T15:44:07.653Z</time></trkpt><trkpt lat="45.6138409" lon="9.4229215"><ele>202.83333333333334</ele><time>2026-03-31T15:44:08.653Z</time></trkpt><trkpt lat="45.6138669" lon="9.4230207"><ele>202.66666666666669</ele><time>2026-03-31T15:44:09.653Z</time></trkpt><trkpt lat="45.6138893" lon="9.4231157"><ele>202.5</ele><time>2026-03-31T15:44:10.654Z</time></trkpt><trkpt lat="45.613909" lon="9.4232041"><ele>202.33333333333331</ele><time>2026-03-31T15:44:11.654Z</time></trkpt><trkpt lat="45.6139203" lon="9.4233652"><ele>202.16666666666666</ele><time>2026-03-31T15:44:13.654Z</time></trkpt><trkpt lat="45.6139072" lon="9.4235381"><ele>202.0</ele><time>2026-03-31T15:44:15.653Z</time></trkpt><trkpt lat="45.6139018" lon="9.4236316"><ele>201.99999999999997</ele><time>2026-03-31T15:44:16.653Z</time></trkpt><trkpt lat="45.6139135" lon="9.4237278"><ele>202.0</ele><time>2026-03-31T15:44:17.653Z</time></trkpt><trkpt lat="45.6139483" lon="9.4238223"><ele>202.0</ele><time>2026-03-31T15:44:18.653Z</time></trkpt><trkpt lat="45.6140024" lon="9.4239099"><ele>202.0</ele><time>2026-03-31T15:44:19.653Z</time></trkpt><trkpt lat="45.6140716" lon="9.4239953"><ele>201.99999999999997</ele><time>2026-03-31T15:44:20.653Z</time></trkpt><trkpt lat="45.6141403" lon="9.4240921"><ele>202.0</ele><time>2026-03-31T15:44:21.653Z</time></trkpt><trkpt lat="45.6141992" lon="9.4242091"><ele>202.25</ele><time>2026-03-31T15:44:22.654Z</time></trkpt><trkpt lat="45.6142506" lon="9.4243458"><ele>202.5</ele><time>2026-03-31T15:44:23.653Z</time></trkpt><trkpt lat="45.6142987" lon="9.4244889"><ele>202.75</ele><time>2026-03-31T15:44:24.653Z</time></trkpt><trkpt lat="45.6143479" lon="9.4246363"><ele>203.0</ele><time>2026-03-31T15:44:25.653Z</time></trkpt><trkpt lat="45.6144001" lon="9.4247847"><ele>202.5</ele><time>2026-03-31T15:44:26.653Z</time></trkpt><trkpt lat="45.6144489" lon="9.4249319"><ele>202.0</ele><time>2026-03-31T15:44:27.654Z</time></trkpt><trkpt lat="45.6144978" lon="9.42509"><ele>201.5</ele><time>2026-03-31T15:44:28.653Z</time></trkpt><trkpt lat="45.6145463" lon="9.4252509"><ele>201.0</ele><time>2026-03-31T15:44:29.653Z</time></trkpt><trkpt lat="45.6145966" lon="9.4254122"><ele>201.5</ele><time>2026-03-31T15:44:30.653Z</time></trkpt><trkpt lat="45.614644" lon="9.4255753"><ele>202.0</ele><time>2026-03-31T15:44:31.653Z</time></trkpt><trkpt lat="45.6146901" lon="9.4257382"><ele>202.5</ele><time>2026-03-31T15:44:32.654Z</time></trkpt><trkpt lat="45.614743" lon="9.4259087"><ele>203.0</ele><time>2026-03-31T15:44:33.653Z</time></trkpt><trkpt lat="45.6147947" lon="9.4260799"><ele>203.0</ele><time>2026-03-31T15:44:34.653Z</time></trkpt><trkpt lat="45.6148494" lon="9.4262661"><ele>203.0</ele><time>2026-03-31T15:44:35.654Z</time></trkpt><trkpt lat="45.6149081" lon="9.4264664"><ele>203.0</ele><time>2026-03-31T15:44:36.653Z</time></trkpt><trkpt lat="45.6149627" lon="9.4266472"><ele>203.0</ele><time>2026-03-31T15:44:37.653Z</time></trkpt><trkpt lat="45.6150139" lon="9.4268195"><ele>203.0</ele><time>2026-03-31T15:44:38.654Z</time></trkpt><trkpt lat="45.6150597" lon="9.4269905"><ele>203.0</ele><time>2026-03-31T15:44:39.653Z</time></trkpt><trkpt lat="45.6151065" lon="9.4271604"><ele>203.0</ele><time>2026-03-31T15:44:40.654Z</time></trkpt><trkpt lat="45.6151549" lon="9.4273308"><ele>203.0</ele><time>2026-03-31T15:44:41.653Z</time></trkpt><trkpt lat="45.6152037" lon="9.4275052"><ele>203.0</ele><time>2026-03-31T15:44:42.653Z</time></trkpt><trkpt lat="45.6152551" lon="9.4276811"><ele>203.0</ele><time>2026-03-31T15:44:43.653Z</time></trkpt><trkpt lat="45.6153087" lon="9.4278581"><ele>203.0</ele><time>2026-03-31T15:44:44.654Z</time></trkpt><trkpt lat="45.6153637" lon="9.4280394"><ele>203.0</ele><time>2026-03-31T15:44:45.654Z</time></trkpt><trkpt lat="45.6154149" lon="9.428221"><ele>203.5</ele><time>2026-03-31T15:44:46.653Z</time></trkpt><trkpt lat="45.6154593" lon="9.428401"><ele>204.0</ele><time>2026-03-31T15:44:47.653Z</time></trkpt><trkpt lat="45.6154977" lon="9.4285769"><ele>204.5</ele><time>2026-03-31T15:44:48.653Z</time></trkpt><trkpt lat="45.6155305" lon="9.4287496"><ele>205.0</ele><time>2026-03-31T15:44:49.653Z</time></trkpt><trkpt lat="45.6155593" lon="9.4289223"><ele>205.0</ele><time>2026-03-31T15:44:50.653Z</time></trkpt><trkpt lat="45.6155857" lon="9.4290962"><ele>205.0</ele><time>2026-03-31T15:44:51.653Z</time></trkpt><trkpt lat="45.6156075" lon="9.4292721"><ele>205.0</ele><time>2026-03-31T15:44:52.654Z</time></trkpt><trkpt lat="45.6156266" lon="9.4294498"><ele>205.0</ele><time>2026-03-31T15:44:53.653Z</time></trkpt><trkpt lat="45.6156477" lon="9.4296322"><ele>205.5</ele><time>2026-03-31T15:44:54.653Z</time></trkpt><trkpt lat="45.6156633" lon="9.4298165"><ele>206.0</ele><time>2026-03-31T15:44:55.654Z</time></trkpt><trkpt lat="45.6156718" lon="9.4300037"><ele>206.5</ele><time>2026-03-31T15:44:56.653Z</time></trkpt><trkpt lat="45.6156771" lon="9.4301953"><ele>207.0</ele><time>2026-03-31T15:44:57.653Z</time></trkpt><trkpt lat="45.6156818" lon="9.4303894"><ele>206.5</ele><time>2026-03-31T15:44:58.653Z</time></trkpt><trkpt lat="45.6156845" lon="9.4305851"><ele>206.0</ele><time>2026-03-31T15:44:59.654Z</time></trkpt><trkpt lat="45.6156853" lon="9.4307841"><ele>205.5</ele><time>2026-03-31T15:45:00.653Z</time></trkpt><trkpt lat="45.6156897" lon="9.4309854"><ele>205.0</ele><time>2026-03-31T15:45:01.653Z</time></trkpt><trkpt lat="45.6156906" lon="9.4311855"><ele>205.0</ele><time>2026-03-31T15:45:02.653Z</time></trkpt><trkpt lat="45.6156934" lon="9.431391"><ele>205.0</ele><time>2026-03-31T15:45:03.653Z</time></trkpt><trkpt lat="45.6156934" lon="9.4315963"><ele>205.0</ele><time>2026-03-31T15:45:04.653Z</time></trkpt><trkpt lat="45.6156981" lon="9.4318003"><ele>205.0</ele><time>2026-03-31T15:45:05.653Z</time></trkpt><trkpt lat="45.6157007" lon="9.4320059"><ele>204.75</ele><time>2026-03-31T15:45:06.653Z</time></trkpt><trkpt lat="45.615704" lon="9.4322139"><ele>204.5</ele><time>2026-03-31T15:45:07.654Z</time></trkpt><trkpt lat="45.6157085" lon="9.4324231"><ele>204.25</ele><time>2026-03-31T15:45:08.653Z</time></trkpt><trkpt lat="45.6157145" lon="9.4326304"><ele>204.0</ele><time>2026-03-31T15:45:09.653Z</time></trkpt><trkpt lat="45.6157196" lon="9.4328342"><ele>204.0</ele><time>2026-03-31T15:45:10.653Z</time></trkpt><trkpt lat="45.6157222" lon="9.4330415"><ele>204.0</ele><time>2026-03-31T15:45:11.653Z</time></trkpt><trkpt lat="45.6157248" lon="9.4332466"><ele>204.0</ele><time>2026-03-31T15:45:12.653Z</time></trkpt><trkpt lat="45.615726" lon="9.4334464"><ele>204.0</ele><time>2026-03-31T15:45:13.653Z</time></trkpt><trkpt lat="45.6157294" lon="9.4336465"><ele>204.0</ele><time>2026-03-31T15:45:14.654Z</time></trkpt><trkpt lat="45.6157305" lon="9.4338349"><ele>204.0</ele><time>2026-03-31T15:45:15.653Z</time></trkpt><trkpt lat="45.6157288" lon="9.434021"><ele>204.0</ele><time>2026-03-31T15:45:16.653Z</time></trkpt><trkpt lat="45.6157291" lon="9.4342014"><ele>204.0</ele><time>2026-03-31T15:45:17.653Z</time></trkpt><trkpt lat="45.6157321" lon="9.4343826"><ele>204.0</ele><time>2026-03-31T15:45:18.654Z</time></trkpt><trkpt lat="45.6157354" lon="9.4345661"><ele>204.0</ele><time>2026-03-31T15:45:19.653Z</time></trkpt><trkpt lat="45.6157381" lon="9.4347483"><ele>204.0</ele><time>2026-03-31T15:45:20.653Z</time></trkpt><trkpt lat="45.6157403" lon="9.4349285"><ele>204.0</ele><time>2026-03-31T15:45:21.653Z</time></trkpt><trkpt lat="45.615744" lon="9.4351045"><ele>203.75</ele><time>2026-03-31T15:45:22.654Z</time></trkpt><trkpt lat="45.6157463" lon="9.4352773"><ele>203.5</ele><time>2026-03-31T15:45:23.653Z</time></trkpt><trkpt lat="45.6157477" lon="9.4354487"><ele>203.25</ele><time>2026-03-31T15:45:24.654Z</time></trkpt><trkpt lat="45.615752" lon="9.4356124"><ele>203.0</ele><time>2026-03-31T15:45:25.654Z</time></trkpt><trkpt lat="45.6157549" lon="9.4357717"><ele>203.0</ele><time>2026-03-31T15:45:26.654Z</time></trkpt><trkpt lat="45.6157587" lon="9.4359293"><ele>203.0</ele><time>2026-03-31T15:45:27.653Z</time></trkpt><trkpt lat="45.6157634" lon="9.4360822"><ele>203.0</ele><time>2026-03-31T15:45:28.653Z</time></trkpt><trkpt lat="45.6157688" lon="9.4362355"><ele>203.0</ele><time>2026-03-31T15:45:29.653Z</time></trkpt><trkpt lat="45.6157711" lon="9.4363943"><ele>203.0</ele><time>2026-03-31T15:45:30.653Z</time></trkpt><trkpt lat="45.6157743" lon="9.4365538"><ele>203.60000000000002</ele><time>2026-03-31T15:45:31.654Z</time></trkpt><trkpt lat="45.6157757" lon="9.4367109"><ele>204.20000000000002</ele><time>2026-03-31T15:45:32.653Z</time></trkpt><trkpt lat="45.6157771" lon="9.4368723"><ele>204.8</ele><time>2026-03-31T15:45:33.653Z</time></trkpt><trkpt lat="45.6157801" lon="9.437026"><ele>205.4</ele><time>2026-03-31T15:45:34.654Z</time></trkpt><trkpt lat="45.6157828" lon="9.4371776"><ele>206.0</ele><time>2026-03-31T15:45:35.653Z</time></trkpt><trkpt lat="45.6157848" lon="9.4373262"><ele>206.20000000000002</ele><time>2026-03-31T15:45:36.653Z</time></trkpt><trkpt lat="45.6157854" lon="9.4374753"><ele>206.4</ele><time>2026-03-31T15:45:37.653Z</time></trkpt><trkpt lat="45.6157873" lon="9.4376247"><ele>206.6</ele><time>2026-03-31T15:45:38.653Z</time></trkpt><trkpt lat="45.6157868" lon="9.437768"><ele>206.8</ele><time>2026-03-31T15:45:39.654Z</time></trkpt><trkpt lat="45.6157828" lon="9.437905"><ele>207.0</ele><time>2026-03-31T15:45:40.653Z</time></trkpt><trkpt lat="45.6157687" lon="9.4380317"><ele>207.0</ele><time>2026-03-31T15:45:41.653Z</time></trkpt><trkpt lat="45.6157471" lon="9.4381453"><ele>207.0</ele><time>2026-03-31T15:45:42.654Z</time></trkpt><trkpt lat="45.6157173" lon="9.4382465"><ele>207.0</ele><time>2026-03-31T15:45:43.654Z</time></trkpt><trkpt lat="45.6156844" lon="9.4383384"><ele>207.0</ele><time>2026-03-31T15:45:44.653Z</time></trkpt><trkpt lat="45.6156514" lon="9.4384321"><ele>207.0</ele><time>2026-03-31T15:45:45.653Z</time></trkpt><trkpt lat="45.615634" lon="9.4385234"><ele>207.0</ele><time>2026-03-31T15:45:46.654Z</time></trkpt><trkpt lat="45.6156595" lon="9.4386947"><ele>207.00000000000003</ele><time>2026-03-31T15:45:48.653Z</time></trkpt><trkpt lat="45.6157037" lon="9.4387615"><ele>207.0</ele><time>2026-03-31T15:45:49.653Z</time></trkpt><trkpt lat="45.6157662" lon="9.4387929"><ele>207.0</ele><time>2026-03-31T15:45:50.653Z</time></trkpt><trkpt lat="45.6158321" lon="9.4387927"><ele>207.0</ele><time>2026-03-31T15:45:51.654Z</time></trkpt><trkpt lat="45.6159379" lon="9.4387398"><ele>207.0</ele><time>2026-03-31T15:45:53.653Z</time></trkpt><trkpt lat="45.6159994" lon="9.4387029"><ele>207.00000000000003</ele><time>2026-03-31T15:45:54.654Z</time></trkpt><trkpt lat="45.6160702" lon="9.4386758"><ele>207.0</ele><time>2026-03-31T15:45:55.654Z</time></trkpt><trkpt lat="45.616151" lon="9.4386681"><ele>207.2</ele><time>2026-03-31T15:45:56.653Z</time></trkpt><trkpt lat="45.6162412" lon="9.438675"><ele>207.39999999999998</ele><time>2026-03-31T15:45:57.654Z</time></trkpt><trkpt lat="45.6163392" lon="9.4386962"><ele>207.60000000000002</ele><time>2026-03-31T15:45:58.653Z</time></trkpt><trkpt lat="45.6164421" lon="9.4387255"><ele>207.8</ele><time>2026-03-31T15:45:59.653Z</time></trkpt><trkpt lat="45.6165512" lon="9.4387599"><ele>208.0</ele><time>2026-03-31T15:46:00.653Z</time></trkpt><trkpt lat="45.6166618" lon="9.4387901"><ele>208.0</ele><time>2026-03-31T15:46:01.653Z</time></trkpt><trkpt lat="45.6167777" lon="9.4388229"><ele>208.0</ele><time>2026-03-31T15:46:02.653Z</time></trkpt><trkpt lat="45.6168983" lon="9.4388566"><ele>208.0</ele><time>2026-03-31T15:46:03.653Z</time></trkpt><trkpt lat="45.6170172" lon="9.438891"><ele>208.0</ele><time>2026-03-31T15:46:04.653Z</time></trkpt><trkpt lat="45.6171295" lon="9.4389234"><ele>207.60000000000002</ele><time>2026-03-31T15:46:05.653Z</time></trkpt><trkpt lat="45.6172398" lon="9.4389527"><ele>207.20000000000002</ele><time>2026-03-31T15:46:06.654Z</time></trkpt><trkpt lat="45.6173436" lon="9.4389818"><ele>206.8</ele><time>2026-03-31T15:46:07.653Z</time></trkpt><trkpt lat="45.6174326" lon="9.4390138"><ele>206.4</ele><time>2026-03-31T15:46:08.653Z</time></trkpt><trkpt lat="45.6175096" lon="9.43905"><ele>206.0</ele><time>2026-03-31T15:46:09.653Z</time></trkpt><trkpt lat="45.6175776" lon="9.4391081"><ele>206.00000000000003</ele><time>2026-03-31T15:46:10.653Z</time></trkpt><trkpt lat="45.6176438" lon="9.4391785"><ele>206.0</ele><time>2026-03-31T15:46:11.653Z</time></trkpt><trkpt lat="45.6177141" lon="9.43924"><ele>206.0</ele><time>2026-03-31T15:46:12.653Z</time></trkpt><trkpt lat="45.6177879" lon="9.4392791"><ele>206.0</ele><time>2026-03-31T15:46:13.653Z</time></trkpt><trkpt lat="45.6178687" lon="9.4392855"><ele>206.00000000000003</ele><time>2026-03-31T15:46:14.653Z</time></trkpt><trkpt lat="45.617954" lon="9.439264"><ele>206.0</ele><time>2026-03-31T15:46:15.653Z</time></trkpt><trkpt lat="45.6180427" lon="9.4392426"><ele>206.4</ele><time>2026-03-31T15:46:16.653Z</time></trkpt><trkpt lat="45.6181372" lon="9.4392335"><ele>206.8</ele><time>2026-03-31T15:46:17.654Z</time></trkpt><trkpt lat="45.6182365" lon="9.4392454"><ele>207.20000000000002</ele><time>2026-03-31T15:46:18.653Z</time></trkpt><trkpt lat="45.6183385" lon="9.4392701"><ele>207.60000000000002</ele><time>2026-03-31T15:46:19.654Z</time></trkpt><trkpt lat="45.6184457" lon="9.4392944"><ele>208.0</ele><time>2026-03-31T15:46:20.653Z</time></trkpt><trkpt lat="45.6185563" lon="9.4393236"><ele>208.25</ele><time>2026-03-31T15:46:21.653Z</time></trkpt><trkpt lat="45.6186703" lon="9.4393573"><ele>208.5</ele><time>2026-03-31T15:46:22.653Z</time></trkpt><trkpt lat="45.618787" lon="9.4393887"><ele>208.75</ele><time>2026-03-31T15:46:23.654Z</time></trkpt><trkpt lat="45.6189041" lon="9.4394234"><ele>209.0</ele><time>2026-03-31T15:46:24.654Z</time></trkpt><trkpt lat="45.6190248" lon="9.4394585"><ele>209.0</ele><time>2026-03-31T15:46:25.654Z</time></trkpt><trkpt lat="45.619148" lon="9.4394952"><ele>209.0</ele><time>2026-03-31T15:46:26.653Z</time></trkpt><trkpt lat="45.6192712" lon="9.4395312"><ele>209.0</ele><time>2026-03-31T15:46:27.653Z</time></trkpt><trkpt lat="45.6193939" lon="9.4395638"><ele>209.0</ele><time>2026-03-31T15:46:28.653Z</time></trkpt><trkpt lat="45.6195168" lon="9.4395976"><ele>209.25</ele><time>2026-03-31T15:46:29.653Z</time></trkpt><trkpt lat="45.619639" lon="9.4396307"><ele>209.5</ele><time>2026-03-31T15:46:30.653Z</time></trkpt><trkpt lat="45.6197603" lon="9.4396661"><ele>209.75</ele><time>2026-03-31T15:46:31.653Z</time></trkpt><trkpt lat="45.6198826" lon="9.4397022"><ele>210.0</ele><time>2026-03-31T15:46:32.653Z</time></trkpt><trkpt lat="45.6200043" lon="9.4397375"><ele>210.0</ele><time>2026-03-31T15:46:33.653Z</time></trkpt><trkpt lat="45.6201238" lon="9.4397706"><ele>210.0</ele><time>2026-03-31T15:46:34.654Z</time></trkpt><trkpt lat="45.620246" lon="9.4398048"><ele>210.0</ele><time>2026-03-31T15:46:35.654Z</time></trkpt><trkpt lat="45.6203666" lon="9.4398411"><ele>210.0</ele><time>2026-03-31T15:46:36.653Z</time></trkpt><trkpt lat="45.6204872" lon="9.4398758"><ele>210.25</ele><time>2026-03-31T15:46:37.653Z</time></trkpt><trkpt lat="45.6206054" lon="9.4399137"><ele>210.5</ele><time>2026-03-31T15:46:38.653Z</time></trkpt><trkpt lat="45.6207275" lon="9.4399469"><ele>210.75</ele><time>2026-03-31T15:46:39.653Z</time></trkpt><trkpt lat="45.6208424" lon="9.4399829"><ele>211.0</ele><time>2026-03-31T15:46:40.654Z</time></trkpt><trkpt lat="45.6209463" lon="9.4400157"><ele>210.99999999999997</ele><time>2026-03-31T15:46:41.654Z</time></trkpt><trkpt lat="45.6210404" lon="9.4400457"><ele>211.0</ele><time>2026-03-31T15:46:42.653Z</time></trkpt><trkpt lat="45.621126" lon="9.4400821"><ele>211.0</ele><time>2026-03-31T15:46:43.654Z</time></trkpt><trkpt lat="45.6212054" lon="9.4401287"><ele>211.0</ele><time>2026-03-31T15:46:44.653Z</time></trkpt><trkpt lat="45.6212815" lon="9.4401804"><ele>210.99999999999997</ele><time>2026-03-31T15:46:45.653Z</time></trkpt><trkpt lat="45.6213511" lon="9.4402271"><ele>211.0</ele><time>2026-03-31T15:46:46.653Z</time></trkpt><trkpt lat="45.6214235" lon="9.4402532"><ele>211.20000000000002</ele><time>2026-03-31T15:46:47.653Z</time></trkpt><trkpt lat="45.6215048" lon="9.4402512"><ele>211.4</ele><time>2026-03-31T15:46:48.654Z</time></trkpt><trkpt lat="45.6215914" lon="9.4402479"><ele>211.6</ele><time>2026-03-31T15:46:49.653Z</time></trkpt><trkpt lat="45.6216863" lon="9.4402518"><ele>211.8</ele><time>2026-03-31T15:46:50.654Z</time></trkpt><trkpt lat="45.6217836" lon="9.4402729"><ele>212.0</ele><time>2026-03-31T15:46:51.653Z</time></trkpt><trkpt lat="45.6218843" lon="9.4402988"><ele>212.0</ele><time>2026-03-31T15:46:52.653Z</time></trkpt><trkpt lat="45.6219805" lon="9.4403391"><ele>212.0</ele><time>2026-03-31T15:46:53.653Z</time></trkpt><trkpt lat="45.6220834" lon="9.4403789"><ele>212.0</ele><time>2026-03-31T15:46:54.654Z</time></trkpt><trkpt lat="45.62219" lon="9.4404177"><ele>212.0</ele><time>2026-03-31T15:46:55.653Z</time></trkpt><trkpt lat="45.6222981" lon="9.4404535"><ele>212.0</ele><time>2026-03-31T15:46:56.653Z</time></trkpt><trkpt lat="45.6224083" lon="9.4404951"><ele>212.0</ele><time>2026-03-31T15:46:57.653Z</time></trkpt><trkpt lat="45.6225196" lon="9.4405265"><ele>212.0</ele><time>2026-03-31T15:46:58.653Z</time></trkpt><trkpt lat="45.6226326" lon="9.4405597"><ele>212.0</ele><time>2026-03-31T15:46:59.653Z</time></trkpt><trkpt lat="45.6227477" lon="9.4405922"><ele>212.0</ele><time>2026-03-31T15:47:00.654Z</time></trkpt><trkpt lat="45.622866" lon="9.4406248"><ele>212.0</ele><time>2026-03-31T15:47:01.653Z</time></trkpt><trkpt lat="45.6229849" lon="9.4406553"><ele>212.0</ele><time>2026-03-31T15:47:02.653Z</time></trkpt><trkpt lat="45.6231025" lon="9.4406909"><ele>212.0</ele><time>2026-03-31T15:47:03.653Z</time></trkpt><trkpt lat="45.6232216" lon="9.440724"><ele>212.0</ele><time>2026-03-31T15:47:04.653Z</time></trkpt><trkpt lat="45.6233373" lon="9.4407568"><ele>212.0</ele><time>2026-03-31T15:47:05.654Z</time></trkpt><trkpt lat="45.6234484" lon="9.4407896"><ele>212.0</ele><time>2026-03-31T15:47:06.653Z</time></trkpt><trkpt lat="45.6235534" lon="9.4408324"><ele>212.0</ele><time>2026-03-31T15:47:07.654Z</time></trkpt><trkpt lat="45.6236611" lon="9.4408661"><ele>212.0</ele><time>2026-03-31T15:47:08.654Z</time></trkpt><trkpt lat="45.6237648" lon="9.4409"><ele>212.0</ele><time>2026-03-31T15:47:09.653Z</time></trkpt><trkpt lat="45.6238676" lon="9.440934"><ele>212.39999999999998</ele><time>2026-03-31T15:47:10.653Z</time></trkpt><trkpt lat="45.6239664" lon="9.440966"><ele>212.79999999999998</ele><time>2026-03-31T15:47:11.654Z</time></trkpt><trkpt lat="45.6240644" lon="9.440998"><ele>213.2</ele><time>2026-03-31T15:47:12.654Z</time></trkpt><trkpt lat="45.6241569" lon="9.4410264"><ele>213.6</ele><time>2026-03-31T15:47:13.654Z</time></trkpt><trkpt lat="45.6242462" lon="9.4410577"><ele>214.0</ele><time>2026-03-31T15:47:14.654Z</time></trkpt><trkpt lat="45.6243307" lon="9.4410874"><ele>213.99999999999997</ele><time>2026-03-31T15:47:15.653Z</time></trkpt><trkpt lat="45.6244124" lon="9.4411202"><ele>214.0</ele><time>2026-03-31T15:47:16.653Z</time></trkpt><trkpt lat="45.6244909" lon="9.4411644"><ele>214.0</ele><time>2026-03-31T15:47:17.653Z</time></trkpt><trkpt lat="45.624563" lon="9.4412328"><ele>214.0</ele><time>2026-03-31T15:47:18.653Z</time></trkpt><trkpt lat="45.6246342" lon="9.4413172"><ele>213.99999999999997</ele><time>2026-03-31T15:47:19.653Z</time></trkpt><trkpt lat="45.6247056" lon="9.4414083"><ele>214.0</ele><time>2026-03-31T15:47:20.653Z</time></trkpt><trkpt lat="45.6247802" lon="9.4414944"><ele>214.39999999999998</ele><time>2026-03-31T15:47:21.654Z</time></trkpt><trkpt lat="45.6248599" lon="9.441565"><ele>214.79999999999998</ele><time>2026-03-31T15:47:22.653Z</time></trkpt><trkpt lat="45.6249476" lon="9.4416148"><ele>215.20000000000002</ele><time>2026-03-31T15:47:23.653Z</time></trkpt><trkpt lat="45.6250402" lon="9.441656"><ele>215.60000000000002</ele><time>2026-03-31T15:47:24.653Z</time></trkpt><trkpt lat="45.6251276" lon="9.4416862"><ele>216.0</ele><time>2026-03-31T15:47:25.653Z</time></trkpt><trkpt lat="45.6252043" lon="9.4417154"><ele>216.0</ele><time>2026-03-31T15:47:26.654Z</time></trkpt><trkpt lat="45.6252729" lon="9.4417402"><ele>216.00000000000003</ele><time>2026-03-31T15:47:27.653Z</time></trkpt><trkpt lat="45.6253752" lon="9.4417953"><ele>216.00000000000003</ele><time>2026-03-31T15:47:29.653Z</time></trkpt><trkpt lat="45.6253695" lon="9.4419677"><ele>216.0</ele><time>2026-03-31T15:47:31.653Z</time></trkpt><trkpt lat="45.6253582" lon="9.4420755"><ele>216.0</ele><time>2026-03-31T15:47:32.653Z</time></trkpt><trkpt lat="45.6253355" lon="9.4422535"><ele>215.75</ele><time>2026-03-31T15:47:33.654Z</time></trkpt><trkpt lat="45.6253054" lon="9.4424161"><ele>215.5</ele><time>2026-03-31T15:47:34.654Z</time></trkpt><trkpt lat="45.6252771" lon="9.4425917"><ele>215.25</ele><time>2026-03-31T15:47:35.654Z</time></trkpt><trkpt lat="45.6252498" lon="9.4427519"><ele>215.0</ele><time>2026-03-31T15:47:36.653Z</time></trkpt><trkpt lat="45.6252269" lon="9.4429058"><ele>215.2</ele><time>2026-03-31T15:47:37.653Z</time></trkpt><trkpt lat="45.6252053" lon="9.4430438"><ele>215.4</ele><time>2026-03-31T15:47:38.653Z</time></trkpt><trkpt lat="45.6251803" lon="9.4431703"><ele>215.60000000000002</ele><time>2026-03-31T15:47:39.654Z</time></trkpt><trkpt lat="45.6251634" lon="9.4432852"><ele>215.8</ele><time>2026-03-31T15:47:40.653Z</time></trkpt><trkpt lat="45.625159" lon="9.4433772"><ele>216.0</ele><time>2026-03-31T15:47:41.653Z</time></trkpt><trkpt lat="45.6252267" lon="9.4435128"><ele>216.0</ele><time>2026-03-31T15:47:43.653Z</time></trkpt><trkpt lat="45.6252988" lon="9.4435481"><ele>216.00000000000003</ele><time>2026-03-31T15:47:44.653Z</time></trkpt><trkpt lat="45.6253857" lon="9.4435784"><ele>216.00000000000003</ele><time>2026-03-31T15:47:45.653Z</time></trkpt><trkpt lat="45.625484" lon="9.4436082"><ele>216.0</ele><time>2026-03-31T15:47:46.653Z</time></trkpt><trkpt lat="45.6255797" lon="9.4436414"><ele>216.0</ele><time>2026-03-31T15:47:47.654Z</time></trkpt><trkpt lat="45.6256753" lon="9.4436728"><ele>216.20000000000002</ele><time>2026-03-31T15:47:48.654Z</time></trkpt><trkpt lat="45.6257825" lon="9.4437079"><ele>216.40000000000003</ele><time>2026-03-31T15:47:49.654Z</time></trkpt><trkpt lat="45.6258979" lon="9.4437426"><ele>216.6</ele><time>2026-03-31T15:47:50.653Z</time></trkpt><trkpt lat="45.6260034" lon="9.4437737"><ele>216.8</ele><time>2026-03-31T15:47:51.653Z</time></trkpt><trkpt lat="45.6261008" lon="9.4438067"><ele>217.0</ele><time>2026-03-31T15:47:52.653Z</time></trkpt><trkpt lat="45.6261882" lon="9.4438377"><ele>217.16666666666666</ele><time>2026-03-31T15:47:53.654Z</time></trkpt><trkpt lat="45.6262715" lon="9.4438679"><ele>217.33333333333331</ele><time>2026-03-31T15:47:54.653Z</time></trkpt><trkpt lat="45.6263462" lon="9.4438874"><ele>217.5</ele><time>2026-03-31T15:47:55.653Z</time></trkpt><trkpt lat="45.6264475" lon="9.4439315"><ele>217.66666666666669</ele><time>2026-03-31T15:47:57.653Z</time></trkpt><trkpt lat="45.6264675" lon="9.4440497"><ele>217.83333333333334</ele><time>2026-03-31T15:47:59.654Z</time></trkpt><trkpt lat="45.6264498" lon="9.4441469"><ele>218.0</ele><time>2026-03-31T15:48:00.654Z</time></trkpt><trkpt lat="45.6264254" lon="9.4442727"><ele>218.0</ele><time>2026-03-31T15:48:01.653Z</time></trkpt><trkpt lat="45.6264022" lon="9.4444157"><ele>218.0</ele><time>2026-03-31T15:48:02.653Z</time></trkpt><trkpt lat="45.6263789" lon="9.4445672"><ele>218.0</ele><time>2026-03-31T15:48:03.654Z</time></trkpt><trkpt lat="45.6263582" lon="9.444706"><ele>218.0</ele><time>2026-03-31T15:48:04.654Z</time></trkpt><trkpt lat="45.6263398" lon="9.4448443"><ele>218.0</ele><time>2026-03-31T15:48:05.653Z</time></trkpt><trkpt lat="45.6263205" lon="9.4449824"><ele>218.00000000000003</ele><time>2026-03-31T15:48:06.653Z</time></trkpt><trkpt lat="45.6263024" lon="9.4451102"><ele>218.0</ele><time>2026-03-31T15:48:07.653Z</time></trkpt><trkpt lat="45.6262831" lon="9.4452331"><ele>218.0</ele><time>2026-03-31T15:48:08.653Z</time></trkpt><trkpt lat="45.6262683" lon="9.4453455"><ele>218.0</ele><time>2026-03-31T15:48:09.653Z</time></trkpt><trkpt lat="45.6262548" lon="9.4454405"><ele>218.00000000000003</ele><time>2026-03-31T15:48:10.653Z</time></trkpt><trkpt lat="45.6262063" lon="9.4455399"><ele>218.0</ele><time>2026-03-31T15:48:12.653Z</time></trkpt><trkpt lat="45.6260883" lon="9.4455356"><ele>217.8</ele><time>2026-03-31T15:48:14.653Z</time></trkpt><trkpt lat="45.625999" lon="9.4455059"><ele>217.60000000000002</ele><time>2026-03-31T15:48:15.653Z</time></trkpt><trkpt lat="45.6259049" lon="9.4454757"><ele>217.39999999999998</ele><time>2026-03-31T15:48:16.653Z</time></trkpt><trkpt lat="45.6258187" lon="9.4454481"><ele>217.2</ele><time>2026-03-31T15:48:17.653Z</time></trkpt><trkpt lat="45.6257332" lon="9.445422"><ele>217.0</ele><time>2026-03-31T15:48:18.653Z</time></trkpt><trkpt lat="45.625648" lon="9.4454034"><ele>216.99999999999997</ele><time>2026-03-31T15:48:19.653Z</time></trkpt><trkpt lat="45.6255765" lon="9.4453892"><ele>217.0</ele><time>2026-03-31T15:48:20.653Z</time></trkpt><trkpt lat="45.6254806" lon="9.4454116"><ele>217.0</ele><time>2026-03-31T15:48:22.653Z</time></trkpt><trkpt lat="45.6254249" lon="9.4455377"><ele>217.0</ele><time>2026-03-31T15:48:24.653Z</time></trkpt><trkpt lat="45.6254076" lon="9.4456374"><ele>216.99999999999997</ele><time>2026-03-31T15:48:25.654Z</time></trkpt><trkpt lat="45.6253952" lon="9.4457588"><ele>217.0</ele><time>2026-03-31T15:48:26.654Z</time></trkpt><trkpt lat="45.6253833" lon="9.445891"><ele>216.83333333333331</ele><time>2026-03-31T15:48:27.654Z</time></trkpt><trkpt lat="45.6253692" lon="9.4460246"><ele>216.66666666666666</ele><time>2026-03-31T15:48:28.653Z</time></trkpt><trkpt lat="45.6253576" lon="9.446153"><ele>216.5</ele><time>2026-03-31T15:48:29.654Z</time></trkpt><trkpt lat="45.6253463" lon="9.4462709"><ele>216.33333333333331</ele><time>2026-03-31T15:48:30.653Z</time></trkpt><trkpt lat="45.6253375" lon="9.4463941"><ele>216.16666666666666</ele><time>2026-03-31T15:48:31.653Z</time></trkpt><trkpt lat="45.6253282" lon="9.4465201"><ele>216.0</ele><time>2026-03-31T15:48:32.654Z</time></trkpt><trkpt lat="45.6253223" lon="9.4466461"><ele>215.83333333333334</ele><time>2026-03-31T15:48:33.653Z</time></trkpt><trkpt lat="45.6253103" lon="9.4467723"><ele>215.66666666666669</ele><time>2026-03-31T15:48:34.654Z</time></trkpt><trkpt lat="45.6253017" lon="9.4468985"><ele>215.5</ele><time>2026-03-31T15:48:35.653Z</time></trkpt><trkpt lat="45.6252941" lon="9.4470124"><ele>215.33333333333334</ele><time>2026-03-31T15:48:36.654Z</time></trkpt><trkpt lat="45.6252884" lon="9.4471188"><ele>215.16666666666669</ele><time>2026-03-31T15:48:37.653Z</time></trkpt><trkpt lat="45.6252812" lon="9.4472168"><ele>215.0</ele><time>2026-03-31T15:48:38.653Z</time></trkpt><trkpt lat="45.6252784" lon="9.4473228"><ele>215.0</ele><time>2026-03-31T15:48:39.653Z</time></trkpt><trkpt lat="45.6252699" lon="9.4474202"><ele>215.0</ele><time>2026-03-31T15:48:40.653Z</time></trkpt><trkpt lat="45.6252582" lon="9.447521"><ele>215.0</ele><time>2026-03-31T15:48:41.654Z</time></trkpt><trkpt lat="45.6252511" lon="9.4476202"><ele>215.0</ele><time>2026-03-31T15:48:42.654Z</time></trkpt><trkpt lat="45.6252416" lon="9.4477205"><ele>215.0</ele><time>2026-03-31T15:48:43.654Z</time></trkpt><trkpt lat="45.6252351" lon="9.4478185"><ele>215.0</ele><time>2026-03-31T15:48:44.653Z</time></trkpt><trkpt lat="45.6252294" lon="9.4479109"><ele>215.0</ele><time>2026-03-31T15:48:45.653Z</time></trkpt><trkpt lat="45.625224" lon="9.4480093"><ele>215.14285714285714</ele><time>2026-03-31T15:48:46.654Z</time></trkpt><trkpt lat="45.6252182" lon="9.4481092"><ele>215.2857142857143</ele><time>2026-03-31T15:48:47.653Z</time></trkpt><trkpt lat="45.6252082" lon="9.4482135"><ele>215.42857142857144</ele><time>2026-03-31T15:48:48.653Z</time></trkpt><trkpt lat="45.6251948" lon="9.4483195"><ele>215.57142857142856</ele><time>2026-03-31T15:48:49.653Z</time></trkpt><trkpt lat="45.6251834" lon="9.4484224"><ele>215.71428571428572</ele><time>2026-03-31T15:48:50.653Z</time></trkpt><trkpt lat="45.6251711" lon="9.4485285"><ele>215.85714285714286</ele><time>2026-03-31T15:48:51.654Z</time></trkpt><trkpt lat="45.6251593" lon="9.4486338"><ele>216.0</ele><time>2026-03-31T15:48:52.653Z</time></trkpt><trkpt lat="45.625149" lon="9.4487412"><ele>216.0</ele><time>2026-03-31T15:48:53.653Z</time></trkpt><trkpt lat="45.625138" lon="9.4488527"><ele>216.0</ele><time>2026-03-31T15:48:54.653Z</time></trkpt><trkpt lat="45.6251295" lon="9.4489659"><ele>216.0</ele><time>2026-03-31T15:48:55.653Z</time></trkpt><trkpt lat="45.6251221" lon="9.449083"><ele>216.0</ele><time>2026-03-31T15:48:56.653Z</time></trkpt><trkpt lat="45.6251141" lon="9.4492009"><ele>216.0</ele><time>2026-03-31T15:48:57.653Z</time></trkpt><trkpt lat="45.625107" lon="9.4493078"><ele>216.0</ele><time>2026-03-31T15:48:58.653Z</time></trkpt><trkpt lat="45.6251005" lon="9.4494148"><ele>216.0</ele><time>2026-03-31T15:48:59.654Z</time></trkpt><trkpt lat="45.625099" lon="9.449517"><ele>216.00000000000003</ele><time>2026-03-31T15:49:00.653Z</time></trkpt><trkpt lat="45.6250939" lon="9.4496875"><ele>216.00000000000003</ele><time>2026-03-31T15:49:02.653Z</time></trkpt><trkpt lat="45.6250497" lon="9.449856"><ele>216.0</ele><time>2026-03-31T15:49:04.654Z</time></trkpt><trkpt lat="45.6250332" lon="9.4499475"><ele>216.0</ele><time>2026-03-31T15:49:05.653Z</time></trkpt><trkpt lat="45.6250217" lon="9.4500984"><ele>215.60000000000002</ele><time>2026-03-31T15:49:07.653Z</time></trkpt><trkpt lat="45.6250585" lon="9.4502598"><ele>215.20000000000002</ele><time>2026-03-31T15:49:09.653Z</time></trkpt><trkpt lat="45.6250911" lon="9.4504087"><ele>214.79999999999998</ele><time>2026-03-31T15:49:11.654Z</time></trkpt><trkpt lat="45.6250965" lon="9.4505574"><ele>214.39999999999998</ele><time>2026-03-31T15:49:13.653Z</time></trkpt><trkpt lat="45.6251142" lon="9.4506486"><ele>214.0</ele><time>2026-03-31T15:49:15.653Z</time></trkpt><trkpt lat="45.6251924" lon="9.4506286"><ele>213.99999999999997</ele><time>2026-03-31T15:49:17.653Z</time></trkpt><trkpt lat="45.6253042" lon="9.4505231"><ele>214.0</ele><time>2026-03-31T15:49:19.653Z</time></trkpt><trkpt lat="45.6253665" lon="9.4504607"><ele>214.0</ele><time>2026-03-31T15:49:20.653Z</time></trkpt><trkpt lat="45.6254379" lon="9.4503977"><ele>214.0</ele><time>2026-03-31T15:49:21.653Z</time></trkpt><trkpt lat="45.6255081" lon="9.4503463"><ele>213.99999999999997</ele><time>2026-03-31T15:49:22.653Z</time></trkpt><trkpt lat="45.625576" lon="9.4503087"><ele>214.0</ele><time>2026-03-31T15:49:23.653Z</time></trkpt><trkpt lat="45.6256481" lon="9.4502755"><ele>214.00000000000003</ele><time>2026-03-31T15:49:24.653Z</time></trkpt><trkpt lat="45.6257191" lon="9.4502542"><ele>214.0</ele><time>2026-03-31T15:49:25.654Z</time></trkpt><trkpt lat="45.625794" lon="9.4502304"><ele>214.0</ele><time>2026-03-31T15:49:26.654Z</time></trkpt><trkpt lat="45.6258667" lon="9.4502285"><ele>214.0</ele><time>2026-03-31T15:49:27.653Z</time></trkpt><trkpt lat="45.6259426" lon="9.4502405"><ele>214.0</ele><time>2026-03-31T15:49:28.653Z</time></trkpt><trkpt lat="45.6260151" lon="9.4502575"><ele>214.00000000000003</ele><time>2026-03-31T15:49:29.654Z</time></trkpt><trkpt lat="45.626091" lon="9.4502774"><ele>214.0</ele><time>2026-03-31T15:49:30.654Z</time></trkpt><trkpt lat="45.6261536" lon="9.4503124"><ele>214.14285714285717</ele><time>2026-03-31T15:49:31.653Z</time></trkpt><trkpt lat="45.6262295" lon="9.4503452"><ele>214.28571428571428</ele><time>2026-03-31T15:49:32.653Z</time></trkpt><trkpt lat="45.6263017" lon="9.45038"><ele>214.42857142857144</ele><time>2026-03-31T15:49:33.654Z</time></trkpt><trkpt lat="45.6263727" lon="9.4504116"><ele>214.57142857142858</ele><time>2026-03-31T15:49:34.654Z</time></trkpt><trkpt lat="45.6264457" lon="9.4504429"><ele>214.71428571428572</ele><time>2026-03-31T15:49:35.653Z</time></trkpt><trkpt lat="45.6265129" lon="9.4504805"><ele>214.85714285714286</ele><time>2026-03-31T15:49:36.653Z</time></trkpt><trkpt lat="45.6265749" lon="9.4505033"><ele>215.0</ele><time>2026-03-31T15:49:37.654Z</time></trkpt><trkpt lat="45.626689" lon="9.450538"><ele>215.0</ele><time>2026-03-31T15:49:39.653Z</time></trkpt><trkpt lat="45.6267687" lon="9.4505607"><ele>215.0</ele><time>2026-03-31T15:49:41.654Z</time></trkpt><trkpt lat="45.6268678" lon="9.4505874"><ele>215.0</ele><time>2026-03-31T15:49:56.653Z</time></trkpt><trkpt lat="45.6269302" lon="9.4506182"><ele>215.0</ele><time>2026-03-31T15:49:57.653Z</time></trkpt><trkpt lat="45.6269913" lon="9.4506495"><ele>215.0</ele><time>2026-03-31T15:49:58.654Z</time></trkpt><trkpt lat="45.6270552" lon="9.4506793"><ele>215.0</ele><time>2026-03-31T15:49:59.653Z</time></trkpt><trkpt lat="45.6271166" lon="9.4507088"><ele>215.0</ele><time>2026-03-31T15:50:00.653Z</time></trkpt><trkpt lat="45.6271789" lon="9.4507379"><ele>215.42857142857142</ele><time>2026-03-31T15:50:01.653Z</time></trkpt><trkpt lat="45.6272405" lon="9.4507708"><ele>215.85714285714286</ele><time>2026-03-31T15:50:02.653Z</time></trkpt><trkpt lat="45.6273067" lon="9.4507964"><ele>216.28571428571428</ele><time>2026-03-31T15:50:03.654Z</time></trkpt><trkpt lat="45.6273717" lon="9.4508207"><ele>216.71428571428572</ele><time>2026-03-31T15:50:04.654Z</time></trkpt><trkpt lat="45.6274377" lon="9.4508537"><ele>217.14285714285717</ele><time>2026-03-31T15:50:05.653Z</time></trkpt><trkpt lat="45.6275089" lon="9.4508852"><ele>217.57142857142858</ele><time>2026-03-31T15:50:06.654Z</time></trkpt><trkpt lat="45.6275741" lon="9.4509099"><ele>218.0</ele><time>2026-03-31T15:50:07.653Z</time></trkpt><trkpt lat="45.6276864" lon="9.4509493"><ele>218.0</ele><time>2026-03-31T15:50:09.653Z</time></trkpt><trkpt lat="45.6277866" lon="9.4510085"><ele>218.0</ele><time>2026-03-31T15:50:11.654Z</time></trkpt><trkpt lat="45.6278498" lon="9.4511012"><ele>218.0</ele><time>2026-03-31T15:50:13.653Z</time></trkpt><trkpt lat="45.6278806" lon="9.4512294"><ele>218.0</ele><time>2026-03-31T15:50:15.653Z</time></trkpt><trkpt lat="45.6279294" lon="9.451383"><ele>218.0</ele><time>2026-03-31T15:50:17.653Z</time></trkpt><trkpt lat="45.6279645" lon="9.4514621"><ele>218.4</ele><time>2026-03-31T15:50:18.653Z</time></trkpt><trkpt lat="45.6280633" lon="9.4515631"><ele>218.8</ele><time>2026-03-31T15:50:20.653Z</time></trkpt><trkpt lat="45.6281759" lon="9.4515948"><ele>219.2</ele><time>2026-03-31T15:50:22.653Z</time></trkpt><trkpt lat="45.6282415" lon="9.4516127"><ele>219.6</ele><time>2026-03-31T15:50:23.654Z</time></trkpt><trkpt lat="45.6283137" lon="9.4516072"><ele>220.0</ele><time>2026-03-31T15:50:24.653Z</time></trkpt><trkpt lat="45.6283893" lon="9.4516184"><ele>219.99999999999997</ele><time>2026-03-31T15:50:25.654Z</time></trkpt><trkpt lat="45.6284586" lon="9.451628"><ele>220.0</ele><time>2026-03-31T15:50:26.654Z</time></trkpt><trkpt lat="45.6285336" lon="9.4516412"><ele>220.0</ele><time>2026-03-31T15:50:27.654Z</time></trkpt><trkpt lat="45.6286088" lon="9.4516503"><ele>220.0</ele><time>2026-03-31T15:50:28.653Z</time></trkpt><trkpt lat="45.6286872" lon="9.4516705"><ele>219.99999999999997</ele><time>2026-03-31T15:50:29.653Z</time></trkpt><trkpt lat="45.6287695" lon="9.4516832"><ele>220.0</ele><time>2026-03-31T15:50:30.654Z</time></trkpt><trkpt lat="45.6288516" lon="9.4516936"><ele>220.66666666666666</ele><time>2026-03-31T15:50:31.653Z</time></trkpt><trkpt lat="45.6289269" lon="9.4517073"><ele>221.33333333333331</ele><time>2026-03-31T15:50:32.653Z</time></trkpt><trkpt lat="45.6290123" lon="9.4517166"><ele>222.0</ele><time>2026-03-31T15:50:33.653Z</time></trkpt><trkpt lat="45.629091" lon="9.4517261"><ele>222.66666666666669</ele><time>2026-03-31T15:50:34.653Z</time></trkpt><trkpt lat="45.6291632" lon="9.4517389"><ele>223.33333333333334</ele><time>2026-03-31T15:50:35.653Z</time></trkpt><trkpt lat="45.629242" lon="9.4517491"><ele>224.0</ele><time>2026-03-31T15:50:36.654Z</time></trkpt><trkpt lat="45.6293142" lon="9.4517627"><ele>224.0</ele><time>2026-03-31T15:50:37.653Z</time></trkpt><trkpt lat="45.6293891" lon="9.4517741"><ele>224.0</ele><time>2026-03-31T15:50:38.653Z</time></trkpt><trkpt lat="45.6294677" lon="9.4517604"><ele>224.0</ele><time>2026-03-31T15:50:39.653Z</time></trkpt><trkpt lat="45.6295357" lon="9.4517631"><ele>224.0</ele><time>2026-03-31T15:50:40.653Z</time></trkpt><trkpt lat="45.6296001" lon="9.4517751"><ele>224.0</ele><time>2026-03-31T15:50:41.654Z</time></trkpt><trkpt lat="45.629678" lon="9.451813"><ele>224.0</ele><time>2026-03-31T15:50:43.653Z</time></trkpt><trkpt lat="45.6297381" lon="9.4518492"><ele>224.0</ele><time>2026-03-31T15:50:45.653Z</time></trkpt><trkpt lat="45.6298434" lon="9.451886"><ele>223.66666666666669</ele><time>2026-03-31T15:50:47.653Z</time></trkpt><trkpt lat="45.6299297" lon="9.4519185"><ele>223.33333333333334</ele><time>2026-03-31T15:50:48.653Z</time></trkpt><trkpt lat="45.6300125" lon="9.4519425"><ele>223.0</ele><time>2026-03-31T15:50:49.653Z</time></trkpt><trkpt lat="45.6300968" lon="9.451961"><ele>222.66666666666669</ele><time>2026-03-31T15:50:50.654Z</time></trkpt><trkpt lat="45.6301794" lon="9.451983"><ele>222.33333333333334</ele><time>2026-03-31T15:50:51.653Z</time></trkpt><trkpt lat="45.6302505" lon="9.4520103"><ele>222.0</ele><time>2026-03-31T15:50:52.654Z</time></trkpt><trkpt lat="45.6303215" lon="9.4520369"><ele>222.0</ele><time>2026-03-31T15:50:53.653Z</time></trkpt><trkpt lat="45.6303871" lon="9.4520462"><ele>222.0</ele><time>2026-03-31T15:50:54.654Z</time></trkpt><trkpt lat="45.6304912" lon="9.4520403"><ele>222.0</ele><time>2026-03-31T15:50:56.653Z</time></trkpt><trkpt lat="45.6305365" lon="9.4521391"><ele>222.0</ele><time>2026-03-31T15:50:59.653Z</time></trkpt><trkpt lat="45.6305263" lon="9.4523179"><ele>222.0</ele><time>2026-03-31T15:51:01.654Z</time></trkpt><trkpt lat="45.6305273" lon="9.4524225"><ele>222.0</ele><time>2026-03-31T15:51:02.653Z</time></trkpt><trkpt lat="45.630507" lon="9.4525328"><ele>222.0</ele><time>2026-03-31T15:51:03.653Z</time></trkpt><trkpt lat="45.6304926" lon="9.452634"><ele>222.0</ele><time>2026-03-31T15:51:04.653Z</time></trkpt><trkpt lat="45.6304803" lon="9.4527408"><ele>222.0</ele><time>2026-03-31T15:51:05.653Z</time></trkpt><trkpt lat="45.6304649" lon="9.4528442"><ele>222.0</ele><time>2026-03-31T15:51:06.653Z</time></trkpt><trkpt lat="45.6304347" lon="9.4529238"><ele>222.0</ele><time>2026-03-31T15:51:07.653Z</time></trkpt><trkpt lat="45.6303612" lon="9.4530406"><ele>222.0</ele><time>2026-03-31T15:51:09.654Z</time></trkpt><trkpt lat="45.6303283" lon="9.4531626"><ele>222.0</ele><time>2026-03-31T15:51:11.654Z</time></trkpt><trkpt lat="45.6303774" lon="9.4533316"><ele>222.0</ele><time>2026-03-31T15:51:13.652Z</time></trkpt><trkpt lat="45.6304091" lon="9.4534294"><ele>222.0</ele><time>2026-03-31T15:51:14.654Z</time></trkpt><trkpt lat="45.6304467" lon="9.4535244"><ele>222.0</ele><time>2026-03-31T15:51:15.653Z</time></trkpt><trkpt lat="45.6304937" lon="9.4536049"><ele>222.0</ele><time>2026-03-31T15:51:16.653Z</time></trkpt><trkpt lat="45.6305543" lon="9.4536749"><ele>222.0</ele><time>2026-03-31T15:51:17.654Z</time></trkpt><trkpt lat="45.6306113" lon="9.4537318"><ele>222.0</ele><time>2026-03-31T15:51:18.654Z</time></trkpt><trkpt lat="45.6306663" lon="9.4538309"><ele>222.0</ele><time>2026-03-31T15:51:20.654Z</time></trkpt><trkpt lat="45.6306501" lon="9.4539849"><ele>222.0</ele><time>2026-03-31T15:51:22.653Z</time></trkpt><trkpt lat="45.630647" lon="9.4541307"><ele>222.0</ele><time>2026-03-31T15:51:23.653Z</time></trkpt><trkpt lat="45.6306336" lon="9.4542285"><ele>222.0</ele><time>2026-03-31T15:51:24.653Z</time></trkpt><trkpt lat="45.6306167" lon="9.4543204"><ele>221.8</ele><time>2026-03-31T15:51:25.653Z</time></trkpt><trkpt lat="45.6305787" lon="9.4544507"><ele>221.6</ele><time>2026-03-31T15:51:27.653Z</time></trkpt><trkpt lat="45.6305657" lon="9.4545991"><ele>221.40000000000003</ele><time>2026-03-31T15:51:29.653Z</time></trkpt><trkpt lat="45.63061" lon="9.4547212"><ele>221.20000000000002</ele><time>2026-03-31T15:51:31.654Z</time></trkpt><trkpt lat="45.6307177" lon="9.4547548"><ele>221.0</ele><time>2026-03-31T15:51:33.653Z</time></trkpt><trkpt lat="45.6307874" lon="9.4547778"><ele>221.33333333333334</ele><time>2026-03-31T15:51:34.654Z</time></trkpt><trkpt lat="45.630855" lon="9.4548038"><ele>221.66666666666669</ele><time>2026-03-31T15:51:35.653Z</time></trkpt><trkpt lat="45.6309173" lon="9.4548308"><ele>222.0</ele><time>2026-03-31T15:51:36.654Z</time></trkpt><trkpt lat="45.6309805" lon="9.4548471"><ele>222.33333333333331</ele><time>2026-03-31T15:51:37.653Z</time></trkpt><trkpt lat="45.6310434" lon="9.4548679"><ele>222.66666666666666</ele><time>2026-03-31T15:51:38.654Z</time></trkpt><trkpt lat="45.6311426" lon="9.4549423"><ele>223.0</ele><time>2026-03-31T15:51:40.653Z</time></trkpt><trkpt lat="45.6312136" lon="9.4550536"><ele>222.99999999999997</ele><time>2026-03-31T15:51:42.653Z</time></trkpt><trkpt lat="45.6313201" lon="9.4551167"><ele>223.0</ele><time>2026-03-31T15:51:44.654Z</time></trkpt><trkpt lat="45.6313714" lon="9.4551712"><ele>223.0</ele><time>2026-03-31T15:51:45.653Z</time></trkpt><trkpt lat="45.6314222" lon="9.4552311"><ele>223.0</ele><time>2026-03-31T15:51:46.653Z</time></trkpt><trkpt lat="45.631485" lon="9.4552732"><ele>222.99999999999997</ele><time>2026-03-31T15:51:47.653Z</time></trkpt><trkpt lat="45.6315475" lon="9.4552945"><ele>223.0</ele><time>2026-03-31T15:51:48.653Z</time></trkpt><trkpt lat="45.6316172" lon="9.4553144"><ele>223.0</ele><time>2026-03-31T15:51:49.653Z</time></trkpt><trkpt lat="45.6316866" lon="9.4553376"><ele>223.0</ele><time>2026-03-31T15:51:50.653Z</time></trkpt><trkpt lat="45.6317584" lon="9.4553526"><ele>223.0</ele><time>2026-03-31T15:51:51.653Z</time></trkpt><trkpt lat="45.6318213" lon="9.4553771"><ele>223.0</ele><time>2026-03-31T15:51:52.653Z</time></trkpt><trkpt lat="45.6319027" lon="9.4554482"><ele>223.0</ele><time>2026-03-31T15:51:54.653Z</time></trkpt><trkpt lat="45.6319245" lon="9.4555508"><ele>223.0</ele><time>2026-03-31T15:51:56.654Z</time></trkpt><trkpt lat="45.6319183" lon="9.4556415"><ele>223.0</ele><time>2026-03-31T15:51:57.653Z</time></trkpt><trkpt lat="45.6319374" lon="9.4557421"><ele>223.4</ele><time>2026-03-31T15:51:59.653Z</time></trkpt><trkpt lat="45.6320346" lon="9.4557839"><ele>223.8</ele><time>2026-03-31T15:52:01.653Z</time></trkpt><trkpt lat="45.6320985" lon="9.4557974"><ele>224.2</ele><time>2026-03-31T15:52:02.653Z</time></trkpt><trkpt lat="45.6322286" lon="9.4558268"><ele>224.6</ele><time>2026-03-31T15:52:04.653Z</time></trkpt><trkpt lat="45.6323049" lon="9.4558382"><ele>225.0</ele><time>2026-03-31T15:52:05.653Z</time></trkpt><trkpt lat="45.6323793" lon="9.4558529"><ele>225.0</ele><time>2026-03-31T15:52:06.653Z</time></trkpt><trkpt lat="45.632458" lon="9.4558767"><ele>225.0</ele><time>2026-03-31T15:52:07.653Z</time></trkpt><trkpt lat="45.6325373" lon="9.4559049"><ele>225.0</ele><time>2026-03-31T15:52:08.654Z</time></trkpt><trkpt lat="45.6326223" lon="9.4559323"><ele>225.0</ele><time>2026-03-31T15:52:09.654Z</time></trkpt><trkpt lat="45.6327088" lon="9.4559595"><ele>225.0</ele><time>2026-03-31T15:52:10.653Z</time></trkpt><trkpt lat="45.6327858" lon="9.4559848"><ele>225.0</ele><time>2026-03-31T15:52:11.654Z</time></trkpt><trkpt lat="45.6328604" lon="9.4560141"><ele>224.83333333333334</ele><time>2026-03-31T15:52:12.654Z</time></trkpt><trkpt lat="45.6329348" lon="9.4560475"><ele>224.66666666666669</ele><time>2026-03-31T15:52:13.653Z</time></trkpt><trkpt lat="45.6330042" lon="9.4560951"><ele>224.5</ele><time>2026-03-31T15:52:14.653Z</time></trkpt><trkpt lat="45.6330701" lon="9.4561489"><ele>224.33333333333334</ele><time>2026-03-31T15:52:15.654Z</time></trkpt><trkpt lat="45.6331388" lon="9.4562047"><ele>224.16666666666669</ele><time>2026-03-31T15:52:16.653Z</time></trkpt><trkpt lat="45.6332076" lon="9.4562671"><ele>224.0</ele><time>2026-03-31T15:52:17.653Z</time></trkpt><trkpt lat="45.6332776" lon="9.4563324"><ele>224.33333333333334</ele><time>2026-03-31T15:52:18.653Z</time></trkpt><trkpt lat="45.6333388" lon="9.4563931"><ele>224.66666666666669</ele><time>2026-03-31T15:52:19.653Z</time></trkpt><trkpt lat="45.6333983" lon="9.456455"><ele>225.0</ele><time>2026-03-31T15:52:20.653Z</time></trkpt><trkpt lat="45.6334621" lon="9.4565151"><ele>225.33333333333331</ele><time>2026-03-31T15:52:21.653Z</time></trkpt><trkpt lat="45.6335298" lon="9.4565739"><ele>225.66666666666666</ele><time>2026-03-31T15:52:22.653Z</time></trkpt><trkpt lat="45.6335991" lon="9.4566328"><ele>226.0</ele><time>2026-03-31T15:52:23.653Z</time></trkpt><trkpt lat="45.6336704" lon="9.4566916"><ele>226.33333333333331</ele><time>2026-03-31T15:52:24.654Z</time></trkpt><trkpt lat="45.6337447" lon="9.4567473"><ele>226.66666666666666</ele><time>2026-03-31T15:52:25.653Z</time></trkpt><trkpt lat="45.6338224" lon="9.4568041"><ele>227.0</ele><time>2026-03-31T15:52:26.653Z</time></trkpt><trkpt lat="45.6339029" lon="9.4568623"><ele>227.33333333333331</ele><time>2026-03-31T15:52:27.653Z</time></trkpt><trkpt lat="45.6339853" lon="9.4569149"><ele>227.66666666666666</ele><time>2026-03-31T15:52:28.653Z</time></trkpt><trkpt lat="45.6340632" lon="9.4569693"><ele>228.0</ele><time>2026-03-31T15:52:29.653Z</time></trkpt><trkpt lat="45.6341393" lon="9.4570231"><ele>228.0</ele><time>2026-03-31T15:52:30.653Z</time></trkpt><trkpt lat="45.6342103" lon="9.4570752"><ele>228.0</ele><time>2026-03-31T15:52:31.653Z</time></trkpt><trkpt lat="45.6342747" lon="9.4571239"><ele>228.0</ele><time>2026-03-31T15:52:32.653Z</time></trkpt><trkpt lat="45.6343378" lon="9.4571665"><ele>228.0</ele><time>2026-03-31T15:52:33.653Z</time></trkpt><trkpt lat="45.6344011" lon="9.4572033"><ele>228.0</ele><time>2026-03-31T15:52:34.653Z</time></trkpt><trkpt lat="45.6345039" lon="9.4572834"><ele>228.0</ele><time>2026-03-31T15:52:36.654Z</time></trkpt><trkpt lat="45.6345876" lon="9.4573308"><ele>228.16666666666666</ele><time>2026-03-31T15:52:38.653Z</time></trkpt><trkpt lat="45.6346648" lon="9.457369"><ele>228.33333333333331</ele><time>2026-03-31T15:52:40.653Z</time></trkpt><trkpt lat="45.6347388" lon="9.4574161"><ele>228.5</ele><time>2026-03-31T15:52:42.654Z</time></trkpt><trkpt lat="45.6348427" lon="9.4573676"><ele>228.66666666666666</ele><time>2026-03-31T15:53:03.653Z</time></trkpt><trkpt lat="45.6349086" lon="9.4573087"><ele>228.83333333333331</ele><time>2026-03-31T15:53:04.654Z</time></trkpt><trkpt lat="45.6349871" lon="9.4572236"><ele>229.0</ele><time>2026-03-31T15:53:05.654Z</time></trkpt><trkpt lat="45.6350679" lon="9.4571398"><ele>229.25</ele><time>2026-03-31T15:53:06.653Z</time></trkpt><trkpt lat="45.6351641" lon="9.4570504"><ele>229.5</ele><time>2026-03-31T15:53:07.653Z</time></trkpt><trkpt lat="45.6352611" lon="9.4569599"><ele>229.75</ele><time>2026-03-31T15:53:08.653Z</time></trkpt><trkpt lat="45.6353644" lon="9.4568681"><ele>230.0</ele><time>2026-03-31T15:53:09.654Z</time></trkpt><trkpt lat="45.6354671" lon="9.456779"><ele>229.0</ele><time>2026-03-31T15:53:10.653Z</time></trkpt><trkpt lat="45.6355735" lon="9.4566825"><ele>228.0</ele><time>2026-03-31T15:53:11.653Z</time></trkpt><trkpt lat="45.6356761" lon="9.4565901"><ele>227.0</ele><time>2026-03-31T15:53:12.654Z</time></trkpt><trkpt lat="45.6357793" lon="9.4564859"><ele>226.0</ele><time>2026-03-31T15:53:13.653Z</time></trkpt><trkpt lat="45.6358847" lon="9.4563869"><ele>226.0</ele><time>2026-03-31T15:53:14.654Z</time></trkpt><trkpt lat="45.6359919" lon="9.4562876"><ele>226.0</ele><time>2026-03-31T15:53:15.653Z</time></trkpt><trkpt lat="45.6361011" lon="9.4561776"><ele>226.0</ele><time>2026-03-31T15:53:16.653Z</time></trkpt><trkpt lat="45.6362112" lon="9.456072"><ele>226.0</ele><time>2026-03-31T15:53:17.653Z</time></trkpt><trkpt lat="45.6363237" lon="9.4559672"><ele>226.0</ele><time>2026-03-31T15:53:18.653Z</time></trkpt><trkpt lat="45.6364329" lon="9.4558616"><ele>226.0</ele><time>2026-03-31T15:53:19.654Z</time></trkpt><trkpt lat="45.6365416" lon="9.4557603"><ele>226.0</ele><time>2026-03-31T15:53:20.654Z</time></trkpt><trkpt lat="45.636643" lon="9.4556613"><ele>226.0</ele><time>2026-03-31T15:53:21.653Z</time></trkpt><trkpt lat="45.636742" lon="9.4555753"><ele>226.0</ele><time>2026-03-31T15:53:22.653Z</time></trkpt><trkpt lat="45.636835" lon="9.4554923"><ele>226.00000000000003</ele><time>2026-03-31T15:53:23.653Z</time></trkpt><trkpt lat="45.6369199" lon="9.4554165"><ele>226.00000000000003</ele><time>2026-03-31T15:53:24.653Z</time></trkpt><trkpt lat="45.6369952" lon="9.4553458"><ele>226.0</ele><time>2026-03-31T15:53:25.654Z</time></trkpt><trkpt lat="45.6370619" lon="9.4552807"><ele>226.0</ele><time>2026-03-31T15:53:26.653Z</time></trkpt><trkpt lat="45.6371561" lon="9.4552061"><ele>226.0</ele><time>2026-03-31T15:53:28.653Z</time></trkpt><trkpt lat="45.6372301" lon="9.4552609"><ele>226.00000000000003</ele><time>2026-03-31T15:53:30.653Z</time></trkpt><trkpt lat="45.637314" lon="9.4554223"><ele>226.00000000000003</ele><time>2026-03-31T15:53:32.654Z</time></trkpt><trkpt lat="45.6373688" lon="9.4555373"><ele>226.0</ele><time>2026-03-31T15:53:33.654Z</time></trkpt><trkpt lat="45.6374325" lon="9.4556658"><ele>226.0</ele><time>2026-03-31T15:53:34.654Z</time></trkpt><trkpt lat="45.6375046" lon="9.4558032"><ele>226.5</ele><time>2026-03-31T15:53:35.653Z</time></trkpt><trkpt lat="45.637586" lon="9.4559349"><ele>227.0</ele><time>2026-03-31T15:53:36.654Z</time></trkpt><trkpt lat="45.6376738" lon="9.4560705"><ele>227.5</ele><time>2026-03-31T15:53:37.653Z</time></trkpt><trkpt lat="45.6377639" lon="9.4562157"><ele>228.0</ele><time>2026-03-31T15:53:38.654Z</time></trkpt><trkpt lat="45.6378576" lon="9.4563619"><ele>228.75</ele><time>2026-03-31T15:53:39.654Z</time></trkpt><trkpt lat="45.6379526" lon="9.4565117"><ele>229.5</ele><time>2026-03-31T15:53:40.653Z</time></trkpt><trkpt lat="45.638053" lon="9.4566716"><ele>230.25</ele><time>2026-03-31T15:53:41.654Z</time></trkpt><trkpt lat="45.6381532" lon="9.456832"><ele>231.0</ele><time>2026-03-31T15:53:42.653Z</time></trkpt><trkpt lat="45.638256" lon="9.4569923"><ele>230.66666666666669</ele><time>2026-03-31T15:53:43.653Z</time></trkpt><trkpt lat="45.6383584" lon="9.457152"><ele>230.33333333333334</ele><time>2026-03-31T15:53:44.654Z</time></trkpt><trkpt lat="45.6384641" lon="9.4573143"><ele>230.0</ele><time>2026-03-31T15:53:45.653Z</time></trkpt><trkpt lat="45.638566" lon="9.4574791"><ele>230.0</ele><time>2026-03-31T15:53:46.654Z</time></trkpt><trkpt lat="45.6386698" lon="9.4576448"><ele>230.0</ele><time>2026-03-31T15:53:47.653Z</time></trkpt><trkpt lat="45.6387763" lon="9.4578137"><ele>230.0</ele><time>2026-03-31T15:53:48.653Z</time></trkpt><trkpt lat="45.6388796" lon="9.4579806"><ele>229.66666666666669</ele><time>2026-03-31T15:53:49.653Z</time></trkpt><trkpt lat="45.6389815" lon="9.4581448"><ele>229.33333333333331</ele><time>2026-03-31T15:53:50.653Z</time></trkpt><trkpt lat="45.6390817" lon="9.4583028"><ele>229.0</ele><time>2026-03-31T15:53:51.653Z</time></trkpt><trkpt lat="45.6391795" lon="9.4584717"><ele>229.0</ele><time>2026-03-31T15:53:52.653Z</time></trkpt><trkpt lat="45.6392674" lon="9.4586432"><ele>229.0</ele><time>2026-03-31T15:53:53.653Z</time></trkpt><trkpt lat="45.6393453" lon="9.4588231"><ele>229.0</ele><time>2026-03-31T15:53:54.653Z</time></trkpt><trkpt lat="45.6394317" lon="9.4590014"><ele>229.0</ele><time>2026-03-31T15:53:55.654Z</time></trkpt><trkpt lat="45.639514" lon="9.4591802"><ele>229.33333333333331</ele><time>2026-03-31T15:53:56.653Z</time></trkpt><trkpt lat="45.6395985" lon="9.4593601"><ele>229.66666666666669</ele><time>2026-03-31T15:53:57.654Z</time></trkpt><trkpt lat="45.6396798" lon="9.4595389"><ele>230.0</ele><time>2026-03-31T15:53:58.654Z</time></trkpt><trkpt lat="45.6397642" lon="9.4597182"><ele>230.0</ele><time>2026-03-31T15:53:59.654Z</time></trkpt><trkpt lat="45.6398436" lon="9.4598948"><ele>230.0</ele><time>2026-03-31T15:54:00.653Z</time></trkpt><trkpt lat="45.6399183" lon="9.4600725"><ele>230.0</ele><time>2026-03-31T15:54:01.654Z</time></trkpt><trkpt lat="45.6400032" lon="9.4602509"><ele>230.0</ele><time>2026-03-31T15:54:02.653Z</time></trkpt><trkpt lat="45.6400762" lon="9.4604301"><ele>230.0</ele><time>2026-03-31T15:54:03.654Z</time></trkpt><trkpt lat="45.6401506" lon="9.4606094"><ele>230.0</ele><time>2026-03-31T15:54:04.653Z</time></trkpt><trkpt lat="45.6402315" lon="9.4607754"><ele>230.0</ele><time>2026-03-31T15:54:05.653Z</time></trkpt><trkpt lat="45.6403128" lon="9.4609326"><ele>230.0</ele><time>2026-03-31T15:54:06.653Z</time></trkpt><trkpt lat="45.6403999" lon="9.4610838"><ele>230.0</ele><time>2026-03-31T15:54:07.654Z</time></trkpt><trkpt lat="45.6404902" lon="9.461234"><ele>230.0</ele><time>2026-03-31T15:54:08.654Z</time></trkpt><trkpt lat="45.6405768" lon="9.4613695"><ele>230.0</ele><time>2026-03-31T15:54:09.653Z</time></trkpt><trkpt lat="45.6406626" lon="9.4614874"><ele>230.0</ele><time>2026-03-31T15:54:10.654Z</time></trkpt><trkpt lat="45.6407498" lon="9.4615747"><ele>230.0</ele><time>2026-03-31T15:54:11.653Z</time></trkpt><trkpt lat="45.640844" lon="9.46164"><ele>230.0</ele><time>2026-03-31T15:54:12.654Z</time></trkpt><trkpt lat="45.640948" lon="9.4616846"><ele>230.0</ele><time>2026-03-31T15:54:13.654Z</time></trkpt><trkpt lat="45.6410615" lon="9.4617126"><ele>230.0</ele><time>2026-03-31T15:54:14.654Z</time></trkpt><trkpt lat="45.6411755" lon="9.4617333"><ele>230.0</ele><time>2026-03-31T15:54:15.654Z</time></trkpt><trkpt lat="45.6412923" lon="9.4617566"><ele>230.0</ele><time>2026-03-31T15:54:16.653Z</time></trkpt><trkpt lat="45.6414147" lon="9.4617791"><ele>230.0</ele><time>2026-03-31T15:54:17.653Z</time></trkpt><trkpt lat="45.6415376" lon="9.4618014"><ele>230.0</ele><time>2026-03-31T15:54:18.654Z</time></trkpt><trkpt lat="45.6416603" lon="9.4618243"><ele>230.0</ele><time>2026-03-31T15:54:19.653Z</time></trkpt><trkpt lat="45.6417895" lon="9.4618507"><ele>230.0</ele><time>2026-03-31T15:54:20.653Z</time></trkpt><trkpt lat="45.6419189" lon="9.461878"><ele>230.0</ele><time>2026-03-31T15:54:21.653Z</time></trkpt><trkpt lat="45.6420488" lon="9.461903"><ele>230.0</ele><time>2026-03-31T15:54:22.653Z</time></trkpt><trkpt lat="45.642185" lon="9.4619267"><ele>230.0</ele><time>2026-03-31T15:54:23.653Z</time></trkpt><trkpt lat="45.6423208" lon="9.4619484"><ele>230.0</ele><time>2026-03-31T15:54:24.653Z</time></trkpt><trkpt lat="45.6424573" lon="9.4619782"><ele>230.0</ele><time>2026-03-31T15:54:25.653Z</time></trkpt><trkpt lat="45.6425913" lon="9.4620004"><ele>230.0</ele><time>2026-03-31T15:54:26.653Z</time></trkpt><trkpt lat="45.6427272" lon="9.4620279"><ele>230.0</ele><time>2026-03-31T15:54:27.653Z</time></trkpt><trkpt lat="45.6428659" lon="9.462054"><ele>230.0</ele><time>2026-03-31T15:54:28.653Z</time></trkpt><trkpt lat="45.6430016" lon="9.4620807"><ele>230.0</ele><time>2026-03-31T15:54:29.653Z</time></trkpt><trkpt lat="45.643138" lon="9.4621074"><ele>230.0</ele><time>2026-03-31T15:54:30.653Z</time></trkpt><trkpt lat="45.6432716" lon="9.4621358"><ele>230.0</ele><time>2026-03-31T15:54:31.653Z</time></trkpt><trkpt lat="45.6434106" lon="9.462163"><ele>230.25</ele><time>2026-03-31T15:54:32.653Z</time></trkpt><trkpt lat="45.6435482" lon="9.4621903"><ele>230.5</ele><time>2026-03-31T15:54:33.654Z</time></trkpt><trkpt lat="45.6436769" lon="9.4622235"><ele>230.75</ele><time>2026-03-31T15:54:34.653Z</time></trkpt><trkpt lat="45.6437966" lon="9.4622608"><ele>231.0</ele><time>2026-03-31T15:54:35.653Z</time></trkpt><trkpt lat="45.6439054" lon="9.4623014"><ele>231.0</ele><time>2026-03-31T15:54:36.653Z</time></trkpt><trkpt lat="45.6439987" lon="9.4623552"><ele>231.00000000000003</ele><time>2026-03-31T15:54:37.653Z</time></trkpt><trkpt lat="45.6440859" lon="9.4624273"><ele>231.00000000000003</ele><time>2026-03-31T15:54:38.654Z</time></trkpt><trkpt lat="45.6441644" lon="9.4625163"><ele>231.0</ele><time>2026-03-31T15:54:39.654Z</time></trkpt><trkpt lat="45.6442262" lon="9.4626261"><ele>231.0</ele><time>2026-03-31T15:54:40.653Z</time></trkpt><trkpt lat="45.6442779" lon="9.4627478"><ele>231.0</ele><time>2026-03-31T15:54:41.653Z</time></trkpt><trkpt lat="45.6443309" lon="9.4628715"><ele>231.00000000000003</ele><time>2026-03-31T15:54:42.653Z</time></trkpt><trkpt lat="45.6443846" lon="9.4630092"><ele>231.00000000000003</ele><time>2026-03-31T15:54:43.653Z</time></trkpt><trkpt lat="45.6444424" lon="9.4631389"><ele>231.0</ele><time>2026-03-31T15:54:44.653Z</time></trkpt><trkpt lat="45.6444949" lon="9.4632751"><ele>231.0</ele><time>2026-03-31T15:54:45.654Z</time></trkpt><trkpt lat="45.6445606" lon="9.4634141"><ele>231.75</ele><time>2026-03-31T15:54:46.653Z</time></trkpt><trkpt lat="45.6446203" lon="9.4635508"><ele>232.5</ele><time>2026-03-31T15:54:47.653Z</time></trkpt><trkpt lat="45.6446835" lon="9.4636921"><ele>233.25</ele><time>2026-03-31T15:54:48.653Z</time></trkpt><trkpt lat="45.6447459" lon="9.4638402"><ele>234.0</ele><time>2026-03-31T15:54:49.653Z</time></trkpt><trkpt lat="45.6448058" lon="9.4639819"><ele>234.0</ele><time>2026-03-31T15:54:50.653Z</time></trkpt><trkpt lat="45.6448633" lon="9.4641145"><ele>233.99999999999997</ele><time>2026-03-31T15:54:51.653Z</time></trkpt><trkpt lat="45.6449261" lon="9.4642597"><ele>233.99999999999997</ele><time>2026-03-31T15:54:52.653Z</time></trkpt><trkpt lat="45.6449752" lon="9.4643695"><ele>234.0</ele><time>2026-03-31T15:54:53.653Z</time></trkpt><trkpt lat="45.6450244" lon="9.4644916"><ele>234.0</ele><time>2026-03-31T15:54:54.653Z</time></trkpt><trkpt lat="45.6450731" lon="9.4646082"><ele>234.0</ele><time>2026-03-31T15:54:55.653Z</time></trkpt><trkpt lat="45.6451208" lon="9.4647156"><ele>234.0</ele><time>2026-03-31T15:54:56.653Z</time></trkpt><trkpt lat="45.6451672" lon="9.464819"><ele>234.0</ele><time>2026-03-31T15:54:57.654Z</time></trkpt><trkpt lat="45.6452075" lon="9.4649081"><ele>234.0</ele><time>2026-03-31T15:54:58.654Z</time></trkpt><trkpt lat="45.6452656" lon="9.4650291"><ele>234.0</ele><time>2026-03-31T15:55:00.653Z</time></trkpt><trkpt lat="45.6453404" lon="9.4650894"><ele>234.0</ele><time>2026-03-31T15:55:03.653Z</time></trkpt><trkpt lat="45.6454543" lon="9.4650198"><ele>234.33333333333334</ele><time>2026-03-31T15:55:05.653Z</time></trkpt><trkpt lat="45.6455173" lon="9.46496"><ele>234.66666666666669</ele><time>2026-03-31T15:55:06.653Z</time></trkpt><trkpt lat="45.6455898" lon="9.4648961"><ele>235.0</ele><time>2026-03-31T15:55:07.653Z</time></trkpt><trkpt lat="45.6456604" lon="9.4648366"><ele>235.33333333333334</ele><time>2026-03-31T15:55:08.653Z</time></trkpt><trkpt lat="45.6457264" lon="9.4647741"><ele>235.66666666666669</ele><time>2026-03-31T15:55:09.653Z</time></trkpt><trkpt lat="45.6457882" lon="9.4647179"><ele>236.0</ele><time>2026-03-31T15:55:10.653Z</time></trkpt><trkpt lat="45.6458436" lon="9.4646704"><ele>236.00000000000003</ele><time>2026-03-31T15:55:11.653Z</time></trkpt><trkpt lat="45.6459077" lon="9.464632"><ele>236.0</ele><time>2026-03-31T15:55:12.653Z</time></trkpt><trkpt lat="45.6459694" lon="9.4645908"><ele>236.0</ele><time>2026-03-31T15:55:13.654Z</time></trkpt><trkpt lat="45.6460456" lon="9.4645469"><ele>236.0</ele><time>2026-03-31T15:55:14.654Z</time></trkpt><trkpt lat="45.6461171" lon="9.4644963"><ele>236.00000000000003</ele><time>2026-03-31T15:55:15.653Z</time></trkpt><trkpt lat="45.6461947" lon="9.4644502"><ele>236.0</ele><time>2026-03-31T15:55:16.654Z</time></trkpt><trkpt lat="45.6462764" lon="9.4644012"><ele>236.00000000000003</ele><time>2026-03-31T15:55:17.653Z</time></trkpt><trkpt lat="45.6463603" lon="9.464358"><ele>236.0</ele><time>2026-03-31T15:55:18.653Z</time></trkpt><trkpt lat="45.6464413" lon="9.4643103"><ele>236.0</ele><time>2026-03-31T15:55:19.653Z</time></trkpt><trkpt lat="45.6465092" lon="9.464269"><ele>236.0</ele><time>2026-03-31T15:55:20.653Z</time></trkpt><trkpt lat="45.6465839" lon="9.4642375"><ele>236.00000000000003</ele><time>2026-03-31T15:55:21.653Z</time></trkpt><trkpt lat="45.6466604" lon="9.4642077"><ele>236.0</ele><time>2026-03-31T15:55:22.654Z</time></trkpt><trkpt lat="45.6467249" lon="9.4641725"><ele>236.00000000000003</ele><time>2026-03-31T15:55:23.653Z</time></trkpt><trkpt lat="45.6467862" lon="9.4641409"><ele>236.0</ele><time>2026-03-31T15:55:24.654Z</time></trkpt><trkpt lat="45.646907" lon="9.4640817"><ele>236.0</ele><time>2026-03-31T15:55:26.654Z</time></trkpt><trkpt lat="45.6469751" lon="9.4640414"><ele>236.0</ele><time>2026-03-31T15:55:27.654Z</time></trkpt><trkpt lat="45.6470512" lon="9.4640006"><ele>236.00000000000003</ele><time>2026-03-31T15:55:28.653Z</time></trkpt><trkpt lat="45.6471303" lon="9.4639544"><ele>236.0</ele><time>2026-03-31T15:55:29.653Z</time></trkpt><trkpt lat="45.6472155" lon="9.4639084"><ele>236.00000000000003</ele><time>2026-03-31T15:55:30.653Z</time></trkpt><trkpt lat="45.6473034" lon="9.4638618"><ele>236.0</ele><time>2026-03-31T15:55:31.653Z</time></trkpt><trkpt lat="45.6473876" lon="9.4638171"><ele>236.0</ele><time>2026-03-31T15:55:32.654Z</time></trkpt><trkpt lat="45.6474782" lon="9.4637678"><ele>236.0</ele><time>2026-03-31T15:55:33.654Z</time></trkpt><trkpt lat="45.6475663" lon="9.4637228"><ele>236.00000000000003</ele><time>2026-03-31T15:55:34.654Z</time></trkpt><trkpt lat="45.6476371" lon="9.4636872"><ele>236.0</ele><time>2026-03-31T15:55:35.654Z</time></trkpt><trkpt lat="45.6477091" lon="9.4636531"><ele>235.83333333333334</ele><time>2026-03-31T15:55:36.653Z</time></trkpt><trkpt lat="45.6478031" lon="9.46361"><ele>235.66666666666669</ele><time>2026-03-31T15:55:38.653Z</time></trkpt><trkpt lat="45.6478732" lon="9.4635629"><ele>235.5</ele><time>2026-03-31T15:55:42.653Z</time></trkpt><trkpt lat="45.6479305" lon="9.4635021"><ele>235.33333333333331</ele><time>2026-03-31T15:55:45.653Z</time></trkpt><trkpt lat="45.64804" lon="9.4634417"><ele>235.16666666666666</ele><time>2026-03-31T15:55:47.654Z</time></trkpt><trkpt lat="45.6481001" lon="9.4634065"><ele>235.0</ele><time>2026-03-31T15:55:48.653Z</time></trkpt><trkpt lat="45.6481621" lon="9.4633604"><ele>234.99999999999997</ele><time>2026-03-31T15:55:49.653Z</time></trkpt><trkpt lat="45.6482276" lon="9.4633274"><ele>235.0</ele><time>2026-03-31T15:55:50.653Z</time></trkpt><trkpt lat="45.6482885" lon="9.4632909"><ele>235.0</ele><time>2026-03-31T15:55:51.654Z</time></trkpt><trkpt lat="45.6483504" lon="9.4632525"><ele>235.0</ele><time>2026-03-31T15:55:52.654Z</time></trkpt><trkpt lat="45.6484171" lon="9.4632156"><ele>234.99999999999997</ele><time>2026-03-31T15:55:53.653Z</time></trkpt><trkpt lat="45.6484815" lon="9.4631825"><ele>235.0</ele><time>2026-03-31T15:55:54.654Z</time></trkpt><trkpt lat="45.6486231" lon="9.4631214"><ele>234.99999999999997</ele><time>2026-03-31T15:55:56.653Z</time></trkpt><trkpt lat="45.6487175" lon="9.4630938"><ele>235.0</ele><time>2026-03-31T15:55:57.653Z</time></trkpt><trkpt lat="45.648792" lon="9.4630497"><ele>235.0</ele><time>2026-03-31T15:55:58.653Z</time></trkpt><trkpt lat="45.6488719" lon="9.4630058"><ele>235.0</ele><time>2026-03-31T15:55:59.653Z</time></trkpt><trkpt lat="45.6489505" lon="9.4629565"><ele>234.99999999999997</ele><time>2026-03-31T15:56:00.653Z</time></trkpt><trkpt lat="45.6490297" lon="9.4629141"><ele>235.0</ele><time>2026-03-31T15:56:01.653Z</time></trkpt><trkpt lat="45.6491062" lon="9.4628742"><ele>234.99999999999997</ele><time>2026-03-31T15:56:02.654Z</time></trkpt><trkpt lat="45.6491789" lon="9.4628306"><ele>235.0</ele><time>2026-03-31T15:56:03.653Z</time></trkpt><trkpt lat="45.6492463" lon="9.4627912"><ele>235.0</ele><time>2026-03-31T15:56:04.653Z</time></trkpt><trkpt lat="45.6493073" lon="9.4627561"><ele>235.0</ele><time>2026-03-31T15:56:05.653Z</time></trkpt><trkpt lat="45.6494101" lon="9.4626804"><ele>234.99999999999997</ele><time>2026-03-31T15:56:07.653Z</time></trkpt><trkpt lat="45.6494988" lon="9.4626154"><ele>235.0</ele><time>2026-03-31T15:56:09.653Z</time></trkpt><trkpt lat="45.6495737" lon="9.4625718"><ele>234.99999999999997</ele><time>2026-03-31T15:56:11.653Z</time></trkpt><trkpt lat="45.6496413" lon="9.4625642"><ele>235.0</ele><time>2026-03-31T15:56:14.654Z</time></trkpt><trkpt lat="45.6497289" lon="9.4625474"><ele>235.0</ele><time>2026-03-31T15:56:47.653Z</time></trkpt><trkpt lat="45.6497901" lon="9.4625129"><ele>235.0</ele><time>2026-03-31T15:56:48.653Z</time></trkpt><trkpt lat="45.6498907" lon="9.4624864"><ele>234.99999999999997</ele><time>2026-03-31T15:56:50.654Z</time></trkpt><trkpt lat="45.6499372" lon="9.462551"><ele>235.0</ele><time>2026-03-31T15:56:51.653Z</time></trkpt><trkpt lat="45.6500069" lon="9.4626231"><ele>235.0</ele><time>2026-03-31T15:56:52.654Z</time></trkpt><trkpt lat="45.6500624" lon="9.4627252"><ele>235.0</ele><time>2026-03-31T15:56:53.653Z</time></trkpt><trkpt lat="45.6501126" lon="9.4628337"><ele>235.0</ele><time>2026-03-31T15:56:54.653Z</time></trkpt><trkpt lat="45.65016" lon="9.4629659"><ele>235.0</ele><time>2026-03-31T15:56:55.653Z</time></trkpt><trkpt lat="45.650202" lon="9.4630987"><ele>235.0</ele><time>2026-03-31T15:56:56.654Z</time></trkpt><trkpt lat="45.6502343" lon="9.463214"><ele>235.16666666666666</ele><time>2026-03-31T15:56:57.653Z</time></trkpt><trkpt lat="45.6502787" lon="9.4633207"><ele>235.33333333333331</ele><time>2026-03-31T15:56:58.653Z</time></trkpt><trkpt lat="45.6503134" lon="9.4634255"><ele>235.5</ele><time>2026-03-31T15:56:59.653Z</time></trkpt><trkpt lat="45.6503443" lon="9.4635166"><ele>235.66666666666669</ele><time>2026-03-31T15:57:00.653Z</time></trkpt><trkpt lat="45.65039" lon="9.4636389"><ele>235.83333333333334</ele><time>2026-03-31T15:57:02.653Z</time></trkpt><trkpt lat="45.6504899" lon="9.4637008"><ele>236.0</ele><time>2026-03-31T15:57:05.654Z</time></trkpt><trkpt lat="45.6505877" lon="9.4637463"><ele>235.8</ele><time>2026-03-31T15:57:07.654Z</time></trkpt><trkpt lat="45.650689" lon="9.4638494"><ele>235.60000000000002</ele><time>2026-03-31T15:57:09.654Z</time></trkpt><trkpt lat="45.6507451" lon="9.4639148"><ele>235.4</ele><time>2026-03-31T15:57:10.653Z</time></trkpt><trkpt lat="45.6508193" lon="9.4639973"><ele>235.2</ele><time>2026-03-31T15:57:11.653Z</time></trkpt><trkpt lat="45.6508873" lon="9.4640737"><ele>235.0</ele><time>2026-03-31T15:57:12.653Z</time></trkpt><trkpt lat="45.6509628" lon="9.4641549"><ele>234.99999999999997</ele><time>2026-03-31T15:57:13.653Z</time></trkpt><trkpt lat="45.6510219" lon="9.4642239"><ele>235.0</ele><time>2026-03-31T15:57:14.653Z</time></trkpt><trkpt lat="45.6511184" lon="9.4643334"><ele>235.0</ele><time>2026-03-31T15:57:16.653Z</time></trkpt><trkpt lat="45.6511716" lon="9.4643938"><ele>235.0</ele><time>2026-03-31T15:57:17.654Z</time></trkpt><trkpt lat="45.6512304" lon="9.4644573"><ele>234.99999999999997</ele><time>2026-03-31T15:57:18.653Z</time></trkpt><trkpt lat="45.6512862" lon="9.4645238"><ele>235.0</ele><time>2026-03-31T15:57:19.653Z</time></trkpt><trkpt lat="45.6513353" lon="9.464585"><ele>235.4</ele><time>2026-03-31T15:57:20.653Z</time></trkpt><trkpt lat="45.6514291" lon="9.4646921"><ele>235.8</ele><time>2026-03-31T15:57:22.653Z</time></trkpt><trkpt lat="45.6514846" lon="9.464758"><ele>236.2</ele><time>2026-03-31T15:57:23.653Z</time></trkpt><trkpt lat="45.6515473" lon="9.4648268"><ele>236.6</ele><time>2026-03-31T15:57:24.654Z</time></trkpt><trkpt lat="45.651617" lon="9.4649096"><ele>237.0</ele><time>2026-03-31T15:57:25.653Z</time></trkpt><trkpt lat="45.6516873" lon="9.4649941"><ele>237.0</ele><time>2026-03-31T15:57:26.653Z</time></trkpt><trkpt lat="45.6517652" lon="9.4650873"><ele>237.0</ele><time>2026-03-31T15:57:27.654Z</time></trkpt><trkpt lat="45.6518357" lon="9.4651658"><ele>237.0</ele><time>2026-03-31T15:57:28.654Z</time></trkpt><trkpt lat="45.6518911" lon="9.4652473"><ele>237.0</ele><time>2026-03-31T15:57:29.653Z</time></trkpt><trkpt lat="45.6519556" lon="9.4653202"><ele>237.0</ele><time>2026-03-31T15:57:30.653Z</time></trkpt><trkpt lat="45.6520227" lon="9.4653837"><ele>237.0</ele><time>2026-03-31T15:57:31.653Z</time></trkpt><trkpt lat="45.6520914" lon="9.4654495"><ele>236.8</ele><time>2026-03-31T15:57:32.654Z</time></trkpt><trkpt lat="45.6521651" lon="9.465522"><ele>236.6</ele><time>2026-03-31T15:57:33.653Z</time></trkpt><trkpt lat="45.6522323" lon="9.4656024"><ele>236.40000000000003</ele><time>2026-03-31T15:57:34.653Z</time></trkpt><trkpt lat="45.652306" lon="9.4656867"><ele>236.20000000000002</ele><time>2026-03-31T15:57:35.653Z</time></trkpt><trkpt lat="45.6523816" lon="9.4657726"><ele>236.0</ele><time>2026-03-31T15:57:36.653Z</time></trkpt><trkpt lat="45.6524543" lon="9.4658641"><ele>236.0</ele><time>2026-03-31T15:57:37.654Z</time></trkpt><trkpt lat="45.6525254" lon="9.4659481"><ele>236.00000000000003</ele><time>2026-03-31T15:57:38.653Z</time></trkpt><trkpt lat="45.6526018" lon="9.4660351"><ele>236.00000000000003</ele><time>2026-03-31T15:57:39.654Z</time></trkpt><trkpt lat="45.6526781" lon="9.4661262"><ele>236.0</ele><time>2026-03-31T15:57:40.653Z</time></trkpt><trkpt lat="45.6527697" lon="9.466229"><ele>236.0</ele><time>2026-03-31T15:57:41.654Z</time></trkpt><trkpt lat="45.6528558" lon="9.4663361"><ele>236.20000000000002</ele><time>2026-03-31T15:57:42.654Z</time></trkpt><trkpt lat="45.6529391" lon="9.4664347"><ele>236.40000000000003</ele><time>2026-03-31T15:57:43.653Z</time></trkpt><trkpt lat="45.6530124" lon="9.4665284"><ele>236.6</ele><time>2026-03-31T15:57:44.653Z</time></trkpt><trkpt lat="45.6530905" lon="9.4666166"><ele>236.8</ele><time>2026-03-31T15:57:45.653Z</time></trkpt><trkpt lat="45.6531681" lon="9.4667083"><ele>237.0</ele><time>2026-03-31T15:57:46.653Z</time></trkpt><trkpt lat="45.6532412" lon="9.4667952"><ele>237.0</ele><time>2026-03-31T15:57:47.653Z</time></trkpt><trkpt lat="45.6533132" lon="9.4668805"><ele>237.0</ele><time>2026-03-31T15:57:48.653Z</time></trkpt><trkpt lat="45.6533855" lon="9.4669707"><ele>237.0</ele><time>2026-03-31T15:57:49.654Z</time></trkpt><trkpt lat="45.653452" lon="9.4670624"><ele>237.0</ele><time>2026-03-31T15:57:50.653Z</time></trkpt><trkpt lat="45.6535293" lon="9.4671527"><ele>237.0</ele><time>2026-03-31T15:57:51.653Z</time></trkpt><trkpt lat="45.6536085" lon="9.4672444"><ele>237.2</ele><time>2026-03-31T15:57:52.654Z</time></trkpt><trkpt lat="45.6536883" lon="9.4673416"><ele>237.39999999999998</ele><time>2026-03-31T15:57:53.654Z</time></trkpt><trkpt lat="45.6537661" lon="9.4674299"><ele>237.60000000000002</ele><time>2026-03-31T15:57:54.654Z</time></trkpt><trkpt lat="45.6538422" lon="9.4675131"><ele>237.8</ele><time>2026-03-31T15:57:55.653Z</time></trkpt><trkpt lat="45.653911" lon="9.4675883"><ele>238.0</ele><time>2026-03-31T15:57:56.653Z</time></trkpt><trkpt lat="45.6539716" lon="9.4676568"><ele>237.99999999999997</ele><time>2026-03-31T15:57:57.654Z</time></trkpt><trkpt lat="45.6540236" lon="9.4677177"><ele>238.0</ele><time>2026-03-31T15:57:58.653Z</time></trkpt><trkpt lat="45.6541149" lon="9.4678286"><ele>238.0</ele><time>2026-03-31T15:58:00.653Z</time></trkpt><trkpt lat="45.6542088" lon="9.4679336"><ele>238.0</ele><time>2026-03-31T15:58:02.653Z</time></trkpt><trkpt lat="45.6542614" lon="9.4680013"><ele>237.99999999999997</ele><time>2026-03-31T15:58:03.653Z</time></trkpt><trkpt lat="45.654315" lon="9.4680637"><ele>238.0</ele><time>2026-03-31T15:58:04.653Z</time></trkpt><trkpt lat="45.6543766" lon="9.4681402"><ele>238.33333333333331</ele><time>2026-03-31T15:58:05.653Z</time></trkpt><trkpt lat="45.6544454" lon="9.4682156"><ele>238.66666666666666</ele><time>2026-03-31T15:58:06.653Z</time></trkpt><trkpt lat="45.6545128" lon="9.4682907"><ele>239.0</ele><time>2026-03-31T15:58:07.654Z</time></trkpt><trkpt lat="45.6545762" lon="9.4683668"><ele>239.33333333333331</ele><time>2026-03-31T15:58:08.653Z</time></trkpt><trkpt lat="45.6546363" lon="9.4684619"><ele>239.66666666666666</ele><time>2026-03-31T15:58:10.653Z</time></trkpt><trkpt lat="45.6546847" lon="9.4685528"><ele>240.0</ele><time>2026-03-31T15:58:12.654Z</time></trkpt><trkpt lat="45.6547245" lon="9.468686"><ele>240.16666666666666</ele><time>2026-03-31T15:58:14.653Z</time></trkpt><trkpt lat="45.6547649" lon="9.4688834"><ele>240.33333333333331</ele><time>2026-03-31T15:58:16.654Z</time></trkpt><trkpt lat="45.6547857" lon="9.4689843"><ele>240.5</ele><time>2026-03-31T15:58:17.653Z</time></trkpt><trkpt lat="45.6548148" lon="9.4690738"><ele>240.66666666666666</ele><time>2026-03-31T15:58:18.653Z</time></trkpt><trkpt lat="45.6548536" lon="9.4691574"><ele>240.83333333333331</ele><time>2026-03-31T15:58:19.654Z</time></trkpt><trkpt lat="45.6549055" lon="9.4692292"><ele>241.0</ele><time>2026-03-31T15:58:20.653Z</time></trkpt><trkpt lat="45.6549742" lon="9.4693046"><ele>241.0</ele><time>2026-03-31T15:58:21.654Z</time></trkpt><trkpt lat="45.6550475" lon="9.469375"><ele>241.00000000000003</ele><time>2026-03-31T15:58:22.654Z</time></trkpt><trkpt lat="45.6551241" lon="9.4694468"><ele>241.00000000000003</ele><time>2026-03-31T15:58:23.653Z</time></trkpt><trkpt lat="45.655202" lon="9.4695238"><ele>241.0</ele><time>2026-03-31T15:58:24.653Z</time></trkpt><trkpt lat="45.6552803" lon="9.4695998"><ele>241.0</ele><time>2026-03-31T15:58:25.654Z</time></trkpt><trkpt lat="45.6553657" lon="9.4696816"><ele>240.8</ele><time>2026-03-31T15:58:26.653Z</time></trkpt><trkpt lat="45.6554545" lon="9.4697632"><ele>240.60000000000002</ele><time>2026-03-31T15:58:27.654Z</time></trkpt><trkpt lat="45.655546" lon="9.4698499"><ele>240.4</ele><time>2026-03-31T15:58:28.653Z</time></trkpt><trkpt lat="45.6556409" lon="9.4699399"><ele>240.2</ele><time>2026-03-31T15:58:29.653Z</time></trkpt><trkpt lat="45.6557375" lon="9.470037"><ele>240.0</ele><time>2026-03-31T15:58:30.654Z</time></trkpt><trkpt lat="45.6558343" lon="9.4701299"><ele>240.0</ele><time>2026-03-31T15:58:31.653Z</time></trkpt><trkpt lat="45.6559358" lon="9.4702257"><ele>240.0</ele><time>2026-03-31T15:58:32.653Z</time></trkpt><trkpt lat="45.6560378" lon="9.4703231"><ele>240.0</ele><time>2026-03-31T15:58:33.653Z</time></trkpt><trkpt lat="45.6561403" lon="9.4704209"><ele>240.0</ele><time>2026-03-31T15:58:34.653Z</time></trkpt><trkpt lat="45.6562455" lon="9.4705182"><ele>240.0</ele><time>2026-03-31T15:58:35.653Z</time></trkpt><trkpt lat="45.6563477" lon="9.4706165"><ele>240.0</ele><time>2026-03-31T15:58:36.653Z</time></trkpt><trkpt lat="45.6564556" lon="9.4707151"><ele>240.0</ele><time>2026-03-31T15:58:37.653Z</time></trkpt><trkpt lat="45.6565618" lon="9.4708162"><ele>240.0</ele><time>2026-03-31T15:58:38.653Z</time></trkpt><trkpt lat="45.6566704" lon="9.4709209"><ele>240.0</ele><time>2026-03-31T15:58:39.654Z</time></trkpt><trkpt lat="45.6567796" lon="9.4710259"><ele>240.0</ele><time>2026-03-31T15:58:40.653Z</time></trkpt><trkpt lat="45.656889" lon="9.4711234"><ele>240.0</ele><time>2026-03-31T15:58:41.653Z</time></trkpt><trkpt lat="45.6569925" lon="9.4712241"><ele>240.0</ele><time>2026-03-31T15:58:42.653Z</time></trkpt><trkpt lat="45.6570943" lon="9.4713185"><ele>239.8</ele><time>2026-03-31T15:58:43.653Z</time></trkpt><trkpt lat="45.657192" lon="9.4714042"><ele>239.6</ele><time>2026-03-31T15:58:44.653Z</time></trkpt><trkpt lat="45.6572847" lon="9.4714922"><ele>239.39999999999998</ele><time>2026-03-31T15:58:45.653Z</time></trkpt><trkpt lat="45.6573753" lon="9.4715803"><ele>239.2</ele><time>2026-03-31T15:58:46.653Z</time></trkpt><trkpt lat="45.6574639" lon="9.4716663"><ele>239.0</ele><time>2026-03-31T15:58:47.653Z</time></trkpt><trkpt lat="45.6575537" lon="9.4717511"><ele>239.0</ele><time>2026-03-31T15:58:48.653Z</time></trkpt><trkpt lat="45.6576439" lon="9.4718378"><ele>238.99999999999997</ele><time>2026-03-31T15:58:49.653Z</time></trkpt><trkpt lat="45.6577364" lon="9.4719274"><ele>238.99999999999997</ele><time>2026-03-31T15:58:50.653Z</time></trkpt><trkpt lat="45.657829" lon="9.4720169"><ele>239.0</ele><time>2026-03-31T15:58:51.653Z</time></trkpt><trkpt lat="45.6579225" lon="9.4721048"><ele>239.0</ele><time>2026-03-31T15:58:52.653Z</time></trkpt><trkpt lat="45.6580201" lon="9.4721958"><ele>239.79999999999998</ele><time>2026-03-31T15:58:53.653Z</time></trkpt><trkpt lat="45.6581082" lon="9.4722946"><ele>240.59999999999997</ele><time>2026-03-31T15:58:54.653Z</time></trkpt><trkpt lat="45.6581906" lon="9.4724017"><ele>241.4</ele><time>2026-03-31T15:58:55.653Z</time></trkpt><trkpt lat="45.6582623" lon="9.4725223"><ele>242.2</ele><time>2026-03-31T15:58:56.653Z</time></trkpt><trkpt lat="45.6583285" lon="9.4726542"><ele>243.0</ele><time>2026-03-31T15:58:57.653Z</time></trkpt><trkpt lat="45.658395" lon="9.4727854"><ele>243.0</ele><time>2026-03-31T15:58:58.653Z</time></trkpt><trkpt lat="45.6584662" lon="9.4729234"><ele>243.0</ele><time>2026-03-31T15:58:59.653Z</time></trkpt><trkpt lat="45.6585481" lon="9.4730684"><ele>243.0</ele><time>2026-03-31T15:59:00.653Z</time></trkpt><trkpt lat="45.6586212" lon="9.4732109"><ele>243.0</ele><time>2026-03-31T15:59:01.654Z</time></trkpt><trkpt lat="45.658694" lon="9.4733578"><ele>242.25</ele><time>2026-03-31T15:59:02.654Z</time></trkpt><trkpt lat="45.6587686" lon="9.4735036"><ele>241.5</ele><time>2026-03-31T15:59:03.654Z</time></trkpt><trkpt lat="45.6588482" lon="9.4736542"><ele>240.75</ele><time>2026-03-31T15:59:04.653Z</time></trkpt><trkpt lat="45.6589206" lon="9.4737994"><ele>240.0</ele><time>2026-03-31T15:59:05.653Z</time></trkpt><trkpt lat="45.6589895" lon="9.4739481"><ele>239.75</ele><time>2026-03-31T15:59:06.654Z</time></trkpt><trkpt lat="45.65906" lon="9.4740903"><ele>239.5</ele><time>2026-03-31T15:59:07.653Z</time></trkpt><trkpt lat="45.6591287" lon="9.4742293"><ele>239.25</ele><time>2026-03-31T15:59:08.654Z</time></trkpt><trkpt lat="45.6591959" lon="9.4743681"><ele>239.0</ele><time>2026-03-31T15:59:09.653Z</time></trkpt><trkpt lat="45.6592609" lon="9.4745048"><ele>239.0</ele><time>2026-03-31T15:59:10.654Z</time></trkpt><trkpt lat="45.6593242" lon="9.4746473"><ele>239.0</ele><time>2026-03-31T15:59:11.653Z</time></trkpt><trkpt lat="45.6593898" lon="9.4747805"><ele>239.0</ele><time>2026-03-31T15:59:12.654Z</time></trkpt><trkpt lat="45.6594564" lon="9.4749151"><ele>239.0</ele><time>2026-03-31T15:59:13.654Z</time></trkpt><trkpt lat="45.6595279" lon="9.4750489"><ele>239.0</ele><time>2026-03-31T15:59:14.653Z</time></trkpt><trkpt lat="45.659594" lon="9.4751832"><ele>238.99999999999997</ele><time>2026-03-31T15:59:15.653Z</time></trkpt><trkpt lat="45.6596649" lon="9.4752991"><ele>238.99999999999997</ele><time>2026-03-31T15:59:16.654Z</time></trkpt><trkpt lat="45.6597331" lon="9.4754075"><ele>239.0</ele><time>2026-03-31T15:59:17.654Z</time></trkpt><trkpt lat="45.6598051" lon="9.4755033"><ele>239.0</ele><time>2026-03-31T15:59:18.653Z</time></trkpt><trkpt lat="45.6598805" lon="9.4755847"><ele>239.2</ele><time>2026-03-31T15:59:19.653Z</time></trkpt><trkpt lat="45.6599587" lon="9.4756725"><ele>239.39999999999998</ele><time>2026-03-31T15:59:20.654Z</time></trkpt><trkpt lat="45.6600304" lon="9.4757468"><ele>239.6</ele><time>2026-03-31T15:59:21.653Z</time></trkpt><trkpt lat="45.6600992" lon="9.4758237"><ele>239.8</ele><time>2026-03-31T15:59:22.653Z</time></trkpt><trkpt lat="45.6601701" lon="9.4759236"><ele>240.0</ele><time>2026-03-31T15:59:23.653Z</time></trkpt><trkpt lat="45.6602153" lon="9.4760221"><ele>240.0</ele><time>2026-03-31T15:59:24.654Z</time></trkpt><trkpt lat="45.6602667" lon="9.4761288"><ele>240.0</ele><time>2026-03-31T15:59:25.653Z</time></trkpt><trkpt lat="45.6603068" lon="9.4762409"><ele>240.0</ele><time>2026-03-31T15:59:26.654Z</time></trkpt><trkpt lat="45.6603471" lon="9.4763567"><ele>240.0</ele><time>2026-03-31T15:59:27.654Z</time></trkpt><trkpt lat="45.6603772" lon="9.4764767"><ele>240.0</ele><time>2026-03-31T15:59:28.654Z</time></trkpt><trkpt lat="45.6604076" lon="9.4766032"><ele>239.0</ele><time>2026-03-31T15:59:29.654Z</time></trkpt><trkpt lat="45.6604415" lon="9.4767425"><ele>238.0</ele><time>2026-03-31T15:59:30.653Z</time></trkpt><trkpt lat="45.660471" lon="9.4768824"><ele>237.0</ele><time>2026-03-31T15:59:31.653Z</time></trkpt><trkpt lat="45.6604977" lon="9.4770165"><ele>236.0</ele><time>2026-03-31T15:59:32.654Z</time></trkpt><trkpt lat="45.6605227" lon="9.4771368"><ele>235.0</ele><time>2026-03-31T15:59:33.654Z</time></trkpt><trkpt lat="45.6605563" lon="9.4772435"><ele>234.99999999999997</ele><time>2026-03-31T15:59:34.653Z</time></trkpt><trkpt lat="45.660601" lon="9.4773347"><ele>235.0</ele><time>2026-03-31T15:59:35.653Z</time></trkpt><trkpt lat="45.6606617" lon="9.4773984"><ele>235.0</ele><time>2026-03-31T15:59:36.653Z</time></trkpt><trkpt lat="45.660734" lon="9.4774381"><ele>235.0</ele><time>2026-03-31T15:59:37.653Z</time></trkpt><trkpt lat="45.6608152" lon="9.4774437"><ele>234.99999999999997</ele><time>2026-03-31T15:59:38.653Z</time></trkpt><trkpt lat="45.6608944" lon="9.4774284"><ele>235.0</ele><time>2026-03-31T15:59:39.653Z</time></trkpt><trkpt lat="45.6609702" lon="9.477407"><ele>234.99999999999997</ele><time>2026-03-31T15:59:40.653Z</time></trkpt><trkpt lat="45.6610514" lon="9.4773866"><ele>235.0</ele><time>2026-03-31T15:59:41.653Z</time></trkpt><trkpt lat="45.661126" lon="9.4773701"><ele>235.0</ele><time>2026-03-31T15:59:42.653Z</time></trkpt><trkpt lat="45.6611995" lon="9.4773522"><ele>235.0</ele><time>2026-03-31T15:59:43.654Z</time></trkpt><trkpt lat="45.6612785" lon="9.4773345"><ele>234.99999999999997</ele><time>2026-03-31T15:59:44.653Z</time></trkpt><trkpt lat="45.6613897" lon="9.4772936"><ele>235.0</ele><time>2026-03-31T15:59:46.654Z</time></trkpt><trkpt lat="45.6614629" lon="9.4772651"><ele>235.16666666666666</ele><time>2026-03-31T15:59:47.654Z</time></trkpt><trkpt lat="45.661541" lon="9.4772427"><ele>235.33333333333331</ele><time>2026-03-31T15:59:48.653Z</time></trkpt><trkpt lat="45.661618" lon="9.4772221"><ele>235.5</ele><time>2026-03-31T15:59:49.653Z</time></trkpt><trkpt lat="45.6616952" lon="9.4772047"><ele>235.66666666666669</ele><time>2026-03-31T15:59:50.653Z</time></trkpt><trkpt lat="45.6617692" lon="9.4771859"><ele>235.83333333333334</ele><time>2026-03-31T15:59:51.653Z</time></trkpt><trkpt lat="45.6618453" lon="9.4771677"><ele>236.0</ele><time>2026-03-31T15:59:52.654Z</time></trkpt><trkpt lat="45.6619243" lon="9.4771484"><ele>236.00000000000003</ele><time>2026-03-31T15:59:53.653Z</time></trkpt><trkpt lat="45.6620051" lon="9.4771363"><ele>236.0</ele><time>2026-03-31T15:59:54.653Z</time></trkpt><trkpt lat="45.6620886" lon="9.477124"><ele>236.0</ele><time>2026-03-31T15:59:55.653Z</time></trkpt><trkpt lat="45.6621714" lon="9.4771086"><ele>236.0</ele><time>2026-03-31T15:59:56.653Z</time></trkpt><trkpt lat="45.6622483" lon="9.4770943"><ele>236.00000000000003</ele><time>2026-03-31T15:59:57.653Z</time></trkpt><trkpt lat="45.6623248" lon="9.4770773"><ele>236.0</ele><time>2026-03-31T15:59:58.653Z</time></trkpt><trkpt lat="45.6624002" lon="9.4770588"><ele>236.00000000000003</ele><time>2026-03-31T15:59:59.654Z</time></trkpt><trkpt lat="45.6624772" lon="9.4770363"><ele>236.0</ele><time>2026-03-31T16:00:00.653Z</time></trkpt><trkpt lat="45.662544" lon="9.4770129"><ele>236.0</ele><time>2026-03-31T16:00:01.654Z</time></trkpt><trkpt lat="45.662613" lon="9.4769908"><ele>236.0</ele><time>2026-03-31T16:00:02.654Z</time></trkpt><trkpt lat="45.6626753" lon="9.4769754"><ele>236.00000000000003</ele><time>2026-03-31T16:00:03.653Z</time></trkpt><trkpt lat="45.6627902" lon="9.4769456"><ele>236.0</ele><time>2026-03-31T16:00:05.654Z</time></trkpt><trkpt lat="45.6628589" lon="9.4769316"><ele>235.57142857142856</ele><time>2026-03-31T16:00:08.041Z</time></trkpt><trkpt lat="45.6629298" lon="9.4768885"><ele>235.14285714285717</ele><time>2026-03-31T16:00:09.666Z</time></trkpt><trkpt lat="45.6629863" lon="9.4768412"><ele>234.71428571428572</ele><time>2026-03-31T16:00:11.659Z</time></trkpt><trkpt lat="45.6630662" lon="9.4768619"><ele>234.28571428571428</ele><time>2026-03-31T16:00:14.658Z</time></trkpt><trkpt lat="45.6631043" lon="9.4769396"><ele>233.85714285714283</ele><time>2026-03-31T16:00:16.657Z</time></trkpt><trkpt lat="45.6631165" lon="9.4770629"><ele>233.42857142857144</ele><time>2026-03-31T16:00:18.658Z</time></trkpt><trkpt lat="45.6631371" lon="9.4771552"><ele>233.0</ele><time>2026-03-31T16:00:19.658Z</time></trkpt><trkpt lat="45.6631391" lon="9.47726"><ele>233.0</ele><time>2026-03-31T16:00:20.657Z</time></trkpt><trkpt lat="45.6631417" lon="9.477362"><ele>233.0</ele><time>2026-03-31T16:00:21.657Z</time></trkpt><trkpt lat="45.6631589" lon="9.4774736"><ele>233.0</ele><time>2026-03-31T16:00:22.657Z</time></trkpt><trkpt lat="45.6631716" lon="9.4775749"><ele>233.0</ele><time>2026-03-31T16:00:23.657Z</time></trkpt><trkpt lat="45.663177" lon="9.4776782"><ele>233.0</ele><time>2026-03-31T16:00:24.657Z</time></trkpt><trkpt lat="45.663183" lon="9.4777848"><ele>233.0</ele><time>2026-03-31T16:00:25.658Z</time></trkpt><trkpt lat="45.6631967" lon="9.4778917"><ele>233.0</ele><time>2026-03-31T16:00:26.658Z</time></trkpt><trkpt lat="45.6632015" lon="9.4779957"><ele>232.66666666666669</ele><time>2026-03-31T16:00:27.657Z</time></trkpt><trkpt lat="45.6632156" lon="9.4781108"><ele>232.33333333333334</ele><time>2026-03-31T16:00:28.657Z</time></trkpt><trkpt lat="45.6632239" lon="9.4782225"><ele>232.0</ele><time>2026-03-31T16:00:29.657Z</time></trkpt><trkpt lat="45.6632305" lon="9.4783332"><ele>231.66666666666669</ele><time>2026-03-31T16:00:30.657Z</time></trkpt><trkpt lat="45.6632434" lon="9.4784435"><ele>231.33333333333334</ele><time>2026-03-31T16:00:31.657Z</time></trkpt><trkpt lat="45.6632479" lon="9.4785536"><ele>231.0</ele><time>2026-03-31T16:00:32.657Z</time></trkpt><trkpt lat="45.6632524" lon="9.4786498"><ele>230.8</ele><time>2026-03-31T16:00:33.658Z</time></trkpt><trkpt lat="45.6632583" lon="9.478818"><ele>230.60000000000002</ele><time>2026-03-31T16:00:35.657Z</time></trkpt><trkpt lat="45.663255" lon="9.4789689"><ele>230.4</ele><time>2026-03-31T16:00:37.657Z</time></trkpt><trkpt lat="45.6632429" lon="9.4790747"><ele>230.2</ele><time>2026-03-31T16:00:38.657Z</time></trkpt><trkpt lat="45.6632194" lon="9.4791844"><ele>230.0</ele><time>2026-03-31T16:00:39.657Z</time></trkpt><trkpt lat="45.6632005" lon="9.4792955"><ele>230.0</ele><time>2026-03-31T16:00:40.657Z</time></trkpt><trkpt lat="45.6632124" lon="9.479422"><ele>230.0</ele><time>2026-03-31T16:00:41.658Z</time></trkpt><trkpt lat="45.6632261" lon="9.4795448"><ele>230.0</ele><time>2026-03-31T16:00:42.657Z</time></trkpt><trkpt lat="45.6632486" lon="9.4796716"><ele>230.0</ele><time>2026-03-31T16:00:43.657Z</time></trkpt><trkpt lat="45.6632921" lon="9.4798014"><ele>230.0</ele><time>2026-03-31T16:00:44.658Z</time></trkpt><trkpt lat="45.6633499" lon="9.4799261"><ele>228.0</ele><time>2026-03-31T16:00:45.658Z</time></trkpt><trkpt lat="45.6634111" lon="9.4800425"><ele>226.0</ele><time>2026-03-31T16:00:46.657Z</time></trkpt><trkpt lat="45.6634759" lon="9.4801662"><ele>224.0</ele><time>2026-03-31T16:00:47.657Z</time></trkpt><trkpt lat="45.6635425" lon="9.4802807"><ele>222.0</ele><time>2026-03-31T16:00:48.657Z</time></trkpt><trkpt lat="45.663607" lon="9.4803895"><ele>220.0</ele><time>2026-03-31T16:00:49.657Z</time></trkpt><trkpt lat="45.6636784" lon="9.4805033"><ele>219.8</ele><time>2026-03-31T16:00:50.657Z</time></trkpt><trkpt lat="45.6637423" lon="9.4806101"><ele>219.6</ele><time>2026-03-31T16:00:51.657Z</time></trkpt><trkpt lat="45.6638039" lon="9.480709"><ele>219.39999999999998</ele><time>2026-03-31T16:00:52.657Z</time></trkpt><trkpt lat="45.6638661" lon="9.4808148"><ele>219.2</ele><time>2026-03-31T16:00:53.658Z</time></trkpt><trkpt lat="45.6639242" lon="9.480919"><ele>219.0</ele><time>2026-03-31T16:00:54.657Z</time></trkpt><trkpt lat="45.6639821" lon="9.4810191"><ele>219.0</ele><time>2026-03-31T16:00:55.658Z</time></trkpt><trkpt lat="45.6640407" lon="9.4811225"><ele>218.99999999999997</ele><time>2026-03-31T16:00:56.657Z</time></trkpt><trkpt lat="45.6640968" lon="9.4812186"><ele>218.99999999999997</ele><time>2026-03-31T16:00:57.658Z</time></trkpt><trkpt lat="45.6641486" lon="9.481326"><ele>219.0</ele><time>2026-03-31T16:00:58.657Z</time></trkpt><trkpt lat="45.6641943" lon="9.4814383"><ele>219.0</ele><time>2026-03-31T16:00:59.657Z</time></trkpt><trkpt lat="45.6642432" lon="9.4815556"><ele>218.2</ele><time>2026-03-31T16:01:00.658Z</time></trkpt><trkpt lat="45.6642888" lon="9.4816785"><ele>217.39999999999998</ele><time>2026-03-31T16:01:01.657Z</time></trkpt><trkpt lat="45.6643347" lon="9.4818063"><ele>216.6</ele><time>2026-03-31T16:01:02.657Z</time></trkpt><trkpt lat="45.6643831" lon="9.4819336"><ele>215.8</ele><time>2026-03-31T16:01:03.658Z</time></trkpt><trkpt lat="45.6644316" lon="9.4820648"><ele>215.0</ele><time>2026-03-31T16:01:04.657Z</time></trkpt><trkpt lat="45.6644799" lon="9.482197"><ele>215.0</ele><time>2026-03-31T16:01:05.657Z</time></trkpt><trkpt lat="45.6645272" lon="9.4823284"><ele>215.0</ele><time>2026-03-31T16:01:06.657Z</time></trkpt><trkpt lat="45.6645744" lon="9.4824473"><ele>215.0</ele><time>2026-03-31T16:01:07.657Z</time></trkpt><trkpt lat="45.6646145" lon="9.4825533"><ele>215.0</ele><time>2026-03-31T16:01:08.657Z</time></trkpt><trkpt lat="45.6646426" lon="9.4826403"><ele>215.0</ele><time>2026-03-31T16:01:09.657Z</time></trkpt><trkpt lat="45.6646448" lon="9.4827848"><ele>215.00000000000003</ele><time>2026-03-31T16:01:11.657Z</time></trkpt><trkpt lat="45.6645657" lon="9.4828584"><ele>215.0</ele><time>2026-03-31T16:01:13.657Z</time></trkpt><trkpt lat="45.6644905" lon="9.4827834"><ele>215.0</ele><time>2026-03-31T16:01:15.658Z</time></trkpt><trkpt lat="45.6644727" lon="9.4826937"><ele>215.0</ele><time>2026-03-31T16:01:16.657Z</time></trkpt><trkpt lat="45.6644465" lon="9.4825899"><ele>215.00000000000003</ele><time>2026-03-31T16:01:17.657Z</time></trkpt><trkpt lat="45.6644186" lon="9.4824672"><ele>215.0</ele><time>2026-03-31T16:01:18.657Z</time></trkpt><trkpt lat="45.6643802" lon="9.4823428"><ele>214.0</ele><time>2026-03-31T16:01:19.657Z</time></trkpt><trkpt lat="45.6643367" lon="9.48222"><ele>213.0</ele><time>2026-03-31T16:01:20.657Z</time></trkpt><trkpt lat="45.6642871" lon="9.4821047"><ele>212.0</ele><time>2026-03-31T16:01:21.657Z</time></trkpt><trkpt lat="45.6642345" lon="9.4819926"><ele>211.0</ele><time>2026-03-31T16:01:22.657Z</time></trkpt><trkpt lat="45.6641784" lon="9.4818894"><ele>210.0</ele><time>2026-03-31T16:01:23.657Z</time></trkpt><trkpt lat="45.6641244" lon="9.4818072"><ele>210.0</ele><time>2026-03-31T16:01:24.657Z</time></trkpt><trkpt lat="45.6640677" lon="9.4817407"><ele>210.0</ele><time>2026-03-31T16:01:25.657Z</time></trkpt><trkpt lat="45.6640034" lon="9.4817054"><ele>210.0</ele><time>2026-03-31T16:01:26.658Z</time></trkpt><trkpt lat="45.6638693" lon="9.4816953"><ele>210.0</ele><time>2026-03-31T16:01:28.657Z</time></trkpt><trkpt lat="45.6637796" lon="9.4817651"><ele>210.0</ele><time>2026-03-31T16:01:29.657Z</time></trkpt><trkpt lat="45.6637245" lon="9.4818738"><ele>210.0</ele><time>2026-03-31T16:01:30.657Z</time></trkpt><trkpt lat="45.6636717" lon="9.481985"><ele>210.0</ele><time>2026-03-31T16:01:31.657Z</time></trkpt><trkpt lat="45.6636246" lon="9.4821083"><ele>210.0</ele><time>2026-03-31T16:01:32.658Z</time></trkpt><trkpt lat="45.663584" lon="9.4822464"><ele>210.0</ele><time>2026-03-31T16:01:33.657Z</time></trkpt><trkpt lat="45.6635372" lon="9.4823875"><ele>210.0</ele><time>2026-03-31T16:01:34.658Z</time></trkpt><trkpt lat="45.6634939" lon="9.4825288"><ele>206.2</ele><time>2026-03-31T16:01:35.657Z</time></trkpt><trkpt lat="45.6634474" lon="9.4826627"><ele>202.4</ele><time>2026-03-31T16:01:36.658Z</time></trkpt><trkpt lat="45.6633979" lon="9.4827984"><ele>198.60000000000002</ele><time>2026-03-31T16:01:37.657Z</time></trkpt><trkpt lat="45.6633465" lon="9.4829286"><ele>194.8</ele><time>2026-03-31T16:01:38.658Z</time></trkpt><trkpt lat="45.663298" lon="9.4830702"><ele>191.0</ele><time>2026-03-31T16:01:39.657Z</time></trkpt><trkpt lat="45.6632525" lon="9.4832165"><ele>190.8</ele><time>2026-03-31T16:01:40.657Z</time></trkpt><trkpt lat="45.6632084" lon="9.4833636"><ele>190.60000000000002</ele><time>2026-03-31T16:01:41.657Z</time></trkpt><trkpt lat="45.6631661" lon="9.4835049"><ele>190.4</ele><time>2026-03-31T16:01:42.657Z</time></trkpt><trkpt lat="45.6631278" lon="9.4836417"><ele>190.2</ele><time>2026-03-31T16:01:43.658Z</time></trkpt><trkpt lat="45.6630887" lon="9.4837854"><ele>190.0</ele><time>2026-03-31T16:01:44.657Z</time></trkpt><trkpt lat="45.6630472" lon="9.4839248"><ele>190.0</ele><time>2026-03-31T16:01:45.658Z</time></trkpt><trkpt lat="45.6630055" lon="9.4840675"><ele>190.0</ele><time>2026-03-31T16:01:46.658Z</time></trkpt><trkpt lat="45.6629653" lon="9.4842109"><ele>190.0</ele><time>2026-03-31T16:01:47.657Z</time></trkpt><trkpt lat="45.6629248" lon="9.4843471"><ele>190.0</ele><time>2026-03-31T16:01:48.657Z</time></trkpt><trkpt lat="45.6628873" lon="9.4844719"><ele>190.0</ele><time>2026-03-31T16:01:49.657Z</time></trkpt><trkpt lat="45.6628524" lon="9.4845864"><ele>189.33333333333334</ele><time>2026-03-31T16:01:50.658Z</time></trkpt><trkpt lat="45.6628232" lon="9.4846891"><ele>188.66666666666669</ele><time>2026-03-31T16:01:51.657Z</time></trkpt><trkpt lat="45.6627816" lon="9.4847854"><ele>188.0</ele><time>2026-03-31T16:01:52.657Z</time></trkpt><trkpt lat="45.6627274" lon="9.4848437"><ele>187.33333333333334</ele><time>2026-03-31T16:01:53.657Z</time></trkpt><trkpt lat="45.6626214" lon="9.4848584"><ele>186.66666666666666</ele><time>2026-03-31T16:01:55.657Z</time></trkpt><trkpt lat="45.6625167" lon="9.4847789"><ele>186.0</ele><time>2026-03-31T16:01:57.657Z</time></trkpt><trkpt lat="45.6624757" lon="9.4847018"><ele>186.0</ele><time>2026-03-31T16:01:58.658Z</time></trkpt><trkpt lat="45.6624429" lon="9.4845899"><ele>186.0</ele><time>2026-03-31T16:01:59.657Z</time></trkpt><trkpt lat="45.6624148" lon="9.4844667"><ele>186.0</ele><time>2026-03-31T16:02:00.658Z</time></trkpt><trkpt lat="45.6623963" lon="9.4843429"><ele>186.0</ele><time>2026-03-31T16:02:01.657Z</time></trkpt><trkpt lat="45.6623803" lon="9.4842115"><ele>186.0</ele><time>2026-03-31T16:02:02.657Z</time></trkpt><trkpt lat="45.6623662" lon="9.4840917"><ele>186.0</ele><time>2026-03-31T16:02:03.657Z</time></trkpt><trkpt lat="45.662347" lon="9.4839876"><ele>186.0</ele><time>2026-03-31T16:02:04.657Z</time></trkpt><trkpt lat="45.662309" lon="9.4838979"><ele>186.0</ele><time>2026-03-31T16:02:05.658Z</time></trkpt><trkpt lat="45.6622606" lon="9.4838208"><ele>186.0</ele><time>2026-03-31T16:02:06.657Z</time></trkpt><trkpt lat="45.6621976" lon="9.4837686"><ele>186.0</ele><time>2026-03-31T16:02:07.657Z</time></trkpt><trkpt lat="45.6621236" lon="9.4837349"><ele>186.0</ele><time>2026-03-31T16:02:08.657Z</time></trkpt><trkpt lat="45.6620426" lon="9.4837141"><ele>186.0</ele><time>2026-03-31T16:02:09.657Z</time></trkpt><trkpt lat="45.6619425" lon="9.4836983"><ele>185.4</ele><time>2026-03-31T16:02:10.658Z</time></trkpt><trkpt lat="45.6618439" lon="9.4836876"><ele>184.8</ele><time>2026-03-31T16:02:11.658Z</time></trkpt><trkpt lat="45.6617482" lon="9.4836751"><ele>184.20000000000002</ele><time>2026-03-31T16:02:12.657Z</time></trkpt><trkpt lat="45.6616456" lon="9.4836621"><ele>183.60000000000002</ele><time>2026-03-31T16:02:13.657Z</time></trkpt><trkpt lat="45.6615448" lon="9.4836467"><ele>183.0</ele><time>2026-03-31T16:02:14.657Z</time></trkpt><trkpt lat="45.6614406" lon="9.483633"><ele>183.0</ele><time>2026-03-31T16:02:15.657Z</time></trkpt><trkpt lat="45.6613329" lon="9.4836151"><ele>183.0</ele><time>2026-03-31T16:02:16.657Z</time></trkpt><trkpt lat="45.6612232" lon="9.4836037"><ele>183.0</ele><time>2026-03-31T16:02:17.657Z</time></trkpt><trkpt lat="45.661116" lon="9.4835875"><ele>183.0</ele><time>2026-03-31T16:02:18.657Z</time></trkpt><trkpt lat="45.6610121" lon="9.4835751"><ele>183.0</ele><time>2026-03-31T16:02:19.657Z</time></trkpt><trkpt lat="45.6609075" lon="9.4835608"><ele>182.60000000000002</ele><time>2026-03-31T16:02:20.657Z</time></trkpt><trkpt lat="45.6608046" lon="9.4835494"><ele>182.20000000000002</ele><time>2026-03-31T16:02:21.658Z</time></trkpt><trkpt lat="45.6607072" lon="9.4835426"><ele>181.8</ele><time>2026-03-31T16:02:22.657Z</time></trkpt><trkpt lat="45.6606119" lon="9.4835338"><ele>181.4</ele><time>2026-03-31T16:02:23.658Z</time></trkpt><trkpt lat="45.6605192" lon="9.4835219"><ele>181.0</ele><time>2026-03-31T16:02:24.658Z</time></trkpt><trkpt lat="45.6604237" lon="9.4835101"><ele>181.0</ele><time>2026-03-31T16:02:25.657Z</time></trkpt><trkpt lat="45.6603261" lon="9.4835007"><ele>181.0</ele><time>2026-03-31T16:02:26.657Z</time></trkpt><trkpt lat="45.6602255" lon="9.4834885"><ele>181.0</ele><time>2026-03-31T16:02:27.657Z</time></trkpt><trkpt lat="45.6601201" lon="9.4834799"><ele>181.0</ele><time>2026-03-31T16:02:28.658Z</time></trkpt><trkpt lat="45.6600162" lon="9.4834683"><ele>181.0</ele><time>2026-03-31T16:02:29.657Z</time></trkpt><trkpt lat="45.65991" lon="9.4834552"><ele>180.8</ele><time>2026-03-31T16:02:30.657Z</time></trkpt><trkpt lat="45.6598041" lon="9.4834483"><ele>180.60000000000002</ele><time>2026-03-31T16:02:31.657Z</time></trkpt><trkpt lat="45.6597023" lon="9.4834436"><ele>180.4</ele><time>2026-03-31T16:02:32.657Z</time></trkpt><trkpt lat="45.6596076" lon="9.4834353"><ele>180.2</ele><time>2026-03-31T16:02:33.657Z</time></trkpt><trkpt lat="45.6595138" lon="9.4834272"><ele>180.0</ele><time>2026-03-31T16:02:34.657Z</time></trkpt><trkpt lat="45.6594208" lon="9.483418"><ele>178.4</ele><time>2026-03-31T16:02:35.658Z</time></trkpt><trkpt lat="45.6593239" lon="9.4834134"><ele>176.8</ele><time>2026-03-31T16:02:36.657Z</time></trkpt><trkpt lat="45.6592245" lon="9.4834071"><ele>175.2</ele><time>2026-03-31T16:02:37.657Z</time></trkpt><trkpt lat="45.6591229" lon="9.4834024"><ele>173.6</ele><time>2026-03-31T16:02:38.657Z</time></trkpt><trkpt lat="45.6590211" lon="9.4833927"><ele>172.0</ele><time>2026-03-31T16:02:39.657Z</time></trkpt><trkpt lat="45.6589223" lon="9.4833818"><ele>172.0</ele><time>2026-03-31T16:02:40.657Z</time></trkpt><trkpt lat="45.6588222" lon="9.4833742"><ele>172.0</ele><time>2026-03-31T16:02:41.658Z</time></trkpt><trkpt lat="45.6587256" lon="9.4833631"><ele>172.0</ele><time>2026-03-31T16:02:42.658Z</time></trkpt><trkpt lat="45.6586292" lon="9.4833535"><ele>172.0</ele><time>2026-03-31T16:02:43.657Z</time></trkpt><trkpt lat="45.6585338" lon="9.4833444"><ele>172.0</ele><time>2026-03-31T16:02:44.657Z</time></trkpt><trkpt lat="45.6584379" lon="9.4833311"><ele>172.2</ele><time>2026-03-31T16:02:45.657Z</time></trkpt><trkpt lat="45.658341" lon="9.4833241"><ele>172.39999999999998</ele><time>2026-03-31T16:02:46.658Z</time></trkpt><trkpt lat="45.6582393" lon="9.4833155"><ele>172.60000000000002</ele><time>2026-03-31T16:02:47.658Z</time></trkpt><trkpt lat="45.6581389" lon="9.4833102"><ele>172.8</ele><time>2026-03-31T16:02:48.657Z</time></trkpt><trkpt lat="45.658039" lon="9.4833038"><ele>173.0</ele><time>2026-03-31T16:02:49.658Z</time></trkpt><trkpt lat="45.657944" lon="9.483298"><ele>173.0</ele><time>2026-03-31T16:02:50.657Z</time></trkpt><trkpt lat="45.6578491" lon="9.4832922"><ele>173.0</ele><time>2026-03-31T16:02:51.658Z</time></trkpt><trkpt lat="45.657755" lon="9.4832829"><ele>173.0</ele><time>2026-03-31T16:02:52.657Z</time></trkpt><trkpt lat="45.6576572" lon="9.4832786"><ele>173.0</ele><time>2026-03-31T16:02:53.657Z</time></trkpt><trkpt lat="45.6575627" lon="9.4832729"><ele>173.0</ele><time>2026-03-31T16:02:54.658Z</time></trkpt><trkpt lat="45.6574688" lon="9.4832666"><ele>172.66666666666666</ele><time>2026-03-31T16:02:55.657Z</time></trkpt><trkpt lat="45.6573828" lon="9.4832604"><ele>172.33333333333331</ele><time>2026-03-31T16:02:56.657Z</time></trkpt><trkpt lat="45.6573024" lon="9.4832529"><ele>172.0</ele><time>2026-03-31T16:02:57.658Z</time></trkpt><trkpt lat="45.6572259" lon="9.4832488"><ele>171.66666666666666</ele><time>2026-03-31T16:02:58.657Z</time></trkpt><trkpt lat="45.6571539" lon="9.4832415"><ele>171.33333333333334</ele><time>2026-03-31T16:02:59.657Z</time></trkpt><trkpt lat="45.6570803" lon="9.4832366"><ele>171.0</ele><time>2026-03-31T16:03:00.658Z</time></trkpt><trkpt lat="45.65701" lon="9.4832297"><ele>171.20000000000002</ele><time>2026-03-31T16:03:01.657Z</time></trkpt><trkpt lat="45.6569381" lon="9.4832296"><ele>171.4</ele><time>2026-03-31T16:03:02.658Z</time></trkpt><trkpt lat="45.6568722" lon="9.4832225"><ele>171.6</ele><time>2026-03-31T16:03:03.657Z</time></trkpt><trkpt lat="45.6567507" lon="9.4832175"><ele>171.8</ele><time>2026-03-31T16:03:05.658Z</time></trkpt><trkpt lat="45.6566314" lon="9.4832086"><ele>172.0</ele><time>2026-03-31T16:03:07.657Z</time></trkpt><trkpt lat="45.6565046" lon="9.4832015"><ele>172.00000000000003</ele><time>2026-03-31T16:03:09.657Z</time></trkpt><trkpt lat="45.6564407" lon="9.4831937"><ele>172.0</ele><time>2026-03-31T16:03:10.657Z</time></trkpt><trkpt lat="45.6563762" lon="9.4831886"><ele>172.0</ele><time>2026-03-31T16:03:11.657Z</time></trkpt><trkpt lat="45.6563123" lon="9.483184"><ele>172.0</ele><time>2026-03-31T16:03:12.657Z</time></trkpt><trkpt lat="45.6562467" lon="9.483179"><ele>172.0</ele><time>2026-03-31T16:03:13.657Z</time></trkpt><trkpt lat="45.6561808" lon="9.4831743"><ele>172.00000000000003</ele><time>2026-03-31T16:03:14.658Z</time></trkpt><trkpt lat="45.6561128" lon="9.4831738"><ele>172.0</ele><time>2026-03-31T16:03:15.657Z</time></trkpt><trkpt lat="45.6560489" lon="9.4831681"><ele>171.8</ele><time>2026-03-31T16:03:16.657Z</time></trkpt><trkpt lat="45.6559861" lon="9.4831603"><ele>171.6</ele><time>2026-03-31T16:03:17.657Z</time></trkpt><trkpt lat="45.6558733" lon="9.4831479"><ele>171.4</ele><time>2026-03-31T16:03:19.657Z</time></trkpt><trkpt lat="45.6557527" lon="9.4831407"><ele>171.20000000000002</ele><time>2026-03-31T16:03:21.657Z</time></trkpt><trkpt lat="45.6556292" lon="9.4831311"><ele>171.0</ele><time>2026-03-31T16:03:23.658Z</time></trkpt><trkpt lat="45.655505" lon="9.4831316"><ele>171.0</ele><time>2026-03-31T16:03:25.658Z</time></trkpt><trkpt lat="45.6554386" lon="9.4831298"><ele>171.0</ele><time>2026-03-31T16:03:26.657Z</time></trkpt><trkpt lat="45.6553729" lon="9.4831277"><ele>171.0</ele><time>2026-03-31T16:03:27.657Z</time></trkpt><trkpt lat="45.6553099" lon="9.4831195"><ele>171.0</ele><time>2026-03-31T16:03:28.657Z</time></trkpt><trkpt lat="45.6551977" lon="9.483111"><ele>171.0</ele><time>2026-03-31T16:03:30.658Z</time></trkpt><trkpt lat="45.6550848" lon="9.4831049"><ele>171.0</ele><time>2026-03-31T16:03:32.658Z</time></trkpt><trkpt lat="45.6549682" lon="9.4830997"><ele>171.0</ele><time>2026-03-31T16:03:34.658Z</time></trkpt><trkpt lat="45.6548479" lon="9.4830985"><ele>171.0</ele><time>2026-03-31T16:03:36.657Z</time></trkpt><trkpt lat="45.654744" lon="9.4830988"><ele>171.0</ele><time>2026-03-31T16:03:38.657Z</time></trkpt><trkpt lat="45.6546465" lon="9.483087"><ele>171.0</ele><time>2026-03-31T16:03:40.657Z</time></trkpt><trkpt lat="45.654546" lon="9.4830765"><ele>171.0</ele><time>2026-03-31T16:03:42.658Z</time></trkpt><trkpt lat="45.6544343" lon="9.4830727"><ele>170.4</ele><time>2026-03-31T16:03:44.657Z</time></trkpt><trkpt lat="45.6543249" lon="9.4830817"><ele>169.8</ele><time>2026-03-31T16:03:46.657Z</time></trkpt><trkpt lat="45.6542178" lon="9.4831153"><ele>169.20000000000002</ele><time>2026-03-31T16:03:48.657Z</time></trkpt><trkpt lat="45.654115" lon="9.4831688"><ele>168.60000000000002</ele><time>2026-03-31T16:03:50.658Z</time></trkpt><trkpt lat="45.6540208" lon="9.4832427"><ele>168.0</ele><time>2026-03-31T16:03:52.657Z</time></trkpt><trkpt lat="45.6539488" lon="9.4833197"><ele>168.0</ele><time>2026-03-31T16:03:54.657Z</time></trkpt><trkpt lat="45.6539071" lon="9.4834297"><ele>168.0</ele><time>2026-03-31T16:03:56.657Z</time></trkpt><trkpt lat="45.6539181" lon="9.483559"><ele>168.0</ele><time>2026-03-31T16:03:58.657Z</time></trkpt><trkpt lat="45.6539743" lon="9.4836663"><ele>168.0</ele><time>2026-03-31T16:04:00.657Z</time></trkpt><trkpt lat="45.6540669" lon="9.4837471"><ele>168.0</ele><time>2026-03-31T16:04:02.657Z</time></trkpt><trkpt lat="45.6541636" lon="9.483818"><ele>167.25</ele><time>2026-03-31T16:04:04.657Z</time></trkpt><trkpt lat="45.6542624" lon="9.4838822"><ele>166.5</ele><time>2026-03-31T16:04:06.658Z</time></trkpt><trkpt lat="45.6543625" lon="9.4839464"><ele>165.75</ele><time>2026-03-31T16:04:08.658Z</time></trkpt><trkpt lat="45.6544653" lon="9.4840212"><ele>165.0</ele><time>2026-03-31T16:04:10.657Z</time></trkpt><trkpt lat="45.6545575" lon="9.4841232"><ele>165.0</ele><time>2026-03-31T16:04:12.657Z</time></trkpt><trkpt lat="45.6546299" lon="9.4842247"><ele>165.0</ele><time>2026-03-31T16:04:14.658Z</time></trkpt><trkpt lat="45.6546711" lon="9.4843494"><ele>165.0</ele><time>2026-03-31T16:04:16.657Z</time></trkpt><trkpt lat="45.6546592" lon="9.4844796"><ele>165.0</ele><time>2026-03-31T16:04:18.657Z</time></trkpt><trkpt lat="45.6546037" lon="9.4845966"><ele>165.0</ele><time>2026-03-31T16:04:20.658Z</time></trkpt><trkpt lat="45.654517" lon="9.4846748"><ele>163.4</ele><time>2026-03-31T16:04:22.657Z</time></trkpt><trkpt lat="45.6544271" lon="9.4847299"><ele>161.8</ele><time>2026-03-31T16:04:24.657Z</time></trkpt><trkpt lat="45.6543295" lon="9.4847492"><ele>160.2</ele><time>2026-03-31T16:04:26.658Z</time></trkpt><trkpt lat="45.654232" lon="9.4847263"><ele>158.6</ele><time>2026-03-31T16:04:28.657Z</time></trkpt><trkpt lat="45.6541518" lon="9.484707"><ele>157.0</ele><time>2026-03-31T16:04:30.657Z</time></trkpt><trkpt lat="45.654074" lon="9.4847198"><ele>157.0</ele><time>2026-03-31T16:04:33.657Z</time></trkpt><trkpt lat="45.6540807" lon="9.4848507"><ele>157.0</ele><time>2026-03-31T16:04:36.658Z</time></trkpt><trkpt lat="45.6541411" lon="9.4849665"><ele>157.0</ele><time>2026-03-31T16:04:38.657Z</time></trkpt><trkpt lat="45.6542206" lon="9.4850796"><ele>157.0</ele><time>2026-03-31T16:04:40.658Z</time></trkpt><trkpt lat="45.654271" lon="9.485144"><ele>157.0</ele><time>2026-03-31T16:04:41.657Z</time></trkpt><trkpt lat="45.6543243" lon="9.485216"><ele>157.0</ele><time>2026-03-31T16:04:42.657Z</time></trkpt><trkpt lat="45.654385" lon="9.485282"><ele>157.0</ele><time>2026-03-31T16:04:43.658Z</time></trkpt><trkpt lat="45.6544477" lon="9.4853438"><ele>157.0</ele><time>2026-03-31T16:04:44.658Z</time></trkpt><trkpt lat="45.6545058" lon="9.4853991"><ele>157.0</ele><time>2026-03-31T16:04:45.658Z</time></trkpt><trkpt lat="45.6545588" lon="9.4854504"><ele>157.0</ele><time>2026-03-31T16:04:46.657Z</time></trkpt><trkpt lat="45.6546546" lon="9.4855315"><ele>157.0</ele><time>2026-03-31T16:04:48.657Z</time></trkpt><trkpt lat="45.6547126" lon="9.4855949"><ele>157.0</ele><time>2026-03-31T16:04:50.657Z</time></trkpt><trkpt lat="45.6547745" lon="9.4856252"><ele>157.0</ele><time>2026-03-31T16:06:30.657Z</time></trkpt><trkpt lat="45.6547031" lon="9.4855421"><ele>157.0</ele><time>2026-03-31T16:06:33.657Z</time></trkpt><trkpt lat="45.6546351" lon="9.4854787"><ele>157.0</ele><time>2026-03-31T16:06:34.658Z</time></trkpt><trkpt lat="45.6545733" lon="9.485422"><ele>157.0</ele><time>2026-03-31T16:06:35.658Z</time></trkpt><trkpt lat="45.6545028" lon="9.485351"><ele>157.0</ele><time>2026-03-31T16:06:36.657Z</time></trkpt><trkpt lat="45.6544371" lon="9.485283"><ele>157.0</ele><time>2026-03-31T16:06:37.658Z</time></trkpt><trkpt lat="45.6543722" lon="9.4852153"><ele>157.0</ele><time>2026-03-31T16:06:38.657Z</time></trkpt><trkpt lat="45.6543089" lon="9.4851484"><ele>157.0</ele><time>2026-03-31T16:06:39.657Z</time></trkpt><trkpt lat="45.6542555" lon="9.4850855"><ele>157.0</ele><time>2026-03-31T16:06:40.657Z</time></trkpt><trkpt lat="45.654175" lon="9.484971"><ele>157.0</ele><time>2026-03-31T16:06:42.657Z</time></trkpt><trkpt lat="45.6541253" lon="9.4848665"><ele>157.0</ele><time>2026-03-31T16:06:44.657Z</time></trkpt><trkpt lat="45.654137" lon="9.4847697"><ele>157.0</ele><time>2026-03-31T16:06:47.657Z</time></trkpt><trkpt lat="45.654257" lon="9.4847768"><ele>157.0</ele><time>2026-03-31T16:06:50.658Z</time></trkpt><trkpt lat="45.6543237" lon="9.4847788"><ele>157.0</ele><time>2026-03-31T16:06:51.657Z</time></trkpt><trkpt lat="45.6543879" lon="9.4847697"><ele>157.0</ele><time>2026-03-31T16:06:52.658Z</time></trkpt><trkpt lat="45.6545085" lon="9.4847186"><ele>157.0</ele><time>2026-03-31T16:06:54.658Z</time></trkpt><trkpt lat="45.6545675" lon="9.4846729"><ele>157.0</ele><time>2026-03-31T16:06:55.657Z</time></trkpt><trkpt lat="45.6546546" lon="9.4845693"><ele>157.0</ele><time>2026-03-31T16:06:57.657Z</time></trkpt><trkpt lat="45.6546992" lon="9.484419"><ele>157.5</ele><time>2026-03-31T16:06:59.657Z</time></trkpt><trkpt lat="45.654678" lon="9.4842576"><ele>158.0</ele><time>2026-03-31T16:07:01.657Z</time></trkpt><trkpt lat="45.654639" lon="9.4841819"><ele>158.5</ele><time>2026-03-31T16:07:02.658Z</time></trkpt><trkpt lat="45.6545891" lon="9.4841179"><ele>159.0</ele><time>2026-03-31T16:07:03.657Z</time></trkpt><trkpt lat="45.6545245" lon="9.4840538"><ele>159.5</ele><time>2026-03-31T16:07:04.658Z</time></trkpt><trkpt lat="45.6544571" lon="9.4839886"><ele>160.0</ele><time>2026-03-31T16:07:05.657Z</time></trkpt><trkpt lat="45.6543812" lon="9.4839311"><ele>160.0</ele><time>2026-03-31T16:07:06.657Z</time></trkpt><trkpt lat="45.6543017" lon="9.4838805"><ele>160.0</ele><time>2026-03-31T16:07:07.657Z</time></trkpt><trkpt lat="45.6542265" lon="9.4838409"><ele>160.0</ele><time>2026-03-31T16:07:08.657Z</time></trkpt><trkpt lat="45.6541669" lon="9.4838024"><ele>160.0</ele><time>2026-03-31T16:07:09.657Z</time></trkpt><trkpt lat="45.6541043" lon="9.4837658"><ele>160.0</ele><time>2026-03-31T16:07:10.658Z</time></trkpt><trkpt lat="45.6540448" lon="9.4837273"><ele>160.0</ele><time>2026-03-31T16:07:11.658Z</time></trkpt><trkpt lat="45.6539765" lon="9.4836317"><ele>161.33333333333334</ele><time>2026-03-31T16:07:13.657Z</time></trkpt><trkpt lat="45.6539676" lon="9.4834849"><ele>162.66666666666669</ele><time>2026-03-31T16:07:15.657Z</time></trkpt><trkpt lat="45.6540216" lon="9.4833651"><ele>164.0</ele><time>2026-03-31T16:07:17.658Z</time></trkpt><trkpt lat="45.6540727" lon="9.4833085"><ele>165.33333333333334</ele><time>2026-03-31T16:07:18.657Z</time></trkpt><trkpt lat="45.654137" lon="9.4832562"><ele>166.66666666666666</ele><time>2026-03-31T16:07:19.657Z</time></trkpt><trkpt lat="45.654216" lon="9.4831978"><ele>168.0</ele><time>2026-03-31T16:07:20.657Z</time></trkpt><trkpt lat="45.6542891" lon="9.4831646"><ele>168.0</ele><time>2026-03-31T16:07:21.657Z</time></trkpt><trkpt lat="45.654366" lon="9.4831453"><ele>168.0</ele><time>2026-03-31T16:07:22.657Z</time></trkpt><trkpt lat="45.6544457" lon="9.4831325"><ele>168.0</ele><time>2026-03-31T16:07:23.658Z</time></trkpt><trkpt lat="45.6545324" lon="9.4831301"><ele>168.0</ele><time>2026-03-31T16:07:24.657Z</time></trkpt><trkpt lat="45.6546218" lon="9.4831267"><ele>168.0</ele><time>2026-03-31T16:07:25.657Z</time></trkpt><trkpt lat="45.654715" lon="9.4831427"><ele>168.0</ele><time>2026-03-31T16:07:26.657Z</time></trkpt><trkpt lat="45.6548101" lon="9.4831474"><ele>168.5</ele><time>2026-03-31T16:07:27.657Z</time></trkpt><trkpt lat="45.6549052" lon="9.4831487"><ele>169.0</ele><time>2026-03-31T16:07:28.658Z</time></trkpt><trkpt lat="45.6549978" lon="9.4831502"><ele>169.5</ele><time>2026-03-31T16:07:29.657Z</time></trkpt><trkpt lat="45.655087" lon="9.4831546"><ele>170.0</ele><time>2026-03-31T16:07:30.657Z</time></trkpt><trkpt lat="45.6551713" lon="9.4831612"><ele>170.5</ele><time>2026-03-31T16:07:31.657Z</time></trkpt><trkpt lat="45.6552573" lon="9.4831663"><ele>171.0</ele><time>2026-03-31T16:07:32.657Z</time></trkpt><trkpt lat="45.6553458" lon="9.4831761"><ele>171.0</ele><time>2026-03-31T16:07:33.657Z</time></trkpt><trkpt lat="45.6554332" lon="9.4831817"><ele>171.0</ele><time>2026-03-31T16:07:34.658Z</time></trkpt><trkpt lat="45.6555187" lon="9.4831831"><ele>171.0</ele><time>2026-03-31T16:07:35.657Z</time></trkpt><trkpt lat="45.6556044" lon="9.483184"><ele>171.0</ele><time>2026-03-31T16:07:36.658Z</time></trkpt><trkpt lat="45.6556915" lon="9.483189"><ele>171.0</ele><time>2026-03-31T16:07:37.657Z</time></trkpt><trkpt lat="45.655777" lon="9.4831967"><ele>171.0</ele><time>2026-03-31T16:07:38.657Z</time></trkpt><trkpt lat="45.655865" lon="9.48321"><ele>171.0</ele><time>2026-03-31T16:07:39.657Z</time></trkpt><trkpt lat="45.6559554" lon="9.4832114"><ele>171.0</ele><time>2026-03-31T16:07:40.657Z</time></trkpt><trkpt lat="45.6560467" lon="9.4832151"><ele>171.0</ele><time>2026-03-31T16:07:41.657Z</time></trkpt><trkpt lat="45.6561406" lon="9.4832171"><ele>171.0</ele><time>2026-03-31T16:07:42.657Z</time></trkpt><trkpt lat="45.6562315" lon="9.4832215"><ele>171.0</ele><time>2026-03-31T16:07:43.657Z</time></trkpt><trkpt lat="45.6563224" lon="9.4832268"><ele>171.20000000000002</ele><time>2026-03-31T16:07:44.657Z</time></trkpt><trkpt lat="45.6564149" lon="9.4832296"><ele>171.4</ele><time>2026-03-31T16:07:45.658Z</time></trkpt><trkpt lat="45.6565036" lon="9.4832383"><ele>171.6</ele><time>2026-03-31T16:07:46.657Z</time></trkpt><trkpt lat="45.6565957" lon="9.4832447"><ele>171.8</ele><time>2026-03-31T16:07:47.658Z</time></trkpt><trkpt lat="45.6566862" lon="9.4832506"><ele>172.0</ele><time>2026-03-31T16:07:48.657Z</time></trkpt><trkpt lat="45.6567768" lon="9.4832571"><ele>172.0</ele><time>2026-03-31T16:07:49.657Z</time></trkpt><trkpt lat="45.6568657" lon="9.4832663"><ele>172.0</ele><time>2026-03-31T16:07:50.658Z</time></trkpt><trkpt lat="45.6569577" lon="9.4832745"><ele>172.0</ele><time>2026-03-31T16:07:51.657Z</time></trkpt><trkpt lat="45.6570488" lon="9.4832769"><ele>172.0</ele><time>2026-03-31T16:07:52.657Z</time></trkpt><trkpt lat="45.6571396" lon="9.4832883"><ele>172.0</ele><time>2026-03-31T16:07:53.657Z</time></trkpt><trkpt lat="45.6572278" lon="9.4832979"><ele>171.83333333333334</ele><time>2026-03-31T16:07:54.657Z</time></trkpt><trkpt lat="45.6573173" lon="9.4833098"><ele>171.66666666666669</ele><time>2026-03-31T16:07:55.657Z</time></trkpt><trkpt lat="45.657404" lon="9.4833187"><ele>171.5</ele><time>2026-03-31T16:07:56.657Z</time></trkpt><trkpt lat="45.6574932" lon="9.4833223"><ele>171.33333333333334</ele><time>2026-03-31T16:07:57.657Z</time></trkpt><trkpt lat="45.6575813" lon="9.4833242"><ele>171.16666666666666</ele><time>2026-03-31T16:07:58.658Z</time></trkpt><trkpt lat="45.6576719" lon="9.4833259"><ele>171.0</ele><time>2026-03-31T16:07:59.657Z</time></trkpt><trkpt lat="45.6577635" lon="9.4833338"><ele>171.4</ele><time>2026-03-31T16:08:00.657Z</time></trkpt><trkpt lat="45.6578539" lon="9.4833406"><ele>171.8</ele><time>2026-03-31T16:08:01.657Z</time></trkpt><trkpt lat="45.6579468" lon="9.4833431"><ele>172.20000000000002</ele><time>2026-03-31T16:08:02.657Z</time></trkpt><trkpt lat="45.6580378" lon="9.4833517"><ele>172.60000000000002</ele><time>2026-03-31T16:08:03.657Z</time></trkpt><trkpt lat="45.6581288" lon="9.4833575"><ele>173.0</ele><time>2026-03-31T16:08:04.657Z</time></trkpt><trkpt lat="45.6582242" lon="9.4833627"><ele>173.0</ele><time>2026-03-31T16:08:05.657Z</time></trkpt><trkpt lat="45.6583175" lon="9.4833681"><ele>173.0</ele><time>2026-03-31T16:08:06.657Z</time></trkpt><trkpt lat="45.6584084" lon="9.4833751"><ele>173.0</ele><time>2026-03-31T16:08:07.657Z</time></trkpt><trkpt lat="45.6585057" lon="9.4833829"><ele>173.0</ele><time>2026-03-31T16:08:08.657Z</time></trkpt><trkpt lat="45.6585937" lon="9.483392"><ele>173.0</ele><time>2026-03-31T16:08:09.657Z</time></trkpt><trkpt lat="45.6586893" lon="9.4833996"><ele>172.8</ele><time>2026-03-31T16:08:10.657Z</time></trkpt><trkpt lat="45.6587813" lon="9.4834006"><ele>172.60000000000002</ele><time>2026-03-31T16:08:11.657Z</time></trkpt><trkpt lat="45.6588732" lon="9.4834115"><ele>172.39999999999998</ele><time>2026-03-31T16:08:12.657Z</time></trkpt><trkpt lat="45.658962" lon="9.4834201"><ele>172.2</ele><time>2026-03-31T16:08:13.657Z</time></trkpt><trkpt lat="45.659054" lon="9.4834221"><ele>172.0</ele><time>2026-03-31T16:08:14.657Z</time></trkpt><trkpt lat="45.6591451" lon="9.4834304"><ele>172.0</ele><time>2026-03-31T16:08:15.657Z</time></trkpt><trkpt lat="45.6592366" lon="9.4834346"><ele>172.0</ele><time>2026-03-31T16:08:16.657Z</time></trkpt><trkpt lat="45.6593313" lon="9.4834362"><ele>172.0</ele><time>2026-03-31T16:08:17.658Z</time></trkpt><trkpt lat="45.6594252" lon="9.4834437"><ele>172.0</ele><time>2026-03-31T16:08:18.657Z</time></trkpt><trkpt lat="45.6595207" lon="9.4834519"><ele>172.0</ele><time>2026-03-31T16:08:19.657Z</time></trkpt><trkpt lat="45.6596177" lon="9.483457"><ele>173.6</ele><time>2026-03-31T16:08:20.658Z</time></trkpt><trkpt lat="45.6597133" lon="9.4834656"><ele>175.2</ele><time>2026-03-31T16:08:21.657Z</time></trkpt><trkpt lat="45.6598085" lon="9.4834743"><ele>176.8</ele><time>2026-03-31T16:08:22.657Z</time></trkpt><trkpt lat="45.6599019" lon="9.4834812"><ele>178.4</ele><time>2026-03-31T16:08:23.657Z</time></trkpt><trkpt lat="45.6599953" lon="9.4834941"><ele>180.0</ele><time>2026-03-31T16:08:24.657Z</time></trkpt><trkpt lat="45.6600872" lon="9.4835106"><ele>180.0</ele><time>2026-03-31T16:08:25.657Z</time></trkpt><trkpt lat="45.6601801" lon="9.4835211"><ele>180.0</ele><time>2026-03-31T16:08:26.657Z</time></trkpt><trkpt lat="45.6602696" lon="9.483528"><ele>180.0</ele><time>2026-03-31T16:08:27.657Z</time></trkpt><trkpt lat="45.6603597" lon="9.4835384"><ele>180.0</ele><time>2026-03-31T16:08:28.657Z</time></trkpt><trkpt lat="45.6604476" lon="9.4835427"><ele>180.0</ele><time>2026-03-31T16:08:29.657Z</time></trkpt><trkpt lat="45.6605326" lon="9.4835486"><ele>180.0</ele><time>2026-03-31T16:08:30.657Z</time></trkpt><trkpt lat="45.6606182" lon="9.4835605"><ele>180.2</ele><time>2026-03-31T16:08:31.657Z</time></trkpt><trkpt lat="45.6607054" lon="9.4835721"><ele>180.4</ele><time>2026-03-31T16:08:32.657Z</time></trkpt><trkpt lat="45.6607969" lon="9.4835827"><ele>180.60000000000002</ele><time>2026-03-31T16:08:33.658Z</time></trkpt><trkpt lat="45.6608896" lon="9.4835913"><ele>180.8</ele><time>2026-03-31T16:08:34.657Z</time></trkpt><trkpt lat="45.6609813" lon="9.4836033"><ele>181.0</ele><time>2026-03-31T16:08:35.657Z</time></trkpt><trkpt lat="45.6610736" lon="9.4836097"><ele>181.4</ele><time>2026-03-31T16:08:36.657Z</time></trkpt><trkpt lat="45.6611667" lon="9.4836163"><ele>181.8</ele><time>2026-03-31T16:08:37.657Z</time></trkpt><trkpt lat="45.6612615" lon="9.483625"><ele>182.20000000000002</ele><time>2026-03-31T16:08:38.657Z</time></trkpt><trkpt lat="45.6613531" lon="9.4836373"><ele>182.60000000000002</ele><time>2026-03-31T16:08:39.658Z</time></trkpt><trkpt lat="45.661446" lon="9.4836544"><ele>183.0</ele><time>2026-03-31T16:08:40.658Z</time></trkpt><trkpt lat="45.6615423" lon="9.4836686"><ele>183.0</ele><time>2026-03-31T16:08:41.657Z</time></trkpt><trkpt lat="45.6616379" lon="9.4836829"><ele>183.0</ele><time>2026-03-31T16:08:42.657Z</time></trkpt><trkpt lat="45.6617337" lon="9.4836962"><ele>183.0</ele><time>2026-03-31T16:08:43.657Z</time></trkpt><trkpt lat="45.6618278" lon="9.4837062"><ele>183.0</ele><time>2026-03-31T16:08:44.657Z</time></trkpt><trkpt lat="45.6619204" lon="9.4837144"><ele>183.0</ele><time>2026-03-31T16:08:45.658Z</time></trkpt><trkpt lat="45.662008" lon="9.4837277"><ele>183.5</ele><time>2026-03-31T16:08:46.658Z</time></trkpt><trkpt lat="45.6620898" lon="9.4837443"><ele>184.0</ele><time>2026-03-31T16:08:47.657Z</time></trkpt><trkpt lat="45.6621627" lon="9.4837707"><ele>184.5</ele><time>2026-03-31T16:08:48.657Z</time></trkpt><trkpt lat="45.66223" lon="9.483817"><ele>185.0</ele><time>2026-03-31T16:08:49.657Z</time></trkpt><trkpt lat="45.6622828" lon="9.4838882"><ele>185.5</ele><time>2026-03-31T16:08:50.658Z</time></trkpt><trkpt lat="45.662319" lon="9.4839801"><ele>186.0</ele><time>2026-03-31T16:08:51.657Z</time></trkpt><trkpt lat="45.6623419" lon="9.4840832"><ele>186.0</ele><time>2026-03-31T16:08:52.657Z</time></trkpt><trkpt lat="45.6623556" lon="9.4841995"><ele>186.0</ele><time>2026-03-31T16:08:53.657Z</time></trkpt><trkpt lat="45.6623745" lon="9.4843236"><ele>186.0</ele><time>2026-03-31T16:08:54.657Z</time></trkpt><trkpt lat="45.6623939" lon="9.4844457"><ele>186.0</ele><time>2026-03-31T16:08:55.657Z</time></trkpt><trkpt lat="45.662414" lon="9.4845607"><ele>186.0</ele><time>2026-03-31T16:08:56.657Z</time></trkpt><trkpt lat="45.6624447" lon="9.4846605"><ele>186.0</ele><time>2026-03-31T16:08:57.657Z</time></trkpt><trkpt lat="45.6624899" lon="9.4847493"><ele>186.0</ele><time>2026-03-31T16:08:58.657Z</time></trkpt><trkpt lat="45.662541" lon="9.484817"><ele>186.0</ele><time>2026-03-31T16:08:59.657Z</time></trkpt><trkpt lat="45.6626018" lon="9.4848671"><ele>186.0</ele><time>2026-03-31T16:09:00.658Z</time></trkpt><trkpt lat="45.6626657" lon="9.484889"><ele>186.0</ele><time>2026-03-31T16:09:01.657Z</time></trkpt><trkpt lat="45.6627811" lon="9.4848609"><ele>186.0</ele><time>2026-03-31T16:09:03.657Z</time></trkpt><trkpt lat="45.6628541" lon="9.4847307"><ele>186.0</ele><time>2026-03-31T16:09:05.657Z</time></trkpt><trkpt lat="45.6628808" lon="9.4846359"><ele>186.66666666666666</ele><time>2026-03-31T16:09:06.657Z</time></trkpt><trkpt lat="45.662906" lon="9.4845345"><ele>187.33333333333334</ele><time>2026-03-31T16:09:07.657Z</time></trkpt><trkpt lat="45.6629329" lon="9.4844274"><ele>188.0</ele><time>2026-03-31T16:09:08.657Z</time></trkpt><trkpt lat="45.6629609" lon="9.4843316"><ele>188.66666666666669</ele><time>2026-03-31T16:09:09.657Z</time></trkpt><trkpt lat="45.6629992" lon="9.4842091"><ele>189.33333333333334</ele><time>2026-03-31T16:09:10.657Z</time></trkpt><trkpt lat="45.6630361" lon="9.4840954"><ele>190.0</ele><time>2026-03-31T16:09:11.657Z</time></trkpt><trkpt lat="45.6630688" lon="9.4839736"><ele>190.0</ele><time>2026-03-31T16:09:12.658Z</time></trkpt><trkpt lat="45.6631022" lon="9.4838502"><ele>190.0</ele><time>2026-03-31T16:09:13.657Z</time></trkpt><trkpt lat="45.6631391" lon="9.4837219"><ele>190.0</ele><time>2026-03-31T16:09:14.657Z</time></trkpt><trkpt lat="45.6631787" lon="9.4835827"><ele>190.0</ele><time>2026-03-31T16:09:15.657Z</time></trkpt><trkpt lat="45.6632255" lon="9.483434"><ele>190.0</ele><time>2026-03-31T16:09:16.657Z</time></trkpt><trkpt lat="45.6632735" lon="9.4832839"><ele>189.75</ele><time>2026-03-31T16:09:17.657Z</time></trkpt><trkpt lat="45.663322" lon="9.4831326"><ele>189.5</ele><time>2026-03-31T16:09:18.658Z</time></trkpt><trkpt lat="45.6633727" lon="9.4829792"><ele>189.25</ele><time>2026-03-31T16:09:19.656Z</time></trkpt><trkpt lat="45.6634269" lon="9.4828093"><ele>189.0</ele><time>2026-03-31T16:09:20.658Z</time></trkpt><trkpt lat="45.6634849" lon="9.4826248"><ele>189.5</ele><time>2026-03-31T16:09:21.657Z</time></trkpt><trkpt lat="45.663544" lon="9.482439"><ele>190.0</ele><time>2026-03-31T16:09:22.658Z</time></trkpt><trkpt lat="45.663596" lon="9.4822755"><ele>190.5</ele><time>2026-03-31T16:09:23.657Z</time></trkpt><trkpt lat="45.6636411" lon="9.4821352"><ele>191.0</ele><time>2026-03-31T16:09:24.657Z</time></trkpt><trkpt lat="45.6636821" lon="9.4820127"><ele>194.16666666666666</ele><time>2026-03-31T16:09:25.658Z</time></trkpt><trkpt lat="45.6637254" lon="9.4819109"><ele>197.33333333333331</ele><time>2026-03-31T16:09:26.657Z</time></trkpt><trkpt lat="45.6637733" lon="9.4818312"><ele>200.5</ele><time>2026-03-31T16:09:27.657Z</time></trkpt><trkpt lat="45.6638237" lon="9.4817709"><ele>203.66666666666666</ele><time>2026-03-31T16:09:28.657Z</time></trkpt><trkpt lat="45.6638938" lon="9.481757"><ele>206.83333333333334</ele><time>2026-03-31T16:09:29.657Z</time></trkpt><trkpt lat="45.6639578" lon="9.4817353"><ele>210.0</ele><time>2026-03-31T16:09:30.657Z</time></trkpt><trkpt lat="45.664052" lon="9.4817635"><ele>210.0</ele><time>2026-03-31T16:09:32.657Z</time></trkpt><trkpt lat="45.6641278" lon="9.4818796"><ele>210.0</ele><time>2026-03-31T16:09:33.657Z</time></trkpt><trkpt lat="45.6641864" lon="9.4819843"><ele>210.0</ele><time>2026-03-31T16:09:34.657Z</time></trkpt><trkpt lat="45.6642501" lon="9.4821067"><ele>210.0</ele><time>2026-03-31T16:09:35.657Z</time></trkpt><trkpt lat="45.664309" lon="9.4822527"><ele>210.0</ele><time>2026-03-31T16:09:36.657Z</time></trkpt><trkpt lat="45.66436" lon="9.4823927"><ele>210.83333333333334</ele><time>2026-03-31T16:09:37.658Z</time></trkpt><trkpt lat="45.6643985" lon="9.4825162"><ele>211.66666666666669</ele><time>2026-03-31T16:09:38.657Z</time></trkpt><trkpt lat="45.6644209" lon="9.4826318"><ele>212.5</ele><time>2026-03-31T16:09:39.657Z</time></trkpt><trkpt lat="45.6644438" lon="9.4827335"><ele>213.33333333333334</ele><time>2026-03-31T16:09:40.658Z</time></trkpt><trkpt lat="45.6644739" lon="9.4828242"><ele>214.16666666666669</ele><time>2026-03-31T16:09:41.657Z</time></trkpt><trkpt lat="45.6645162" lon="9.482892"><ele>215.0</ele><time>2026-03-31T16:09:42.658Z</time></trkpt><trkpt lat="45.6645801" lon="9.4829255"><ele>215.0</ele><time>2026-03-31T16:09:43.657Z</time></trkpt><trkpt lat="45.6646874" lon="9.4828644"><ele>215.0</ele><time>2026-03-31T16:09:45.658Z</time></trkpt><trkpt lat="45.6646986" lon="9.4826887"><ele>215.0</ele><time>2026-03-31T16:09:47.657Z</time></trkpt><trkpt lat="45.6646687" lon="9.4825968"><ele>215.0</ele><time>2026-03-31T16:09:48.658Z</time></trkpt><trkpt lat="45.6646371" lon="9.4824989"><ele>215.0</ele><time>2026-03-31T16:09:49.657Z</time></trkpt><trkpt lat="45.664608" lon="9.4823945"><ele>215.0</ele><time>2026-03-31T16:09:50.657Z</time></trkpt><trkpt lat="45.6645551" lon="9.4822297"><ele>215.0</ele><time>2026-03-31T16:09:51.658Z</time></trkpt><trkpt lat="45.6645089" lon="9.4820877"><ele>215.0</ele><time>2026-03-31T16:09:52.658Z</time></trkpt><trkpt lat="45.6644532" lon="9.4819737"><ele>215.0</ele><time>2026-03-31T16:09:53.657Z</time></trkpt><trkpt lat="45.6643978" lon="9.4818379"><ele>215.0</ele><time>2026-03-31T16:09:54.658Z</time></trkpt><trkpt lat="45.6643438" lon="9.4816954"><ele>215.8</ele><time>2026-03-31T16:09:55.657Z</time></trkpt><trkpt lat="45.6642906" lon="9.4815562"><ele>216.6</ele><time>2026-03-31T16:09:56.657Z</time></trkpt><trkpt lat="45.6642297" lon="9.4814153"><ele>217.39999999999998</ele><time>2026-03-31T16:09:57.657Z</time></trkpt><trkpt lat="45.6641873" lon="9.4812973"><ele>218.2</ele><time>2026-03-31T16:09:58.657Z</time></trkpt><trkpt lat="45.6641262" lon="9.4811665"><ele>219.0</ele><time>2026-03-31T16:09:59.657Z</time></trkpt><trkpt lat="45.664058" lon="9.4810425"><ele>219.0</ele><time>2026-03-31T16:10:00.658Z</time></trkpt><trkpt lat="45.6639879" lon="9.4809254"><ele>218.99999999999997</ele><time>2026-03-31T16:10:01.657Z</time></trkpt><trkpt lat="45.6639266" lon="9.480818"><ele>218.99999999999997</ele><time>2026-03-31T16:10:02.658Z</time></trkpt><trkpt lat="45.6638617" lon="9.4807123"><ele>219.0</ele><time>2026-03-31T16:10:03.658Z</time></trkpt><trkpt lat="45.6637981" lon="9.4806025"><ele>219.0</ele><time>2026-03-31T16:10:04.657Z</time></trkpt><trkpt lat="45.663735" lon="9.4804915"><ele>219.2</ele><time>2026-03-31T16:10:05.657Z</time></trkpt><trkpt lat="45.6636776" lon="9.4803816"><ele>219.39999999999998</ele><time>2026-03-31T16:10:06.657Z</time></trkpt><trkpt lat="45.6636097" lon="9.4802674"><ele>219.6</ele><time>2026-03-31T16:10:07.657Z</time></trkpt><trkpt lat="45.6635405" lon="9.4801567"><ele>219.8</ele><time>2026-03-31T16:10:08.657Z</time></trkpt><trkpt lat="45.6634782" lon="9.4800431"><ele>220.0</ele><time>2026-03-31T16:10:09.657Z</time></trkpt><trkpt lat="45.6634266" lon="9.4799325"><ele>219.99999999999997</ele><time>2026-03-31T16:10:10.657Z</time></trkpt><trkpt lat="45.663381" lon="9.4798229"><ele>220.0</ele><time>2026-03-31T16:10:11.657Z</time></trkpt><trkpt lat="45.6633485" lon="9.4797238"><ele>220.0</ele><time>2026-03-31T16:10:12.657Z</time></trkpt><trkpt lat="45.6633242" lon="9.4796237"><ele>220.0</ele><time>2026-03-31T16:10:13.657Z</time></trkpt><trkpt lat="45.6633114" lon="9.4795302"><ele>219.99999999999997</ele><time>2026-03-31T16:10:14.657Z</time></trkpt><trkpt lat="45.6633092" lon="9.4794159"><ele>220.0</ele><time>2026-03-31T16:10:15.657Z</time></trkpt><trkpt lat="45.6633074" lon="9.4792945"><ele>222.0</ele><time>2026-03-31T16:10:16.658Z</time></trkpt><trkpt lat="45.6633046" lon="9.4791729"><ele>224.0</ele><time>2026-03-31T16:10:17.657Z</time></trkpt><trkpt lat="45.6633025" lon="9.4790369"><ele>226.0</ele><time>2026-03-31T16:10:18.657Z</time></trkpt><trkpt lat="45.6633004" lon="9.4788956"><ele>228.0</ele><time>2026-03-31T16:10:19.658Z</time></trkpt><trkpt lat="45.6632945" lon="9.4787625"><ele>230.0</ele><time>2026-03-31T16:10:20.657Z</time></trkpt><trkpt lat="45.6632878" lon="9.4786273"><ele>230.2</ele><time>2026-03-31T16:10:21.657Z</time></trkpt><trkpt lat="45.6632815" lon="9.4784942"><ele>230.4</ele><time>2026-03-31T16:10:22.657Z</time></trkpt><trkpt lat="45.6632783" lon="9.478363"><ele>230.60000000000002</ele><time>2026-03-31T16:10:23.657Z</time></trkpt><trkpt lat="45.6632699" lon="9.4782254"><ele>230.8</ele><time>2026-03-31T16:10:24.657Z</time></trkpt><trkpt lat="45.6632564" lon="9.4780881"><ele>231.0</ele><time>2026-03-31T16:10:25.657Z</time></trkpt><trkpt lat="45.6632438" lon="9.477945"><ele>231.4</ele><time>2026-03-31T16:10:26.657Z</time></trkpt><trkpt lat="45.6632316" lon="9.4778007"><ele>231.8</ele><time>2026-03-31T16:10:27.657Z</time></trkpt><trkpt lat="45.6632244" lon="9.477657"><ele>232.20000000000002</ele><time>2026-03-31T16:10:28.657Z</time></trkpt><trkpt lat="45.6632156" lon="9.4775125"><ele>232.60000000000002</ele><time>2026-03-31T16:10:29.657Z</time></trkpt><trkpt lat="45.6632066" lon="9.4773784"><ele>233.0</ele><time>2026-03-31T16:10:30.657Z</time></trkpt><trkpt lat="45.6632034" lon="9.4772547"><ele>233.00000000000003</ele><time>2026-03-31T16:10:31.657Z</time></trkpt><trkpt lat="45.6631917" lon="9.4771277"><ele>233.0</ele><time>2026-03-31T16:10:32.658Z</time></trkpt><trkpt lat="45.663189" lon="9.4770315"><ele>233.0</ele><time>2026-03-31T16:10:33.657Z</time></trkpt><trkpt lat="45.6631844" lon="9.4768799"><ele>233.0</ele><time>2026-03-31T16:10:35.658Z</time></trkpt><trkpt lat="45.6631422" lon="9.4767893"><ele>233.00000000000003</ele><time>2026-03-31T16:10:37.657Z</time></trkpt><trkpt lat="45.6630389" lon="9.4768087"><ele>233.0</ele><time>2026-03-31T16:10:39.657Z</time></trkpt><trkpt lat="45.6629631" lon="9.4768397"><ele>233.60000000000002</ele><time>2026-03-31T16:10:40.657Z</time></trkpt><trkpt lat="45.6628691" lon="9.4768682"><ele>234.20000000000002</ele><time>2026-03-31T16:10:42.657Z</time></trkpt><trkpt lat="45.6627556" lon="9.4768842"><ele>234.8</ele><time>2026-03-31T16:10:44.657Z</time></trkpt><trkpt lat="45.6626838" lon="9.4768874"><ele>235.4</ele><time>2026-03-31T16:10:45.657Z</time></trkpt><trkpt lat="45.6625978" lon="9.4768968"><ele>236.0</ele><time>2026-03-31T16:10:46.657Z</time></trkpt><trkpt lat="45.6625013" lon="9.4769145"><ele>236.0</ele><time>2026-03-31T16:10:47.657Z</time></trkpt><trkpt lat="45.6624101" lon="9.476943"><ele>236.00000000000003</ele><time>2026-03-31T16:10:48.657Z</time></trkpt><trkpt lat="45.6623153" lon="9.4769677"><ele>236.00000000000003</ele><time>2026-03-31T16:10:49.657Z</time></trkpt><trkpt lat="45.6622095" lon="9.4770051"><ele>236.0</ele><time>2026-03-31T16:10:50.657Z</time></trkpt><trkpt lat="45.6620986" lon="9.4770328"><ele>236.0</ele><time>2026-03-31T16:10:51.658Z</time></trkpt><trkpt lat="45.6619883" lon="9.4770588"><ele>236.0</ele><time>2026-03-31T16:10:52.657Z</time></trkpt><trkpt lat="45.6618682" lon="9.4770857"><ele>236.0</ele><time>2026-03-31T16:10:53.657Z</time></trkpt><trkpt lat="45.6617529" lon="9.4771123"><ele>236.0</ele><time>2026-03-31T16:10:54.658Z</time></trkpt><trkpt lat="45.6616397" lon="9.4771383"><ele>236.0</ele><time>2026-03-31T16:10:55.658Z</time></trkpt><trkpt lat="45.6615296" lon="9.477163"><ele>236.0</ele><time>2026-03-31T16:10:56.657Z</time></trkpt><trkpt lat="45.6614262" lon="9.4771874"><ele>236.00000000000003</ele><time>2026-03-31T16:10:57.657Z</time></trkpt><trkpt lat="45.6613254" lon="9.477211"><ele>236.00000000000003</ele><time>2026-03-31T16:10:58.657Z</time></trkpt><trkpt lat="45.6612259" lon="9.4772386"><ele>236.0</ele><time>2026-03-31T16:10:59.657Z</time></trkpt><trkpt lat="45.6611269" lon="9.4772661"><ele>236.0</ele><time>2026-03-31T16:11:00.658Z</time></trkpt><trkpt lat="45.6610311" lon="9.4772902"><ele>235.83333333333334</ele><time>2026-03-31T16:11:01.657Z</time></trkpt><trkpt lat="45.6609448" lon="9.477305"><ele>235.66666666666669</ele><time>2026-03-31T16:11:02.658Z</time></trkpt><trkpt lat="45.6608536" lon="9.4773165"><ele>235.5</ele><time>2026-03-31T16:11:03.657Z</time></trkpt><trkpt lat="45.6607909" lon="9.4773323"><ele>235.33333333333331</ele><time>2026-03-31T16:11:04.657Z</time></trkpt><trkpt lat="45.6607268" lon="9.4773506"><ele>235.16666666666666</ele><time>2026-03-31T16:11:08.657Z</time></trkpt><trkpt lat="45.6606675" lon="9.4774552"><ele>235.0</ele><time>2026-03-31T16:11:21.658Z</time></trkpt><trkpt lat="45.6606186" lon="9.4775503"><ele>234.99999999999997</ele><time>2026-03-31T16:11:23.657Z</time></trkpt><trkpt lat="45.6605578" lon="9.4775923"><ele>235.0</ele><time>2026-03-31T16:11:24.658Z</time></trkpt><trkpt lat="45.6604952" lon="9.4776452"><ele>235.0</ele><time>2026-03-31T16:11:25.658Z</time></trkpt><trkpt lat="45.6604235" lon="9.4776867"><ele>235.0</ele><time>2026-03-31T16:11:26.657Z</time></trkpt><trkpt lat="45.660362" lon="9.4777319"><ele>234.99999999999997</ele><time>2026-03-31T16:11:27.657Z</time></trkpt><trkpt lat="45.660288" lon="9.4777856"><ele>235.0</ele><time>2026-03-31T16:11:28.657Z</time></trkpt><trkpt lat="45.6601988" lon="9.4778502"><ele>234.4</ele><time>2026-03-31T16:11:29.657Z</time></trkpt><trkpt lat="45.6601139" lon="9.4778936"><ele>233.8</ele><time>2026-03-31T16:11:30.657Z</time></trkpt><trkpt lat="45.660023" lon="9.4779466"><ele>233.2</ele><time>2026-03-31T16:11:31.657Z</time></trkpt><trkpt lat="45.6599236" lon="9.4780019"><ele>232.6</ele><time>2026-03-31T16:11:32.658Z</time></trkpt><trkpt lat="45.6598302" lon="9.4780575"><ele>232.0</ele><time>2026-03-31T16:11:33.657Z</time></trkpt><trkpt lat="45.6597274" lon="9.4781192"><ele>231.39999999999998</ele><time>2026-03-31T16:11:34.657Z</time></trkpt><trkpt lat="45.6596294" lon="9.4781756"><ele>230.79999999999998</ele><time>2026-03-31T16:11:35.657Z</time></trkpt><trkpt lat="45.6595176" lon="9.478225"><ele>230.2</ele><time>2026-03-31T16:11:36.658Z</time></trkpt><trkpt lat="45.659417" lon="9.4782735"><ele>229.6</ele><time>2026-03-31T16:11:37.657Z</time></trkpt><trkpt lat="45.6593332" lon="9.4783095"><ele>229.0</ele><time>2026-03-31T16:11:38.658Z</time></trkpt><trkpt lat="45.6592601" lon="9.4783352"><ele>228.99999999999997</ele><time>2026-03-31T16:11:39.657Z</time></trkpt><trkpt lat="45.659179" lon="9.4783683"><ele>229.0</ele><time>2026-03-31T16:11:40.658Z</time></trkpt><trkpt lat="45.6590586" lon="9.4783867"><ele>229.0</ele><time>2026-03-31T16:11:42.657Z</time></trkpt><trkpt lat="45.6589875" lon="9.4783739"><ele>229.0</ele><time>2026-03-31T16:11:43.657Z</time></trkpt><trkpt lat="45.6589068" lon="9.4783629"><ele>228.99999999999997</ele><time>2026-03-31T16:11:44.657Z</time></trkpt><trkpt lat="45.6588367" lon="9.4783424"><ele>229.0</ele><time>2026-03-31T16:11:45.657Z</time></trkpt><trkpt lat="45.6587395" lon="9.4782695"><ele>229.0</ele><time>2026-03-31T16:11:47.657Z</time></trkpt><trkpt lat="45.6586299" lon="9.4782526"><ele>228.99999999999997</ele><time>2026-03-31T16:11:49.658Z</time></trkpt><trkpt lat="45.6585642" lon="9.4782851"><ele>228.99999999999997</ele><time>2026-03-31T16:11:50.657Z</time></trkpt><trkpt lat="45.658482" lon="9.4783362"><ele>229.0</ele><time>2026-03-31T16:11:51.658Z</time></trkpt><trkpt lat="45.6583869" lon="9.4783826"><ele>229.0</ele><time>2026-03-31T16:11:52.658Z</time></trkpt><trkpt lat="45.6583085" lon="9.4784102"><ele>229.16666666666666</ele><time>2026-03-31T16:11:53.657Z</time></trkpt><trkpt lat="45.6582234" lon="9.4784302"><ele>229.33333333333331</ele><time>2026-03-31T16:11:54.657Z</time></trkpt><trkpt lat="45.6581462" lon="9.4784406"><ele>229.5</ele><time>2026-03-31T16:11:55.657Z</time></trkpt><trkpt lat="45.6580769" lon="9.4784404"><ele>229.66666666666669</ele><time>2026-03-31T16:11:56.657Z</time></trkpt><trkpt lat="45.657959" lon="9.4784224"><ele>229.83333333333334</ele><time>2026-03-31T16:11:58.658Z</time></trkpt><trkpt lat="45.6578926" lon="9.4784311"><ele>230.0</ele><time>2026-03-31T16:11:59.658Z</time></trkpt><trkpt lat="45.6577773" lon="9.4784712"><ele>229.99999999999997</ele><time>2026-03-31T16:12:01.657Z</time></trkpt><trkpt lat="45.6577163" lon="9.4784953"><ele>230.0</ele><time>2026-03-31T16:12:02.657Z</time></trkpt><trkpt lat="45.6576541" lon="9.4785307"><ele>229.99999999999997</ele><time>2026-03-31T16:12:03.657Z</time></trkpt><trkpt lat="45.6575889" lon="9.4785856"><ele>229.99999999999997</ele><time>2026-03-31T16:12:04.657Z</time></trkpt><trkpt lat="45.6575301" lon="9.4786486"><ele>230.0</ele><time>2026-03-31T16:12:05.657Z</time></trkpt><trkpt lat="45.6574666" lon="9.4787216"><ele>229.99999999999997</ele><time>2026-03-31T16:12:06.657Z</time></trkpt><trkpt lat="45.6574037" lon="9.4787917"><ele>229.99999999999997</ele><time>2026-03-31T16:12:07.658Z</time></trkpt><trkpt lat="45.6573406" lon="9.4788638"><ele>229.33333333333334</ele><time>2026-03-31T16:12:08.657Z</time></trkpt><trkpt lat="45.6572688" lon="9.4789115"><ele>228.66666666666669</ele><time>2026-03-31T16:12:09.657Z</time></trkpt><trkpt lat="45.6571953" lon="9.4789622"><ele>228.0</ele><time>2026-03-31T16:12:10.657Z</time></trkpt><trkpt lat="45.6571208" lon="9.4790139"><ele>227.33333333333331</ele><time>2026-03-31T16:12:11.658Z</time></trkpt><trkpt lat="45.6570454" lon="9.4790643"><ele>226.66666666666666</ele><time>2026-03-31T16:12:12.657Z</time></trkpt><trkpt lat="45.6569738" lon="9.4791228"><ele>226.0</ele><time>2026-03-31T16:12:13.657Z</time></trkpt><trkpt lat="45.6569028" lon="9.4791818"><ele>225.99999999999997</ele><time>2026-03-31T16:12:14.657Z</time></trkpt><trkpt lat="45.6568306" lon="9.479244"><ele>226.0</ele><time>2026-03-31T16:12:15.657Z</time></trkpt><trkpt lat="45.6567558" lon="9.4793028"><ele>226.0</ele><time>2026-03-31T16:12:16.657Z</time></trkpt><trkpt lat="45.6566836" lon="9.4793648"><ele>226.0</ele><time>2026-03-31T16:12:17.658Z</time></trkpt><trkpt lat="45.6566101" lon="9.4794243"><ele>225.99999999999997</ele><time>2026-03-31T16:12:18.657Z</time></trkpt><trkpt lat="45.6565428" lon="9.4794909"><ele>226.0</ele><time>2026-03-31T16:12:19.657Z</time></trkpt><trkpt lat="45.6564785" lon="9.47954"><ele>226.0</ele><time>2026-03-31T16:12:20.657Z</time></trkpt><trkpt lat="45.6564167" lon="9.47959"><ele>226.0</ele><time>2026-03-31T16:12:21.658Z</time></trkpt><trkpt lat="45.6563564" lon="9.4796362"><ele>226.0</ele><time>2026-03-31T16:12:22.657Z</time></trkpt><trkpt lat="45.6562933" lon="9.4796703"><ele>226.0</ele><time>2026-03-31T16:12:23.658Z</time></trkpt><trkpt lat="45.6562302" lon="9.4797241"><ele>226.0</ele><time>2026-03-31T16:12:24.657Z</time></trkpt><trkpt lat="45.6561654" lon="9.4797772"><ele>226.0</ele><time>2026-03-31T16:12:25.657Z</time></trkpt><trkpt lat="45.6561031" lon="9.4798338"><ele>226.0</ele><time>2026-03-31T16:12:26.657Z</time></trkpt><trkpt lat="45.6560417" lon="9.4798899"><ele>226.16666666666666</ele><time>2026-03-31T16:12:27.657Z</time></trkpt><trkpt lat="45.6559716" lon="9.4799415"><ele>226.33333333333331</ele><time>2026-03-31T16:12:28.657Z</time></trkpt><trkpt lat="45.6558994" lon="9.4799899"><ele>226.5</ele><time>2026-03-31T16:12:29.658Z</time></trkpt><trkpt lat="45.6558241" lon="9.4800321"><ele>226.66666666666669</ele><time>2026-03-31T16:12:30.657Z</time></trkpt><trkpt lat="45.6557449" lon="9.480073"><ele>226.83333333333334</ele><time>2026-03-31T16:12:31.657Z</time></trkpt><trkpt lat="45.6556739" lon="9.4801108"><ele>227.0</ele><time>2026-03-31T16:12:32.657Z</time></trkpt><trkpt lat="45.6556066" lon="9.4801521"><ele>227.00000000000003</ele><time>2026-03-31T16:12:33.658Z</time></trkpt><trkpt lat="45.6555392" lon="9.4802"><ele>227.0</ele><time>2026-03-31T16:12:34.657Z</time></trkpt><trkpt lat="45.6554732" lon="9.4802502"><ele>227.0</ele><time>2026-03-31T16:12:35.657Z</time></trkpt><trkpt lat="45.655408" lon="9.4803083"><ele>227.0</ele><time>2026-03-31T16:12:36.657Z</time></trkpt><trkpt lat="45.6553415" lon="9.4803814"><ele>227.00000000000003</ele><time>2026-03-31T16:12:37.657Z</time></trkpt><trkpt lat="45.6552802" lon="9.4804534"><ele>227.0</ele><time>2026-03-31T16:12:38.657Z</time></trkpt><trkpt lat="45.6552151" lon="9.4805262"><ele>226.33333333333334</ele><time>2026-03-31T16:12:39.657Z</time></trkpt><trkpt lat="45.6551456" lon="9.4805898"><ele>225.66666666666669</ele><time>2026-03-31T16:12:40.657Z</time></trkpt><trkpt lat="45.6550712" lon="9.4806502"><ele>225.0</ele><time>2026-03-31T16:12:41.657Z</time></trkpt><trkpt lat="45.6550017" lon="9.480703"><ele>224.33333333333331</ele><time>2026-03-31T16:12:42.657Z</time></trkpt><trkpt lat="45.6549379" lon="9.4807462"><ele>223.66666666666666</ele><time>2026-03-31T16:12:43.658Z</time></trkpt><trkpt lat="45.6548777" lon="9.4807767"><ele>223.0</ele><time>2026-03-31T16:12:44.657Z</time></trkpt><trkpt lat="45.6547753" lon="9.4808409"><ele>222.99999999999997</ele><time>2026-03-31T16:12:46.658Z</time></trkpt><trkpt lat="45.6546722" lon="9.480907"><ele>223.0</ele><time>2026-03-31T16:12:49.657Z</time></trkpt><trkpt lat="45.6546166" lon="9.4809603"><ele>223.0</ele><time>2026-03-31T16:12:50.657Z</time></trkpt><trkpt lat="45.654554" lon="9.4810129"><ele>223.0</ele><time>2026-03-31T16:12:51.657Z</time></trkpt><trkpt lat="45.6544811" lon="9.4810635"><ele>222.99999999999997</ele><time>2026-03-31T16:12:52.658Z</time></trkpt><trkpt lat="45.6544004" lon="9.4811129"><ele>223.0</ele><time>2026-03-31T16:12:53.658Z</time></trkpt><trkpt lat="45.6543196" lon="9.4811697"><ele>224.0</ele><time>2026-03-31T16:12:54.657Z</time></trkpt><trkpt lat="45.6542324" lon="9.4812251"><ele>225.0</ele><time>2026-03-31T16:12:55.658Z</time></trkpt><trkpt lat="45.6541501" lon="9.4812791"><ele>226.0</ele><time>2026-03-31T16:12:56.657Z</time></trkpt><trkpt lat="45.6540663" lon="9.4813372"><ele>227.0</ele><time>2026-03-31T16:12:57.657Z</time></trkpt><trkpt lat="45.6539863" lon="9.4813893"><ele>228.0</ele><time>2026-03-31T16:12:58.657Z</time></trkpt><trkpt lat="45.6539062" lon="9.4814307"><ele>227.33333333333334</ele><time>2026-03-31T16:12:59.657Z</time></trkpt><trkpt lat="45.6538249" lon="9.4814581"><ele>226.66666666666669</ele><time>2026-03-31T16:13:00.658Z</time></trkpt><trkpt lat="45.6537379" lon="9.4814833"><ele>226.0</ele><time>2026-03-31T16:13:01.657Z</time></trkpt><trkpt lat="45.6536488" lon="9.4815094"><ele>225.33333333333334</ele><time>2026-03-31T16:13:02.657Z</time></trkpt><trkpt lat="45.6535634" lon="9.4815326"><ele>224.66666666666669</ele><time>2026-03-31T16:13:03.657Z</time></trkpt><trkpt lat="45.6534868" lon="9.4815604"><ele>224.0</ele><time>2026-03-31T16:13:04.658Z</time></trkpt><trkpt lat="45.653413" lon="9.4815752"><ele>224.00000000000003</ele><time>2026-03-31T16:13:05.657Z</time></trkpt><trkpt lat="45.6533375" lon="9.4815969"><ele>224.0</ele><time>2026-03-31T16:13:06.657Z</time></trkpt><trkpt lat="45.653259" lon="9.4816058"><ele>224.0</ele><time>2026-03-31T16:13:07.658Z</time></trkpt><trkpt lat="45.6531843" lon="9.4816229"><ele>224.0</ele><time>2026-03-31T16:13:08.658Z</time></trkpt><trkpt lat="45.6531125" lon="9.4816406"><ele>224.00000000000003</ele><time>2026-03-31T16:13:09.657Z</time></trkpt><trkpt lat="45.6529812" lon="9.4816615"><ele>224.0</ele><time>2026-03-31T16:13:11.657Z</time></trkpt><trkpt lat="45.6529192" lon="9.4816785"><ele>224.00000000000003</ele><time>2026-03-31T16:13:12.657Z</time></trkpt><trkpt lat="45.6528533" lon="9.4816892"><ele>224.0</ele><time>2026-03-31T16:13:13.658Z</time></trkpt><trkpt lat="45.6527818" lon="9.4816974"><ele>224.0</ele><time>2026-03-31T16:13:14.658Z</time></trkpt><trkpt lat="45.6527068" lon="9.4817006"><ele>224.0</ele><time>2026-03-31T16:13:15.658Z</time></trkpt><trkpt lat="45.6526209" lon="9.4816977"><ele>224.00000000000003</ele><time>2026-03-31T16:13:16.658Z</time></trkpt><trkpt lat="45.6525396" lon="9.4816984"><ele>224.0</ele><time>2026-03-31T16:13:17.657Z</time></trkpt><trkpt lat="45.652462" lon="9.481698"><ele>224.42857142857144</ele><time>2026-03-31T16:13:18.657Z</time></trkpt><trkpt lat="45.6523972" lon="9.4816906"><ele>224.85714285714286</ele><time>2026-03-31T16:13:19.657Z</time></trkpt><trkpt lat="45.6523238" lon="9.4816982"><ele>225.28571428571428</ele><time>2026-03-31T16:13:20.657Z</time></trkpt><trkpt lat="45.652252" lon="9.4817163"><ele>225.71428571428572</ele><time>2026-03-31T16:13:21.657Z</time></trkpt><trkpt lat="45.6521792" lon="9.481746"><ele>226.14285714285717</ele><time>2026-03-31T16:13:22.658Z</time></trkpt><trkpt lat="45.652107" lon="9.4817906"><ele>226.57142857142858</ele><time>2026-03-31T16:13:23.657Z</time></trkpt><trkpt lat="45.6520386" lon="9.4818263"><ele>227.0</ele><time>2026-03-31T16:13:24.657Z</time></trkpt><trkpt lat="45.6519558" lon="9.4818731"><ele>227.00000000000003</ele><time>2026-03-31T16:13:25.657Z</time></trkpt><trkpt lat="45.6518986" lon="9.4819149"><ele>227.0</ele><time>2026-03-31T16:13:26.658Z</time></trkpt><trkpt lat="45.6518237" lon="9.4819684"><ele>227.0</ele><time>2026-03-31T16:13:27.657Z</time></trkpt><trkpt lat="45.6517477" lon="9.4820444"><ele>227.0</ele><time>2026-03-31T16:13:28.657Z</time></trkpt><trkpt lat="45.6516732" lon="9.4821088"><ele>227.00000000000003</ele><time>2026-03-31T16:13:29.657Z</time></trkpt><trkpt lat="45.6515969" lon="9.482192"><ele>227.0</ele><time>2026-03-31T16:13:30.657Z</time></trkpt><trkpt lat="45.6515267" lon="9.4822671"><ele>226.39999999999998</ele><time>2026-03-31T16:13:31.658Z</time></trkpt><trkpt lat="45.651455" lon="9.4823439"><ele>225.79999999999998</ele><time>2026-03-31T16:13:32.657Z</time></trkpt><trkpt lat="45.6513864" lon="9.4824237"><ele>225.2</ele><time>2026-03-31T16:13:33.658Z</time></trkpt><trkpt lat="45.6513125" lon="9.482501"><ele>224.6</ele><time>2026-03-31T16:13:34.658Z</time></trkpt><trkpt lat="45.6512399" lon="9.4825777"><ele>224.0</ele><time>2026-03-31T16:13:35.658Z</time></trkpt><trkpt lat="45.6511615" lon="9.4826511"><ele>224.0</ele><time>2026-03-31T16:13:36.657Z</time></trkpt><trkpt lat="45.6510793" lon="9.4827227"><ele>223.99999999999997</ele><time>2026-03-31T16:13:37.657Z</time></trkpt><trkpt lat="45.6509977" lon="9.482791"><ele>223.99999999999997</ele><time>2026-03-31T16:13:38.657Z</time></trkpt><trkpt lat="45.6509088" lon="9.4828563"><ele>224.0</ele><time>2026-03-31T16:13:39.657Z</time></trkpt><trkpt lat="45.6508161" lon="9.4829181"><ele>224.0</ele><time>2026-03-31T16:13:40.657Z</time></trkpt><trkpt lat="45.6507207" lon="9.4829923"><ele>223.2</ele><time>2026-03-31T16:13:41.658Z</time></trkpt><trkpt lat="45.6506214" lon="9.4830616"><ele>222.39999999999998</ele><time>2026-03-31T16:13:42.657Z</time></trkpt><trkpt lat="45.6505227" lon="9.4831289"><ele>221.6</ele><time>2026-03-31T16:13:43.658Z</time></trkpt><trkpt lat="45.6504205" lon="9.4831933"><ele>220.8</ele><time>2026-03-31T16:13:44.657Z</time></trkpt><trkpt lat="45.6503204" lon="9.4832594"><ele>220.0</ele><time>2026-03-31T16:13:45.658Z</time></trkpt><trkpt lat="45.6502199" lon="9.4833242"><ele>220.0</ele><time>2026-03-31T16:13:46.657Z</time></trkpt><trkpt lat="45.6501158" lon="9.4833857"><ele>220.0</ele><time>2026-03-31T16:13:47.658Z</time></trkpt><trkpt lat="45.6500121" lon="9.4834474"><ele>220.0</ele><time>2026-03-31T16:13:48.658Z</time></trkpt><trkpt lat="45.6499094" lon="9.4835072"><ele>220.0</ele><time>2026-03-31T16:13:49.657Z</time></trkpt><trkpt lat="45.6498078" lon="9.4835693"><ele>220.0</ele><time>2026-03-31T16:13:50.657Z</time></trkpt><trkpt lat="45.6497054" lon="9.4836356"><ele>220.0</ele><time>2026-03-31T16:13:51.657Z</time></trkpt><trkpt lat="45.6496067" lon="9.4836964"><ele>220.0</ele><time>2026-03-31T16:13:52.657Z</time></trkpt><trkpt lat="45.649505" lon="9.4837524"><ele>220.0</ele><time>2026-03-31T16:13:53.657Z</time></trkpt><trkpt lat="45.6494077" lon="9.4838231"><ele>220.0</ele><time>2026-03-31T16:13:54.658Z</time></trkpt><trkpt lat="45.6493118" lon="9.4838888"><ele>220.0</ele><time>2026-03-31T16:13:55.657Z</time></trkpt><trkpt lat="45.6492112" lon="9.4839538"><ele>220.0</ele><time>2026-03-31T16:13:56.657Z</time></trkpt><trkpt lat="45.6491107" lon="9.4840204"><ele>220.0</ele><time>2026-03-31T16:13:57.658Z</time></trkpt><trkpt lat="45.6490114" lon="9.4840847"><ele>220.0</ele><time>2026-03-31T16:13:58.657Z</time></trkpt><trkpt lat="45.6489111" lon="9.48415"><ele>220.0</ele><time>2026-03-31T16:13:59.657Z</time></trkpt><trkpt lat="45.6488124" lon="9.4842129"><ele>220.0</ele><time>2026-03-31T16:14:00.658Z</time></trkpt><trkpt lat="45.6487095" lon="9.4842826"><ele>220.4</ele><time>2026-03-31T16:14:01.658Z</time></trkpt><trkpt lat="45.6486068" lon="9.4843511"><ele>220.8</ele><time>2026-03-31T16:14:02.658Z</time></trkpt><trkpt lat="45.6485059" lon="9.4844117"><ele>221.2</ele><time>2026-03-31T16:14:03.657Z</time></trkpt><trkpt lat="45.648403" lon="9.4844792"><ele>221.6</ele><time>2026-03-31T16:14:04.657Z</time></trkpt><trkpt lat="45.6483044" lon="9.484541"><ele>222.0</ele><time>2026-03-31T16:14:05.657Z</time></trkpt><trkpt lat="45.6482086" lon="9.4846003"><ele>222.2</ele><time>2026-03-31T16:14:06.657Z</time></trkpt><trkpt lat="45.6481194" lon="9.4846606"><ele>222.39999999999998</ele><time>2026-03-31T16:14:07.657Z</time></trkpt><trkpt lat="45.6480306" lon="9.4847085"><ele>222.60000000000002</ele><time>2026-03-31T16:14:08.657Z</time></trkpt><trkpt lat="45.6479524" lon="9.4847721"><ele>222.8</ele><time>2026-03-31T16:14:09.657Z</time></trkpt><trkpt lat="45.6478595" lon="9.4848281"><ele>223.0</ele><time>2026-03-31T16:14:10.658Z</time></trkpt><trkpt lat="45.6477685" lon="9.4848803"><ele>223.0</ele><time>2026-03-31T16:14:11.657Z</time></trkpt><trkpt lat="45.6476807" lon="9.4849429"><ele>223.0</ele><time>2026-03-31T16:14:12.657Z</time></trkpt><trkpt lat="45.6475937" lon="9.4849992"><ele>223.0</ele><time>2026-03-31T16:14:13.658Z</time></trkpt><trkpt lat="45.6475163" lon="9.4850547"><ele>223.0</ele><time>2026-03-31T16:14:14.657Z</time></trkpt><trkpt lat="45.6474489" lon="9.4850976"><ele>223.0</ele><time>2026-03-31T16:14:15.657Z</time></trkpt><trkpt lat="45.647353" lon="9.4851458"><ele>223.0</ele><time>2026-03-31T16:14:17.657Z</time></trkpt><trkpt lat="45.6472903" lon="9.4850568"><ele>223.0</ele><time>2026-03-31T16:14:20.658Z</time></trkpt><trkpt lat="45.6472009" lon="9.485062"><ele>223.0</ele><time>2026-03-31T16:14:22.658Z</time></trkpt><trkpt lat="45.6471273" lon="9.4852127"><ele>223.0</ele><time>2026-03-31T16:14:24.657Z</time></trkpt><trkpt lat="45.6470897" lon="9.4852956"><ele>223.0</ele><time>2026-03-31T16:14:25.658Z</time></trkpt><trkpt lat="45.6470265" lon="9.4853539"><ele>222.4</ele><time>2026-03-31T16:14:26.657Z</time></trkpt><trkpt lat="45.6469499" lon="9.4854012"><ele>221.8</ele><time>2026-03-31T16:14:27.657Z</time></trkpt><trkpt lat="45.6468638" lon="9.485454"><ele>221.2</ele><time>2026-03-31T16:14:28.658Z</time></trkpt><trkpt lat="45.6467739" lon="9.4855153"><ele>220.6</ele><time>2026-03-31T16:14:29.657Z</time></trkpt><trkpt lat="45.6466794" lon="9.4855751"><ele>220.0</ele><time>2026-03-31T16:14:30.658Z</time></trkpt><trkpt lat="45.6465855" lon="9.4856427"><ele>219.5</ele><time>2026-03-31T16:14:31.657Z</time></trkpt><trkpt lat="45.6464839" lon="9.4857198"><ele>219.0</ele><time>2026-03-31T16:14:32.657Z</time></trkpt><trkpt lat="45.6463835" lon="9.4857823"><ele>218.5</ele><time>2026-03-31T16:14:33.657Z</time></trkpt><trkpt lat="45.6462798" lon="9.4858554"><ele>218.0</ele><time>2026-03-31T16:14:34.658Z</time></trkpt><trkpt lat="45.6461786" lon="9.4859267"><ele>218.4</ele><time>2026-03-31T16:14:35.657Z</time></trkpt><trkpt lat="45.646085" lon="9.4859979"><ele>218.8</ele><time>2026-03-31T16:14:36.657Z</time></trkpt><trkpt lat="45.6459837" lon="9.4860751"><ele>219.2</ele><time>2026-03-31T16:14:37.657Z</time></trkpt><trkpt lat="45.645882" lon="9.4861512"><ele>219.6</ele><time>2026-03-31T16:14:38.657Z</time></trkpt><trkpt lat="45.645784" lon="9.4862254"><ele>220.0</ele><time>2026-03-31T16:14:39.657Z</time></trkpt><trkpt lat="45.6456884" lon="9.4862798"><ele>218.6</ele><time>2026-03-31T16:14:40.657Z</time></trkpt><trkpt lat="45.6455932" lon="9.4863352"><ele>217.2</ele><time>2026-03-31T16:14:41.657Z</time></trkpt><trkpt lat="45.6454953" lon="9.4863924"><ele>215.8</ele><time>2026-03-31T16:14:42.657Z</time></trkpt><trkpt lat="45.6453897" lon="9.4864296"><ele>214.4</ele><time>2026-03-31T16:14:43.657Z</time></trkpt><trkpt lat="45.6452812" lon="9.4864511"><ele>213.0</ele><time>2026-03-31T16:14:44.658Z</time></trkpt><trkpt lat="45.645169" lon="9.4864601"><ele>212.5</ele><time>2026-03-31T16:14:45.657Z</time></trkpt><trkpt lat="45.6450549" lon="9.4864705"><ele>212.0</ele><time>2026-03-31T16:14:46.657Z</time></trkpt><trkpt lat="45.6449365" lon="9.4864796"><ele>211.5</ele><time>2026-03-31T16:14:47.658Z</time></trkpt><trkpt lat="45.6448175" lon="9.4864943"><ele>211.0</ele><time>2026-03-31T16:14:48.657Z</time></trkpt><trkpt lat="45.6447007" lon="9.4865148"><ele>211.0</ele><time>2026-03-31T16:14:49.657Z</time></trkpt><trkpt lat="45.6445864" lon="9.486542"><ele>211.0</ele><time>2026-03-31T16:14:50.658Z</time></trkpt><trkpt lat="45.6444784" lon="9.4865668"><ele>211.0</ele><time>2026-03-31T16:14:51.657Z</time></trkpt><trkpt lat="45.644371" lon="9.4865878"><ele>211.0</ele><time>2026-03-31T16:14:52.657Z</time></trkpt><trkpt lat="45.6442598" lon="9.4866057"><ele>211.0</ele><time>2026-03-31T16:14:53.657Z</time></trkpt><trkpt lat="45.6441526" lon="9.486611"><ele>211.4</ele><time>2026-03-31T16:14:54.657Z</time></trkpt><trkpt lat="45.6440495" lon="9.4865994"><ele>211.8</ele><time>2026-03-31T16:14:55.657Z</time></trkpt><trkpt lat="45.6439489" lon="9.4865791"><ele>212.20000000000002</ele><time>2026-03-31T16:14:56.657Z</time></trkpt><trkpt lat="45.6438475" lon="9.4865759"><ele>212.60000000000002</ele><time>2026-03-31T16:14:57.657Z</time></trkpt><trkpt lat="45.6437455" lon="9.486588"><ele>213.0</ele><time>2026-03-31T16:14:58.657Z</time></trkpt><trkpt lat="45.6436513" lon="9.4865994"><ele>213.5</ele><time>2026-03-31T16:14:59.657Z</time></trkpt><trkpt lat="45.6435695" lon="9.4866086"><ele>214.0</ele><time>2026-03-31T16:15:00.657Z</time></trkpt><trkpt lat="45.6434955" lon="9.4865854"><ele>214.5</ele><time>2026-03-31T16:15:01.658Z</time></trkpt><trkpt lat="45.643427" lon="9.4865336"><ele>215.0</ele><time>2026-03-31T16:15:02.657Z</time></trkpt><trkpt lat="45.643356" lon="9.4864728"><ele>215.5</ele><time>2026-03-31T16:15:03.658Z</time></trkpt><trkpt lat="45.6432795" lon="9.4864109"><ele>216.0</ele><time>2026-03-31T16:15:04.657Z</time></trkpt><trkpt lat="45.6431918" lon="9.4863432"><ele>216.0</ele><time>2026-03-31T16:15:05.657Z</time></trkpt><trkpt lat="45.6430893" lon="9.486275"><ele>216.0</ele><time>2026-03-31T16:15:06.657Z</time></trkpt><trkpt lat="45.642976" lon="9.4862106"><ele>216.0</ele><time>2026-03-31T16:15:07.657Z</time></trkpt><trkpt lat="45.6428516" lon="9.4861511"><ele>216.0</ele><time>2026-03-31T16:15:08.658Z</time></trkpt><trkpt lat="45.6427212" lon="9.4860891"><ele>218.75</ele><time>2026-03-31T16:15:09.657Z</time></trkpt><trkpt lat="45.6425999" lon="9.4860252"><ele>221.5</ele><time>2026-03-31T16:15:10.657Z</time></trkpt><trkpt lat="45.6424842" lon="9.4859525"><ele>224.25</ele><time>2026-03-31T16:15:11.657Z</time></trkpt><trkpt lat="45.6423821" lon="9.4858729"><ele>227.0</ele><time>2026-03-31T16:15:12.658Z</time></trkpt><trkpt lat="45.642281" lon="9.4857887"><ele>227.0</ele><time>2026-03-31T16:15:13.657Z</time></trkpt><trkpt lat="45.6421826" lon="9.4856937"><ele>227.0</ele><time>2026-03-31T16:15:14.658Z</time></trkpt><trkpt lat="45.642087" lon="9.4855974"><ele>227.0</ele><time>2026-03-31T16:15:15.657Z</time></trkpt><trkpt lat="45.6419905" lon="9.4854917"><ele>227.0</ele><time>2026-03-31T16:15:16.657Z</time></trkpt><trkpt lat="45.6418982" lon="9.4853862"><ele>227.25</ele><time>2026-03-31T16:15:17.658Z</time></trkpt><trkpt lat="45.6418106" lon="9.4852723"><ele>227.5</ele><time>2026-03-31T16:15:18.657Z</time></trkpt><trkpt lat="45.6417266" lon="9.4851434"><ele>227.75</ele><time>2026-03-31T16:15:19.658Z</time></trkpt><trkpt lat="45.6416491" lon="9.4850061"><ele>228.0</ele><time>2026-03-31T16:15:20.658Z</time></trkpt><trkpt lat="45.641581" lon="9.4848608"><ele>228.0</ele><time>2026-03-31T16:15:21.658Z</time></trkpt><trkpt lat="45.6415162" lon="9.4847126"><ele>228.0</ele><time>2026-03-31T16:15:22.657Z</time></trkpt><trkpt lat="45.6414551" lon="9.4845628"><ele>228.0</ele><time>2026-03-31T16:15:23.657Z</time></trkpt><trkpt lat="45.6414" lon="9.4844106"><ele>228.0</ele><time>2026-03-31T16:15:24.657Z</time></trkpt><trkpt lat="45.6413489" lon="9.484254"><ele>228.75</ele><time>2026-03-31T16:15:25.657Z</time></trkpt><trkpt lat="45.6413081" lon="9.4840926"><ele>229.5</ele><time>2026-03-31T16:15:26.658Z</time></trkpt><trkpt lat="45.6412735" lon="9.4839265"><ele>230.25</ele><time>2026-03-31T16:15:27.657Z</time></trkpt><trkpt lat="45.6412426" lon="9.4837669"><ele>231.0</ele><time>2026-03-31T16:15:28.657Z</time></trkpt><trkpt lat="45.6412204" lon="9.4836203"><ele>231.0</ele><time>2026-03-31T16:15:29.657Z</time></trkpt><trkpt lat="45.6411975" lon="9.4834964"><ele>231.0</ele><time>2026-03-31T16:15:30.657Z</time></trkpt><trkpt lat="45.641188" lon="9.4833987"><ele>231.0</ele><time>2026-03-31T16:15:31.658Z</time></trkpt><trkpt lat="45.6411713" lon="9.4832793"><ele>231.0</ele><time>2026-03-31T16:15:33.657Z</time></trkpt><trkpt lat="45.6411308" lon="9.4831946"><ele>231.0</ele><time>2026-03-31T16:15:36.657Z</time></trkpt><trkpt lat="45.6410305" lon="9.4832386"><ele>231.0</ele><time>2026-03-31T16:15:38.657Z</time></trkpt><trkpt lat="45.640961" lon="9.4832663"><ele>230.60000000000002</ele><time>2026-03-31T16:15:39.658Z</time></trkpt><trkpt lat="45.6408787" lon="9.4832816"><ele>230.20000000000002</ele><time>2026-03-31T16:15:40.657Z</time></trkpt><trkpt lat="45.6407871" lon="9.4833001"><ele>229.79999999999998</ele><time>2026-03-31T16:15:41.657Z</time></trkpt><trkpt lat="45.6406885" lon="9.4833189"><ele>229.39999999999998</ele><time>2026-03-31T16:15:42.658Z</time></trkpt><trkpt lat="45.6405831" lon="9.4833402"><ele>229.0</ele><time>2026-03-31T16:15:43.657Z</time></trkpt><trkpt lat="45.6404744" lon="9.4833648"><ele>229.0</ele><time>2026-03-31T16:15:44.658Z</time></trkpt><trkpt lat="45.6403626" lon="9.4833871"><ele>229.0</ele><time>2026-03-31T16:15:45.657Z</time></trkpt><trkpt lat="45.640248" lon="9.4834177"><ele>229.0</ele><time>2026-03-31T16:15:46.657Z</time></trkpt><trkpt lat="45.6401366" lon="9.4834459"><ele>229.0</ele><time>2026-03-31T16:15:47.657Z</time></trkpt><trkpt lat="45.6400311" lon="9.4834763"><ele>228.99999999999997</ele><time>2026-03-31T16:15:48.658Z</time></trkpt><trkpt lat="45.6399309" lon="9.483505"><ele>229.0</ele><time>2026-03-31T16:15:49.657Z</time></trkpt><trkpt lat="45.639835" lon="9.4835287"><ele>229.0</ele><time>2026-03-31T16:15:50.657Z</time></trkpt><trkpt lat="45.6397483" lon="9.4835517"><ele>229.0</ele><time>2026-03-31T16:15:51.658Z</time></trkpt><trkpt lat="45.6396739" lon="9.4835658"><ele>228.99999999999997</ele><time>2026-03-31T16:15:52.657Z</time></trkpt><trkpt lat="45.6396093" lon="9.483557"><ele>229.0</ele><time>2026-03-31T16:15:54.658Z</time></trkpt><trkpt lat="45.6396006" lon="9.4834627"><ele>229.0</ele><time>2026-03-31T16:15:55.658Z</time></trkpt><trkpt lat="45.6395863" lon="9.4833339"><ele>228.99999999999997</ele><time>2026-03-31T16:15:56.657Z</time></trkpt><trkpt lat="45.6395689" lon="9.4831992"><ele>228.99999999999997</ele><time>2026-03-31T16:15:57.658Z</time></trkpt><trkpt lat="45.6395584" lon="9.4830503"><ele>229.0</ele><time>2026-03-31T16:15:58.657Z</time></trkpt><trkpt lat="45.6395348" lon="9.4828941"><ele>229.0</ele><time>2026-03-31T16:15:59.658Z</time></trkpt><trkpt lat="45.6395163" lon="9.4827289"><ele>229.0</ele><time>2026-03-31T16:16:00.657Z</time></trkpt><trkpt lat="45.6394957" lon="9.4825602"><ele>229.0</ele><time>2026-03-31T16:16:01.657Z</time></trkpt><trkpt lat="45.6394714" lon="9.4823895"><ele>229.0</ele><time>2026-03-31T16:16:02.657Z</time></trkpt><trkpt lat="45.6394499" lon="9.4822173"><ele>229.0</ele><time>2026-03-31T16:16:03.657Z</time></trkpt><trkpt lat="45.6394275" lon="9.4820431"><ele>229.5</ele><time>2026-03-31T16:16:04.657Z</time></trkpt><trkpt lat="45.6394018" lon="9.4818649"><ele>230.0</ele><time>2026-03-31T16:16:05.658Z</time></trkpt><trkpt lat="45.6393747" lon="9.4816856"><ele>230.5</ele><time>2026-03-31T16:16:06.658Z</time></trkpt><trkpt lat="45.6393543" lon="9.4815171"><ele>231.0</ele><time>2026-03-31T16:16:07.657Z</time></trkpt><trkpt lat="45.6393293" lon="9.481359"><ele>230.60000000000002</ele><time>2026-03-31T16:16:08.657Z</time></trkpt><trkpt lat="45.6393136" lon="9.4812169"><ele>230.20000000000002</ele><time>2026-03-31T16:16:09.657Z</time></trkpt><trkpt lat="45.6393054" lon="9.4810778"><ele>229.79999999999998</ele><time>2026-03-31T16:16:10.658Z</time></trkpt><trkpt lat="45.6392947" lon="9.480937"><ele>229.39999999999998</ele><time>2026-03-31T16:16:11.658Z</time></trkpt><trkpt lat="45.6392828" lon="9.4807926"><ele>229.0</ele><time>2026-03-31T16:16:12.657Z</time></trkpt><trkpt lat="45.6392711" lon="9.4806464"><ele>229.0</ele><time>2026-03-31T16:16:13.657Z</time></trkpt><trkpt lat="45.6392589" lon="9.4805072"><ele>228.99999999999997</ele><time>2026-03-31T16:16:14.658Z</time></trkpt><trkpt lat="45.639246" lon="9.480382"><ele>228.99999999999997</ele><time>2026-03-31T16:16:15.658Z</time></trkpt><trkpt lat="45.6392311" lon="9.4802785"><ele>229.0</ele><time>2026-03-31T16:16:16.657Z</time></trkpt><trkpt lat="45.6391619" lon="9.4801528"><ele>229.0</ele><time>2026-03-31T16:16:18.657Z</time></trkpt><trkpt lat="45.6390242" lon="9.4801219"><ele>229.0</ele><time>2026-03-31T16:16:20.658Z</time></trkpt><trkpt lat="45.6389315" lon="9.4801304"><ele>228.99999999999997</ele><time>2026-03-31T16:16:21.657Z</time></trkpt><trkpt lat="45.6388295" lon="9.4801422"><ele>228.99999999999997</ele><time>2026-03-31T16:16:22.657Z</time></trkpt><trkpt lat="45.6387246" lon="9.4801485"><ele>229.0</ele><time>2026-03-31T16:16:23.657Z</time></trkpt><trkpt lat="45.638616" lon="9.4801601"><ele>229.0</ele><time>2026-03-31T16:16:24.657Z</time></trkpt><trkpt lat="45.6385056" lon="9.4801718"><ele>229.2</ele><time>2026-03-31T16:16:25.657Z</time></trkpt><trkpt lat="45.638397" lon="9.4801846"><ele>229.39999999999998</ele><time>2026-03-31T16:16:26.657Z</time></trkpt><trkpt lat="45.6382901" lon="9.4802004"><ele>229.6</ele><time>2026-03-31T16:16:27.658Z</time></trkpt><trkpt lat="45.6381834" lon="9.4802124"><ele>229.8</ele><time>2026-03-31T16:16:28.657Z</time></trkpt><trkpt lat="45.6380804" lon="9.4802238"><ele>230.0</ele><time>2026-03-31T16:16:29.658Z</time></trkpt><trkpt lat="45.6379792" lon="9.480231"><ele>230.0</ele><time>2026-03-31T16:16:30.657Z</time></trkpt><trkpt lat="45.6378786" lon="9.4802439"><ele>230.0</ele><time>2026-03-31T16:16:31.657Z</time></trkpt><trkpt lat="45.6377782" lon="9.4802592"><ele>230.0</ele><time>2026-03-31T16:16:32.658Z</time></trkpt><trkpt lat="45.6376746" lon="9.4802714"><ele>230.0</ele><time>2026-03-31T16:16:33.657Z</time></trkpt><trkpt lat="45.6375691" lon="9.4802855"><ele>230.0</ele><time>2026-03-31T16:16:34.657Z</time></trkpt><trkpt lat="45.6374663" lon="9.4803027"><ele>229.83333333333334</ele><time>2026-03-31T16:16:35.657Z</time></trkpt><trkpt lat="45.6373733" lon="9.4803193"><ele>229.66666666666669</ele><time>2026-03-31T16:16:36.657Z</time></trkpt><trkpt lat="45.6372903" lon="9.4803253"><ele>229.5</ele><time>2026-03-31T16:16:37.657Z</time></trkpt><trkpt lat="45.6372156" lon="9.4803203"><ele>229.33333333333331</ele><time>2026-03-31T16:16:38.657Z</time></trkpt><trkpt lat="45.6371552" lon="9.4802942"><ele>229.16666666666666</ele><time>2026-03-31T16:16:39.657Z</time></trkpt><trkpt lat="45.6370708" lon="9.4801809"><ele>229.0</ele><time>2026-03-31T16:16:41.657Z</time></trkpt><trkpt lat="45.6370597" lon="9.4800076"><ele>228.99999999999997</ele><time>2026-03-31T16:16:43.658Z</time></trkpt><trkpt lat="45.6370735" lon="9.4798976"><ele>229.0</ele><time>2026-03-31T16:16:44.658Z</time></trkpt><trkpt lat="45.6371018" lon="9.4797775"><ele>229.0</ele><time>2026-03-31T16:16:45.657Z</time></trkpt><trkpt lat="45.6371264" lon="9.4796557"><ele>229.0</ele><time>2026-03-31T16:16:46.658Z</time></trkpt><trkpt lat="45.6371506" lon="9.4795468"><ele>228.99999999999997</ele><time>2026-03-31T16:16:47.658Z</time></trkpt><trkpt lat="45.6371655" lon="9.4794487"><ele>229.0</ele><time>2026-03-31T16:16:48.657Z</time></trkpt><trkpt lat="45.6371563" lon="9.4793002"><ele>228.83333333333331</ele><time>2026-03-31T16:16:50.657Z</time></trkpt><trkpt lat="45.6370785" lon="9.4792074"><ele>228.66666666666666</ele><time>2026-03-31T16:16:52.657Z</time></trkpt><trkpt lat="45.6370138" lon="9.4791768"><ele>228.5</ele><time>2026-03-31T16:16:53.658Z</time></trkpt><trkpt lat="45.636945" lon="9.4791334"><ele>228.33333333333331</ele><time>2026-03-31T16:16:54.658Z</time></trkpt><trkpt lat="45.6368659" lon="9.4790905"><ele>228.16666666666666</ele><time>2026-03-31T16:16:55.657Z</time></trkpt><trkpt lat="45.6367831" lon="9.4790475"><ele>228.0</ele><time>2026-03-31T16:16:56.658Z</time></trkpt><trkpt lat="45.6366984" lon="9.4790078"><ele>228.0</ele><time>2026-03-31T16:16:57.657Z</time></trkpt><trkpt lat="45.6366109" lon="9.4789726"><ele>228.0</ele><time>2026-03-31T16:16:58.657Z</time></trkpt><trkpt lat="45.6365282" lon="9.4789383"><ele>228.0</ele><time>2026-03-31T16:16:59.657Z</time></trkpt><trkpt lat="45.6364525" lon="9.4788968"><ele>228.0</ele><time>2026-03-31T16:17:00.657Z</time></trkpt><trkpt lat="45.6363776" lon="9.4788503"><ele>228.0</ele><time>2026-03-31T16:17:01.657Z</time></trkpt><trkpt lat="45.6363033" lon="9.4787967"><ele>228.0</ele><time>2026-03-31T16:17:02.658Z</time></trkpt><trkpt lat="45.6362267" lon="9.4787433"><ele>227.66666666666666</ele><time>2026-03-31T16:17:03.657Z</time></trkpt><trkpt lat="45.6361477" lon="9.4786922"><ele>227.33333333333331</ele><time>2026-03-31T16:17:04.657Z</time></trkpt><trkpt lat="45.6360671" lon="9.4786465"><ele>227.0</ele><time>2026-03-31T16:17:05.658Z</time></trkpt><trkpt lat="45.6359895" lon="9.4786081"><ele>226.66666666666666</ele><time>2026-03-31T16:17:06.657Z</time></trkpt><trkpt lat="45.6359185" lon="9.478573"><ele>226.33333333333331</ele><time>2026-03-31T16:17:07.658Z</time></trkpt><trkpt lat="45.6358605" lon="9.4785365"><ele>226.0</ele><time>2026-03-31T16:17:08.657Z</time></trkpt><trkpt lat="45.6357833" lon="9.478422"><ele>225.85714285714286</ele><time>2026-03-31T16:17:10.657Z</time></trkpt><trkpt lat="45.6357452" lon="9.4783474"><ele>225.71428571428572</ele><time>2026-03-31T16:17:11.658Z</time></trkpt><trkpt lat="45.6357102" lon="9.4782703"><ele>225.57142857142858</ele><time>2026-03-31T16:17:12.657Z</time></trkpt><trkpt lat="45.6356723" lon="9.4781918"><ele>225.42857142857144</ele><time>2026-03-31T16:17:13.657Z</time></trkpt><trkpt lat="45.6356155" lon="9.4781219"><ele>225.28571428571428</ele><time>2026-03-31T16:17:14.658Z</time></trkpt><trkpt lat="45.6355438" lon="9.4780489"><ele>225.14285714285717</ele><time>2026-03-31T16:17:15.657Z</time></trkpt><trkpt lat="45.6354755" lon="9.4779733"><ele>225.00000000000003</ele><time>2026-03-31T16:17:16.657Z</time></trkpt><trkpt lat="45.6354158" lon="9.4779073"><ele>225.4</ele><time>2026-03-31T16:17:17.657Z</time></trkpt><trkpt lat="45.6353549" lon="9.4778438"><ele>225.8</ele><time>2026-03-31T16:17:18.658Z</time></trkpt><trkpt lat="45.6353012" lon="9.4777798"><ele>226.2</ele><time>2026-03-31T16:17:19.657Z</time></trkpt><trkpt lat="45.6352458" lon="9.4776408"><ele>226.6</ele><time>2026-03-31T16:17:21.657Z</time></trkpt><trkpt lat="45.6352238" lon="9.4774683"><ele>227.0</ele><time>2026-03-31T16:17:23.657Z</time></trkpt><trkpt lat="45.6351877" lon="9.4773733"><ele>227.00000000000003</ele><time>2026-03-31T16:17:24.657Z</time></trkpt><trkpt lat="45.6351436" lon="9.4772741"><ele>227.0</ele><time>2026-03-31T16:17:25.658Z</time></trkpt><trkpt lat="45.6350907" lon="9.4771664"><ele>227.0</ele><time>2026-03-31T16:17:26.657Z</time></trkpt><trkpt lat="45.6350363" lon="9.477063"><ele>227.0</ele><time>2026-03-31T16:17:27.657Z</time></trkpt><trkpt lat="45.6349813" lon="9.4769641"><ele>227.00000000000003</ele><time>2026-03-31T16:17:28.657Z</time></trkpt><trkpt lat="45.6349139" lon="9.4768684"><ele>227.0</ele><time>2026-03-31T16:17:29.658Z</time></trkpt><trkpt lat="45.6348389" lon="9.4767874"><ele>227.0</ele><time>2026-03-31T16:17:30.658Z</time></trkpt><trkpt lat="45.6347595" lon="9.4767162"><ele>227.0</ele><time>2026-03-31T16:17:31.657Z</time></trkpt><trkpt lat="45.6346726" lon="9.4766489"><ele>227.0</ele><time>2026-03-31T16:17:32.657Z</time></trkpt><trkpt lat="45.6345968" lon="9.476591"><ele>227.0</ele><time>2026-03-31T16:17:33.658Z</time></trkpt><trkpt lat="45.6345234" lon="9.4765316"><ele>227.0</ele><time>2026-03-31T16:17:34.657Z</time></trkpt><trkpt lat="45.634449" lon="9.4764676"><ele>227.00000000000003</ele><time>2026-03-31T16:17:35.657Z</time></trkpt><trkpt lat="45.6343723" lon="9.4764033"><ele>227.0</ele><time>2026-03-31T16:17:36.657Z</time></trkpt><trkpt lat="45.6342958" lon="9.476337"><ele>227.0</ele><time>2026-03-31T16:17:37.657Z</time></trkpt><trkpt lat="45.6342267" lon="9.4762709"><ele>227.0</ele><time>2026-03-31T16:17:38.657Z</time></trkpt><trkpt lat="45.6341651" lon="9.4762091"><ele>227.00000000000003</ele><time>2026-03-31T16:17:39.657Z</time></trkpt><trkpt lat="45.6341087" lon="9.4761513"><ele>227.0</ele><time>2026-03-31T16:17:40.657Z</time></trkpt><trkpt lat="45.634058" lon="9.4760947"><ele>227.16666666666669</ele><time>2026-03-31T16:17:41.658Z</time></trkpt><trkpt lat="45.6339741" lon="9.4759815"><ele>227.33333333333334</ele><time>2026-03-31T16:17:43.658Z</time></trkpt><trkpt lat="45.6338926" lon="9.4758656"><ele>227.5</ele><time>2026-03-31T16:17:45.658Z</time></trkpt><trkpt lat="45.6338516" lon="9.4757954"><ele>227.66666666666669</ele><time>2026-03-31T16:17:46.657Z</time></trkpt><trkpt lat="45.6338042" lon="9.4757222"><ele>227.83333333333334</ele><time>2026-03-31T16:17:47.657Z</time></trkpt><trkpt lat="45.6337559" lon="9.4756523"><ele>228.0</ele><time>2026-03-31T16:17:48.657Z</time></trkpt><trkpt lat="45.6337017" lon="9.4755814"><ele>228.0</ele><time>2026-03-31T16:17:49.658Z</time></trkpt><trkpt lat="45.6336527" lon="9.4755061"><ele>228.0</ele><time>2026-03-31T16:17:50.657Z</time></trkpt><trkpt lat="45.6336039" lon="9.4754318"><ele>228.0</ele><time>2026-03-31T16:17:51.657Z</time></trkpt><trkpt lat="45.6335582" lon="9.4753454"><ele>228.0</ele><time>2026-03-31T16:17:52.657Z</time></trkpt><trkpt lat="45.6335111" lon="9.4752649"><ele>228.0</ele><time>2026-03-31T16:17:53.657Z</time></trkpt><trkpt lat="45.6334529" lon="9.4751439"><ele>228.0</ele><time>2026-03-31T16:17:55.657Z</time></trkpt><trkpt lat="45.6334819" lon="9.4749949"><ele>227.66666666666666</ele><time>2026-03-31T16:17:57.657Z</time></trkpt><trkpt lat="45.6335054" lon="9.4748974"><ele>227.33333333333331</ele><time>2026-03-31T16:17:58.657Z</time></trkpt><trkpt lat="45.6335322" lon="9.4747867"><ele>227.0</ele><time>2026-03-31T16:17:59.658Z</time></trkpt><trkpt lat="45.6335662" lon="9.4746698"><ele>226.66666666666666</ele><time>2026-03-31T16:18:00.658Z</time></trkpt><trkpt lat="45.6335942" lon="9.4745563"><ele>226.33333333333331</ele><time>2026-03-31T16:18:01.657Z</time></trkpt><trkpt lat="45.6336254" lon="9.4744439"><ele>226.0</ele><time>2026-03-31T16:18:02.657Z</time></trkpt><trkpt lat="45.6336621" lon="9.4743169"><ele>225.8</ele><time>2026-03-31T16:18:03.657Z</time></trkpt><trkpt lat="45.6336941" lon="9.4741817"><ele>225.60000000000002</ele><time>2026-03-31T16:18:04.657Z</time></trkpt><trkpt lat="45.6337227" lon="9.4740622"><ele>225.4</ele><time>2026-03-31T16:18:05.657Z</time></trkpt><trkpt lat="45.6337571" lon="9.4739235"><ele>225.2</ele><time>2026-03-31T16:18:06.657Z</time></trkpt><trkpt lat="45.6337888" lon="9.473791"><ele>225.0</ele><time>2026-03-31T16:18:07.657Z</time></trkpt><trkpt lat="45.6338224" lon="9.4736562"><ele>225.6</ele><time>2026-03-31T16:18:08.657Z</time></trkpt><trkpt lat="45.6338587" lon="9.4735099"><ele>226.2</ele><time>2026-03-31T16:18:09.657Z</time></trkpt><trkpt lat="45.6338881" lon="9.4733768"><ele>226.8</ele><time>2026-03-31T16:18:10.657Z</time></trkpt><trkpt lat="45.6339164" lon="9.4732348"><ele>227.4</ele><time>2026-03-31T16:18:11.657Z</time></trkpt><trkpt lat="45.6339428" lon="9.4730945"><ele>228.0</ele><time>2026-03-31T16:18:12.657Z</time></trkpt><trkpt lat="45.6339726" lon="9.4729572"><ele>228.0</ele><time>2026-03-31T16:18:13.657Z</time></trkpt><trkpt lat="45.6340041" lon="9.4728328"><ele>228.0</ele><time>2026-03-31T16:18:14.657Z</time></trkpt><trkpt lat="45.634034" lon="9.4727148"><ele>228.0</ele><time>2026-03-31T16:18:15.657Z</time></trkpt><trkpt lat="45.6340588" lon="9.4725945"><ele>228.0</ele><time>2026-03-31T16:18:16.658Z</time></trkpt><trkpt lat="45.6340794" lon="9.4724763"><ele>228.0</ele><time>2026-03-31T16:18:17.657Z</time></trkpt><trkpt lat="45.6341026" lon="9.4723813"><ele>228.0</ele><time>2026-03-31T16:18:18.657Z</time></trkpt><trkpt lat="45.6341441" lon="9.4722415"><ele>228.0</ele><time>2026-03-31T16:18:20.657Z</time></trkpt><trkpt lat="45.6342045" lon="9.4721764"><ele>228.0</ele><time>2026-03-31T16:18:27.658Z</time></trkpt><trkpt lat="45.634273" lon="9.4721285"><ele>228.0</ele><time>2026-03-31T16:18:28.658Z</time></trkpt><trkpt lat="45.6343566" lon="9.4720987"><ele>228.0</ele><time>2026-03-31T16:18:29.657Z</time></trkpt><trkpt lat="45.6344448" lon="9.472066"><ele>228.0</ele><time>2026-03-31T16:18:30.657Z</time></trkpt><trkpt lat="45.6345371" lon="9.4720554"><ele>228.0</ele><time>2026-03-31T16:18:31.657Z</time></trkpt><trkpt lat="45.6346338" lon="9.4720298"><ele>228.2</ele><time>2026-03-31T16:18:32.657Z</time></trkpt><trkpt lat="45.6347364" lon="9.4719893"><ele>228.4</ele><time>2026-03-31T16:18:33.657Z</time></trkpt><trkpt lat="45.63484" lon="9.4719572"><ele>228.59999999999997</ele><time>2026-03-31T16:18:34.657Z</time></trkpt><trkpt lat="45.6349436" lon="9.4719266"><ele>228.79999999999998</ele><time>2026-03-31T16:18:35.657Z</time></trkpt><trkpt lat="45.6350369" lon="9.4718973"><ele>229.0</ele><time>2026-03-31T16:18:36.657Z</time></trkpt><trkpt lat="45.6351275" lon="9.4718756"><ele>229.0</ele><time>2026-03-31T16:18:37.657Z</time></trkpt><trkpt lat="45.6352218" lon="9.4718489"><ele>228.99999999999997</ele><time>2026-03-31T16:18:38.657Z</time></trkpt><trkpt lat="45.6353204" lon="9.4718222"><ele>228.99999999999997</ele><time>2026-03-31T16:18:39.658Z</time></trkpt><trkpt lat="45.6354198" lon="9.4717932"><ele>229.0</ele><time>2026-03-31T16:18:40.658Z</time></trkpt><trkpt lat="45.6355226" lon="9.4717629"><ele>229.0</ele><time>2026-03-31T16:18:41.658Z</time></trkpt><trkpt lat="45.6356269" lon="9.4717335"><ele>229.0</ele><time>2026-03-31T16:18:42.658Z</time></trkpt><trkpt lat="45.6357314" lon="9.471704"><ele>228.99999999999997</ele><time>2026-03-31T16:18:43.657Z</time></trkpt><trkpt lat="45.6358356" lon="9.471674"><ele>228.99999999999997</ele><time>2026-03-31T16:18:44.657Z</time></trkpt><trkpt lat="45.6359484" lon="9.4716409"><ele>229.0</ele><time>2026-03-31T16:18:45.657Z</time></trkpt><trkpt lat="45.6360589" lon="9.4716071"><ele>229.0</ele><time>2026-03-31T16:18:46.657Z</time></trkpt><trkpt lat="45.6361707" lon="9.4715737"><ele>229.0</ele><time>2026-03-31T16:18:47.657Z</time></trkpt><trkpt lat="45.6362785" lon="9.4715408"><ele>228.99999999999997</ele><time>2026-03-31T16:18:48.658Z</time></trkpt><trkpt lat="45.6363804" lon="9.4715093"><ele>228.99999999999997</ele><time>2026-03-31T16:18:49.657Z</time></trkpt><trkpt lat="45.6364828" lon="9.4714752"><ele>229.0</ele><time>2026-03-31T16:18:50.657Z</time></trkpt><trkpt lat="45.6365819" lon="9.471439"><ele>229.0</ele><time>2026-03-31T16:18:51.657Z</time></trkpt><trkpt lat="45.6366814" lon="9.4714076"><ele>229.0</ele><time>2026-03-31T16:18:52.658Z</time></trkpt><trkpt lat="45.6367797" lon="9.4713769"><ele>228.99999999999997</ele><time>2026-03-31T16:18:53.658Z</time></trkpt><trkpt lat="45.6368766" lon="9.4713462"><ele>228.99999999999997</ele><time>2026-03-31T16:18:54.658Z</time></trkpt><trkpt lat="45.6369725" lon="9.4713121"><ele>229.0</ele><time>2026-03-31T16:18:55.657Z</time></trkpt><trkpt lat="45.6370693" lon="9.4712792"><ele>229.0</ele><time>2026-03-31T16:18:56.657Z</time></trkpt><trkpt lat="45.6371672" lon="9.4712492"><ele>229.0</ele><time>2026-03-31T16:18:57.657Z</time></trkpt><trkpt lat="45.6372639" lon="9.4712175"><ele>228.99999999999997</ele><time>2026-03-31T16:18:58.657Z</time></trkpt><trkpt lat="45.6373619" lon="9.4711858"><ele>228.99999999999997</ele><time>2026-03-31T16:18:59.657Z</time></trkpt><trkpt lat="45.6374616" lon="9.4711587"><ele>229.0</ele><time>2026-03-31T16:19:00.657Z</time></trkpt><trkpt lat="45.6375613" lon="9.4711296"><ele>229.0</ele><time>2026-03-31T16:19:01.657Z</time></trkpt><trkpt lat="45.6376632" lon="9.4710983"><ele>229.0</ele><time>2026-03-31T16:19:02.657Z</time></trkpt><trkpt lat="45.6377687" lon="9.4710649"><ele>228.99999999999997</ele><time>2026-03-31T16:19:03.657Z</time></trkpt><trkpt lat="45.6378706" lon="9.4710335"><ele>228.99999999999997</ele><time>2026-03-31T16:19:04.657Z</time></trkpt><trkpt lat="45.6379743" lon="9.4710048"><ele>229.0</ele><time>2026-03-31T16:19:05.657Z</time></trkpt><trkpt lat="45.6380807" lon="9.4709746"><ele>229.0</ele><time>2026-03-31T16:19:06.657Z</time></trkpt><trkpt lat="45.6381913" lon="9.4709391"><ele>229.2</ele><time>2026-03-31T16:19:07.657Z</time></trkpt><trkpt lat="45.6382945" lon="9.4709078"><ele>229.39999999999998</ele><time>2026-03-31T16:19:08.658Z</time></trkpt><trkpt lat="45.6383985" lon="9.4708752"><ele>229.6</ele><time>2026-03-31T16:19:09.657Z</time></trkpt><trkpt lat="45.6385026" lon="9.470846"><ele>229.8</ele><time>2026-03-31T16:19:10.657Z</time></trkpt><trkpt lat="45.6386078" lon="9.4708083"><ele>230.0</ele><time>2026-03-31T16:19:11.657Z</time></trkpt><trkpt lat="45.6387097" lon="9.4707774"><ele>230.00000000000003</ele><time>2026-03-31T16:19:12.657Z</time></trkpt><trkpt lat="45.6388042" lon="9.4707527"><ele>230.0</ele><time>2026-03-31T16:19:13.657Z</time></trkpt><trkpt lat="45.6388843" lon="9.4707336"><ele>230.0</ele><time>2026-03-31T16:19:14.658Z</time></trkpt><trkpt lat="45.6389478" lon="9.4707241"><ele>230.0</ele><time>2026-03-31T16:19:15.658Z</time></trkpt><trkpt lat="45.6390227" lon="9.470719"><ele>230.00000000000003</ele><time>2026-03-31T16:19:17.658Z</time></trkpt><trkpt lat="45.6390948" lon="9.4707525"><ele>230.0</ele><time>2026-03-31T16:19:27.657Z</time></trkpt><trkpt lat="45.63917" lon="9.4707652"><ele>229.99999999999997</ele><time>2026-03-31T16:19:28.657Z</time></trkpt><trkpt lat="45.6392391" lon="9.4707595"><ele>230.0</ele><time>2026-03-31T16:19:29.657Z</time></trkpt><trkpt lat="45.6393054" lon="9.470725"><ele>229.99999999999997</ele><time>2026-03-31T16:19:30.658Z</time></trkpt><trkpt lat="45.6393553" lon="9.4706639"><ele>229.99999999999997</ele><time>2026-03-31T16:19:31.657Z</time></trkpt><trkpt lat="45.639387" lon="9.47058"><ele>230.0</ele><time>2026-03-31T16:19:32.657Z</time></trkpt><trkpt lat="45.6393949" lon="9.4704769"><ele>229.99999999999997</ele><time>2026-03-31T16:19:33.657Z</time></trkpt><trkpt lat="45.6393699" lon="9.4703732"><ele>229.99999999999997</ele><time>2026-03-31T16:19:34.657Z</time></trkpt><trkpt lat="45.6393171" lon="9.4702723"><ele>230.2</ele><time>2026-03-31T16:19:35.657Z</time></trkpt><trkpt lat="45.6392488" lon="9.4701819"><ele>230.4</ele><time>2026-03-31T16:19:36.658Z</time></trkpt><trkpt lat="45.6391747" lon="9.4700905"><ele>230.60000000000002</ele><time>2026-03-31T16:19:37.657Z</time></trkpt><trkpt lat="45.6391041" lon="9.4699874"><ele>230.8</ele><time>2026-03-31T16:19:38.657Z</time></trkpt><trkpt lat="45.6390352" lon="9.4698749"><ele>231.0</ele><time>2026-03-31T16:19:39.658Z</time></trkpt><trkpt lat="45.6389727" lon="9.469751"><ele>231.0</ele><time>2026-03-31T16:19:40.657Z</time></trkpt><trkpt lat="45.6389135" lon="9.4696248"><ele>231.00000000000003</ele><time>2026-03-31T16:19:41.657Z</time></trkpt><trkpt lat="45.6388511" lon="9.4694973"><ele>231.00000000000003</ele><time>2026-03-31T16:19:42.657Z</time></trkpt><trkpt lat="45.6387868" lon="9.4693683"><ele>231.0</ele><time>2026-03-31T16:19:43.658Z</time></trkpt><trkpt lat="45.6387217" lon="9.4692344"><ele>231.0</ele><time>2026-03-31T16:19:44.657Z</time></trkpt><trkpt lat="45.6386538" lon="9.4690951"><ele>231.0</ele><time>2026-03-31T16:19:45.657Z</time></trkpt><trkpt lat="45.6385859" lon="9.4689537"><ele>231.0</ele><time>2026-03-31T16:19:46.657Z</time></trkpt><trkpt lat="45.6385106" lon="9.4688135"><ele>231.0</ele><time>2026-03-31T16:19:47.657Z</time></trkpt><trkpt lat="45.6384396" lon="9.4686791"><ele>231.0</ele><time>2026-03-31T16:19:48.658Z</time></trkpt><trkpt lat="45.6383709" lon="9.4685467"><ele>231.0</ele><time>2026-03-31T16:19:49.657Z</time></trkpt><trkpt lat="45.6382984" lon="9.4684154"><ele>231.0</ele><time>2026-03-31T16:19:50.657Z</time></trkpt><trkpt lat="45.6382121" lon="9.4682961"><ele>231.0</ele><time>2026-03-31T16:19:51.657Z</time></trkpt><trkpt lat="45.6381178" lon="9.4681897"><ele>231.0</ele><time>2026-03-31T16:19:52.657Z</time></trkpt><trkpt lat="45.6380066" lon="9.4680971"><ele>231.0</ele><time>2026-03-31T16:19:53.658Z</time></trkpt><trkpt lat="45.6378946" lon="9.4680179"><ele>231.0</ele><time>2026-03-31T16:19:54.658Z</time></trkpt><trkpt lat="45.6377754" lon="9.4679483"><ele>231.0</ele><time>2026-03-31T16:19:55.657Z</time></trkpt><trkpt lat="45.6376434" lon="9.4678914"><ele>231.0</ele><time>2026-03-31T16:19:56.657Z</time></trkpt><trkpt lat="45.6375161" lon="9.4678343"><ele>230.75</ele><time>2026-03-31T16:19:57.657Z</time></trkpt><trkpt lat="45.6373886" lon="9.4677766"><ele>230.5</ele><time>2026-03-31T16:19:58.657Z</time></trkpt><trkpt lat="45.6372627" lon="9.4677116"><ele>230.25</ele><time>2026-03-31T16:19:59.658Z</time></trkpt><trkpt lat="45.6371324" lon="9.4676508"><ele>230.0</ele><time>2026-03-31T16:20:00.657Z</time></trkpt><trkpt lat="45.6369998" lon="9.4675859"><ele>230.25</ele><time>2026-03-31T16:20:01.658Z</time></trkpt><trkpt lat="45.6368741" lon="9.4675144"><ele>230.5</ele><time>2026-03-31T16:20:02.657Z</time></trkpt><trkpt lat="45.6367541" lon="9.4674443"><ele>230.75</ele><time>2026-03-31T16:20:03.658Z</time></trkpt><trkpt lat="45.6366422" lon="9.4673586"><ele>231.0</ele><time>2026-03-31T16:20:04.657Z</time></trkpt><trkpt lat="45.6365324" lon="9.4672606"><ele>231.0</ele><time>2026-03-31T16:20:05.657Z</time></trkpt><trkpt lat="45.636432" lon="9.4671538"><ele>231.0</ele><time>2026-03-31T16:20:06.657Z</time></trkpt><trkpt lat="45.6363348" lon="9.4670371"><ele>231.0</ele><time>2026-03-31T16:20:07.657Z</time></trkpt><trkpt lat="45.6362436" lon="9.4669088"><ele>231.0</ele><time>2026-03-31T16:20:08.658Z</time></trkpt><trkpt lat="45.6361613" lon="9.4667725"><ele>230.75</ele><time>2026-03-31T16:20:09.657Z</time></trkpt><trkpt lat="45.6360838" lon="9.4666279"><ele>230.5</ele><time>2026-03-31T16:20:10.657Z</time></trkpt><trkpt lat="45.6360123" lon="9.4664731"><ele>230.25</ele><time>2026-03-31T16:20:11.658Z</time></trkpt><trkpt lat="45.6359472" lon="9.4663115"><ele>230.0</ele><time>2026-03-31T16:20:12.657Z</time></trkpt><trkpt lat="45.6358937" lon="9.4661435"><ele>230.0</ele><time>2026-03-31T16:20:13.657Z</time></trkpt><trkpt lat="45.635849" lon="9.4659713"><ele>230.0</ele><time>2026-03-31T16:20:14.657Z</time></trkpt><trkpt lat="45.6358108" lon="9.465794"><ele>230.0</ele><time>2026-03-31T16:20:15.657Z</time></trkpt><trkpt lat="45.6357799" lon="9.4656142"><ele>230.0</ele><time>2026-03-31T16:20:16.658Z</time></trkpt><trkpt lat="45.6357547" lon="9.4654341"><ele>230.0</ele><time>2026-03-31T16:20:17.657Z</time></trkpt><trkpt lat="45.6357382" lon="9.4652524"><ele>230.0</ele><time>2026-03-31T16:20:18.658Z</time></trkpt><trkpt lat="45.635715" lon="9.4650695"><ele>230.0</ele><time>2026-03-31T16:20:19.657Z</time></trkpt><trkpt lat="45.6356924" lon="9.4648896"><ele>230.0</ele><time>2026-03-31T16:20:20.657Z</time></trkpt><trkpt lat="45.6356678" lon="9.4646996"><ele>229.75</ele><time>2026-03-31T16:20:21.657Z</time></trkpt><trkpt lat="45.6356493" lon="9.464513"><ele>229.5</ele><time>2026-03-31T16:20:22.657Z</time></trkpt><trkpt lat="45.6356258" lon="9.4643186"><ele>229.25</ele><time>2026-03-31T16:20:23.658Z</time></trkpt><trkpt lat="45.635604" lon="9.4641304"><ele>229.0</ele><time>2026-03-31T16:20:24.658Z</time></trkpt><trkpt lat="45.6355818" lon="9.4639405"><ele>229.25</ele><time>2026-03-31T16:20:25.657Z</time></trkpt><trkpt lat="45.635563" lon="9.4637496"><ele>229.5</ele><time>2026-03-31T16:20:26.658Z</time></trkpt><trkpt lat="45.6355416" lon="9.4635625"><ele>229.75</ele><time>2026-03-31T16:20:27.657Z</time></trkpt><trkpt lat="45.6355143" lon="9.4633787"><ele>230.0</ele><time>2026-03-31T16:20:28.657Z</time></trkpt><trkpt lat="45.6354823" lon="9.4632088"><ele>230.0</ele><time>2026-03-31T16:20:29.657Z</time></trkpt><trkpt lat="45.6354403" lon="9.4630469"><ele>230.0</ele><time>2026-03-31T16:20:30.657Z</time></trkpt><trkpt lat="45.635387" lon="9.4628985"><ele>230.0</ele><time>2026-03-31T16:20:31.657Z</time></trkpt><trkpt lat="45.6353204" lon="9.4627585"><ele>230.0</ele><time>2026-03-31T16:20:32.657Z</time></trkpt><trkpt lat="45.6352406" lon="9.4626331"><ele>229.5</ele><time>2026-03-31T16:20:33.657Z</time></trkpt><trkpt lat="45.63515" lon="9.4625204"><ele>229.0</ele><time>2026-03-31T16:20:34.657Z</time></trkpt><trkpt lat="45.635047" lon="9.462424"><ele>228.5</ele><time>2026-03-31T16:20:35.658Z</time></trkpt><trkpt lat="45.6349343" lon="9.46234"><ele>228.0</ele><time>2026-03-31T16:20:36.657Z</time></trkpt><trkpt lat="45.6348133" lon="9.4622615"><ele>228.0</ele><time>2026-03-31T16:20:37.657Z</time></trkpt><trkpt lat="45.6346855" lon="9.4621868"><ele>228.0</ele><time>2026-03-31T16:20:38.657Z</time></trkpt><trkpt lat="45.6345626" lon="9.4621195"><ele>228.0</ele><time>2026-03-31T16:20:39.657Z</time></trkpt><trkpt lat="45.6344428" lon="9.4620574"><ele>228.0</ele><time>2026-03-31T16:20:40.657Z</time></trkpt><trkpt lat="45.6343286" lon="9.4619999"><ele>227.60000000000002</ele><time>2026-03-31T16:20:41.657Z</time></trkpt><trkpt lat="45.6342186" lon="9.4619429"><ele>227.20000000000002</ele><time>2026-03-31T16:20:42.657Z</time></trkpt><trkpt lat="45.634116" lon="9.4618867"><ele>226.8</ele><time>2026-03-31T16:20:43.657Z</time></trkpt><trkpt lat="45.6340253" lon="9.4618268"><ele>226.4</ele><time>2026-03-31T16:20:44.658Z</time></trkpt><trkpt lat="45.6339517" lon="9.4617582"><ele>226.0</ele><time>2026-03-31T16:20:45.657Z</time></trkpt><trkpt lat="45.6338942" lon="9.4616732"><ele>225.99999999999997</ele><time>2026-03-31T16:20:46.658Z</time></trkpt><trkpt lat="45.6338459" lon="9.4615739"><ele>226.0</ele><time>2026-03-31T16:20:47.657Z</time></trkpt><trkpt lat="45.6338136" lon="9.4614624"><ele>226.0</ele><time>2026-03-31T16:20:48.658Z</time></trkpt><trkpt lat="45.6337951" lon="9.4613415"><ele>226.0</ele><time>2026-03-31T16:20:49.657Z</time></trkpt><trkpt lat="45.6337976" lon="9.4612136"><ele>225.99999999999997</ele><time>2026-03-31T16:20:50.657Z</time></trkpt><trkpt lat="45.6338124" lon="9.4610799"><ele>226.0</ele><time>2026-03-31T16:20:51.658Z</time></trkpt><trkpt lat="45.6338395" lon="9.460942"><ele>226.20000000000002</ele><time>2026-03-31T16:20:52.657Z</time></trkpt><trkpt lat="45.6338723" lon="9.4608013"><ele>226.40000000000003</ele><time>2026-03-31T16:20:53.657Z</time></trkpt><trkpt lat="45.6339082" lon="9.4606561"><ele>226.6</ele><time>2026-03-31T16:20:54.657Z</time></trkpt><trkpt lat="45.6339431" lon="9.4605103"><ele>226.8</ele><time>2026-03-31T16:20:55.657Z</time></trkpt><trkpt lat="45.6339789" lon="9.4603598"><ele>227.0</ele><time>2026-03-31T16:20:56.657Z</time></trkpt><trkpt lat="45.6340215" lon="9.4602127"><ele>227.0</ele><time>2026-03-31T16:20:57.657Z</time></trkpt><trkpt lat="45.634062" lon="9.4600641"><ele>227.0</ele><time>2026-03-31T16:20:58.657Z</time></trkpt><trkpt lat="45.6341062" lon="9.4599124"><ele>227.0</ele><time>2026-03-31T16:20:59.657Z</time></trkpt><trkpt lat="45.6341489" lon="9.4597591"><ele>227.0</ele><time>2026-03-31T16:21:00.658Z</time></trkpt><trkpt lat="45.6341883" lon="9.4596043"><ele>226.75</ele><time>2026-03-31T16:21:01.657Z</time></trkpt><trkpt lat="45.6342265" lon="9.4594421"><ele>226.5</ele><time>2026-03-31T16:21:02.657Z</time></trkpt><trkpt lat="45.6342679" lon="9.4592804"><ele>226.25</ele><time>2026-03-31T16:21:03.658Z</time></trkpt><trkpt lat="45.6343084" lon="9.4591164"><ele>226.0</ele><time>2026-03-31T16:21:04.658Z</time></trkpt><trkpt lat="45.6343525" lon="9.458952"><ele>225.75</ele><time>2026-03-31T16:21:05.657Z</time></trkpt><trkpt lat="45.6343944" lon="9.4587797"><ele>225.5</ele><time>2026-03-31T16:21:06.657Z</time></trkpt><trkpt lat="45.6344377" lon="9.4586068"><ele>225.25</ele><time>2026-03-31T16:21:07.657Z</time></trkpt><trkpt lat="45.6344845" lon="9.4584373"><ele>225.0</ele><time>2026-03-31T16:21:08.657Z</time></trkpt><trkpt lat="45.634526" lon="9.458275"><ele>225.4</ele><time>2026-03-31T16:21:09.657Z</time></trkpt><trkpt lat="45.6345648" lon="9.45813"><ele>225.8</ele><time>2026-03-31T16:21:10.658Z</time></trkpt><trkpt lat="45.6346012" lon="9.4579943"><ele>226.2</ele><time>2026-03-31T16:21:11.657Z</time></trkpt><trkpt lat="45.6346345" lon="9.4578668"><ele>226.6</ele><time>2026-03-31T16:21:12.657Z</time></trkpt><trkpt lat="45.634662" lon="9.4577594"><ele>227.0</ele><time>2026-03-31T16:21:13.657Z</time></trkpt><trkpt lat="45.6347125" lon="9.4576112"><ele>227.0</ele><time>2026-03-31T16:21:15.658Z</time></trkpt><trkpt lat="45.6347424" lon="9.4575303"><ele>227.0</ele><time>2026-03-31T16:21:17.657Z</time></trkpt><trkpt lat="45.6347365" lon="9.4574133"><ele>227.0</ele><time>2026-03-31T16:21:19.657Z</time></trkpt><trkpt lat="45.6346535" lon="9.4573514"><ele>227.0</ele><time>2026-03-31T16:21:21.658Z</time></trkpt><trkpt lat="45.6345472" lon="9.4572967"><ele>227.0</ele><time>2026-03-31T16:21:23.657Z</time></trkpt><trkpt lat="45.6344408" lon="9.4572229"><ele>227.0</ele><time>2026-03-31T16:21:25.657Z</time></trkpt><trkpt lat="45.6343173" lon="9.4571363"><ele>227.0</ele><time>2026-03-31T16:21:27.657Z</time></trkpt><trkpt lat="45.6342457" lon="9.4570778"><ele>227.0</ele><time>2026-03-31T16:21:28.657Z</time></trkpt><trkpt lat="45.6341637" lon="9.4570318"><ele>227.0</ele><time>2026-03-31T16:21:29.658Z</time></trkpt><trkpt lat="45.6340871" lon="9.4569757"><ele>227.0</ele><time>2026-03-31T16:21:30.657Z</time></trkpt><trkpt lat="45.6340069" lon="9.4569239"><ele>227.16666666666669</ele><time>2026-03-31T16:21:31.658Z</time></trkpt><trkpt lat="45.6339249" lon="9.4568714"><ele>227.33333333333334</ele><time>2026-03-31T16:21:32.657Z</time></trkpt><trkpt lat="45.6338456" lon="9.4568135"><ele>227.5</ele><time>2026-03-31T16:21:33.657Z</time></trkpt><trkpt lat="45.6337677" lon="9.4567515"><ele>227.66666666666669</ele><time>2026-03-31T16:21:34.657Z</time></trkpt><trkpt lat="45.6336892" lon="9.4566912"><ele>227.83333333333334</ele><time>2026-03-31T16:21:35.657Z</time></trkpt><trkpt lat="45.6336109" lon="9.4566246"><ele>228.0</ele><time>2026-03-31T16:21:36.657Z</time></trkpt><trkpt lat="45.6335381" lon="9.4565604"><ele>227.66666666666666</ele><time>2026-03-31T16:21:37.657Z</time></trkpt><trkpt lat="45.6334668" lon="9.4564961"><ele>227.33333333333331</ele><time>2026-03-31T16:21:38.657Z</time></trkpt><trkpt lat="45.6333995" lon="9.456434"><ele>227.0</ele><time>2026-03-31T16:21:39.658Z</time></trkpt><trkpt lat="45.6333358" lon="9.4563724"><ele>226.66666666666666</ele><time>2026-03-31T16:21:40.657Z</time></trkpt><trkpt lat="45.6332695" lon="9.4563038"><ele>226.33333333333331</ele><time>2026-03-31T16:21:41.657Z</time></trkpt><trkpt lat="45.633201" lon="9.4562379"><ele>226.0</ele><time>2026-03-31T16:21:42.657Z</time></trkpt><trkpt lat="45.6331259" lon="9.4561704"><ele>225.83333333333331</ele><time>2026-03-31T16:21:43.657Z</time></trkpt><trkpt lat="45.6330534" lon="9.4561112"><ele>225.66666666666666</ele><time>2026-03-31T16:21:44.657Z</time></trkpt><trkpt lat="45.6329806" lon="9.4560586"><ele>225.5</ele><time>2026-03-31T16:21:45.657Z</time></trkpt><trkpt lat="45.632914" lon="9.4560113"><ele>225.33333333333331</ele><time>2026-03-31T16:21:46.657Z</time></trkpt><trkpt lat="45.6328407" lon="9.4559787"><ele>225.16666666666666</ele><time>2026-03-31T16:21:47.657Z</time></trkpt><trkpt lat="45.6327605" lon="9.4559541"><ele>225.0</ele><time>2026-03-31T16:21:48.658Z</time></trkpt><trkpt lat="45.6326785" lon="9.4559302"><ele>225.0</ele><time>2026-03-31T16:21:49.658Z</time></trkpt><trkpt lat="45.6325916" lon="9.4559038"><ele>225.0</ele><time>2026-03-31T16:21:50.657Z</time></trkpt><trkpt lat="45.6325098" lon="9.4558769"><ele>225.0</ele><time>2026-03-31T16:21:51.657Z</time></trkpt><trkpt lat="45.6324332" lon="9.4558561"><ele>225.0</ele><time>2026-03-31T16:21:52.657Z</time></trkpt><trkpt lat="45.6323558" lon="9.4558348"><ele>225.0</ele><time>2026-03-31T16:21:53.657Z</time></trkpt><trkpt lat="45.632277" lon="9.4558185"><ele>225.0</ele><time>2026-03-31T16:21:54.657Z</time></trkpt><trkpt lat="45.6322032" lon="9.4558056"><ele>225.0</ele><time>2026-03-31T16:21:55.657Z</time></trkpt><trkpt lat="45.6321326" lon="9.4557969"><ele>225.0</ele><time>2026-03-31T16:21:56.657Z</time></trkpt><trkpt lat="45.6320254" lon="9.4557811"><ele>225.0</ele><time>2026-03-31T16:21:58.657Z</time></trkpt><trkpt lat="45.6319704" lon="9.4557269"><ele>225.0</ele><time>2026-03-31T16:22:00.657Z</time></trkpt><trkpt lat="45.6319709" lon="9.4556188"><ele>225.0</ele><time>2026-03-31T16:22:02.658Z</time></trkpt><trkpt lat="45.6319619" lon="9.4554726"><ele>225.0</ele><time>2026-03-31T16:22:04.658Z</time></trkpt><trkpt lat="45.6318925" lon="9.4553831"><ele>224.6</ele><time>2026-03-31T16:22:06.658Z</time></trkpt><trkpt lat="45.6317749" lon="9.4553345"><ele>224.2</ele><time>2026-03-31T16:22:08.658Z</time></trkpt><trkpt lat="45.6316662" lon="9.4553016"><ele>223.8</ele><time>2026-03-31T16:22:09.657Z</time></trkpt><trkpt lat="45.6316011" lon="9.4552633"><ele>223.4</ele><time>2026-03-31T16:22:10.657Z</time></trkpt><trkpt lat="45.6315318" lon="9.4552264"><ele>223.0</ele><time>2026-03-31T16:22:11.657Z</time></trkpt><trkpt lat="45.6314517" lon="9.455142"><ele>223.0</ele><time>2026-03-31T16:22:13.657Z</time></trkpt><trkpt lat="45.6313614" lon="9.4550634"><ele>223.0</ele><time>2026-03-31T16:22:15.657Z</time></trkpt><trkpt lat="45.6312732" lon="9.4549822"><ele>223.0</ele><time>2026-03-31T16:22:17.657Z</time></trkpt><trkpt lat="45.6311864" lon="9.4548912"><ele>223.0</ele><time>2026-03-31T16:22:19.657Z</time></trkpt><trkpt lat="45.6311211" lon="9.4548538"><ele>223.0</ele><time>2026-03-31T16:22:20.657Z</time></trkpt><trkpt lat="45.6310451" lon="9.4548292"><ele>223.0</ele><time>2026-03-31T16:22:21.658Z</time></trkpt><trkpt lat="45.6309731" lon="9.4548048"><ele>223.0</ele><time>2026-03-31T16:22:22.657Z</time></trkpt><trkpt lat="45.6309021" lon="9.4547759"><ele>223.0</ele><time>2026-03-31T16:22:23.658Z</time></trkpt><trkpt lat="45.6308147" lon="9.4547472"><ele>223.0</ele><time>2026-03-31T16:22:24.657Z</time></trkpt><trkpt lat="45.6307489" lon="9.4547374"><ele>223.0</ele><time>2026-03-31T16:22:25.657Z</time></trkpt><trkpt lat="45.6306823" lon="9.4547191"><ele>223.0</ele><time>2026-03-31T16:22:26.657Z</time></trkpt><trkpt lat="45.6306194" lon="9.4546984"><ele>223.0</ele><time>2026-03-31T16:22:27.658Z</time></trkpt><trkpt lat="45.6306079" lon="9.454563"><ele>222.60000000000002</ele><time>2026-03-31T16:22:29.657Z</time></trkpt><trkpt lat="45.6306252" lon="9.4544109"><ele>222.20000000000002</ele><time>2026-03-31T16:22:31.657Z</time></trkpt><trkpt lat="45.6306497" lon="9.4542682"><ele>221.8</ele><time>2026-03-31T16:22:33.657Z</time></trkpt><trkpt lat="45.6306624" lon="9.4541113"><ele>221.4</ele><time>2026-03-31T16:22:35.657Z</time></trkpt><trkpt lat="45.6306779" lon="9.4539641"><ele>221.0</ele><time>2026-03-31T16:22:37.657Z</time></trkpt><trkpt lat="45.6306791" lon="9.4538675"><ele>221.16666666666669</ele><time>2026-03-31T16:22:38.658Z</time></trkpt><trkpt lat="45.6306163" lon="9.4537375"><ele>221.33333333333334</ele><time>2026-03-31T16:22:40.657Z</time></trkpt><trkpt lat="45.6305625" lon="9.4536726"><ele>221.5</ele><time>2026-03-31T16:22:41.657Z</time></trkpt><trkpt lat="45.6305159" lon="9.4535942"><ele>221.66666666666669</ele><time>2026-03-31T16:22:42.657Z</time></trkpt><trkpt lat="45.6304785" lon="9.4535056"><ele>221.83333333333334</ele><time>2026-03-31T16:22:43.657Z</time></trkpt><trkpt lat="45.6304429" lon="9.4534079"><ele>222.0</ele><time>2026-03-31T16:22:44.657Z</time></trkpt><trkpt lat="45.6303936" lon="9.453268"><ele>222.0</ele><time>2026-03-31T16:22:46.657Z</time></trkpt><trkpt lat="45.6303913" lon="9.4531741"><ele>222.0</ele><time>2026-03-31T16:22:48.658Z</time></trkpt><trkpt lat="45.6304128" lon="9.4530859"><ele>222.0</ele><time>2026-03-31T16:22:50.658Z</time></trkpt><trkpt lat="45.6304731" lon="9.4529624"><ele>222.0</ele><time>2026-03-31T16:22:52.657Z</time></trkpt><trkpt lat="45.6305143" lon="9.4527955"><ele>222.0</ele><time>2026-03-31T16:22:54.657Z</time></trkpt><trkpt lat="45.6305242" lon="9.4526943"><ele>222.0</ele><time>2026-03-31T16:22:55.658Z</time></trkpt><trkpt lat="45.6305334" lon="9.4525947"><ele>222.0</ele><time>2026-03-31T16:22:56.657Z</time></trkpt><trkpt lat="45.630548" lon="9.4525011"><ele>222.0</ele><time>2026-03-31T16:22:57.657Z</time></trkpt><trkpt lat="45.6305454" lon="9.4523954"><ele>222.0</ele><time>2026-03-31T16:22:58.657Z</time></trkpt><trkpt lat="45.6305661" lon="9.4522684"><ele>222.0</ele><time>2026-03-31T16:23:00.658Z</time></trkpt><trkpt lat="45.6305825" lon="9.452146"><ele>222.0</ele><time>2026-03-31T16:23:02.658Z</time></trkpt><trkpt lat="45.6305857" lon="9.4520526"><ele>222.0</ele><time>2026-03-31T16:23:04.657Z</time></trkpt><trkpt lat="45.6305112" lon="9.452021"><ele>222.0</ele><time>2026-03-31T16:23:06.657Z</time></trkpt><trkpt lat="45.630448" lon="9.4520312"><ele>222.0</ele><time>2026-03-31T16:23:07.658Z</time></trkpt><trkpt lat="45.6303076" lon="9.4519702"><ele>222.0</ele><time>2026-03-31T16:23:09.657Z</time></trkpt><trkpt lat="45.6302145" lon="9.4519374"><ele>222.0</ele><time>2026-03-31T16:23:10.657Z</time></trkpt><trkpt lat="45.6301223" lon="9.4519094"><ele>222.0</ele><time>2026-03-31T16:23:11.657Z</time></trkpt><trkpt lat="45.6300435" lon="9.4518885"><ele>222.0</ele><time>2026-03-31T16:23:12.657Z</time></trkpt><trkpt lat="45.629981" lon="9.4518633"><ele>222.0</ele><time>2026-03-31T16:23:13.657Z</time></trkpt><trkpt lat="45.6298778" lon="9.4517863"><ele>222.0</ele><time>2026-03-31T16:23:15.657Z</time></trkpt><trkpt lat="45.6297921" lon="9.4517209"><ele>222.0</ele><time>2026-03-31T16:23:17.657Z</time></trkpt><trkpt lat="45.6296678" lon="9.4517153"><ele>222.0</ele><time>2026-03-31T16:23:19.657Z</time></trkpt><trkpt lat="45.6296017" lon="9.4516909"><ele>222.0</ele><time>2026-03-31T16:23:20.657Z</time></trkpt><trkpt lat="45.6295255" lon="9.4516933"><ele>222.0</ele><time>2026-03-31T16:23:21.657Z</time></trkpt><trkpt lat="45.6294582" lon="9.4516804"><ele>222.0</ele><time>2026-03-31T16:23:22.657Z</time></trkpt><trkpt lat="45.629392" lon="9.4516725"><ele>222.0</ele><time>2026-03-31T16:23:23.657Z</time></trkpt><trkpt lat="45.6293226" lon="9.4516642"><ele>222.0</ele><time>2026-03-31T16:23:24.657Z</time></trkpt><trkpt lat="45.6292528" lon="9.4516572"><ele>222.0</ele><time>2026-03-31T16:23:25.657Z</time></trkpt><trkpt lat="45.6291851" lon="9.4516534"><ele>222.0</ele><time>2026-03-31T16:23:26.657Z</time></trkpt><trkpt lat="45.629111" lon="9.4516329"><ele>222.33333333333334</ele><time>2026-03-31T16:23:27.657Z</time></trkpt><trkpt lat="45.6290396" lon="9.4516313"><ele>222.66666666666669</ele><time>2026-03-31T16:23:28.657Z</time></trkpt><trkpt lat="45.6289561" lon="9.4516271"><ele>223.0</ele><time>2026-03-31T16:23:29.657Z</time></trkpt><trkpt lat="45.6288775" lon="9.4516247"><ele>223.33333333333334</ele><time>2026-03-31T16:23:30.658Z</time></trkpt><trkpt lat="45.6288001" lon="9.4516242"><ele>223.66666666666669</ele><time>2026-03-31T16:23:31.657Z</time></trkpt><trkpt lat="45.6287245" lon="9.4516186"><ele>224.0</ele><time>2026-03-31T16:23:32.657Z</time></trkpt><trkpt lat="45.628646" lon="9.4516126"><ele>223.2</ele><time>2026-03-31T16:23:33.657Z</time></trkpt><trkpt lat="45.6285593" lon="9.4516044"><ele>222.39999999999998</ele><time>2026-03-31T16:23:34.658Z</time></trkpt><trkpt lat="45.6284904" lon="9.4515877"><ele>221.6</ele><time>2026-03-31T16:23:35.658Z</time></trkpt><trkpt lat="45.6284245" lon="9.451579"><ele>220.8</ele><time>2026-03-31T16:23:36.657Z</time></trkpt><trkpt lat="45.6283128" lon="9.4515582"><ele>220.0</ele><time>2026-03-31T16:23:38.658Z</time></trkpt><trkpt lat="45.6281849" lon="9.4515306"><ele>219.99999999999997</ele><time>2026-03-31T16:23:40.658Z</time></trkpt><trkpt lat="45.6281138" lon="9.4514878"><ele>220.0</ele><time>2026-03-31T16:23:42.657Z</time></trkpt><trkpt lat="45.6280657" lon="9.4514191"><ele>220.0</ele><time>2026-03-31T16:23:44.658Z</time></trkpt><trkpt lat="45.6280192" lon="9.4512954"><ele>220.0</ele><time>2026-03-31T16:23:46.658Z</time></trkpt><trkpt lat="45.6279612" lon="9.4511525"><ele>219.99999999999997</ele><time>2026-03-31T16:23:48.658Z</time></trkpt><trkpt lat="45.6279307" lon="9.4510727"><ele>220.0</ele><time>2026-03-31T16:23:49.658Z</time></trkpt><trkpt lat="45.6278323" lon="9.4509671"><ele>219.6</ele><time>2026-03-31T16:23:51.657Z</time></trkpt><trkpt lat="45.6276927" lon="9.4509046"><ele>219.2</ele><time>2026-03-31T16:23:53.658Z</time></trkpt><trkpt lat="45.6276174" lon="9.4508748"><ele>218.8</ele><time>2026-03-31T16:23:54.658Z</time></trkpt><trkpt lat="45.6275465" lon="9.4508468"><ele>218.4</ele><time>2026-03-31T16:23:55.657Z</time></trkpt><trkpt lat="45.6274728" lon="9.4508128"><ele>218.0</ele><time>2026-03-31T16:23:56.657Z</time></trkpt><trkpt lat="45.6273971" lon="9.4507827"><ele>218.00000000000003</ele><time>2026-03-31T16:23:57.657Z</time></trkpt><trkpt lat="45.6273194" lon="9.4507533"><ele>218.0</ele><time>2026-03-31T16:23:58.658Z</time></trkpt><trkpt lat="45.6272394" lon="9.4507132"><ele>218.0</ele><time>2026-03-31T16:23:59.657Z</time></trkpt><trkpt lat="45.6271668" lon="9.450674"><ele>218.0</ele><time>2026-03-31T16:24:00.657Z</time></trkpt><trkpt lat="45.6270999" lon="9.450643"><ele>218.00000000000003</ele><time>2026-03-31T16:24:01.657Z</time></trkpt><trkpt lat="45.6269827" lon="9.4505917"><ele>218.0</ele><time>2026-03-31T16:24:03.657Z</time></trkpt><trkpt lat="45.6269053" lon="9.4505535"><ele>217.66666666666669</ele><time>2026-03-31T16:24:05.657Z</time></trkpt><trkpt lat="45.6268302" lon="9.4505248"><ele>217.33333333333334</ele><time>2026-03-31T16:24:11.657Z</time></trkpt><trkpt lat="45.6267171" lon="9.4504849"><ele>217.0</ele><time>2026-03-31T16:24:13.657Z</time></trkpt><trkpt lat="45.6266524" lon="9.4504522"><ele>216.66666666666669</ele><time>2026-03-31T16:24:14.657Z</time></trkpt><trkpt lat="45.6265806" lon="9.4504133"><ele>216.33333333333334</ele><time>2026-03-31T16:24:15.657Z</time></trkpt><trkpt lat="45.6265136" lon="9.4503856"><ele>216.0</ele><time>2026-03-31T16:24:16.658Z</time></trkpt><trkpt lat="45.6264441" lon="9.4503664"><ele>216.0</ele><time>2026-03-31T16:24:17.657Z</time></trkpt><trkpt lat="45.6263723" lon="9.4503418"><ele>216.0</ele><time>2026-03-31T16:24:18.657Z</time></trkpt><trkpt lat="45.6263026" lon="9.4503124"><ele>216.0</ele><time>2026-03-31T16:24:19.658Z</time></trkpt><trkpt lat="45.6262398" lon="9.4502831"><ele>216.0</ele><time>2026-03-31T16:24:20.657Z</time></trkpt><trkpt lat="45.6261707" lon="9.4502482"><ele>216.0</ele><time>2026-03-31T16:24:21.657Z</time></trkpt><trkpt lat="45.6261021" lon="9.4502207"><ele>216.0</ele><time>2026-03-31T16:24:22.657Z</time></trkpt><trkpt lat="45.6260296" lon="9.450212"><ele>216.0</ele><time>2026-03-31T16:24:23.657Z</time></trkpt><trkpt lat="45.6259611" lon="9.4502146"><ele>215.71428571428572</ele><time>2026-03-31T16:24:24.657Z</time></trkpt><trkpt lat="45.6258809" lon="9.4502138"><ele>215.42857142857142</ele><time>2026-03-31T16:24:25.657Z</time></trkpt><trkpt lat="45.6258167" lon="9.4502149"><ele>215.14285714285717</ele><time>2026-03-31T16:24:26.657Z</time></trkpt><trkpt lat="45.6257488" lon="9.4502289"><ele>214.85714285714286</ele><time>2026-03-31T16:24:27.657Z</time></trkpt><trkpt lat="45.6256705" lon="9.450244"><ele>214.57142857142858</ele><time>2026-03-31T16:24:28.658Z</time></trkpt><trkpt lat="45.6255991" lon="9.4502681"><ele>214.2857142857143</ele><time>2026-03-31T16:24:29.657Z</time></trkpt><trkpt lat="45.6255264" lon="9.450315"><ele>214.0</ele><time>2026-03-31T16:24:30.657Z</time></trkpt><trkpt lat="45.6254651" lon="9.4503605"><ele>213.99999999999997</ele><time>2026-03-31T16:24:31.657Z</time></trkpt><trkpt lat="45.6254017" lon="9.4504151"><ele>214.0</ele><time>2026-03-31T16:24:32.657Z</time></trkpt><trkpt lat="45.6253416" lon="9.4504677"><ele>214.0</ele><time>2026-03-31T16:24:33.657Z</time></trkpt><trkpt lat="45.6252859" lon="9.4505245"><ele>214.0</ele><time>2026-03-31T16:24:34.657Z</time></trkpt><trkpt lat="45.625193" lon="9.4506094"><ele>213.99999999999997</ele><time>2026-03-31T16:24:36.657Z</time></trkpt><trkpt lat="45.6251276" lon="9.4505299"><ele>214.0</ele><time>2026-03-31T16:24:40.657Z</time></trkpt><trkpt lat="45.6251109" lon="9.4503724"><ele>214.0</ele><time>2026-03-31T16:24:42.657Z</time></trkpt><trkpt lat="45.6250664" lon="9.4502423"><ele>213.99999999999997</ele><time>2026-03-31T16:24:44.658Z</time></trkpt><trkpt lat="45.6250452" lon="9.4501528"><ele>213.99999999999997</ele><time>2026-03-31T16:24:45.657Z</time></trkpt><trkpt lat="45.6250451" lon="9.4499853"><ele>214.0</ele><time>2026-03-31T16:24:47.658Z</time></trkpt><trkpt lat="45.6250821" lon="9.4498105"><ele>214.0</ele><time>2026-03-31T16:24:49.657Z</time></trkpt><trkpt lat="45.6250987" lon="9.4497162"><ele>214.33333333333331</ele><time>2026-03-31T16:24:50.657Z</time></trkpt><trkpt lat="45.6251136" lon="9.4496156"><ele>214.66666666666666</ele><time>2026-03-31T16:24:51.657Z</time></trkpt><trkpt lat="45.6251167" lon="9.4495088"><ele>215.0</ele><time>2026-03-31T16:24:52.657Z</time></trkpt><trkpt lat="45.6251209" lon="9.4494058"><ele>215.33333333333331</ele><time>2026-03-31T16:24:53.657Z</time></trkpt><trkpt lat="45.6251264" lon="9.4493014"><ele>215.66666666666666</ele><time>2026-03-31T16:24:54.657Z</time></trkpt><trkpt lat="45.6251327" lon="9.4491856"><ele>216.0</ele><time>2026-03-31T16:24:55.658Z</time></trkpt><trkpt lat="45.6251377" lon="9.4490759"><ele>216.0</ele><time>2026-03-31T16:24:56.658Z</time></trkpt><trkpt lat="45.6251473" lon="9.4489684"><ele>216.0</ele><time>2026-03-31T16:24:57.657Z</time></trkpt><trkpt lat="45.6251499" lon="9.4488566"><ele>216.0</ele><time>2026-03-31T16:24:58.657Z</time></trkpt><trkpt lat="45.6251606" lon="9.4487445"><ele>216.0</ele><time>2026-03-31T16:24:59.657Z</time></trkpt><trkpt lat="45.6251679" lon="9.4486327"><ele>216.0</ele><time>2026-03-31T16:25:00.657Z</time></trkpt><trkpt lat="45.6251803" lon="9.4485273"><ele>216.0</ele><time>2026-03-31T16:25:01.657Z</time></trkpt><trkpt lat="45.6251904" lon="9.4484246"><ele>216.0</ele><time>2026-03-31T16:25:02.658Z</time></trkpt><trkpt lat="45.6251967" lon="9.4483197"><ele>216.0</ele><time>2026-03-31T16:25:03.657Z</time></trkpt><trkpt lat="45.6252097" lon="9.4482135"><ele>216.0</ele><time>2026-03-31T16:25:04.657Z</time></trkpt><trkpt lat="45.6252257" lon="9.4481036"><ele>216.0</ele><time>2026-03-31T16:25:05.657Z</time></trkpt><trkpt lat="45.6252375" lon="9.4479812"><ele>216.0</ele><time>2026-03-31T16:25:06.657Z</time></trkpt><trkpt lat="45.6252451" lon="9.4478626"><ele>216.0</ele><time>2026-03-31T16:25:07.658Z</time></trkpt><trkpt lat="45.6252521" lon="9.4477456"><ele>215.83333333333334</ele><time>2026-03-31T16:25:08.657Z</time></trkpt><trkpt lat="45.6252542" lon="9.4476483"><ele>215.66666666666669</ele><time>2026-03-31T16:25:09.657Z</time></trkpt><trkpt lat="45.6252622" lon="9.4475441"><ele>215.5</ele><time>2026-03-31T16:25:10.657Z</time></trkpt><trkpt lat="45.6252659" lon="9.4474382"><ele>215.33333333333334</ele><time>2026-03-31T16:25:11.657Z</time></trkpt><trkpt lat="45.625274" lon="9.44733"><ele>215.16666666666669</ele><time>2026-03-31T16:25:12.658Z</time></trkpt><trkpt lat="45.6252768" lon="9.4472189"><ele>215.0</ele><time>2026-03-31T16:25:13.658Z</time></trkpt><trkpt lat="45.6252824" lon="9.4471018"><ele>215.0</ele><time>2026-03-31T16:25:14.657Z</time></trkpt><trkpt lat="45.6252887" lon="9.4469818"><ele>215.0</ele><time>2026-03-31T16:25:15.657Z</time></trkpt><trkpt lat="45.6252976" lon="9.4468518"><ele>215.0</ele><time>2026-03-31T16:25:16.657Z</time></trkpt><trkpt lat="45.6253083" lon="9.4467145"><ele>215.0</ele><time>2026-03-31T16:25:17.657Z</time></trkpt><trkpt lat="45.6253185" lon="9.4465721"><ele>215.0</ele><time>2026-03-31T16:25:18.657Z</time></trkpt><trkpt lat="45.6253312" lon="9.4464254"><ele>215.16666666666669</ele><time>2026-03-31T16:25:19.657Z</time></trkpt><trkpt lat="45.6253454" lon="9.4462756"><ele>215.33333333333334</ele><time>2026-03-31T16:25:20.657Z</time></trkpt><trkpt lat="45.6253592" lon="9.4461396"><ele>215.5</ele><time>2026-03-31T16:25:21.657Z</time></trkpt><trkpt lat="45.6253696" lon="9.4460147"><ele>215.66666666666669</ele><time>2026-03-31T16:25:22.658Z</time></trkpt><trkpt lat="45.625386" lon="9.4458996"><ele>215.83333333333334</ele><time>2026-03-31T16:25:23.657Z</time></trkpt><trkpt lat="45.6253988" lon="9.4457967"><ele>216.0</ele><time>2026-03-31T16:25:24.657Z</time></trkpt><trkpt lat="45.625406" lon="9.4456988"><ele>216.0</ele><time>2026-03-31T16:25:25.657Z</time></trkpt><trkpt lat="45.6254292" lon="9.4455398"><ele>216.00000000000003</ele><time>2026-03-31T16:25:27.658Z</time></trkpt><trkpt lat="45.6254733" lon="9.4454308"><ele>216.00000000000003</ele><time>2026-03-31T16:25:29.657Z</time></trkpt><trkpt lat="45.6255541" lon="9.4453887"><ele>216.0</ele><time>2026-03-31T16:25:31.657Z</time></trkpt><trkpt lat="45.6256694" lon="9.445412"><ele>216.0</ele><time>2026-03-31T16:25:33.658Z</time></trkpt><trkpt lat="45.6257397" lon="9.4454313"><ele>216.0</ele><time>2026-03-31T16:25:34.657Z</time></trkpt><trkpt lat="45.6258114" lon="9.4454513"><ele>216.0</ele><time>2026-03-31T16:25:35.657Z</time></trkpt><trkpt lat="45.6258854" lon="9.4454802"><ele>216.0</ele><time>2026-03-31T16:25:36.657Z</time></trkpt><trkpt lat="45.6259603" lon="9.4455102"><ele>216.0</ele><time>2026-03-31T16:25:37.657Z</time></trkpt><trkpt lat="45.626031" lon="9.4455349"><ele>216.0</ele><time>2026-03-31T16:25:38.657Z</time></trkpt><trkpt lat="45.6260954" lon="9.4455566"><ele>216.0</ele><time>2026-03-31T16:25:39.658Z</time></trkpt><trkpt lat="45.6262012" lon="9.4455576"><ele>216.33333333333334</ele><time>2026-03-31T16:25:41.657Z</time></trkpt><trkpt lat="45.6262712" lon="9.4454636"><ele>216.66666666666669</ele><time>2026-03-31T16:25:43.658Z</time></trkpt><trkpt lat="45.6262908" lon="9.4453745"><ele>217.0</ele><time>2026-03-31T16:25:44.657Z</time></trkpt><trkpt lat="45.6263084" lon="9.4452663"><ele>217.33333333333334</ele><time>2026-03-31T16:25:45.657Z</time></trkpt><trkpt lat="45.6263287" lon="9.445156"><ele>217.66666666666669</ele><time>2026-03-31T16:25:46.658Z</time></trkpt><trkpt lat="45.6263505" lon="9.4450147"><ele>218.0</ele><time>2026-03-31T16:25:47.657Z</time></trkpt><trkpt lat="45.6263683" lon="9.4448715"><ele>218.00000000000003</ele><time>2026-03-31T16:25:48.657Z</time></trkpt><trkpt lat="45.6263879" lon="9.4447389"><ele>218.0</ele><time>2026-03-31T16:25:49.657Z</time></trkpt><trkpt lat="45.6264043" lon="9.4446178"><ele>218.0</ele><time>2026-03-31T16:25:50.658Z</time></trkpt><trkpt lat="45.6264214" lon="9.4445073"><ele>218.0</ele><time>2026-03-31T16:25:51.657Z</time></trkpt><trkpt lat="45.6264376" lon="9.4444021"><ele>218.00000000000003</ele><time>2026-03-31T16:25:52.657Z</time></trkpt><trkpt lat="45.6264526" lon="9.4442989"><ele>218.0</ele><time>2026-03-31T16:25:53.657Z</time></trkpt><trkpt lat="45.6264659" lon="9.4442035"><ele>218.0</ele><time>2026-03-31T16:25:54.657Z</time></trkpt><trkpt lat="45.6264903" lon="9.4440475"><ele>218.0</ele><time>2026-03-31T16:25:56.657Z</time></trkpt><trkpt lat="45.6264866" lon="9.4439449"><ele>218.0</ele><time>2026-03-31T16:25:59.658Z</time></trkpt><trkpt lat="45.6263702" lon="9.4438541"><ele>218.0</ele><time>2026-03-31T16:26:01.657Z</time></trkpt><trkpt lat="45.6262812" lon="9.4438277"><ele>218.0</ele><time>2026-03-31T16:26:02.658Z</time></trkpt><trkpt lat="45.6261821" lon="9.4437888"><ele>218.0</ele><time>2026-03-31T16:26:03.657Z</time></trkpt><trkpt lat="45.6260789" lon="9.4437581"><ele>218.0</ele><time>2026-03-31T16:26:04.657Z</time></trkpt><trkpt lat="45.6259732" lon="9.4437244"><ele>218.0</ele><time>2026-03-31T16:26:05.657Z</time></trkpt><trkpt lat="45.6258666" lon="9.4436893"><ele>218.0</ele><time>2026-03-31T16:26:06.658Z</time></trkpt><trkpt lat="45.625755" lon="9.4436523"><ele>218.0</ele><time>2026-03-31T16:26:07.658Z</time></trkpt><trkpt lat="45.6256526" lon="9.4436187"><ele>218.0</ele><time>2026-03-31T16:26:08.657Z</time></trkpt><trkpt lat="45.6255527" lon="9.4435805"><ele>218.0</ele><time>2026-03-31T16:26:09.657Z</time></trkpt><trkpt lat="45.6254605" lon="9.4435481"><ele>218.0</ele><time>2026-03-31T16:26:10.657Z</time></trkpt><trkpt lat="45.6253741" lon="9.4435174"><ele>218.0</ele><time>2026-03-31T16:26:11.658Z</time></trkpt><trkpt lat="45.6252971" lon="9.4434914"><ele>218.0</ele><time>2026-03-31T16:26:12.657Z</time></trkpt><trkpt lat="45.6252012" lon="9.4434067"><ele>217.60000000000002</ele><time>2026-03-31T16:26:14.657Z</time></trkpt><trkpt lat="45.6252045" lon="9.443313"><ele>217.20000000000002</ele><time>2026-03-31T16:26:15.658Z</time></trkpt><trkpt lat="45.6252205" lon="9.4431963"><ele>216.8</ele><time>2026-03-31T16:26:16.657Z</time></trkpt><trkpt lat="45.6252453" lon="9.4430594"><ele>216.4</ele><time>2026-03-31T16:26:17.657Z</time></trkpt><trkpt lat="45.6252665" lon="9.442911"><ele>216.0</ele><time>2026-03-31T16:26:18.657Z</time></trkpt><trkpt lat="45.6252889" lon="9.4427532"><ele>216.20000000000002</ele><time>2026-03-31T16:26:19.657Z</time></trkpt><trkpt lat="45.6253147" lon="9.4426074"><ele>216.40000000000003</ele><time>2026-03-31T16:26:20.657Z</time></trkpt><trkpt lat="45.6253367" lon="9.4424723"><ele>216.6</ele><time>2026-03-31T16:26:21.657Z</time></trkpt><trkpt lat="45.6253579" lon="9.4423445"><ele>216.8</ele><time>2026-03-31T16:26:22.657Z</time></trkpt><trkpt lat="45.6253763" lon="9.4422293"><ele>217.0</ele><time>2026-03-31T16:26:23.657Z</time></trkpt><trkpt lat="45.6253917" lon="9.4421245"><ele>216.83333333333331</ele><time>2026-03-31T16:26:24.657Z</time></trkpt><trkpt lat="45.6254021" lon="9.4420264"><ele>216.66666666666666</ele><time>2026-03-31T16:26:25.657Z</time></trkpt><trkpt lat="45.6254165" lon="9.4418701"><ele>216.5</ele><time>2026-03-31T16:26:27.657Z</time></trkpt><trkpt lat="45.6254137" lon="9.4417763"><ele>216.33333333333331</ele><time>2026-03-31T16:26:30.657Z</time></trkpt><trkpt lat="45.6253282" lon="9.4416871"><ele>216.16666666666666</ele><time>2026-03-31T16:26:32.657Z</time></trkpt><trkpt lat="45.6252487" lon="9.4416711"><ele>216.0</ele><time>2026-03-31T16:26:33.657Z</time></trkpt><trkpt lat="45.6251598" lon="9.4416467"><ele>216.0</ele><time>2026-03-31T16:26:34.657Z</time></trkpt><trkpt lat="45.6250695" lon="9.4416117"><ele>216.00000000000003</ele><time>2026-03-31T16:26:35.657Z</time></trkpt><trkpt lat="45.6249805" lon="9.4415627"><ele>216.00000000000003</ele><time>2026-03-31T16:26:36.657Z</time></trkpt><trkpt lat="45.6248984" lon="9.4415006"><ele>216.0</ele><time>2026-03-31T16:26:37.657Z</time></trkpt><trkpt lat="45.624815" lon="9.4414281"><ele>216.0</ele><time>2026-03-31T16:26:38.658Z</time></trkpt><trkpt lat="45.6247481" lon="9.4413567"><ele>215.83333333333334</ele><time>2026-03-31T16:26:39.657Z</time></trkpt><trkpt lat="45.6246975" lon="9.4412899"><ele>215.66666666666669</ele><time>2026-03-31T16:26:40.657Z</time></trkpt><trkpt lat="45.6246423" lon="9.4412119"><ele>215.5</ele><time>2026-03-31T16:26:41.658Z</time></trkpt><trkpt lat="45.6245821" lon="9.4411466"><ele>215.33333333333334</ele><time>2026-03-31T16:26:42.657Z</time></trkpt><trkpt lat="45.6245117" lon="9.441085"><ele>215.16666666666669</ele><time>2026-03-31T16:26:43.658Z</time></trkpt><trkpt lat="45.6244378" lon="9.4410395"><ele>215.0</ele><time>2026-03-31T16:26:44.657Z</time></trkpt><trkpt lat="45.6243559" lon="9.4410126"><ele>214.8</ele><time>2026-03-31T16:26:45.658Z</time></trkpt><trkpt lat="45.6242659" lon="9.4409876"><ele>214.6</ele><time>2026-03-31T16:26:46.657Z</time></trkpt><trkpt lat="45.6241777" lon="9.4409529"><ele>214.39999999999998</ele><time>2026-03-31T16:26:47.658Z</time></trkpt><trkpt lat="45.6240928" lon="9.4409196"><ele>214.2</ele><time>2026-03-31T16:26:48.658Z</time></trkpt><trkpt lat="45.6240006" lon="9.4408835"><ele>214.0</ele><time>2026-03-31T16:26:49.657Z</time></trkpt><trkpt lat="45.6239121" lon="9.4408442"><ele>214.0</ele><time>2026-03-31T16:26:50.657Z</time></trkpt><trkpt lat="45.6238174" lon="9.4408158"><ele>213.99999999999997</ele><time>2026-03-31T16:26:51.657Z</time></trkpt><trkpt lat="45.6237156" lon="9.4407804"><ele>213.99999999999997</ele><time>2026-03-31T16:26:52.657Z</time></trkpt><trkpt lat="45.6236045" lon="9.4407505"><ele>214.0</ele><time>2026-03-31T16:26:53.657Z</time></trkpt><trkpt lat="45.6234943" lon="9.4407217"><ele>214.0</ele><time>2026-03-31T16:26:54.657Z</time></trkpt><trkpt lat="45.6233868" lon="9.440693"><ele>213.5</ele><time>2026-03-31T16:26:55.658Z</time></trkpt><trkpt lat="45.6232757" lon="9.4406626"><ele>213.0</ele><time>2026-03-31T16:26:56.657Z</time></trkpt><trkpt lat="45.6231668" lon="9.4406284"><ele>212.5</ele><time>2026-03-31T16:26:57.657Z</time></trkpt><trkpt lat="45.6230545" lon="9.4405944"><ele>212.0</ele><time>2026-03-31T16:26:58.658Z</time></trkpt><trkpt lat="45.6229423" lon="9.4405626"><ele>212.0</ele><time>2026-03-31T16:26:59.657Z</time></trkpt><trkpt lat="45.6228306" lon="9.4405295"><ele>212.0</ele><time>2026-03-31T16:27:00.657Z</time></trkpt><trkpt lat="45.6227129" lon="9.4404989"><ele>212.0</ele><time>2026-03-31T16:27:01.658Z</time></trkpt><trkpt lat="45.6225965" lon="9.4404602"><ele>212.0</ele><time>2026-03-31T16:27:02.658Z</time></trkpt><trkpt lat="45.6224835" lon="9.440419"><ele>212.0</ele><time>2026-03-31T16:27:03.658Z</time></trkpt><trkpt lat="45.6223724" lon="9.4403773"><ele>212.0</ele><time>2026-03-31T16:27:04.657Z</time></trkpt><trkpt lat="45.6222567" lon="9.4403389"><ele>212.0</ele><time>2026-03-31T16:27:05.657Z</time></trkpt><trkpt lat="45.6221459" lon="9.4403049"><ele>212.0</ele><time>2026-03-31T16:27:06.658Z</time></trkpt><trkpt lat="45.6220338" lon="9.4402643"><ele>212.0</ele><time>2026-03-31T16:27:07.657Z</time></trkpt><trkpt lat="45.6219248" lon="9.4402292"><ele>212.0</ele><time>2026-03-31T16:27:08.657Z</time></trkpt><trkpt lat="45.6218241" lon="9.4401951"><ele>212.0</ele><time>2026-03-31T16:27:09.657Z</time></trkpt><trkpt lat="45.621732" lon="9.4401617"><ele>212.0</ele><time>2026-03-31T16:27:10.657Z</time></trkpt><trkpt lat="45.6216612" lon="9.4401294"><ele>212.0</ele><time>2026-03-31T16:27:11.657Z</time></trkpt><trkpt lat="45.6215769" lon="9.440093"><ele>212.0</ele><time>2026-03-31T16:27:13.657Z</time></trkpt><trkpt lat="45.6214963" lon="9.4400453"><ele>212.0</ele><time>2026-03-31T16:27:15.657Z</time></trkpt><trkpt lat="45.6214266" lon="9.4400264"><ele>212.0</ele><time>2026-03-31T16:27:16.658Z</time></trkpt><trkpt lat="45.6213401" lon="9.4400098"><ele>212.0</ele><time>2026-03-31T16:27:17.657Z</time></trkpt><trkpt lat="45.6212416" lon="9.4399994"><ele>212.0</ele><time>2026-03-31T16:27:18.657Z</time></trkpt><trkpt lat="45.6211352" lon="9.4399764"><ele>211.75</ele><time>2026-03-31T16:27:19.657Z</time></trkpt><trkpt lat="45.6210267" lon="9.4399484"><ele>211.5</ele><time>2026-03-31T16:27:20.657Z</time></trkpt><trkpt lat="45.6209104" lon="9.4399182"><ele>211.25</ele><time>2026-03-31T16:27:21.657Z</time></trkpt><trkpt lat="45.620794" lon="9.4398856"><ele>211.0</ele><time>2026-03-31T16:27:22.658Z</time></trkpt><trkpt lat="45.6206744" lon="9.4398503"><ele>211.0</ele><time>2026-03-31T16:27:23.658Z</time></trkpt><trkpt lat="45.6205483" lon="9.4398129"><ele>211.0</ele><time>2026-03-31T16:27:24.657Z</time></trkpt><trkpt lat="45.6204163" lon="9.4397765"><ele>211.0</ele><time>2026-03-31T16:27:25.657Z</time></trkpt><trkpt lat="45.6202792" lon="9.4397377"><ele>211.0</ele><time>2026-03-31T16:27:26.657Z</time></trkpt><trkpt lat="45.62014" lon="9.4396998"><ele>210.75</ele><time>2026-03-31T16:27:27.657Z</time></trkpt><trkpt lat="45.6199986" lon="9.4396628"><ele>210.5</ele><time>2026-03-31T16:27:28.657Z</time></trkpt><trkpt lat="45.6198528" lon="9.4396228"><ele>210.25</ele><time>2026-03-31T16:27:29.658Z</time></trkpt><trkpt lat="45.6197089" lon="9.43958"><ele>210.0</ele><time>2026-03-31T16:27:30.657Z</time></trkpt><trkpt lat="45.6195663" lon="9.439542"><ele>209.75</ele><time>2026-03-31T16:27:31.657Z</time></trkpt><trkpt lat="45.6194223" lon="9.4394996"><ele>209.5</ele><time>2026-03-31T16:27:32.657Z</time></trkpt><trkpt lat="45.6192753" lon="9.4394576"><ele>209.25</ele><time>2026-03-31T16:27:33.658Z</time></trkpt><trkpt lat="45.6191305" lon="9.4394142"><ele>209.0</ele><time>2026-03-31T16:27:34.657Z</time></trkpt><trkpt lat="45.6189869" lon="9.4393701"><ele>209.0</ele><time>2026-03-31T16:27:35.657Z</time></trkpt><trkpt lat="45.6188458" lon="9.4393282"><ele>209.0</ele><time>2026-03-31T16:27:36.657Z</time></trkpt><trkpt lat="45.6187104" lon="9.439289"><ele>209.0</ele><time>2026-03-31T16:27:37.657Z</time></trkpt><trkpt lat="45.6185808" lon="9.4392517"><ele>209.0</ele><time>2026-03-31T16:27:38.657Z</time></trkpt><trkpt lat="45.6184596" lon="9.4392163"><ele>208.79999999999998</ele><time>2026-03-31T16:27:39.658Z</time></trkpt><trkpt lat="45.6183468" lon="9.4391812"><ele>208.6</ele><time>2026-03-31T16:27:40.657Z</time></trkpt><trkpt lat="45.6182377" lon="9.4391452"><ele>208.4</ele><time>2026-03-31T16:27:41.657Z</time></trkpt><trkpt lat="45.6181415" lon="9.4390934"><ele>208.2</ele><time>2026-03-31T16:27:42.657Z</time></trkpt><trkpt lat="45.6180586" lon="9.4390206"><ele>208.0</ele><time>2026-03-31T16:27:43.658Z</time></trkpt><trkpt lat="45.6179831" lon="9.4389446"><ele>208.0</ele><time>2026-03-31T16:27:44.657Z</time></trkpt><trkpt lat="45.6179062" lon="9.438885"><ele>208.0</ele><time>2026-03-31T16:27:45.657Z</time></trkpt><trkpt lat="45.617825" lon="9.4388585"><ele>208.0</ele><time>2026-03-31T16:27:46.657Z</time></trkpt><trkpt lat="45.6177391" lon="9.4388688"><ele>208.0</ele><time>2026-03-31T16:27:47.657Z</time></trkpt><trkpt lat="45.6176477" lon="9.4389047"><ele>208.0</ele><time>2026-03-31T16:27:48.657Z</time></trkpt><trkpt lat="45.6175481" lon="9.4389236"><ele>207.8</ele><time>2026-03-31T16:27:49.657Z</time></trkpt><trkpt lat="45.6174593" lon="9.4389147"><ele>207.60000000000002</ele><time>2026-03-31T16:27:50.657Z</time></trkpt><trkpt lat="45.6173596" lon="9.438876"><ele>207.39999999999998</ele><time>2026-03-31T16:27:51.657Z</time></trkpt><trkpt lat="45.6172322" lon="9.4388389"><ele>207.2</ele><time>2026-03-31T16:27:52.657Z</time></trkpt><trkpt lat="45.6171126" lon="9.4388029"><ele>207.0</ele><time>2026-03-31T16:27:53.658Z</time></trkpt><trkpt lat="45.6169899" lon="9.4387684"><ele>207.25</ele><time>2026-03-31T16:27:54.658Z</time></trkpt><trkpt lat="45.6168601" lon="9.4387315"><ele>207.5</ele><time>2026-03-31T16:27:55.657Z</time></trkpt><trkpt lat="45.6167287" lon="9.4386966"><ele>207.75</ele><time>2026-03-31T16:27:56.657Z</time></trkpt><trkpt lat="45.6166017" lon="9.4386646"><ele>208.0</ele><time>2026-03-31T16:27:57.658Z</time></trkpt><trkpt lat="45.6164829" lon="9.4386337"><ele>208.0</ele><time>2026-03-31T16:27:58.657Z</time></trkpt><trkpt lat="45.6163719" lon="9.4386031"><ele>208.0</ele><time>2026-03-31T16:27:59.657Z</time></trkpt><trkpt lat="45.6162702" lon="9.4385711"><ele>208.0</ele><time>2026-03-31T16:28:00.658Z</time></trkpt><trkpt lat="45.6161805" lon="9.4385358"><ele>208.0</ele><time>2026-03-31T16:28:01.658Z</time></trkpt><trkpt lat="45.61611" lon="9.4385007"><ele>208.0</ele><time>2026-03-31T16:28:02.657Z</time></trkpt><trkpt lat="45.616028" lon="9.4384457"><ele>208.0</ele><time>2026-03-31T16:28:04.657Z</time></trkpt><trkpt lat="45.6159592" lon="9.4383597"><ele>208.0</ele><time>2026-03-31T16:28:06.658Z</time></trkpt><trkpt lat="45.6159272" lon="9.4382705"><ele>208.0</ele><time>2026-03-31T16:28:07.658Z</time></trkpt><trkpt lat="45.6159008" lon="9.438155"><ele>208.0</ele><time>2026-03-31T16:28:08.657Z</time></trkpt><trkpt lat="45.6158913" lon="9.4380131"><ele>208.0</ele><time>2026-03-31T16:28:09.657Z</time></trkpt><trkpt lat="45.6158899" lon="9.4378561"><ele>208.0</ele><time>2026-03-31T16:28:10.658Z</time></trkpt><trkpt lat="45.6158877" lon="9.4376886"><ele>208.0</ele><time>2026-03-31T16:28:11.657Z</time></trkpt><trkpt lat="45.6158839" lon="9.4375129"><ele>208.0</ele><time>2026-03-31T16:28:12.658Z</time></trkpt><trkpt lat="45.6158798" lon="9.4373304"><ele>208.0</ele><time>2026-03-31T16:28:13.658Z</time></trkpt><trkpt lat="45.6158746" lon="9.4371466"><ele>207.5</ele><time>2026-03-31T16:28:14.657Z</time></trkpt><trkpt lat="45.6158642" lon="9.436951"><ele>207.0</ele><time>2026-03-31T16:28:15.657Z</time></trkpt><trkpt lat="45.6158524" lon="9.4367543"><ele>206.5</ele><time>2026-03-31T16:28:16.657Z</time></trkpt><trkpt lat="45.6158422" lon="9.436557"><ele>206.0</ele><time>2026-03-31T16:28:17.657Z</time></trkpt><trkpt lat="45.6158307" lon="9.4363591"><ele>205.25</ele><time>2026-03-31T16:28:18.657Z</time></trkpt><trkpt lat="45.6158207" lon="9.4361679"><ele>204.5</ele><time>2026-03-31T16:28:19.657Z</time></trkpt><trkpt lat="45.6158133" lon="9.4359753"><ele>203.75</ele><time>2026-03-31T16:28:20.657Z</time></trkpt><trkpt lat="45.6158088" lon="9.4357892"><ele>203.0</ele><time>2026-03-31T16:28:21.658Z</time></trkpt><trkpt lat="45.6158095" lon="9.4355989"><ele>203.0</ele><time>2026-03-31T16:28:22.657Z</time></trkpt><trkpt lat="45.6158095" lon="9.43541"><ele>203.0</ele><time>2026-03-31T16:28:23.657Z</time></trkpt><trkpt lat="45.6158052" lon="9.4352174"><ele>203.0</ele><time>2026-03-31T16:28:24.657Z</time></trkpt><trkpt lat="45.6158033" lon="9.4350276"><ele>203.0</ele><time>2026-03-31T16:28:25.657Z</time></trkpt><trkpt lat="45.6158039" lon="9.4348349"><ele>203.0</ele><time>2026-03-31T16:28:26.657Z</time></trkpt><trkpt lat="45.6158066" lon="9.4346389"><ele>203.0</ele><time>2026-03-31T16:28:27.657Z</time></trkpt><trkpt lat="45.615805" lon="9.4344355"><ele>203.0</ele><time>2026-03-31T16:28:28.657Z</time></trkpt><trkpt lat="45.6158039" lon="9.434238"><ele>203.0</ele><time>2026-03-31T16:28:29.657Z</time></trkpt><trkpt lat="45.6158049" lon="9.4340361"><ele>203.25</ele><time>2026-03-31T16:28:30.657Z</time></trkpt><trkpt lat="45.6158073" lon="9.433831"><ele>203.5</ele><time>2026-03-31T16:28:31.658Z</time></trkpt><trkpt lat="45.6158056" lon="9.4336275"><ele>203.75</ele><time>2026-03-31T16:28:32.657Z</time></trkpt><trkpt lat="45.6158061" lon="9.4334271"><ele>204.0</ele><time>2026-03-31T16:28:33.658Z</time></trkpt><trkpt lat="45.6158101" lon="9.4332184"><ele>204.0</ele><time>2026-03-31T16:28:34.657Z</time></trkpt><trkpt lat="45.6158121" lon="9.433017"><ele>204.0</ele><time>2026-03-31T16:28:35.657Z</time></trkpt><trkpt lat="45.6158144" lon="9.4328163"><ele>204.0</ele><time>2026-03-31T16:28:36.658Z</time></trkpt><trkpt lat="45.6158194" lon="9.4326195"><ele>204.0</ele><time>2026-03-31T16:28:37.657Z</time></trkpt><trkpt lat="45.6158207" lon="9.4324282"><ele>204.0</ele><time>2026-03-31T16:28:38.657Z</time></trkpt><trkpt lat="45.6158189" lon="9.4322471"><ele>204.0</ele><time>2026-03-31T16:28:39.657Z</time></trkpt><trkpt lat="45.6158213" lon="9.432078"><ele>204.0</ele><time>2026-03-31T16:28:40.657Z</time></trkpt><trkpt lat="45.6158344" lon="9.4319198"><ele>204.0</ele><time>2026-03-31T16:28:41.657Z</time></trkpt><trkpt lat="45.6158624" lon="9.4317733"><ele>204.2</ele><time>2026-03-31T16:28:42.657Z</time></trkpt><trkpt lat="45.6159019" lon="9.4316355"><ele>204.39999999999998</ele><time>2026-03-31T16:28:43.657Z</time></trkpt><trkpt lat="45.6159503" lon="9.431506"><ele>204.6</ele><time>2026-03-31T16:28:44.657Z</time></trkpt><trkpt lat="45.6159981" lon="9.4313774"><ele>204.8</ele><time>2026-03-31T16:28:45.657Z</time></trkpt><trkpt lat="45.6160467" lon="9.4312486"><ele>205.0</ele><time>2026-03-31T16:28:46.657Z</time></trkpt><trkpt lat="45.6160815" lon="9.4311128"><ele>205.0</ele><time>2026-03-31T16:28:47.657Z</time></trkpt><trkpt lat="45.6161091" lon="9.4309681"><ele>205.0</ele><time>2026-03-31T16:28:48.658Z</time></trkpt><trkpt lat="45.61613" lon="9.4308194"><ele>205.0</ele><time>2026-03-31T16:28:49.657Z</time></trkpt><trkpt lat="45.6161481" lon="9.4306661"><ele>205.0</ele><time>2026-03-31T16:28:50.657Z</time></trkpt><trkpt lat="45.6161617" lon="9.4305215"><ele>205.0</ele><time>2026-03-31T16:28:51.657Z</time></trkpt><trkpt lat="45.6161737" lon="9.4303747"><ele>204.8</ele><time>2026-03-31T16:28:52.657Z</time></trkpt><trkpt lat="45.6161897" lon="9.4302197"><ele>204.6</ele><time>2026-03-31T16:28:53.657Z</time></trkpt><trkpt lat="45.6162028" lon="9.4300675"><ele>204.39999999999998</ele><time>2026-03-31T16:28:54.658Z</time></trkpt><trkpt lat="45.6162174" lon="9.4299157"><ele>204.2</ele><time>2026-03-31T16:28:55.658Z</time></trkpt><trkpt lat="45.6162341" lon="9.4297562"><ele>204.0</ele><time>2026-03-31T16:28:56.657Z</time></trkpt><trkpt lat="45.616254" lon="9.4296018"><ele>204.5</ele><time>2026-03-31T16:28:57.657Z</time></trkpt><trkpt lat="45.6162712" lon="9.429441"><ele>205.0</ele><time>2026-03-31T16:28:58.657Z</time></trkpt><trkpt lat="45.6162872" lon="9.4292791"><ele>205.5</ele><time>2026-03-31T16:28:59.658Z</time></trkpt><trkpt lat="45.6163075" lon="9.4291107"><ele>206.0</ele><time>2026-03-31T16:29:00.657Z</time></trkpt><trkpt lat="45.6163276" lon="9.4289425"><ele>206.25</ele><time>2026-03-31T16:29:01.657Z</time></trkpt><trkpt lat="45.616347" lon="9.4287729"><ele>206.5</ele><time>2026-03-31T16:29:02.657Z</time></trkpt><trkpt lat="45.6163694" lon="9.428598"><ele>206.75</ele><time>2026-03-31T16:29:03.658Z</time></trkpt><trkpt lat="45.6163894" lon="9.428426"><ele>207.0</ele><time>2026-03-31T16:29:04.657Z</time></trkpt><trkpt lat="45.616406" lon="9.4282488"><ele>207.0</ele><time>2026-03-31T16:29:05.657Z</time></trkpt><trkpt lat="45.6164253" lon="9.4280703"><ele>207.0</ele><time>2026-03-31T16:29:06.657Z</time></trkpt><trkpt lat="45.6164389" lon="9.4279009"><ele>207.0</ele><time>2026-03-31T16:29:07.657Z</time></trkpt><trkpt lat="45.6164482" lon="9.4277428"><ele>207.0</ele><time>2026-03-31T16:29:08.657Z</time></trkpt><trkpt lat="45.6164681" lon="9.4275836"><ele>206.8</ele><time>2026-03-31T16:29:09.657Z</time></trkpt><trkpt lat="45.6164833" lon="9.4274278"><ele>206.6</ele><time>2026-03-31T16:29:10.657Z</time></trkpt><trkpt lat="45.6165026" lon="9.427275"><ele>206.4</ele><time>2026-03-31T16:29:11.657Z</time></trkpt><trkpt lat="45.6165228" lon="9.427123"><ele>206.20000000000002</ele><time>2026-03-31T16:29:12.657Z</time></trkpt><trkpt lat="45.6165381" lon="9.4269636"><ele>206.0</ele><time>2026-03-31T16:29:13.658Z</time></trkpt><trkpt lat="45.6165544" lon="9.4268101"><ele>205.8</ele><time>2026-03-31T16:29:14.657Z</time></trkpt><trkpt lat="45.6165709" lon="9.4266515"><ele>205.60000000000002</ele><time>2026-03-31T16:29:15.657Z</time></trkpt><trkpt lat="45.6165871" lon="9.4264971"><ele>205.4</ele><time>2026-03-31T16:29:16.657Z</time></trkpt><trkpt lat="45.6166029" lon="9.4263379"><ele>205.2</ele><time>2026-03-31T16:29:17.657Z</time></trkpt><trkpt lat="45.6166191" lon="9.426179"><ele>205.0</ele><time>2026-03-31T16:29:18.657Z</time></trkpt><trkpt lat="45.6166333" lon="9.4260189"><ele>205.0</ele><time>2026-03-31T16:29:19.658Z</time></trkpt><trkpt lat="45.6166465" lon="9.425861"><ele>205.0</ele><time>2026-03-31T16:29:20.657Z</time></trkpt><trkpt lat="45.6166571" lon="9.4257011"><ele>205.0</ele><time>2026-03-31T16:29:21.658Z</time></trkpt><trkpt lat="45.6166703" lon="9.4255472"><ele>205.0</ele><time>2026-03-31T16:29:22.658Z</time></trkpt><trkpt lat="45.6166851" lon="9.4253904"><ele>205.0</ele><time>2026-03-31T16:29:23.658Z</time></trkpt><trkpt lat="45.6167008" lon="9.4252362"><ele>205.2</ele><time>2026-03-31T16:29:24.657Z</time></trkpt><trkpt lat="45.6167171" lon="9.4250783"><ele>205.4</ele><time>2026-03-31T16:29:25.658Z</time></trkpt><trkpt lat="45.6167355" lon="9.4249265"><ele>205.60000000000002</ele><time>2026-03-31T16:29:26.658Z</time></trkpt><trkpt lat="45.6167539" lon="9.4247782"><ele>205.8</ele><time>2026-03-31T16:29:27.657Z</time></trkpt><trkpt lat="45.61677" lon="9.4246346"><ele>206.0</ele><time>2026-03-31T16:29:28.658Z</time></trkpt><trkpt lat="45.6167872" lon="9.4244961"><ele>206.00000000000003</ele><time>2026-03-31T16:29:29.657Z</time></trkpt><trkpt lat="45.6168018" lon="9.4243552"><ele>206.0</ele><time>2026-03-31T16:29:30.657Z</time></trkpt><trkpt lat="45.6168153" lon="9.4242273"><ele>206.0</ele><time>2026-03-31T16:29:31.657Z</time></trkpt><trkpt lat="45.6168274" lon="9.4241012"><ele>206.0</ele><time>2026-03-31T16:29:32.657Z</time></trkpt><trkpt lat="45.6168392" lon="9.4239919"><ele>206.00000000000003</ele><time>2026-03-31T16:29:33.658Z</time></trkpt><trkpt lat="45.6168453" lon="9.4238885"><ele>206.0</ele><time>2026-03-31T16:29:34.657Z</time></trkpt><trkpt lat="45.6168521" lon="9.4237937"><ele>205.8</ele><time>2026-03-31T16:29:35.657Z</time></trkpt><trkpt lat="45.6168691" lon="9.4236566"><ele>205.60000000000002</ele><time>2026-03-31T16:29:37.657Z</time></trkpt><trkpt lat="45.6169076" lon="9.4235769"><ele>205.4</ele><time>2026-03-31T16:29:52.657Z</time></trkpt><trkpt lat="45.616947" lon="9.4233678"><ele>205.2</ele><time>2026-03-31T16:29:54.657Z</time></trkpt><trkpt lat="45.6169686" lon="9.4232023"><ele>205.0</ele><time>2026-03-31T16:29:55.657Z</time></trkpt><trkpt lat="45.6169771" lon="9.423021"><ele>205.0</ele><time>2026-03-31T16:29:56.658Z</time></trkpt><trkpt lat="45.6169759" lon="9.4228497"><ele>205.0</ele><time>2026-03-31T16:29:57.657Z</time></trkpt><trkpt lat="45.6169748" lon="9.4226864"><ele>205.0</ele><time>2026-03-31T16:29:58.658Z</time></trkpt><trkpt lat="45.6169721" lon="9.4225261"><ele>205.0</ele><time>2026-03-31T16:29:59.658Z</time></trkpt><trkpt lat="45.6169698" lon="9.422371"><ele>205.0</ele><time>2026-03-31T16:30:00.658Z</time></trkpt><trkpt lat="45.6169674" lon="9.4222231"><ele>205.0</ele><time>2026-03-31T16:30:01.658Z</time></trkpt><trkpt lat="45.6169686" lon="9.4220819"><ele>205.0</ele><time>2026-03-31T16:30:02.657Z</time></trkpt><trkpt lat="45.6169668" lon="9.4219409"><ele>205.0</ele><time>2026-03-31T16:30:03.658Z</time></trkpt><trkpt lat="45.6169686" lon="9.4217946"><ele>205.0</ele><time>2026-03-31T16:30:04.657Z</time></trkpt><trkpt lat="45.6169703" lon="9.4216634"><ele>205.0</ele><time>2026-03-31T16:30:05.658Z</time></trkpt><trkpt lat="45.6169696" lon="9.4215287"><ele>205.0</ele><time>2026-03-31T16:30:06.657Z</time></trkpt><trkpt lat="45.616965" lon="9.4213884"><ele>205.0</ele><time>2026-03-31T16:30:07.657Z</time></trkpt><trkpt lat="45.6169659" lon="9.4212537"><ele>205.0</ele><time>2026-03-31T16:30:08.658Z</time></trkpt><trkpt lat="45.6169598" lon="9.4211167"><ele>205.0</ele><time>2026-03-31T16:30:09.658Z</time></trkpt><trkpt lat="45.6169561" lon="9.4209826"><ele>205.0</ele><time>2026-03-31T16:30:10.657Z</time></trkpt><trkpt lat="45.616946" lon="9.4208479"><ele>205.0</ele><time>2026-03-31T16:30:11.657Z</time></trkpt><trkpt lat="45.6169422" lon="9.420712"><ele>205.0</ele><time>2026-03-31T16:30:12.657Z</time></trkpt><trkpt lat="45.6169349" lon="9.4205708"><ele>205.0</ele><time>2026-03-31T16:30:13.657Z</time></trkpt><trkpt lat="45.6169319" lon="9.420431"><ele>205.0</ele><time>2026-03-31T16:30:14.658Z</time></trkpt><trkpt lat="45.616931" lon="9.4202988"><ele>205.0</ele><time>2026-03-31T16:30:15.657Z</time></trkpt><trkpt lat="45.6169278" lon="9.4201791"><ele>205.0</ele><time>2026-03-31T16:30:16.658Z</time></trkpt><trkpt lat="45.616925" lon="9.4200684"><ele>205.0</ele><time>2026-03-31T16:30:17.657Z</time></trkpt><trkpt lat="45.6169187" lon="9.4199081"><ele>205.0</ele><time>2026-03-31T16:30:19.657Z</time></trkpt><trkpt lat="45.6169094" lon="9.4197507"><ele>205.0</ele><time>2026-03-31T16:30:21.657Z</time></trkpt><trkpt lat="45.6169032" lon="9.4196509"><ele>205.0</ele><time>2026-03-31T16:30:22.657Z</time></trkpt><trkpt lat="45.6168991" lon="9.4195406"><ele>205.0</ele><time>2026-03-31T16:30:23.658Z</time></trkpt><trkpt lat="45.6168946" lon="9.4194381"><ele>205.0</ele><time>2026-03-31T16:30:24.657Z</time></trkpt><trkpt lat="45.6168943" lon="9.4193314"><ele>205.0</ele><time>2026-03-31T16:30:25.658Z</time></trkpt><trkpt lat="45.616897" lon="9.4192307"><ele>205.0</ele><time>2026-03-31T16:30:26.658Z</time></trkpt><trkpt lat="45.6169023" lon="9.4191304"><ele>205.0</ele><time>2026-03-31T16:30:27.657Z</time></trkpt><trkpt lat="45.616899" lon="9.419032"><ele>205.0</ele><time>2026-03-31T16:30:28.657Z</time></trkpt><trkpt lat="45.6169" lon="9.4188693"><ele>204.8</ele><time>2026-03-31T16:30:30.657Z</time></trkpt><trkpt lat="45.6169095" lon="9.4187155"><ele>204.6</ele><time>2026-03-31T16:30:32.657Z</time></trkpt><trkpt lat="45.6169113" lon="9.4185682"><ele>204.39999999999998</ele><time>2026-03-31T16:30:34.658Z</time></trkpt><trkpt lat="45.6169242" lon="9.4184443"><ele>204.2</ele><time>2026-03-31T16:30:36.657Z</time></trkpt><trkpt lat="45.6169443" lon="9.4183073"><ele>204.0</ele><time>2026-03-31T16:30:38.657Z</time></trkpt><trkpt lat="45.6169021" lon="9.41822"><ele>204.0</ele><time>2026-03-31T16:30:40.657Z</time></trkpt><trkpt lat="45.6168066" lon="9.4182109"><ele>204.0</ele><time>2026-03-31T16:30:42.657Z</time></trkpt><trkpt lat="45.6167132" lon="9.4181963"><ele>204.0</ele><time>2026-03-31T16:30:44.657Z</time></trkpt><trkpt lat="45.6166394" lon="9.4182007"><ele>204.0</ele><time>2026-03-31T16:30:48.657Z</time></trkpt><trkpt lat="45.6165554" lon="9.418175"><ele>204.0</ele><time>2026-03-31T16:30:51.657Z</time></trkpt><trkpt lat="45.6164338" lon="9.4181463"><ele>204.0</ele><time>2026-03-31T16:30:53.657Z</time></trkpt><trkpt lat="45.6163234" lon="9.4181108"><ele>204.0</ele><time>2026-03-31T16:30:55.657Z</time></trkpt><trkpt lat="45.6162213" lon="9.418051"><ele>204.0</ele><time>2026-03-31T16:30:57.657Z</time></trkpt><trkpt lat="45.6161088" lon="9.4180267"><ele>204.0</ele><time>2026-03-31T16:30:59.657Z</time></trkpt><trkpt lat="45.6159989" lon="9.41802"><ele>204.0</ele><time>2026-03-31T16:31:01.657Z</time></trkpt><trkpt lat="45.6159284" lon="9.4180117"><ele>203.79999999999998</ele><time>2026-03-31T16:31:02.657Z</time></trkpt><trkpt lat="45.6158308" lon="9.4180022"><ele>203.6</ele><time>2026-03-31T16:31:04.658Z</time></trkpt><trkpt lat="45.6157389" lon="9.4180087"><ele>203.4</ele><time>2026-03-31T16:31:06.658Z</time></trkpt><trkpt lat="45.6156555" lon="9.4180185"><ele>203.2</ele><time>2026-03-31T16:31:08.657Z</time></trkpt><trkpt lat="45.6155767" lon="9.4180675"><ele>203.0</ele><time>2026-03-31T16:31:10.657Z</time></trkpt><trkpt lat="45.6155096" lon="9.4182094"><ele>203.0</ele><time>2026-03-31T16:31:12.657Z</time></trkpt><trkpt lat="45.615466" lon="9.4182928"><ele>203.0</ele><time>2026-03-31T16:31:13.657Z</time></trkpt><trkpt lat="45.6154249" lon="9.4183691"><ele>203.0</ele><time>2026-03-31T16:31:14.658Z</time></trkpt><trkpt lat="45.6153833" lon="9.418449"><ele>203.0</ele><time>2026-03-31T16:31:15.658Z</time></trkpt><trkpt lat="45.6153475" lon="9.4185365"><ele>203.0</ele><time>2026-03-31T16:31:16.657Z</time></trkpt><trkpt lat="45.6153271" lon="9.4186326"><ele>203.0</ele><time>2026-03-31T16:31:17.657Z</time></trkpt><trkpt lat="45.6153235" lon="9.4187344"><ele>203.0</ele><time>2026-03-31T16:31:18.657Z</time></trkpt><trkpt lat="45.6153224" lon="9.4188392"><ele>202.83333333333334</ele><time>2026-03-31T16:31:19.658Z</time></trkpt><trkpt lat="45.615319" lon="9.4189371"><ele>202.66666666666669</ele><time>2026-03-31T16:31:20.658Z</time></trkpt><trkpt lat="45.6153148" lon="9.4191108"><ele>202.5</ele><time>2026-03-31T16:31:22.658Z</time></trkpt><trkpt lat="45.6153145" lon="9.4192616"><ele>202.33333333333331</ele><time>2026-03-31T16:31:24.657Z</time></trkpt><trkpt lat="45.6152938" lon="9.4193639"><ele>202.16666666666666</ele><time>2026-03-31T16:31:26.657Z</time></trkpt><trkpt lat="45.6152239" lon="9.4193474"><ele>202.0</ele><time>2026-03-31T16:32:07.658Z</time></trkpt><trkpt lat="45.615171" lon="9.4194323"><ele>202.0</ele><time>2026-03-31T16:32:32.657Z</time></trkpt><trkpt lat="45.6152397" lon="9.4194401"><ele>202.0</ele><time>2026-03-31T16:32:41.136Z</time></trkpt><trkpt lat="45.6151987" lon="9.4193566"><ele>202.0</ele><time>2026-03-31T16:33:08.673Z</time></trkpt><trkpt lat="45.6151585" lon="9.419463"><ele>202.0</ele><time>2026-03-31T16:33:39.673Z</time></trkpt><trkpt lat="45.615124" lon="9.4195403"><ele>202.0</ele><time>2026-03-31T16:34:11.673Z</time></trkpt></trkseg></trk></gpx>